<?xml version="1.0" encoding="UTF-8" standalone="no" ?>
<gpx xmlns="http://www.topografix.com/GPX/1/1" xmlns:xsi="http://www.w3.org/2001/XMLSchema-instance" xsi:schemaLocation="http://www.topografix.com/GPX/1/1 http://www.topografix.com/GPX/1/1/gpx.xsd" version="1.1" creator="VisuGPX - https://www.visugpx.com">
  <metadata>
    <name>Pascal Duquenne Classic 100 kms</name>
  </metadata>
  <wpt lat="50.62997" lon="3.54964">
    <ele>79.8</ele>
    <name><![CDATA[Ravito]]></name>
    <type><![CDATA[FOOD]]></type>
  </wpt>
  <trk>
    <name><![CDATA[Pascal Duquenne Classic 100 kms]]></name>
    <trkseg>
      <trkpt lat="50.546" lon="3.33987">
        <ele>60.23</ele>
        <time>2023-05-12T10:20:45.000Z</time>
      </trkpt>
      <trkpt lat="50.5463" lon="3.34006">
        <ele>60.52</ele>
        <time>2023-05-12T10:20:45.005Z</time>
      </trkpt>
      <trkpt lat="50.54665" lon="3.34027">
        <ele>60.3</ele>
        <time>2023-05-12T10:20:45.016Z</time>
      </trkpt>
      <trkpt lat="50.54678" lon="3.34035">
        <ele>59.76</ele>
        <time>2023-05-12T10:20:45.029Z</time>
      </trkpt>
      <trkpt lat="50.54703" lon="3.34047">
        <ele>61.06</ele>
        <time>2023-05-12T10:20:45.047Z</time>
      </trkpt>
      <trkpt lat="50.54734" lon="3.34061">
        <ele>61.08</ele>
        <time>2023-05-12T10:20:45.070Z</time>
      </trkpt>
      <trkpt lat="50.54765" lon="3.34081">
        <ele>61.14</ele>
        <time>2023-05-12T10:20:45.098Z</time>
      </trkpt>
      <trkpt lat="50.54787" lon="3.34095">
        <ele>61.13</ele>
        <time>2023-05-12T10:20:45.130Z</time>
      </trkpt>
      <trkpt lat="50.54822" lon="3.34122">
        <ele>61.02</ele>
        <time>2023-05-12T10:20:45.168Z</time>
      </trkpt>
      <trkpt lat="50.54835" lon="3.34127">
        <ele>60.95</ele>
        <time>2023-05-12T10:20:45.208Z</time>
      </trkpt>
      <trkpt lat="50.54854" lon="3.34131">
        <ele>60.8</ele>
        <time>2023-05-12T10:20:45.251Z</time>
      </trkpt>
      <trkpt lat="50.54884" lon="3.34136">
        <ele>60.7</ele>
        <time>2023-05-12T10:20:45.299Z</time>
      </trkpt>
      <trkpt lat="50.54906" lon="3.34146">
        <ele>60.74</ele>
        <time>2023-05-12T10:20:45.351Z</time>
      </trkpt>
      <trkpt lat="50.54929" lon="3.34157">
        <ele>60.78</ele>
        <time>2023-05-12T10:20:45.407Z</time>
      </trkpt>
      <trkpt lat="50.54932" lon="3.34158">
        <ele>60.77</ele>
        <time>2023-05-12T10:20:45.463Z</time>
      </trkpt>
      <trkpt lat="50.54946" lon="3.34164">
        <ele>60.75</ele>
        <time>2023-05-12T10:20:45.522Z</time>
      </trkpt>
      <trkpt lat="50.5496" lon="3.34169">
        <ele>60.7</ele>
        <time>2023-05-12T10:20:45.583Z</time>
      </trkpt>
      <trkpt lat="50.54971" lon="3.34173">
        <ele>60.66</ele>
        <time>2023-05-12T10:20:45.646Z</time>
      </trkpt>
      <trkpt lat="50.54982" lon="3.34177">
        <ele>60.61</ele>
        <time>2023-05-12T10:20:45.711Z</time>
      </trkpt>
      <trkpt lat="50.54991" lon="3.34175">
        <ele>60.6</ele>
        <time>2023-05-12T10:20:45.777Z</time>
      </trkpt>
      <trkpt lat="50.54994" lon="3.34177">
        <ele>60.56</ele>
        <time>2023-05-12T10:20:45.843Z</time>
      </trkpt>
      <trkpt lat="50.54998" lon="3.34176">
        <ele>60.52</ele>
        <time>2023-05-12T10:20:45.910Z</time>
      </trkpt>
      <trkpt lat="50.55016" lon="3.34193">
        <ele>60.39</ele>
        <time>2023-05-12T10:20:45.980Z</time>
      </trkpt>
      <trkpt lat="50.55072" lon="3.3433">
        <ele>60.44</ele>
        <time>2023-05-12T10:20:46.067Z</time>
      </trkpt>
      <trkpt lat="50.55104" lon="3.34381">
        <ele>60.11</ele>
        <time>2023-05-12T10:20:46.161Z</time>
      </trkpt>
      <trkpt lat="50.55127" lon="3.34429">
        <ele>59.73</ele>
        <time>2023-05-12T10:20:46.261Z</time>
      </trkpt>
      <trkpt lat="50.55157" lon="3.34526">
        <ele>59.79</ele>
        <time>2023-05-12T10:20:46.372Z</time>
      </trkpt>
      <trkpt lat="50.55157" lon="3.34525">
        <ele>59.79</ele>
        <time>2023-05-12T10:20:46.483Z</time>
      </trkpt>
      <trkpt lat="50.55157" lon="3.34525">
        <ele>59.79</ele>
        <time>2023-05-12T10:20:46.595Z</time>
      </trkpt>
      <trkpt lat="50.55157" lon="3.34525">
        <ele>59.79</ele>
        <time>2023-05-12T10:20:46.707Z</time>
      </trkpt>
      <trkpt lat="50.55157" lon="3.34525">
        <ele>59.82</ele>
        <time>2023-05-12T10:20:46.819Z</time>
      </trkpt>
      <trkpt lat="50.55157" lon="3.34525">
        <ele>59.82</ele>
        <time>2023-05-12T10:20:46.931Z</time>
      </trkpt>
      <trkpt lat="50.55157" lon="3.34525">
        <ele>59.82</ele>
        <time>2023-05-12T10:20:47.043Z</time>
      </trkpt>
      <trkpt lat="50.55157" lon="3.34524">
        <ele>59.83</ele>
        <time>2023-05-12T10:20:47.155Z</time>
      </trkpt>
      <trkpt lat="50.55182" lon="3.34606">
        <ele>59.8</ele>
        <time>2023-05-12T10:20:47.276Z</time>
      </trkpt>
      <trkpt lat="50.55214" lon="3.34716">
        <ele>59.96</ele>
        <time>2023-05-12T10:20:47.409Z</time>
      </trkpt>
      <trkpt lat="50.55224" lon="3.34741">
        <ele>59.88</ele>
        <time>2023-05-12T10:20:47.545Z</time>
      </trkpt>
      <trkpt lat="50.55228" lon="3.3475">
        <ele>59.65</ele>
        <time>2023-05-12T10:20:47.682Z</time>
      </trkpt>
      <trkpt lat="50.55234" lon="3.34759">
        <ele>59.29</ele>
        <time>2023-05-12T10:20:47.821Z</time>
      </trkpt>
      <trkpt lat="50.55268" lon="3.3479">
        <ele>58.77</ele>
        <time>2023-05-12T10:20:47.966Z</time>
      </trkpt>
      <trkpt lat="50.55307" lon="3.34833">
        <ele>58.26</ele>
        <time>2023-05-12T10:20:48.119Z</time>
      </trkpt>
      <trkpt lat="50.55317" lon="3.3482">
        <ele>57.66</ele>
        <time>2023-05-12T10:20:48.274Z</time>
      </trkpt>
      <trkpt lat="50.55358" lon="3.34795">
        <ele>56.77</ele>
        <time>2023-05-12T10:20:48.436Z</time>
      </trkpt>
      <trkpt lat="50.55365" lon="3.34793">
        <ele>56.02</ele>
        <time>2023-05-12T10:20:48.599Z</time>
      </trkpt>
      <trkpt lat="50.55414" lon="3.34794">
        <ele>54.96</ele>
        <time>2023-05-12T10:20:48.770Z</time>
      </trkpt>
      <trkpt lat="50.55444" lon="3.34787">
        <ele>54.13</ele>
        <time>2023-05-12T10:20:48.946Z</time>
      </trkpt>
      <trkpt lat="50.55446" lon="3.34789">
        <ele>53.52</ele>
        <time>2023-05-12T10:20:49.122Z</time>
      </trkpt>
      <trkpt lat="50.55461" lon="3.34783">
        <ele>53.02</ele>
        <time>2023-05-12T10:20:49.300Z</time>
      </trkpt>
      <trkpt lat="50.55461" lon="3.34783">
        <ele>52.62</ele>
        <time>2023-05-12T10:20:49.478Z</time>
      </trkpt>
      <trkpt lat="50.55513" lon="3.3476">
        <ele>52.24</ele>
        <time>2023-05-12T10:20:49.665Z</time>
      </trkpt>
      <trkpt lat="50.55521" lon="3.34761">
        <ele>51.99</ele>
        <time>2023-05-12T10:20:49.853Z</time>
      </trkpt>
      <trkpt lat="50.55527" lon="3.34765">
        <ele>51.81</ele>
        <time>2023-05-12T10:20:50.042Z</time>
      </trkpt>
      <trkpt lat="50.55534" lon="3.34776">
        <ele>51.74</ele>
        <time>2023-05-12T10:20:50.233Z</time>
      </trkpt>
      <trkpt lat="50.55539" lon="3.34803">
        <ele>51.75</ele>
        <time>2023-05-12T10:20:50.427Z</time>
      </trkpt>
      <trkpt lat="50.55548" lon="3.34877">
        <ele>51.75</ele>
        <time>2023-05-12T10:20:50.629Z</time>
      </trkpt>
      <trkpt lat="50.55551" lon="3.34888">
        <ele>51.84</ele>
        <time>2023-05-12T10:20:50.832Z</time>
      </trkpt>
      <trkpt lat="50.55555" lon="3.34897">
        <ele>51.98</ele>
        <time>2023-05-12T10:20:51.036Z</time>
      </trkpt>
      <trkpt lat="50.55562" lon="3.34906">
        <ele>52.18</ele>
        <time>2023-05-12T10:20:51.241Z</time>
      </trkpt>
      <trkpt lat="50.55576" lon="3.34915">
        <ele>52.43</ele>
        <time>2023-05-12T10:20:51.449Z</time>
      </trkpt>
      <trkpt lat="50.55583" lon="3.34921">
        <ele>52.5</ele>
        <time>2023-05-12T10:20:51.658Z</time>
      </trkpt>
      <trkpt lat="50.55628" lon="3.34924">
        <ele>52.29</ele>
        <time>2023-05-12T10:20:51.874Z</time>
      </trkpt>
      <trkpt lat="50.55697" lon="3.34946">
        <ele>52.05</ele>
        <time>2023-05-12T10:20:52.102Z</time>
      </trkpt>
      <trkpt lat="50.55697" lon="3.34946">
        <ele>52.06</ele>
        <time>2023-05-12T10:20:52.330Z</time>
      </trkpt>
      <trkpt lat="50.55744" lon="3.3496">
        <ele>50.1</ele>
        <time>2023-05-12T10:20:52.565Z</time>
      </trkpt>
      <trkpt lat="50.55745" lon="3.3496">
        <ele>50.09</ele>
        <time>2023-05-12T10:20:52.800Z</time>
      </trkpt>
      <trkpt lat="50.55745" lon="3.3496">
        <ele>50.08</ele>
        <time>2023-05-12T10:20:53.035Z</time>
      </trkpt>
      <trkpt lat="50.55745" lon="3.3496">
        <ele>50.08</ele>
        <time>2023-05-12T10:20:53.270Z</time>
      </trkpt>
      <trkpt lat="50.55745" lon="3.3496">
        <ele>50.08</ele>
        <time>2023-05-12T10:20:53.505Z</time>
      </trkpt>
      <trkpt lat="50.55745" lon="3.3496">
        <ele>50.08</ele>
        <time>2023-05-12T10:20:53.740Z</time>
      </trkpt>
      <trkpt lat="50.55881" lon="3.34999">
        <ele>48.28</ele>
        <time>2023-05-12T10:20:53.998Z</time>
      </trkpt>
      <trkpt lat="50.55892" lon="3.35006">
        <ele>47.75</ele>
        <time>2023-05-12T10:20:54.257Z</time>
      </trkpt>
      <trkpt lat="50.55908" lon="3.35018">
        <ele>47.58</ele>
        <time>2023-05-12T10:20:54.519Z</time>
      </trkpt>
      <trkpt lat="50.55921" lon="3.35037">
        <ele>47.66</ele>
        <time>2023-05-12T10:20:54.784Z</time>
      </trkpt>
      <trkpt lat="50.55917" lon="3.35057">
        <ele>47.98</ele>
        <time>2023-05-12T10:20:55.051Z</time>
      </trkpt>
      <trkpt lat="50.55905" lon="3.35167">
        <ele>48.74</ele>
        <time>2023-05-12T10:20:55.330Z</time>
      </trkpt>
      <trkpt lat="50.55896" lon="3.35226">
        <ele>49.71</ele>
        <time>2023-05-12T10:20:55.615Z</time>
      </trkpt>
      <trkpt lat="50.55888" lon="3.35289">
        <ele>50.9</ele>
        <time>2023-05-12T10:20:55.906Z</time>
      </trkpt>
      <trkpt lat="50.5588" lon="3.35367">
        <ele>52.19</ele>
        <time>2023-05-12T10:20:56.205Z</time>
      </trkpt>
      <trkpt lat="50.55876" lon="3.35462">
        <ele>53.91</ele>
        <time>2023-05-12T10:20:56.514Z</time>
      </trkpt>
      <trkpt lat="50.55879" lon="3.35799">
        <ele>57.3</ele>
        <time>2023-05-12T10:20:56.858Z</time>
      </trkpt>
      <trkpt lat="50.55883" lon="3.359">
        <ele>61.74</ele>
        <time>2023-05-12T10:20:57.212Z</time>
      </trkpt>
      <trkpt lat="50.55883" lon="3.359">
        <ele>61.75</ele>
        <time>2023-05-12T10:20:57.566Z</time>
      </trkpt>
      <trkpt lat="50.55883" lon="3.359">
        <ele>61.76</ele>
        <time>2023-05-12T10:20:57.920Z</time>
      </trkpt>
      <trkpt lat="50.55883" lon="3.359">
        <ele>61.76</ele>
        <time>2023-05-12T10:20:58.274Z</time>
      </trkpt>
      <trkpt lat="50.55883" lon="3.359">
        <ele>61.84</ele>
        <time>2023-05-12T10:20:58.628Z</time>
      </trkpt>
      <trkpt lat="50.55883" lon="3.359">
        <ele>61.84</ele>
        <time>2023-05-12T10:20:58.982Z</time>
      </trkpt>
      <trkpt lat="50.55883" lon="3.359">
        <ele>61.85</ele>
        <time>2023-05-12T10:20:59.336Z</time>
      </trkpt>
      <trkpt lat="50.55883" lon="3.35899">
        <ele>61.85</ele>
        <time>2023-05-12T10:20:59.690Z</time>
      </trkpt>
      <trkpt lat="50.55883" lon="3.359">
        <ele>61.89</ele>
        <time>2023-05-12T10:21:00.044Z</time>
      </trkpt>
      <trkpt lat="50.55883" lon="3.35899">
        <ele>61.9</ele>
        <time>2023-05-12T10:21:00.398Z</time>
      </trkpt>
      <trkpt lat="50.55888" lon="3.36021">
        <ele>63.11</ele>
        <time>2023-05-12T10:21:00.765Z</time>
      </trkpt>
      <trkpt lat="50.55893" lon="3.36112">
        <ele>63.98</ele>
        <time>2023-05-12T10:21:01.141Z</time>
      </trkpt>
      <trkpt lat="50.55895" lon="3.36179">
        <ele>64.63</ele>
        <time>2023-05-12T10:21:01.524Z</time>
      </trkpt>
      <trkpt lat="50.55892" lon="3.36207">
        <ele>65.04</ele>
        <time>2023-05-12T10:21:01.910Z</time>
      </trkpt>
      <trkpt lat="50.55887" lon="3.36239">
        <ele>65.36</ele>
        <time>2023-05-12T10:21:02.299Z</time>
      </trkpt>
      <trkpt lat="50.55828" lon="3.36467">
        <ele>66.07</ele>
        <time>2023-05-12T10:21:02.713Z</time>
      </trkpt>
      <trkpt lat="50.55774" lon="3.36646">
        <ele>65.98</ele>
        <time>2023-05-12T10:21:03.147Z</time>
      </trkpt>
      <trkpt lat="50.55771" lon="3.36663">
        <ele>65.91</ele>
        <time>2023-05-12T10:21:03.583Z</time>
      </trkpt>
      <trkpt lat="50.55773" lon="3.36684">
        <ele>66.16</ele>
        <time>2023-05-12T10:21:04.021Z</time>
      </trkpt>
      <trkpt lat="50.55779" lon="3.36697">
        <ele>66.56</ele>
        <time>2023-05-12T10:21:04.461Z</time>
      </trkpt>
      <trkpt lat="50.55874" lon="3.36834">
        <ele>67.5</ele>
        <time>2023-05-12T10:21:04.922Z</time>
      </trkpt>
      <trkpt lat="50.55882" lon="3.36841">
        <ele>67.85</ele>
        <time>2023-05-12T10:21:05.384Z</time>
      </trkpt>
      <trkpt lat="50.55894" lon="3.36844">
        <ele>68.13</ele>
        <time>2023-05-12T10:21:05.848Z</time>
      </trkpt>
      <trkpt lat="50.559" lon="3.36848">
        <ele>68.19</ele>
        <time>2023-05-12T10:21:06.313Z</time>
      </trkpt>
      <trkpt lat="50.55908" lon="3.36848">
        <ele>68.06</ele>
        <time>2023-05-12T10:21:06.779Z</time>
      </trkpt>
      <trkpt lat="50.55917" lon="3.36852">
        <ele>67.52</ele>
        <time>2023-05-12T10:21:07.247Z</time>
      </trkpt>
      <trkpt lat="50.56145" lon="3.37169">
        <ele>65.53</ele>
        <time>2023-05-12T10:21:07.764Z</time>
      </trkpt>
      <trkpt lat="50.56145" lon="3.37169">
        <ele>65.53</ele>
        <time>2023-05-12T10:21:08.281Z</time>
      </trkpt>
      <trkpt lat="50.56145" lon="3.37169">
        <ele>65.53</ele>
        <time>2023-05-12T10:21:08.798Z</time>
      </trkpt>
      <trkpt lat="50.56145" lon="3.3717">
        <ele>65.53</ele>
        <time>2023-05-12T10:21:09.315Z</time>
      </trkpt>
      <trkpt lat="50.56145" lon="3.3717">
        <ele>65.53</ele>
        <time>2023-05-12T10:21:09.832Z</time>
      </trkpt>
      <trkpt lat="50.56145" lon="3.3717">
        <ele>65.53</ele>
        <time>2023-05-12T10:21:10.349Z</time>
      </trkpt>
      <trkpt lat="50.56145" lon="3.3717">
        <ele>65.53</ele>
        <time>2023-05-12T10:21:10.866Z</time>
      </trkpt>
      <trkpt lat="50.56187" lon="3.37229">
        <ele>65.44</ele>
        <time>2023-05-12T10:21:11.392Z</time>
      </trkpt>
      <trkpt lat="50.56199" lon="3.3725">
        <ele>65.44</ele>
        <time>2023-05-12T10:21:11.921Z</time>
      </trkpt>
      <trkpt lat="50.56206" lon="3.3727">
        <ele>65.62</ele>
        <time>2023-05-12T10:21:12.452Z</time>
      </trkpt>
      <trkpt lat="50.56213" lon="3.37334">
        <ele>65.63</ele>
        <time>2023-05-12T10:21:12.990Z</time>
      </trkpt>
      <trkpt lat="50.56216" lon="3.37349">
        <ele>65.23</ele>
        <time>2023-05-12T10:21:13.529Z</time>
      </trkpt>
      <trkpt lat="50.56221" lon="3.37356">
        <ele>64.48</ele>
        <time>2023-05-12T10:21:14.070Z</time>
      </trkpt>
      <trkpt lat="50.56239" lon="3.37368">
        <ele>63.39</ele>
        <time>2023-05-12T10:21:14.614Z</time>
      </trkpt>
      <trkpt lat="50.56193" lon="3.37455">
        <ele>61.83</ele>
        <time>2023-05-12T10:21:15.169Z</time>
      </trkpt>
      <trkpt lat="50.56126" lon="3.37544">
        <ele>59.03</ele>
        <time>2023-05-12T10:21:15.738Z</time>
      </trkpt>
      <trkpt lat="50.55896" lon="3.37821">
        <ele>54.99</ele>
        <time>2023-05-12T10:21:16.354Z</time>
      </trkpt>
      <trkpt lat="50.55869" lon="3.37866">
        <ele>52.51</ele>
        <time>2023-05-12T10:21:16.976Z</time>
      </trkpt>
      <trkpt lat="50.5584" lon="3.37928">
        <ele>50.28</ele>
        <time>2023-05-12T10:21:17.606Z</time>
      </trkpt>
      <trkpt lat="50.55812" lon="3.37998">
        <ele>48.34</ele>
        <time>2023-05-12T10:21:18.244Z</time>
      </trkpt>
      <trkpt lat="50.55776" lon="3.38065">
        <ele>46.18</ele>
        <time>2023-05-12T10:21:18.891Z</time>
      </trkpt>
      <trkpt lat="50.55737" lon="3.38139">
        <ele>44.64</ele>
        <time>2023-05-12T10:21:19.548Z</time>
      </trkpt>
      <trkpt lat="50.5568" lon="3.38243">
        <ele>43.27</ele>
        <time>2023-05-12T10:21:20.219Z</time>
      </trkpt>
      <trkpt lat="50.55646" lon="3.38302">
        <ele>42.39</ele>
        <time>2023-05-12T10:21:20.898Z</time>
      </trkpt>
      <trkpt lat="50.5564" lon="3.38314">
        <ele>42.07</ele>
        <time>2023-05-12T10:21:21.579Z</time>
      </trkpt>
      <trkpt lat="50.5564" lon="3.38314">
        <ele>42.07</ele>
        <time>2023-05-12T10:21:22.260Z</time>
      </trkpt>
      <trkpt lat="50.5564" lon="3.38314">
        <ele>42.07</ele>
        <time>2023-05-12T10:21:22.941Z</time>
      </trkpt>
      <trkpt lat="50.5564" lon="3.38314">
        <ele>42.07</ele>
        <time>2023-05-12T10:21:23.622Z</time>
      </trkpt>
      <trkpt lat="50.5564" lon="3.38314">
        <ele>42.07</ele>
        <time>2023-05-12T10:21:24.303Z</time>
      </trkpt>
      <trkpt lat="50.5564" lon="3.38316">
        <ele>42.03</ele>
        <time>2023-05-12T10:21:24.984Z</time>
      </trkpt>
      <trkpt lat="50.5564" lon="3.38316">
        <ele>42.03</ele>
        <time>2023-05-12T10:21:25.665Z</time>
      </trkpt>
      <trkpt lat="50.5564" lon="3.38316">
        <ele>42.26</ele>
        <time>2023-05-12T10:21:26.346Z</time>
      </trkpt>
      <trkpt lat="50.55624" lon="3.38348">
        <ele>41.47</ele>
        <time>2023-05-12T10:21:27.031Z</time>
      </trkpt>
      <trkpt lat="50.55624" lon="3.38348">
        <ele>40.73</ele>
        <time>2023-05-12T10:21:27.716Z</time>
      </trkpt>
      <trkpt lat="50.55594" lon="3.3841">
        <ele>39.28</ele>
        <time>2023-05-12T10:21:28.409Z</time>
      </trkpt>
      <trkpt lat="50.55503" lon="3.38637">
        <ele>37.84</ele>
        <time>2023-05-12T10:21:29.129Z</time>
      </trkpt>
      <trkpt lat="50.55461" lon="3.38747">
        <ele>37.03</ele>
        <time>2023-05-12T10:21:29.862Z</time>
      </trkpt>
      <trkpt lat="50.55355" lon="3.38973">
        <ele>35.97</ele>
        <time>2023-05-12T10:21:30.624Z</time>
      </trkpt>
      <trkpt lat="50.55343" lon="3.38997">
        <ele>35.25</ele>
        <time>2023-05-12T10:21:31.389Z</time>
      </trkpt>
      <trkpt lat="50.5534" lon="3.39007">
        <ele>34.69</ele>
        <time>2023-05-12T10:21:32.155Z</time>
      </trkpt>
      <trkpt lat="50.55337" lon="3.39011">
        <ele>34.22</ele>
        <time>2023-05-12T10:21:32.922Z</time>
      </trkpt>
      <trkpt lat="50.55326" lon="3.3903">
        <ele>33.72</ele>
        <time>2023-05-12T10:21:33.691Z</time>
      </trkpt>
      <trkpt lat="50.55317" lon="3.39038">
        <ele>33.3</ele>
        <time>2023-05-12T10:21:34.462Z</time>
      </trkpt>
      <trkpt lat="50.55312" lon="3.39036">
        <ele>33.02</ele>
        <time>2023-05-12T10:21:35.234Z</time>
      </trkpt>
      <trkpt lat="50.55307" lon="3.3904">
        <ele>32.85</ele>
        <time>2023-05-12T10:21:36.007Z</time>
      </trkpt>
      <trkpt lat="50.55306" lon="3.39051">
        <ele>32.86</ele>
        <time>2023-05-12T10:21:36.781Z</time>
      </trkpt>
      <trkpt lat="50.55311" lon="3.39058">
        <ele>33.06</ele>
        <time>2023-05-12T10:21:37.556Z</time>
      </trkpt>
      <trkpt lat="50.55307" lon="3.39087">
        <ele>33.4</ele>
        <time>2023-05-12T10:21:38.334Z</time>
      </trkpt>
      <trkpt lat="50.55257" lon="3.39262">
        <ele>34.12</ele>
        <time>2023-05-12T10:21:39.131Z</time>
      </trkpt>
      <trkpt lat="50.55243" lon="3.39295">
        <ele>35.07</ele>
        <time>2023-05-12T10:21:39.933Z</time>
      </trkpt>
      <trkpt lat="50.55107" lon="3.3951">
        <ele>35.69</ele>
        <time>2023-05-12T10:21:40.765Z</time>
      </trkpt>
      <trkpt lat="50.55107" lon="3.3951">
        <ele>35.69</ele>
        <time>2023-05-12T10:21:41.598Z</time>
      </trkpt>
      <trkpt lat="50.55107" lon="3.3951">
        <ele>35.7</ele>
        <time>2023-05-12T10:21:42.431Z</time>
      </trkpt>
      <trkpt lat="50.55107" lon="3.39509">
        <ele>35.7</ele>
        <time>2023-05-12T10:21:43.264Z</time>
      </trkpt>
      <trkpt lat="50.55107" lon="3.39509">
        <ele>35.71</ele>
        <time>2023-05-12T10:21:44.097Z</time>
      </trkpt>
      <trkpt lat="50.55107" lon="3.3951">
        <ele>35.72</ele>
        <time>2023-05-12T10:21:44.930Z</time>
      </trkpt>
      <trkpt lat="50.55106" lon="3.39511">
        <ele>35.73</ele>
        <time>2023-05-12T10:21:45.763Z</time>
      </trkpt>
      <trkpt lat="50.55107" lon="3.39511">
        <ele>35.74</ele>
        <time>2023-05-12T10:21:46.596Z</time>
      </trkpt>
      <trkpt lat="50.55058" lon="3.39587">
        <ele>35.16</ele>
        <time>2023-05-12T10:21:47.440Z</time>
      </trkpt>
      <trkpt lat="50.55043" lon="3.39618">
        <ele>34.7</ele>
        <time>2023-05-12T10:21:48.288Z</time>
      </trkpt>
      <trkpt lat="50.55031" lon="3.3965">
        <ele>34.52</ele>
        <time>2023-05-12T10:21:49.140Z</time>
      </trkpt>
      <trkpt lat="50.55017" lon="3.39699">
        <ele>34.35</ele>
        <time>2023-05-12T10:21:49.997Z</time>
      </trkpt>
      <trkpt lat="50.55012" lon="3.39719">
        <ele>34.2</ele>
        <time>2023-05-12T10:21:50.856Z</time>
      </trkpt>
      <trkpt lat="50.55149" lon="3.39847">
        <ele>33.96</ele>
        <time>2023-05-12T10:21:51.741Z</time>
      </trkpt>
      <trkpt lat="50.55351" lon="3.40034">
        <ele>33.46</ele>
        <time>2023-05-12T10:21:52.663Z</time>
      </trkpt>
      <trkpt lat="50.55372" lon="3.40064">
        <ele>33.41</ele>
        <time>2023-05-12T10:21:53.590Z</time>
      </trkpt>
      <trkpt lat="50.55396" lon="3.40037">
        <ele>33.6</ele>
        <time>2023-05-12T10:21:54.522Z</time>
      </trkpt>
      <trkpt lat="50.55413" lon="3.40037">
        <ele>33.85</ele>
        <time>2023-05-12T10:21:55.456Z</time>
      </trkpt>
      <trkpt lat="50.55516" lon="3.40117">
        <ele>35.13</ele>
        <time>2023-05-12T10:21:56.409Z</time>
      </trkpt>
      <trkpt lat="50.55533" lon="3.40141">
        <ele>35.41</ele>
        <time>2023-05-12T10:21:57.365Z</time>
      </trkpt>
      <trkpt lat="50.55519" lon="3.40172">
        <ele>35.19</ele>
        <time>2023-05-12T10:21:58.325Z</time>
      </trkpt>
      <trkpt lat="50.55477" lon="3.40283">
        <ele>34.36</ele>
        <time>2023-05-12T10:21:59.299Z</time>
      </trkpt>
      <trkpt lat="50.55454" lon="3.40384">
        <ele>33.21</ele>
        <time>2023-05-12T10:22:00.283Z</time>
      </trkpt>
      <trkpt lat="50.55438" lon="3.40459">
        <ele>32.15</ele>
        <time>2023-05-12T10:22:01.276Z</time>
      </trkpt>
      <trkpt lat="50.55426" lon="3.40533">
        <ele>31.18</ele>
        <time>2023-05-12T10:22:02.276Z</time>
      </trkpt>
      <trkpt lat="50.55423" lon="3.40635">
        <ele>30</ele>
        <time>2023-05-12T10:22:03.287Z</time>
      </trkpt>
      <trkpt lat="50.55423" lon="3.40685">
        <ele>29.44</ele>
        <time>2023-05-12T10:22:04.303Z</time>
      </trkpt>
      <trkpt lat="50.5544" lon="3.40777">
        <ele>29.38</ele>
        <time>2023-05-12T10:22:05.329Z</time>
      </trkpt>
      <trkpt lat="50.55459" lon="3.40862">
        <ele>29.86</ele>
        <time>2023-05-12T10:22:06.364Z</time>
      </trkpt>
      <trkpt lat="50.55491" lon="3.40865">
        <ele>31.04</ele>
        <time>2023-05-12T10:22:07.404Z</time>
      </trkpt>
      <trkpt lat="50.55797" lon="3.40766">
        <ele>34.23</ele>
        <time>2023-05-12T10:22:08.494Z</time>
      </trkpt>
      <trkpt lat="50.55872" lon="3.40738">
        <ele>36.03</ele>
        <time>2023-05-12T10:22:09.596Z</time>
      </trkpt>
      <trkpt lat="50.55926" lon="3.40716">
        <ele>37.75</ele>
        <time>2023-05-12T10:22:10.707Z</time>
      </trkpt>
      <trkpt lat="50.55961" lon="3.40698">
        <ele>39.21</ele>
        <time>2023-05-12T10:22:11.824Z</time>
      </trkpt>
      <trkpt lat="50.55961" lon="3.40698">
        <ele>40.41</ele>
        <time>2023-05-12T10:22:12.941Z</time>
      </trkpt>
      <trkpt lat="50.56017" lon="3.40676">
        <ele>41.59</ele>
        <time>2023-05-12T10:22:14.067Z</time>
      </trkpt>
      <trkpt lat="50.56024" lon="3.40673">
        <ele>42.83</ele>
        <time>2023-05-12T10:22:15.195Z</time>
      </trkpt>
      <trkpt lat="50.56024" lon="3.40673">
        <ele>44.1</ele>
        <time>2023-05-12T10:22:16.323Z</time>
      </trkpt>
      <trkpt lat="50.56171" lon="3.40617">
        <ele>46.35</ele>
        <time>2023-05-12T10:22:17.475Z</time>
      </trkpt>
      <trkpt lat="50.5625" lon="3.4059">
        <ele>48.11</ele>
        <time>2023-05-12T10:22:18.640Z</time>
      </trkpt>
      <trkpt lat="50.56313" lon="3.40575">
        <ele>50.46</ele>
        <time>2023-05-12T10:22:19.815Z</time>
      </trkpt>
      <trkpt lat="50.5635" lon="3.40797">
        <ele>53</ele>
        <time>2023-05-12T10:22:21.013Z</time>
      </trkpt>
      <trkpt lat="50.5635" lon="3.40796">
        <ele>53.01</ele>
        <time>2023-05-12T10:22:22.211Z</time>
      </trkpt>
      <trkpt lat="50.5635" lon="3.40796">
        <ele>53.02</ele>
        <time>2023-05-12T10:22:23.409Z</time>
      </trkpt>
      <trkpt lat="50.5635" lon="3.40795">
        <ele>53.03</ele>
        <time>2023-05-12T10:22:24.607Z</time>
      </trkpt>
      <trkpt lat="50.5635" lon="3.40795">
        <ele>53.04</ele>
        <time>2023-05-12T10:22:25.805Z</time>
      </trkpt>
      <trkpt lat="50.5635" lon="3.40795">
        <ele>53.05</ele>
        <time>2023-05-12T10:22:27.003Z</time>
      </trkpt>
      <trkpt lat="50.5635" lon="3.40798">
        <ele>53.1</ele>
        <time>2023-05-12T10:22:28.202Z</time>
      </trkpt>
      <trkpt lat="50.5635" lon="3.40798">
        <ele>53.11</ele>
        <time>2023-05-12T10:22:29.401Z</time>
      </trkpt>
      <trkpt lat="50.56355" lon="3.40823">
        <ele>55.91</ele>
        <time>2023-05-12T10:22:30.603Z</time>
      </trkpt>
      <trkpt lat="50.56388" lon="3.41027">
        <ele>57.99</ele>
        <time>2023-05-12T10:22:31.826Z</time>
      </trkpt>
      <trkpt lat="50.56388" lon="3.41026">
        <ele>58</ele>
        <time>2023-05-12T10:22:33.049Z</time>
      </trkpt>
      <trkpt lat="50.56388" lon="3.41026">
        <ele>58.01</ele>
        <time>2023-05-12T10:22:34.272Z</time>
      </trkpt>
      <trkpt lat="50.56388" lon="3.41025">
        <ele>58.02</ele>
        <time>2023-05-12T10:22:35.495Z</time>
      </trkpt>
      <trkpt lat="50.56388" lon="3.41025">
        <ele>58.03</ele>
        <time>2023-05-12T10:22:36.718Z</time>
      </trkpt>
      <trkpt lat="50.56388" lon="3.41025">
        <ele>58.04</ele>
        <time>2023-05-12T10:22:37.941Z</time>
      </trkpt>
      <trkpt lat="50.56389" lon="3.41029">
        <ele>58.1</ele>
        <time>2023-05-12T10:22:39.165Z</time>
      </trkpt>
      <trkpt lat="50.56389" lon="3.41029">
        <ele>58.11</ele>
        <time>2023-05-12T10:22:40.389Z</time>
      </trkpt>
      <trkpt lat="50.56389" lon="3.41029">
        <ele>59.81</ele>
        <time>2023-05-12T10:22:41.613Z</time>
      </trkpt>
      <trkpt lat="50.56389" lon="3.41029">
        <ele>60.66</ele>
        <time>2023-05-12T10:22:42.837Z</time>
      </trkpt>
      <trkpt lat="50.56415" lon="3.41183">
        <ele>60.57</ele>
        <time>2023-05-12T10:22:44.077Z</time>
      </trkpt>
      <trkpt lat="50.56415" lon="3.41183">
        <ele>60.28</ele>
        <time>2023-05-12T10:22:45.317Z</time>
      </trkpt>
      <trkpt lat="50.56421" lon="3.41208">
        <ele>59.93</ele>
        <time>2023-05-12T10:22:46.560Z</time>
      </trkpt>
      <trkpt lat="50.56555" lon="3.41594">
        <ele>58.89</ele>
        <time>2023-05-12T10:22:47.848Z</time>
      </trkpt>
      <trkpt lat="50.56527" lon="3.41607">
        <ele>58.12</ele>
        <time>2023-05-12T10:22:49.140Z</time>
      </trkpt>
      <trkpt lat="50.565" lon="3.41605">
        <ele>57.24</ele>
        <time>2023-05-12T10:22:50.437Z</time>
      </trkpt>
      <trkpt lat="50.56433" lon="3.41585">
        <ele>55.88</ele>
        <time>2023-05-12T10:22:51.745Z</time>
      </trkpt>
      <trkpt lat="50.5641" lon="3.4158">
        <ele>54.66</ele>
        <time>2023-05-12T10:22:53.056Z</time>
      </trkpt>
      <trkpt lat="50.56326" lon="3.41588">
        <ele>53.08</ele>
        <time>2023-05-12T10:22:54.381Z</time>
      </trkpt>
      <trkpt lat="50.56297" lon="3.41595">
        <ele>51.61</ele>
        <time>2023-05-12T10:22:55.710Z</time>
      </trkpt>
      <trkpt lat="50.56279" lon="3.41605">
        <ele>50.19</ele>
        <time>2023-05-12T10:22:57.042Z</time>
      </trkpt>
      <trkpt lat="50.56257" lon="3.41621">
        <ele>48.53</ele>
        <time>2023-05-12T10:22:58.378Z</time>
      </trkpt>
      <trkpt lat="50.56233" lon="3.41642">
        <ele>46.78</ele>
        <time>2023-05-12T10:22:59.719Z</time>
      </trkpt>
      <trkpt lat="50.56212" lon="3.41651">
        <ele>45.18</ele>
        <time>2023-05-12T10:23:01.063Z</time>
      </trkpt>
      <trkpt lat="50.56199" lon="3.41655">
        <ele>43.58</ele>
        <time>2023-05-12T10:23:02.409Z</time>
      </trkpt>
      <trkpt lat="50.56175" lon="3.41659">
        <ele>42.08</ele>
        <time>2023-05-12T10:23:03.759Z</time>
      </trkpt>
      <trkpt lat="50.56158" lon="3.41666">
        <ele>40.63</ele>
        <time>2023-05-12T10:23:05.112Z</time>
      </trkpt>
      <trkpt lat="50.56051" lon="3.41747">
        <ele>38.72</ele>
        <time>2023-05-12T10:23:06.484Z</time>
      </trkpt>
      <trkpt lat="50.56039" lon="3.41758">
        <ele>37.13</ele>
        <time>2023-05-12T10:23:07.858Z</time>
      </trkpt>
      <trkpt lat="50.56029" lon="3.41772">
        <ele>35.63</ele>
        <time>2023-05-12T10:23:09.234Z</time>
      </trkpt>
      <trkpt lat="50.56023" lon="3.41783">
        <ele>34.2</ele>
        <time>2023-05-12T10:23:10.612Z</time>
      </trkpt>
      <trkpt lat="50.56015" lon="3.41814">
        <ele>32.8</ele>
        <time>2023-05-12T10:23:11.993Z</time>
      </trkpt>
      <trkpt lat="50.55999" lon="3.42122">
        <ele>31.11</ele>
        <time>2023-05-12T10:23:13.406Z</time>
      </trkpt>
      <trkpt lat="50.56" lon="3.42214">
        <ele>29.95</ele>
        <time>2023-05-12T10:23:14.828Z</time>
      </trkpt>
      <trkpt lat="50.55989" lon="3.42317">
        <ele>29.45</ele>
        <time>2023-05-12T10:23:16.261Z</time>
      </trkpt>
      <trkpt lat="50.55983" lon="3.42332">
        <ele>28.68</ele>
        <time>2023-05-12T10:23:17.696Z</time>
      </trkpt>
      <trkpt lat="50.55975" lon="3.42352">
        <ele>27.92</ele>
        <time>2023-05-12T10:23:19.133Z</time>
      </trkpt>
      <trkpt lat="50.55958" lon="3.42367">
        <ele>27.16</ele>
        <time>2023-05-12T10:23:20.573Z</time>
      </trkpt>
      <trkpt lat="50.55947" lon="3.42382">
        <ele>26.77</ele>
        <time>2023-05-12T10:23:22.016Z</time>
      </trkpt>
      <trkpt lat="50.55947" lon="3.42382">
        <ele>26.48</ele>
        <time>2023-05-12T10:23:23.459Z</time>
      </trkpt>
      <trkpt lat="50.55946" lon="3.42427">
        <ele>26.46</ele>
        <time>2023-05-12T10:23:24.906Z</time>
      </trkpt>
      <trkpt lat="50.55941" lon="3.42474">
        <ele>26.29</ele>
        <time>2023-05-12T10:23:26.358Z</time>
      </trkpt>
      <trkpt lat="50.55946" lon="3.42493">
        <ele>26.19</ele>
        <time>2023-05-12T10:23:27.812Z</time>
      </trkpt>
      <trkpt lat="50.5595" lon="3.42503">
        <ele>26.19</ele>
        <time>2023-05-12T10:23:29.267Z</time>
      </trkpt>
      <trkpt lat="50.55951" lon="3.42511">
        <ele>26.23</ele>
        <time>2023-05-12T10:23:30.723Z</time>
      </trkpt>
      <trkpt lat="50.55946" lon="3.42516">
        <ele>26.27</ele>
        <time>2023-05-12T10:23:32.180Z</time>
      </trkpt>
      <trkpt lat="50.5594" lon="3.42528">
        <ele>26.34</ele>
        <time>2023-05-12T10:23:33.639Z</time>
      </trkpt>
      <trkpt lat="50.55937" lon="3.42548">
        <ele>26.41</ele>
        <time>2023-05-12T10:23:35.100Z</time>
      </trkpt>
      <trkpt lat="50.55937" lon="3.4256">
        <ele>26.48</ele>
        <time>2023-05-12T10:23:36.562Z</time>
      </trkpt>
      <trkpt lat="50.55939" lon="3.42567">
        <ele>26.55</ele>
        <time>2023-05-12T10:23:38.025Z</time>
      </trkpt>
      <trkpt lat="50.55943" lon="3.42576">
        <ele>26.61</ele>
        <time>2023-05-12T10:23:39.489Z</time>
      </trkpt>
      <trkpt lat="50.55948" lon="3.42586">
        <ele>26.66</ele>
        <time>2023-05-12T10:23:40.954Z</time>
      </trkpt>
      <trkpt lat="50.55955" lon="3.42592">
        <ele>26.69</ele>
        <time>2023-05-12T10:23:42.420Z</time>
      </trkpt>
      <trkpt lat="50.55963" lon="3.42595">
        <ele>26.68</ele>
        <time>2023-05-12T10:23:43.888Z</time>
      </trkpt>
      <trkpt lat="50.55973" lon="3.42594">
        <ele>26.61</ele>
        <time>2023-05-12T10:23:45.357Z</time>
      </trkpt>
      <trkpt lat="50.55979" lon="3.42591">
        <ele>26.42</ele>
        <time>2023-05-12T10:23:46.827Z</time>
      </trkpt>
      <trkpt lat="50.55982" lon="3.42595">
        <ele>26.15</ele>
        <time>2023-05-12T10:23:48.298Z</time>
      </trkpt>
      <trkpt lat="50.5599" lon="3.4262">
        <ele>25.75</ele>
        <time>2023-05-12T10:23:49.772Z</time>
      </trkpt>
      <trkpt lat="50.5599" lon="3.4262">
        <ele>25.33</ele>
        <time>2023-05-12T10:23:51.246Z</time>
      </trkpt>
      <trkpt lat="50.55989" lon="3.42629">
        <ele>24.81</ele>
        <time>2023-05-12T10:23:52.721Z</time>
      </trkpt>
      <trkpt lat="50.55932" lon="3.42685">
        <ele>24.03</ele>
        <time>2023-05-12T10:23:54.207Z</time>
      </trkpt>
      <trkpt lat="50.55924" lon="3.42705">
        <ele>23.43</ele>
        <time>2023-05-12T10:23:55.695Z</time>
      </trkpt>
      <trkpt lat="50.55921" lon="3.42723">
        <ele>22.81</ele>
        <time>2023-05-12T10:23:57.185Z</time>
      </trkpt>
      <trkpt lat="50.55925" lon="3.42775">
        <ele>22.04</ele>
        <time>2023-05-12T10:23:58.680Z</time>
      </trkpt>
      <trkpt lat="50.55922" lon="3.42914">
        <ele>21.33</ele>
        <time>2023-05-12T10:24:00.189Z</time>
      </trkpt>
      <trkpt lat="50.55919" lon="3.42929">
        <ele>20.79</ele>
        <time>2023-05-12T10:24:01.700Z</time>
      </trkpt>
      <trkpt lat="50.55916" lon="3.4294">
        <ele>20.31</ele>
        <time>2023-05-12T10:24:03.212Z</time>
      </trkpt>
      <trkpt lat="50.55895" lon="3.42968">
        <ele>19.84</ele>
        <time>2023-05-12T10:24:04.728Z</time>
      </trkpt>
      <trkpt lat="50.55884" lon="3.42978">
        <ele>19.56</ele>
        <time>2023-05-12T10:24:06.247Z</time>
      </trkpt>
      <trkpt lat="50.55894" lon="3.43012">
        <ele>19.39</ele>
        <time>2023-05-12T10:24:07.769Z</time>
      </trkpt>
      <trkpt lat="50.55909" lon="3.43041">
        <ele>19.37</ele>
        <time>2023-05-12T10:24:09.295Z</time>
      </trkpt>
      <trkpt lat="50.55966" lon="3.43148">
        <ele>19.4</ele>
        <time>2023-05-12T10:24:10.835Z</time>
      </trkpt>
      <trkpt lat="50.55966" lon="3.43148">
        <ele>19.52</ele>
        <time>2023-05-12T10:24:12.375Z</time>
      </trkpt>
      <trkpt lat="50.56006" lon="3.43224">
        <ele>19.77</ele>
        <time>2023-05-12T10:24:13.926Z</time>
      </trkpt>
      <trkpt lat="50.56082" lon="3.43394">
        <ele>20.09</ele>
        <time>2023-05-12T10:24:15.498Z</time>
      </trkpt>
      <trkpt lat="50.56206" lon="3.43653">
        <ele>21.05</ele>
        <time>2023-05-12T10:24:17.103Z</time>
      </trkpt>
      <trkpt lat="50.56255" lon="3.43748">
        <ele>20.56</ele>
        <time>2023-05-12T10:24:18.720Z</time>
      </trkpt>
      <trkpt lat="50.56278" lon="3.43786">
        <ele>20.46</ele>
        <time>2023-05-12T10:24:20.343Z</time>
      </trkpt>
      <trkpt lat="50.56322" lon="3.43847">
        <ele>20.86</ele>
        <time>2023-05-12T10:24:21.975Z</time>
      </trkpt>
      <trkpt lat="50.56322" lon="3.43846">
        <ele>20.87</ele>
        <time>2023-05-12T10:24:23.607Z</time>
      </trkpt>
      <trkpt lat="50.56322" lon="3.43846">
        <ele>20.88</ele>
        <time>2023-05-12T10:24:25.239Z</time>
      </trkpt>
      <trkpt lat="50.56322" lon="3.43846">
        <ele>20.89</ele>
        <time>2023-05-12T10:24:26.871Z</time>
      </trkpt>
      <trkpt lat="50.56322" lon="3.43846">
        <ele>20.9</ele>
        <time>2023-05-12T10:24:28.503Z</time>
      </trkpt>
      <trkpt lat="50.56322" lon="3.43846">
        <ele>20.91</ele>
        <time>2023-05-12T10:24:30.135Z</time>
      </trkpt>
      <trkpt lat="50.56325" lon="3.4385">
        <ele>20.94</ele>
        <time>2023-05-12T10:24:31.768Z</time>
      </trkpt>
      <trkpt lat="50.56325" lon="3.4385">
        <ele>20.95</ele>
        <time>2023-05-12T10:24:33.401Z</time>
      </trkpt>
      <trkpt lat="50.5628" lon="3.43789">
        <ele>20.93</ele>
        <time>2023-05-12T10:24:35.043Z</time>
      </trkpt>
      <trkpt lat="50.5628" lon="3.43789">
        <ele>20.93</ele>
        <time>2023-05-12T10:24:36.685Z</time>
      </trkpt>
      <trkpt lat="50.5628" lon="3.43789">
        <ele>20.93</ele>
        <time>2023-05-12T10:24:38.327Z</time>
      </trkpt>
      <trkpt lat="50.5628" lon="3.43789">
        <ele>20.93</ele>
        <time>2023-05-12T10:24:39.969Z</time>
      </trkpt>
      <trkpt lat="50.5628" lon="3.43789">
        <ele>20.93</ele>
        <time>2023-05-12T10:24:41.611Z</time>
      </trkpt>
      <trkpt lat="50.5628" lon="3.43789">
        <ele>20.93</ele>
        <time>2023-05-12T10:24:43.253Z</time>
      </trkpt>
      <trkpt lat="50.56278" lon="3.43786">
        <ele>20.93</ele>
        <time>2023-05-12T10:24:44.896Z</time>
      </trkpt>
      <trkpt lat="50.56278" lon="3.43785">
        <ele>20.77</ele>
        <time>2023-05-12T10:24:46.539Z</time>
      </trkpt>
      <trkpt lat="50.56278" lon="3.43785">
        <ele>20.77</ele>
        <time>2023-05-12T10:24:48.182Z</time>
      </trkpt>
      <trkpt lat="50.56278" lon="3.43785">
        <ele>20.68</ele>
        <time>2023-05-12T10:24:49.825Z</time>
      </trkpt>
      <trkpt lat="50.56278" lon="3.43785">
        <ele>20.23</ele>
        <time>2023-05-12T10:24:51.468Z</time>
      </trkpt>
      <trkpt lat="50.56255" lon="3.43748">
        <ele>20.5</ele>
        <time>2023-05-12T10:24:53.116Z</time>
      </trkpt>
      <trkpt lat="50.56206" lon="3.43653">
        <ele>21.1</ele>
        <time>2023-05-12T10:24:54.776Z</time>
      </trkpt>
      <trkpt lat="50.56082" lon="3.43394">
        <ele>20.06</ele>
        <time>2023-05-12T10:24:56.469Z</time>
      </trkpt>
      <trkpt lat="50.56006" lon="3.43224">
        <ele>19.68</ele>
        <time>2023-05-12T10:24:58.184Z</time>
      </trkpt>
      <trkpt lat="50.55966" lon="3.43148">
        <ele>19.37</ele>
        <time>2023-05-12T10:24:59.909Z</time>
      </trkpt>
      <trkpt lat="50.55966" lon="3.43148">
        <ele>19.2</ele>
        <time>2023-05-12T10:25:01.634Z</time>
      </trkpt>
      <trkpt lat="50.55909" lon="3.43041">
        <ele>19.12</ele>
        <time>2023-05-12T10:25:03.373Z</time>
      </trkpt>
      <trkpt lat="50.55894" lon="3.43012">
        <ele>19.09</ele>
        <time>2023-05-12T10:25:05.116Z</time>
      </trkpt>
      <trkpt lat="50.55884" lon="3.42978">
        <ele>19.23</ele>
        <time>2023-05-12T10:25:06.863Z</time>
      </trkpt>
      <trkpt lat="50.55895" lon="3.42968">
        <ele>19.49</ele>
        <time>2023-05-12T10:25:08.612Z</time>
      </trkpt>
      <trkpt lat="50.55916" lon="3.4294">
        <ele>19.97</ele>
        <time>2023-05-12T10:25:10.365Z</time>
      </trkpt>
      <trkpt lat="50.55919" lon="3.42929">
        <ele>20.45</ele>
        <time>2023-05-12T10:25:12.119Z</time>
      </trkpt>
      <trkpt lat="50.55922" lon="3.42914">
        <ele>21.03</ele>
        <time>2023-05-12T10:25:13.875Z</time>
      </trkpt>
      <trkpt lat="50.55925" lon="3.42775">
        <ele>21.79</ele>
        <time>2023-05-12T10:25:15.645Z</time>
      </trkpt>
      <trkpt lat="50.55921" lon="3.42723">
        <ele>22.63</ele>
        <time>2023-05-12T10:25:17.420Z</time>
      </trkpt>
      <trkpt lat="50.55924" lon="3.42705">
        <ele>23.34</ele>
        <time>2023-05-12T10:25:19.197Z</time>
      </trkpt>
      <trkpt lat="50.55932" lon="3.42685">
        <ele>24.04</ele>
        <time>2023-05-12T10:25:20.977Z</time>
      </trkpt>
      <trkpt lat="50.55989" lon="3.42629">
        <ele>24.95</ele>
        <time>2023-05-12T10:25:22.767Z</time>
      </trkpt>
      <trkpt lat="50.5599" lon="3.4262">
        <ele>25.6</ele>
        <time>2023-05-12T10:25:24.558Z</time>
      </trkpt>
      <trkpt lat="50.5599" lon="3.4262">
        <ele>26.15</ele>
        <time>2023-05-12T10:25:26.349Z</time>
      </trkpt>
      <trkpt lat="50.55982" lon="3.42595">
        <ele>26.71</ele>
        <time>2023-05-12T10:25:28.143Z</time>
      </trkpt>
      <trkpt lat="50.55982" lon="3.42588">
        <ele>27.13</ele>
        <time>2023-05-12T10:25:29.938Z</time>
      </trkpt>
      <trkpt lat="50.55978" lon="3.42565">
        <ele>27.55</ele>
        <time>2023-05-12T10:25:31.735Z</time>
      </trkpt>
      <trkpt lat="50.55981" lon="3.42553">
        <ele>27.85</ele>
        <time>2023-05-12T10:25:33.534Z</time>
      </trkpt>
      <trkpt lat="50.55982" lon="3.42545">
        <ele>28.02</ele>
        <time>2023-05-12T10:25:35.334Z</time>
      </trkpt>
      <trkpt lat="50.55978" lon="3.4253">
        <ele>28.12</ele>
        <time>2023-05-12T10:25:37.135Z</time>
      </trkpt>
      <trkpt lat="50.55974" lon="3.42525">
        <ele>28.15</ele>
        <time>2023-05-12T10:25:38.937Z</time>
      </trkpt>
      <trkpt lat="50.5597" lon="3.42522">
        <ele>28.11</ele>
        <time>2023-05-12T10:25:40.740Z</time>
      </trkpt>
      <trkpt lat="50.55963" lon="3.42521">
        <ele>28.02</ele>
        <time>2023-05-12T10:25:42.544Z</time>
      </trkpt>
      <trkpt lat="50.55955" lon="3.42514">
        <ele>27.9</ele>
        <time>2023-05-12T10:25:44.349Z</time>
      </trkpt>
      <trkpt lat="50.55953" lon="3.42508">
        <ele>27.8</ele>
        <time>2023-05-12T10:25:46.155Z</time>
      </trkpt>
      <trkpt lat="50.5595" lon="3.42503">
        <ele>27.7</ele>
        <time>2023-05-12T10:25:47.962Z</time>
      </trkpt>
      <trkpt lat="50.55946" lon="3.42493">
        <ele>27.63</ele>
        <time>2023-05-12T10:25:49.770Z</time>
      </trkpt>
      <trkpt lat="50.55941" lon="3.42474">
        <ele>27.65</ele>
        <time>2023-05-12T10:25:51.580Z</time>
      </trkpt>
      <trkpt lat="50.55946" lon="3.42427">
        <ele>27.69</ele>
        <time>2023-05-12T10:25:53.395Z</time>
      </trkpt>
      <trkpt lat="50.55947" lon="3.42382">
        <ele>27.53</ele>
        <time>2023-05-12T10:25:55.214Z</time>
      </trkpt>
      <trkpt lat="50.55947" lon="3.42382">
        <ele>27.78</ele>
        <time>2023-05-12T10:25:57.033Z</time>
      </trkpt>
      <trkpt lat="50.55958" lon="3.42367">
        <ele>28.21</ele>
        <time>2023-05-12T10:25:58.855Z</time>
      </trkpt>
      <trkpt lat="50.55975" lon="3.42352">
        <ele>29.1</ele>
        <time>2023-05-12T10:26:00.680Z</time>
      </trkpt>
      <trkpt lat="50.55983" lon="3.42332">
        <ele>29.74</ele>
        <time>2023-05-12T10:26:02.507Z</time>
      </trkpt>
      <trkpt lat="50.55989" lon="3.42317">
        <ele>30.1</ele>
        <time>2023-05-12T10:26:04.336Z</time>
      </trkpt>
      <trkpt lat="50.55991" lon="3.42294">
        <ele>30.13</ele>
        <time>2023-05-12T10:26:06.167Z</time>
      </trkpt>
      <trkpt lat="50.55991" lon="3.42294">
        <ele>30.14</ele>
        <time>2023-05-12T10:26:07.998Z</time>
      </trkpt>
      <trkpt lat="50.55991" lon="3.42294">
        <ele>30.15</ele>
        <time>2023-05-12T10:26:09.829Z</time>
      </trkpt>
      <trkpt lat="50.55991" lon="3.42294">
        <ele>30.16</ele>
        <time>2023-05-12T10:26:11.660Z</time>
      </trkpt>
      <trkpt lat="50.55991" lon="3.42294">
        <ele>30.17</ele>
        <time>2023-05-12T10:26:13.491Z</time>
      </trkpt>
      <trkpt lat="50.55991" lon="3.42294">
        <ele>30.18</ele>
        <time>2023-05-12T10:26:15.322Z</time>
      </trkpt>
      <trkpt lat="50.55992" lon="3.42289">
        <ele>30.2</ele>
        <time>2023-05-12T10:26:17.154Z</time>
      </trkpt>
      <trkpt lat="50.55992" lon="3.42289">
        <ele>30.21</ele>
        <time>2023-05-12T10:26:18.986Z</time>
      </trkpt>
      <trkpt lat="50.55989" lon="3.42317">
        <ele>30.13</ele>
        <time>2023-05-12T10:26:20.821Z</time>
      </trkpt>
      <trkpt lat="50.55983" lon="3.42332">
        <ele>29.74</ele>
        <time>2023-05-12T10:26:22.658Z</time>
      </trkpt>
      <trkpt lat="50.55975" lon="3.42352">
        <ele>29.08</ele>
        <time>2023-05-12T10:26:24.497Z</time>
      </trkpt>
      <trkpt lat="50.55958" lon="3.42367">
        <ele>28.15</ele>
        <time>2023-05-12T10:26:26.339Z</time>
      </trkpt>
      <trkpt lat="50.55947" lon="3.42382">
        <ele>27.66</ele>
        <time>2023-05-12T10:26:28.184Z</time>
      </trkpt>
      <trkpt lat="50.55947" lon="3.42382">
        <ele>27.35</ele>
        <time>2023-05-12T10:26:30.029Z</time>
      </trkpt>
      <trkpt lat="50.55946" lon="3.42427">
        <ele>27.43</ele>
        <time>2023-05-12T10:26:31.878Z</time>
      </trkpt>
      <trkpt lat="50.55941" lon="3.42474">
        <ele>27.31</ele>
        <time>2023-05-12T10:26:33.732Z</time>
      </trkpt>
      <trkpt lat="50.55946" lon="3.42493">
        <ele>27.22</ele>
        <time>2023-05-12T10:26:35.588Z</time>
      </trkpt>
      <trkpt lat="50.5595" lon="3.42503">
        <ele>27.19</ele>
        <time>2023-05-12T10:26:37.445Z</time>
      </trkpt>
      <trkpt lat="50.55951" lon="3.42511">
        <ele>27.19</ele>
        <time>2023-05-12T10:26:39.303Z</time>
      </trkpt>
      <trkpt lat="50.55946" lon="3.42516">
        <ele>27.17</ele>
        <time>2023-05-12T10:26:41.162Z</time>
      </trkpt>
      <trkpt lat="50.5594" lon="3.42528">
        <ele>27.15</ele>
        <time>2023-05-12T10:26:43.023Z</time>
      </trkpt>
      <trkpt lat="50.55937" lon="3.42548">
        <ele>27.13</ele>
        <time>2023-05-12T10:26:44.886Z</time>
      </trkpt>
      <trkpt lat="50.55937" lon="3.4256">
        <ele>27.08</ele>
        <time>2023-05-12T10:26:46.750Z</time>
      </trkpt>
      <trkpt lat="50.55939" lon="3.42567">
        <ele>27.02</ele>
        <time>2023-05-12T10:26:48.615Z</time>
      </trkpt>
      <trkpt lat="50.55943" lon="3.42576">
        <ele>26.94</ele>
        <time>2023-05-12T10:26:50.481Z</time>
      </trkpt>
      <trkpt lat="50.55948" lon="3.42586">
        <ele>26.87</ele>
        <time>2023-05-12T10:26:52.348Z</time>
      </trkpt>
      <trkpt lat="50.55955" lon="3.42592">
        <ele>26.79</ele>
        <time>2023-05-12T10:26:54.217Z</time>
      </trkpt>
      <trkpt lat="50.55963" lon="3.42595">
        <ele>26.68</ele>
        <time>2023-05-12T10:26:56.087Z</time>
      </trkpt>
      <trkpt lat="50.55973" lon="3.42594">
        <ele>26.53</ele>
        <time>2023-05-12T10:26:57.958Z</time>
      </trkpt>
      <trkpt lat="50.55979" lon="3.42591">
        <ele>26.26</ele>
        <time>2023-05-12T10:26:59.830Z</time>
      </trkpt>
      <trkpt lat="50.55982" lon="3.42595">
        <ele>25.93</ele>
        <time>2023-05-12T10:27:01.703Z</time>
      </trkpt>
      <trkpt lat="50.5599" lon="3.4262">
        <ele>25.48</ele>
        <time>2023-05-12T10:27:03.579Z</time>
      </trkpt>
      <trkpt lat="50.5599" lon="3.4262">
        <ele>25.02</ele>
        <time>2023-05-12T10:27:05.455Z</time>
      </trkpt>
      <trkpt lat="50.55989" lon="3.42629">
        <ele>24.48</ele>
        <time>2023-05-12T10:27:07.332Z</time>
      </trkpt>
      <trkpt lat="50.55932" lon="3.42685">
        <ele>23.69</ele>
        <time>2023-05-12T10:27:09.220Z</time>
      </trkpt>
      <trkpt lat="50.55924" lon="3.42705">
        <ele>23.07</ele>
        <time>2023-05-12T10:27:11.110Z</time>
      </trkpt>
      <trkpt lat="50.55921" lon="3.42723">
        <ele>22.46</ele>
        <time>2023-05-12T10:27:13.002Z</time>
      </trkpt>
      <trkpt lat="50.55925" lon="3.42775">
        <ele>21.73</ele>
        <time>2023-05-12T10:27:14.899Z</time>
      </trkpt>
      <trkpt lat="50.55922" lon="3.42914">
        <ele>21.06</ele>
        <time>2023-05-12T10:27:16.810Z</time>
      </trkpt>
      <trkpt lat="50.55919" lon="3.42929">
        <ele>20.57</ele>
        <time>2023-05-12T10:27:18.723Z</time>
      </trkpt>
      <trkpt lat="50.55916" lon="3.4294">
        <ele>20.15</ele>
        <time>2023-05-12T10:27:20.637Z</time>
      </trkpt>
      <trkpt lat="50.55895" lon="3.42968">
        <ele>19.75</ele>
        <time>2023-05-12T10:27:22.556Z</time>
      </trkpt>
      <trkpt lat="50.55884" lon="3.42978">
        <ele>19.55</ele>
        <time>2023-05-12T10:27:24.477Z</time>
      </trkpt>
      <trkpt lat="50.55894" lon="3.43012">
        <ele>19.45</ele>
        <time>2023-05-12T10:27:26.402Z</time>
      </trkpt>
      <trkpt lat="50.55909" lon="3.43041">
        <ele>19.5</ele>
        <time>2023-05-12T10:27:28.330Z</time>
      </trkpt>
      <trkpt lat="50.55966" lon="3.43148">
        <ele>19.59</ele>
        <time>2023-05-12T10:27:30.273Z</time>
      </trkpt>
      <trkpt lat="50.55966" lon="3.43148">
        <ele>19.75</ele>
        <time>2023-05-12T10:27:32.216Z</time>
      </trkpt>
      <trkpt lat="50.56006" lon="3.43224">
        <ele>19.99</ele>
        <time>2023-05-12T10:27:34.169Z</time>
      </trkpt>
      <trkpt lat="50.56082" lon="3.43394">
        <ele>20.24</ele>
        <time>2023-05-12T10:27:36.143Z</time>
      </trkpt>
      <trkpt lat="50.56206" lon="3.43653">
        <ele>21.04</ele>
        <time>2023-05-12T10:27:38.150Z</time>
      </trkpt>
      <trkpt lat="50.56255" lon="3.43748">
        <ele>20.79</ele>
        <time>2023-05-12T10:27:40.169Z</time>
      </trkpt>
      <trkpt lat="50.56278" lon="3.43786">
        <ele>20.76</ele>
        <time>2023-05-12T10:27:42.194Z</time>
      </trkpt>
      <trkpt lat="50.56352" lon="3.43888">
        <ele>21.01</ele>
        <time>2023-05-12T10:27:44.235Z</time>
      </trkpt>
      <trkpt lat="50.56405" lon="3.43944">
        <ele>21.03</ele>
        <time>2023-05-12T10:27:46.286Z</time>
      </trkpt>
      <trkpt lat="50.56429" lon="3.43963">
        <ele>21.01</ele>
        <time>2023-05-12T10:27:48.341Z</time>
      </trkpt>
      <trkpt lat="50.56447" lon="3.43975">
        <ele>20.73</ele>
        <time>2023-05-12T10:27:50.399Z</time>
      </trkpt>
      <trkpt lat="50.56534" lon="3.44018">
        <ele>20.06</ele>
        <time>2023-05-12T10:27:52.472Z</time>
      </trkpt>
      <trkpt lat="50.56534" lon="3.44018">
        <ele>19.76</ele>
        <time>2023-05-12T10:27:54.545Z</time>
      </trkpt>
      <trkpt lat="50.56583" lon="3.44056">
        <ele>19.22</ele>
        <time>2023-05-12T10:27:56.627Z</time>
      </trkpt>
      <trkpt lat="50.56583" lon="3.44056">
        <ele>19.22</ele>
        <time>2023-05-12T10:27:58.709Z</time>
      </trkpt>
      <trkpt lat="50.56583" lon="3.44056">
        <ele>19.22</ele>
        <time>2023-05-12T10:28:00.791Z</time>
      </trkpt>
      <trkpt lat="50.56583" lon="3.44056">
        <ele>19.22</ele>
        <time>2023-05-12T10:28:02.873Z</time>
      </trkpt>
      <trkpt lat="50.56583" lon="3.44056">
        <ele>19.22</ele>
        <time>2023-05-12T10:28:04.955Z</time>
      </trkpt>
      <trkpt lat="50.56586" lon="3.44058">
        <ele>19.19</ele>
        <time>2023-05-12T10:28:07.037Z</time>
      </trkpt>
      <trkpt lat="50.56603" lon="3.44072">
        <ele>17.87</ele>
        <time>2023-05-12T10:28:09.122Z</time>
      </trkpt>
      <trkpt lat="50.56615" lon="3.44086">
        <ele>17.68</ele>
        <time>2023-05-12T10:28:11.210Z</time>
      </trkpt>
      <trkpt lat="50.5663" lon="3.44094">
        <ele>17.33</ele>
        <time>2023-05-12T10:28:13.300Z</time>
      </trkpt>
      <trkpt lat="50.56641" lon="3.44101">
        <ele>16.99</ele>
        <time>2023-05-12T10:28:15.392Z</time>
      </trkpt>
      <trkpt lat="50.56665" lon="3.44103">
        <ele>16.9</ele>
        <time>2023-05-12T10:28:17.488Z</time>
      </trkpt>
      <trkpt lat="50.56723" lon="3.44109">
        <ele>16.84</ele>
        <time>2023-05-12T10:28:19.593Z</time>
      </trkpt>
      <trkpt lat="50.5673" lon="3.44113">
        <ele>16.55</ele>
        <time>2023-05-12T10:28:21.699Z</time>
      </trkpt>
      <trkpt lat="50.56742" lon="3.44127">
        <ele>16.06</ele>
        <time>2023-05-12T10:28:23.808Z</time>
      </trkpt>
      <trkpt lat="50.56742" lon="3.44127">
        <ele>15.7</ele>
        <time>2023-05-12T10:28:25.917Z</time>
      </trkpt>
      <trkpt lat="50.56751" lon="3.4415">
        <ele>15.13</ele>
        <time>2023-05-12T10:28:28.028Z</time>
      </trkpt>
      <trkpt lat="50.56749" lon="3.44177">
        <ele>14.73</ele>
        <time>2023-05-12T10:28:30.142Z</time>
      </trkpt>
      <trkpt lat="50.56749" lon="3.44177">
        <ele>14.79</ele>
        <time>2023-05-12T10:28:32.256Z</time>
      </trkpt>
      <trkpt lat="50.56741" lon="3.44282">
        <ele>15.11</ele>
        <time>2023-05-12T10:28:34.381Z</time>
      </trkpt>
      <trkpt lat="50.56739" lon="3.44333">
        <ele>16.14</ele>
        <time>2023-05-12T10:28:36.511Z</time>
      </trkpt>
      <trkpt lat="50.56741" lon="3.44365">
        <ele>16.97</ele>
        <time>2023-05-12T10:28:38.644Z</time>
      </trkpt>
      <trkpt lat="50.56747" lon="3.44404">
        <ele>17.37</ele>
        <time>2023-05-12T10:28:40.782Z</time>
      </trkpt>
      <trkpt lat="50.56747" lon="3.44403">
        <ele>17.38</ele>
        <time>2023-05-12T10:28:42.920Z</time>
      </trkpt>
      <trkpt lat="50.56747" lon="3.44403">
        <ele>17.39</ele>
        <time>2023-05-12T10:28:45.058Z</time>
      </trkpt>
      <trkpt lat="50.56747" lon="3.44403">
        <ele>17.4</ele>
        <time>2023-05-12T10:28:47.196Z</time>
      </trkpt>
      <trkpt lat="50.56747" lon="3.44403">
        <ele>17.41</ele>
        <time>2023-05-12T10:28:49.334Z</time>
      </trkpt>
      <trkpt lat="50.56747" lon="3.44403">
        <ele>17.42</ele>
        <time>2023-05-12T10:28:51.472Z</time>
      </trkpt>
      <trkpt lat="50.56748" lon="3.44409">
        <ele>17.49</ele>
        <time>2023-05-12T10:28:53.610Z</time>
      </trkpt>
      <trkpt lat="50.56748" lon="3.44409">
        <ele>17.5</ele>
        <time>2023-05-12T10:28:55.748Z</time>
      </trkpt>
      <trkpt lat="50.56748" lon="3.44409">
        <ele>19.59</ele>
        <time>2023-05-12T10:28:57.886Z</time>
      </trkpt>
      <trkpt lat="50.56754" lon="3.44448">
        <ele>19.81</ele>
        <time>2023-05-12T10:29:00.028Z</time>
      </trkpt>
      <trkpt lat="50.56751" lon="3.44475">
        <ele>20.19</ele>
        <time>2023-05-12T10:29:02.173Z</time>
      </trkpt>
      <trkpt lat="50.56751" lon="3.44475">
        <ele>20.37</ele>
        <time>2023-05-12T10:29:04.318Z</time>
      </trkpt>
      <trkpt lat="50.5675" lon="3.44494">
        <ele>20.6</ele>
        <time>2023-05-12T10:29:06.465Z</time>
      </trkpt>
      <trkpt lat="50.56751" lon="3.44505">
        <ele>20.68</ele>
        <time>2023-05-12T10:29:08.613Z</time>
      </trkpt>
      <trkpt lat="50.56758" lon="3.44531">
        <ele>20.68</ele>
        <time>2023-05-12T10:29:10.764Z</time>
      </trkpt>
      <trkpt lat="50.56764" lon="3.44531">
        <ele>20.58</ele>
        <time>2023-05-12T10:29:12.916Z</time>
      </trkpt>
      <trkpt lat="50.56771" lon="3.44529">
        <ele>20.41</ele>
        <time>2023-05-12T10:29:15.069Z</time>
      </trkpt>
      <trkpt lat="50.56808" lon="3.44501">
        <ele>20.06</ele>
        <time>2023-05-12T10:29:17.229Z</time>
      </trkpt>
      <trkpt lat="50.56832" lon="3.44486">
        <ele>19.67</ele>
        <time>2023-05-12T10:29:19.393Z</time>
      </trkpt>
      <trkpt lat="50.56832" lon="3.44486">
        <ele>19.46</ele>
        <time>2023-05-12T10:29:21.557Z</time>
      </trkpt>
      <trkpt lat="50.56851" lon="3.44472">
        <ele>19.3</ele>
        <time>2023-05-12T10:29:23.724Z</time>
      </trkpt>
      <trkpt lat="50.56851" lon="3.44472">
        <ele>19.19</ele>
        <time>2023-05-12T10:29:25.891Z</time>
      </trkpt>
      <trkpt lat="50.56874" lon="3.4445">
        <ele>19.16</ele>
        <time>2023-05-12T10:29:28.062Z</time>
      </trkpt>
      <trkpt lat="50.56874" lon="3.4445">
        <ele>19.16</ele>
        <time>2023-05-12T10:29:30.233Z</time>
      </trkpt>
      <trkpt lat="50.56886" lon="3.44439">
        <ele>19.17</ele>
        <time>2023-05-12T10:29:32.407Z</time>
      </trkpt>
      <trkpt lat="50.56893" lon="3.44434">
        <ele>19.29</ele>
        <time>2023-05-12T10:29:34.582Z</time>
      </trkpt>
      <trkpt lat="50.56916" lon="3.44427">
        <ele>19.54</ele>
        <time>2023-05-12T10:29:36.761Z</time>
      </trkpt>
      <trkpt lat="50.56944" lon="3.44418">
        <ele>19.7</ele>
        <time>2023-05-12T10:29:38.944Z</time>
      </trkpt>
      <trkpt lat="50.56976" lon="3.4441">
        <ele>19.84</ele>
        <time>2023-05-12T10:29:41.132Z</time>
      </trkpt>
      <trkpt lat="50.57037" lon="3.44381">
        <ele>20.07</ele>
        <time>2023-05-12T10:29:43.331Z</time>
      </trkpt>
      <trkpt lat="50.57047" lon="3.44376">
        <ele>20.25</ele>
        <time>2023-05-12T10:29:45.531Z</time>
      </trkpt>
      <trkpt lat="50.5707" lon="3.44371">
        <ele>20.27</ele>
        <time>2023-05-12T10:29:47.735Z</time>
      </trkpt>
      <trkpt lat="50.57126" lon="3.44365">
        <ele>20.05</ele>
        <time>2023-05-12T10:29:49.948Z</time>
      </trkpt>
      <trkpt lat="50.5715" lon="3.44365">
        <ele>19.87</ele>
        <time>2023-05-12T10:29:52.165Z</time>
      </trkpt>
      <trkpt lat="50.57151" lon="3.44365">
        <ele>19.87</ele>
        <time>2023-05-12T10:29:54.382Z</time>
      </trkpt>
      <trkpt lat="50.57151" lon="3.44365">
        <ele>19.87</ele>
        <time>2023-05-12T10:29:56.599Z</time>
      </trkpt>
      <trkpt lat="50.57151" lon="3.44365">
        <ele>19.87</ele>
        <time>2023-05-12T10:29:58.816Z</time>
      </trkpt>
      <trkpt lat="50.57151" lon="3.44365">
        <ele>19.87</ele>
        <time>2023-05-12T10:30:01.033Z</time>
      </trkpt>
      <trkpt lat="50.57151" lon="3.44365">
        <ele>19.87</ele>
        <time>2023-05-12T10:30:03.250Z</time>
      </trkpt>
      <trkpt lat="50.57154" lon="3.44365">
        <ele>19.85</ele>
        <time>2023-05-12T10:30:05.468Z</time>
      </trkpt>
      <trkpt lat="50.57154" lon="3.44365">
        <ele>19.85</ele>
        <time>2023-05-12T10:30:07.686Z</time>
      </trkpt>
      <trkpt lat="50.57183" lon="3.44365">
        <ele>18</ele>
        <time>2023-05-12T10:30:09.908Z</time>
      </trkpt>
      <trkpt lat="50.57202" lon="3.44368">
        <ele>17.59</ele>
        <time>2023-05-12T10:30:12.133Z</time>
      </trkpt>
      <trkpt lat="50.57204" lon="3.44371">
        <ele>17.28</ele>
        <time>2023-05-12T10:30:14.359Z</time>
      </trkpt>
      <trkpt lat="50.57217" lon="3.44386">
        <ele>17.04</ele>
        <time>2023-05-12T10:30:16.587Z</time>
      </trkpt>
      <trkpt lat="50.57221" lon="3.44377">
        <ele>16.86</ele>
        <time>2023-05-12T10:30:18.816Z</time>
      </trkpt>
      <trkpt lat="50.57232" lon="3.44371">
        <ele>16.73</ele>
        <time>2023-05-12T10:30:21.047Z</time>
      </trkpt>
      <trkpt lat="50.5724" lon="3.44372">
        <ele>16.67</ele>
        <time>2023-05-12T10:30:23.279Z</time>
      </trkpt>
      <trkpt lat="50.57246" lon="3.44376">
        <ele>16.68</ele>
        <time>2023-05-12T10:30:25.513Z</time>
      </trkpt>
      <trkpt lat="50.57251" lon="3.44385">
        <ele>16.77</ele>
        <time>2023-05-12T10:30:27.748Z</time>
      </trkpt>
      <trkpt lat="50.57255" lon="3.44396">
        <ele>16.98</ele>
        <time>2023-05-12T10:30:29.984Z</time>
      </trkpt>
      <trkpt lat="50.57256" lon="3.44407">
        <ele>17.36</ele>
        <time>2023-05-12T10:30:32.221Z</time>
      </trkpt>
      <trkpt lat="50.57253" lon="3.44422">
        <ele>17.91</ele>
        <time>2023-05-12T10:30:34.460Z</time>
      </trkpt>
      <trkpt lat="50.57253" lon="3.44422">
        <ele>18.59</ele>
        <time>2023-05-12T10:30:36.699Z</time>
      </trkpt>
      <trkpt lat="50.57249" lon="3.44429">
        <ele>19.49</ele>
        <time>2023-05-12T10:30:38.939Z</time>
      </trkpt>
      <trkpt lat="50.57241" lon="3.44435">
        <ele>20.68</ele>
        <time>2023-05-12T10:30:41.180Z</time>
      </trkpt>
      <trkpt lat="50.57239" lon="3.44444">
        <ele>22.21</ele>
        <time>2023-05-12T10:30:43.422Z</time>
      </trkpt>
      <trkpt lat="50.57231" lon="3.44493">
        <ele>24.19</ele>
        <time>2023-05-12T10:30:45.669Z</time>
      </trkpt>
      <trkpt lat="50.57225" lon="3.4456">
        <ele>26.2</ele>
        <time>2023-05-12T10:30:47.923Z</time>
      </trkpt>
      <trkpt lat="50.57213" lon="3.44767">
        <ele>29.53</ele>
        <time>2023-05-12T10:30:50.198Z</time>
      </trkpt>
      <trkpt lat="50.57205" lon="3.4484">
        <ele>30.86</ele>
        <time>2023-05-12T10:30:52.481Z</time>
      </trkpt>
      <trkpt lat="50.57199" lon="3.44878">
        <ele>32.04</ele>
        <time>2023-05-12T10:30:54.768Z</time>
      </trkpt>
      <trkpt lat="50.57182" lon="3.44929">
        <ele>33.05</ele>
        <time>2023-05-12T10:30:57.061Z</time>
      </trkpt>
      <trkpt lat="50.57182" lon="3.44929">
        <ele>33.95</ele>
        <time>2023-05-12T10:30:59.354Z</time>
      </trkpt>
      <trkpt lat="50.57176" lon="3.44942">
        <ele>34.45</ele>
        <time>2023-05-12T10:31:01.648Z</time>
      </trkpt>
      <trkpt lat="50.57176" lon="3.44942">
        <ele>34.46</ele>
        <time>2023-05-12T10:31:03.942Z</time>
      </trkpt>
      <trkpt lat="50.57176" lon="3.44942">
        <ele>34.47</ele>
        <time>2023-05-12T10:31:06.236Z</time>
      </trkpt>
      <trkpt lat="50.57176" lon="3.44942">
        <ele>34.48</ele>
        <time>2023-05-12T10:31:08.530Z</time>
      </trkpt>
      <trkpt lat="50.57176" lon="3.44942">
        <ele>34.49</ele>
        <time>2023-05-12T10:31:10.824Z</time>
      </trkpt>
      <trkpt lat="50.57176" lon="3.44943">
        <ele>34.5</ele>
        <time>2023-05-12T10:31:13.118Z</time>
      </trkpt>
      <trkpt lat="50.57174" lon="3.44947">
        <ele>34.71</ele>
        <time>2023-05-12T10:31:15.413Z</time>
      </trkpt>
      <trkpt lat="50.57174" lon="3.44947">
        <ele>34.72</ele>
        <time>2023-05-12T10:31:17.708Z</time>
      </trkpt>
      <trkpt lat="50.57171" lon="3.44956">
        <ele>35.11</ele>
        <time>2023-05-12T10:31:20.004Z</time>
      </trkpt>
      <trkpt lat="50.57158" lon="3.44979">
        <ele>35.33</ele>
        <time>2023-05-12T10:31:22.303Z</time>
      </trkpt>
      <trkpt lat="50.57124" lon="3.45032">
        <ele>35.78</ele>
        <time>2023-05-12T10:31:24.610Z</time>
      </trkpt>
      <trkpt lat="50.57001" lon="3.4515">
        <ele>36.36</ele>
        <time>2023-05-12T10:31:26.940Z</time>
      </trkpt>
      <trkpt lat="50.56981" lon="3.45173">
        <ele>36.69</ele>
        <time>2023-05-12T10:31:29.274Z</time>
      </trkpt>
      <trkpt lat="50.56946" lon="3.45222">
        <ele>37.1</ele>
        <time>2023-05-12T10:31:31.615Z</time>
      </trkpt>
      <trkpt lat="50.56946" lon="3.45222">
        <ele>37.33</ele>
        <time>2023-05-12T10:31:33.956Z</time>
      </trkpt>
      <trkpt lat="50.56938" lon="3.4523">
        <ele>37.44</ele>
        <time>2023-05-12T10:31:36.299Z</time>
      </trkpt>
      <trkpt lat="50.56919" lon="3.45263">
        <ele>37.6</ele>
        <time>2023-05-12T10:31:38.646Z</time>
      </trkpt>
      <trkpt lat="50.56919" lon="3.45263">
        <ele>37.72</ele>
        <time>2023-05-12T10:31:40.993Z</time>
      </trkpt>
      <trkpt lat="50.56903" lon="3.45289">
        <ele>37.83</ele>
        <time>2023-05-12T10:31:43.344Z</time>
      </trkpt>
      <trkpt lat="50.56817" lon="3.45442">
        <ele>37.78</ele>
        <time>2023-05-12T10:31:45.716Z</time>
      </trkpt>
      <trkpt lat="50.56801" lon="3.45472">
        <ele>38.06</ele>
        <time>2023-05-12T10:31:48.092Z</time>
      </trkpt>
      <trkpt lat="50.5676" lon="3.4556">
        <ele>38.36</ele>
        <time>2023-05-12T10:31:50.479Z</time>
      </trkpt>
      <trkpt lat="50.56729" lon="3.45649">
        <ele>38.89</ele>
        <time>2023-05-12T10:31:52.876Z</time>
      </trkpt>
      <trkpt lat="50.56703" lon="3.45751">
        <ele>39.41</ele>
        <time>2023-05-12T10:31:55.285Z</time>
      </trkpt>
      <trkpt lat="50.5668" lon="3.45879">
        <ele>39.75</ele>
        <time>2023-05-12T10:31:57.707Z</time>
      </trkpt>
      <trkpt lat="50.56666" lon="3.46009">
        <ele>40.57</ele>
        <time>2023-05-12T10:32:00.143Z</time>
      </trkpt>
      <trkpt lat="50.5666" lon="3.46104">
        <ele>40.98</ele>
        <time>2023-05-12T10:32:02.588Z</time>
      </trkpt>
      <trkpt lat="50.56658" lon="3.46128">
        <ele>41.33</ele>
        <time>2023-05-12T10:32:05.036Z</time>
      </trkpt>
      <trkpt lat="50.56658" lon="3.46212">
        <ele>41.62</ele>
        <time>2023-05-12T10:32:07.493Z</time>
      </trkpt>
      <trkpt lat="50.56658" lon="3.46212">
        <ele>41.85</ele>
        <time>2023-05-12T10:32:09.950Z</time>
      </trkpt>
      <trkpt lat="50.56658" lon="3.46262">
        <ele>41.96</ele>
        <time>2023-05-12T10:32:12.412Z</time>
      </trkpt>
      <trkpt lat="50.56659" lon="3.46275">
        <ele>42.16</ele>
        <time>2023-05-12T10:32:14.875Z</time>
      </trkpt>
      <trkpt lat="50.5666" lon="3.46305">
        <ele>42.32</ele>
        <time>2023-05-12T10:32:17.341Z</time>
      </trkpt>
      <trkpt lat="50.56661" lon="3.46326">
        <ele>42.47</ele>
        <time>2023-05-12T10:32:19.809Z</time>
      </trkpt>
      <trkpt lat="50.56668" lon="3.464">
        <ele>42.54</ele>
        <time>2023-05-12T10:32:22.285Z</time>
      </trkpt>
      <trkpt lat="50.56668" lon="3.46401">
        <ele>42.42</ele>
        <time>2023-05-12T10:32:24.761Z</time>
      </trkpt>
      <trkpt lat="50.56675" lon="3.46474">
        <ele>42.06</ele>
        <time>2023-05-12T10:32:27.244Z</time>
      </trkpt>
      <trkpt lat="50.5668" lon="3.46522">
        <ele>41.99</ele>
        <time>2023-05-12T10:32:29.732Z</time>
      </trkpt>
      <trkpt lat="50.56686" lon="3.46567">
        <ele>42.22</ele>
        <time>2023-05-12T10:32:32.225Z</time>
      </trkpt>
      <trkpt lat="50.56694" lon="3.46624">
        <ele>42.71</ele>
        <time>2023-05-12T10:32:34.724Z</time>
      </trkpt>
      <trkpt lat="50.56717" lon="3.46782">
        <ele>43.34</ele>
        <time>2023-05-12T10:32:37.240Z</time>
      </trkpt>
      <trkpt lat="50.56742" lon="3.46947">
        <ele>43.57</ele>
        <time>2023-05-12T10:32:39.773Z</time>
      </trkpt>
      <trkpt lat="50.56742" lon="3.47048">
        <ele>44.47</ele>
        <time>2023-05-12T10:32:42.316Z</time>
      </trkpt>
      <trkpt lat="50.56739" lon="3.47076">
        <ele>44.61</ele>
        <time>2023-05-12T10:32:44.862Z</time>
      </trkpt>
      <trkpt lat="50.56739" lon="3.47076">
        <ele>44.62</ele>
        <time>2023-05-12T10:32:47.408Z</time>
      </trkpt>
      <trkpt lat="50.56739" lon="3.47076">
        <ele>44.64</ele>
        <time>2023-05-12T10:32:49.954Z</time>
      </trkpt>
      <trkpt lat="50.56739" lon="3.47076">
        <ele>44.65</ele>
        <time>2023-05-12T10:32:52.500Z</time>
      </trkpt>
      <trkpt lat="50.56739" lon="3.47076">
        <ele>44.66</ele>
        <time>2023-05-12T10:32:55.046Z</time>
      </trkpt>
      <trkpt lat="50.56739" lon="3.47082">
        <ele>44.7</ele>
        <time>2023-05-12T10:32:57.593Z</time>
      </trkpt>
      <trkpt lat="50.56739" lon="3.47082">
        <ele>44.71</ele>
        <time>2023-05-12T10:33:00.140Z</time>
      </trkpt>
      <trkpt lat="50.56732" lon="3.4716">
        <ele>44.41</ele>
        <time>2023-05-12T10:33:02.695Z</time>
      </trkpt>
      <trkpt lat="50.56732" lon="3.47192">
        <ele>44.27</ele>
        <time>2023-05-12T10:33:05.253Z</time>
      </trkpt>
      <trkpt lat="50.56733" lon="3.47209">
        <ele>44.3</ele>
        <time>2023-05-12T10:33:07.813Z</time>
      </trkpt>
      <trkpt lat="50.56742" lon="3.47241">
        <ele>44.43</ele>
        <time>2023-05-12T10:33:10.376Z</time>
      </trkpt>
      <trkpt lat="50.56774" lon="3.47365">
        <ele>44.62</ele>
        <time>2023-05-12T10:33:12.953Z</time>
      </trkpt>
      <trkpt lat="50.56812" lon="3.47507">
        <ele>45.05</ele>
        <time>2023-05-12T10:33:15.546Z</time>
      </trkpt>
      <trkpt lat="50.56815" lon="3.47518">
        <ele>45.41</ele>
        <time>2023-05-12T10:33:18.140Z</time>
      </trkpt>
      <trkpt lat="50.5682" lon="3.47528">
        <ele>45.78</ele>
        <time>2023-05-12T10:33:20.735Z</time>
      </trkpt>
      <trkpt lat="50.56828" lon="3.47537">
        <ele>46.15</ele>
        <time>2023-05-12T10:33:23.332Z</time>
      </trkpt>
      <trkpt lat="50.56897" lon="3.47572">
        <ele>46.79</ele>
        <time>2023-05-12T10:33:25.940Z</time>
      </trkpt>
      <trkpt lat="50.56944" lon="3.47599">
        <ele>47.17</ele>
        <time>2023-05-12T10:33:28.556Z</time>
      </trkpt>
      <trkpt lat="50.56963" lon="3.47614">
        <ele>47.55</ele>
        <time>2023-05-12T10:33:31.176Z</time>
      </trkpt>
      <trkpt lat="50.57079" lon="3.47757">
        <ele>47.77</ele>
        <time>2023-05-12T10:33:33.819Z</time>
      </trkpt>
      <trkpt lat="50.57091" lon="3.47773">
        <ele>47.98</ele>
        <time>2023-05-12T10:33:36.465Z</time>
      </trkpt>
      <trkpt lat="50.57107" lon="3.47799">
        <ele>48.16</ele>
        <time>2023-05-12T10:33:39.115Z</time>
      </trkpt>
      <trkpt lat="50.57122" lon="3.47834">
        <ele>48.33</ele>
        <time>2023-05-12T10:33:41.769Z</time>
      </trkpt>
      <trkpt lat="50.57133" lon="3.47873">
        <ele>48.57</ele>
        <time>2023-05-12T10:33:44.427Z</time>
      </trkpt>
      <trkpt lat="50.57171" lon="3.48065">
        <ele>48.68</ele>
        <time>2023-05-12T10:33:47.106Z</time>
      </trkpt>
      <trkpt lat="50.57174" lon="3.4809">
        <ele>48.87</ele>
        <time>2023-05-12T10:33:49.787Z</time>
      </trkpt>
      <trkpt lat="50.57174" lon="3.4809">
        <ele>49.06</ele>
        <time>2023-05-12T10:33:52.468Z</time>
      </trkpt>
      <trkpt lat="50.5718" lon="3.48099">
        <ele>49.3</ele>
        <time>2023-05-12T10:33:55.151Z</time>
      </trkpt>
      <trkpt lat="50.57234" lon="3.48362">
        <ele>49.75</ele>
        <time>2023-05-12T10:33:57.862Z</time>
      </trkpt>
      <trkpt lat="50.57246" lon="3.48417">
        <ele>50.2</ele>
        <time>2023-05-12T10:34:00.579Z</time>
      </trkpt>
      <trkpt lat="50.57246" lon="3.48417">
        <ele>50.49</ele>
        <time>2023-05-12T10:34:03.296Z</time>
      </trkpt>
      <trkpt lat="50.57253" lon="3.48448">
        <ele>50.88</ele>
        <time>2023-05-12T10:34:06.016Z</time>
      </trkpt>
      <trkpt lat="50.57263" lon="3.48502">
        <ele>51.12</ele>
        <time>2023-05-12T10:34:08.742Z</time>
      </trkpt>
      <trkpt lat="50.57263" lon="3.48502">
        <ele>51.4</ele>
        <time>2023-05-12T10:34:11.468Z</time>
      </trkpt>
      <trkpt lat="50.5728" lon="3.48588">
        <ele>51.56</ele>
        <time>2023-05-12T10:34:14.203Z</time>
      </trkpt>
      <trkpt lat="50.57297" lon="3.48643">
        <ele>51.84</ele>
        <time>2023-05-12T10:34:16.944Z</time>
      </trkpt>
      <trkpt lat="50.57343" lon="3.48768">
        <ele>52.22</ele>
        <time>2023-05-12T10:34:19.700Z</time>
      </trkpt>
      <trkpt lat="50.57349" lon="3.48789">
        <ele>52.73</ele>
        <time>2023-05-12T10:34:22.458Z</time>
      </trkpt>
      <trkpt lat="50.57354" lon="3.48814">
        <ele>53.33</ele>
        <time>2023-05-12T10:34:25.219Z</time>
      </trkpt>
      <trkpt lat="50.57353" lon="3.48768">
        <ele>54.82</ele>
        <time>2023-05-12T10:34:27.985Z</time>
      </trkpt>
      <trkpt lat="50.57338" lon="3.48512">
        <ele>55.98</ele>
        <time>2023-05-12T10:34:30.777Z</time>
      </trkpt>
      <trkpt lat="50.57343" lon="3.48485">
        <ele>57.02</ele>
        <time>2023-05-12T10:34:33.572Z</time>
      </trkpt>
      <trkpt lat="50.5735" lon="3.48478">
        <ele>58.11</ele>
        <time>2023-05-12T10:34:36.368Z</time>
      </trkpt>
      <trkpt lat="50.5735" lon="3.48478">
        <ele>59.21</ele>
        <time>2023-05-12T10:34:39.164Z</time>
      </trkpt>
      <trkpt lat="50.57368" lon="3.48467">
        <ele>60.4</ele>
        <time>2023-05-12T10:34:41.963Z</time>
      </trkpt>
      <trkpt lat="50.57483" lon="3.48417">
        <ele>61.75</ele>
        <time>2023-05-12T10:34:44.781Z</time>
      </trkpt>
      <trkpt lat="50.57614" lon="3.48355">
        <ele>63.06</ele>
        <time>2023-05-12T10:34:47.621Z</time>
      </trkpt>
      <trkpt lat="50.57732" lon="3.48307">
        <ele>64.37</ele>
        <time>2023-05-12T10:34:50.481Z</time>
      </trkpt>
      <trkpt lat="50.57751" lon="3.48305">
        <ele>65.23</ele>
        <time>2023-05-12T10:34:53.344Z</time>
      </trkpt>
      <trkpt lat="50.57835" lon="3.48271">
        <ele>65.86</ele>
        <time>2023-05-12T10:34:56.221Z</time>
      </trkpt>
      <trkpt lat="50.57835" lon="3.48271">
        <ele>66.24</ele>
        <time>2023-05-12T10:34:59.098Z</time>
      </trkpt>
      <trkpt lat="50.57853" lon="3.48264">
        <ele>66.47</ele>
        <time>2023-05-12T10:35:01.978Z</time>
      </trkpt>
      <trkpt lat="50.57867" lon="3.48263">
        <ele>66.4</ele>
        <time>2023-05-12T10:35:04.860Z</time>
      </trkpt>
      <trkpt lat="50.57903" lon="3.4827">
        <ele>65.95</ele>
        <time>2023-05-12T10:35:07.748Z</time>
      </trkpt>
      <trkpt lat="50.57923" lon="3.48264">
        <ele>65.36</ele>
        <time>2023-05-12T10:35:10.639Z</time>
      </trkpt>
      <trkpt lat="50.57945" lon="3.48263">
        <ele>64.57</ele>
        <time>2023-05-12T10:35:13.533Z</time>
      </trkpt>
      <trkpt lat="50.58048" lon="3.48287">
        <ele>63.31</ele>
        <time>2023-05-12T10:35:16.444Z</time>
      </trkpt>
      <trkpt lat="50.58072" lon="3.48298">
        <ele>62.21</ele>
        <time>2023-05-12T10:35:19.359Z</time>
      </trkpt>
      <trkpt lat="50.58217" lon="3.48385">
        <ele>60.86</ele>
        <time>2023-05-12T10:35:22.299Z</time>
      </trkpt>
      <trkpt lat="50.5826" lon="3.48401">
        <ele>59.49</ele>
        <time>2023-05-12T10:35:25.246Z</time>
      </trkpt>
      <trkpt lat="50.58286" lon="3.48404">
        <ele>58.08</ele>
        <time>2023-05-12T10:35:28.197Z</time>
      </trkpt>
      <trkpt lat="50.58311" lon="3.48405">
        <ele>56.71</ele>
        <time>2023-05-12T10:35:31.152Z</time>
      </trkpt>
      <trkpt lat="50.58516" lon="3.484">
        <ele>55.07</ele>
        <time>2023-05-12T10:35:34.140Z</time>
      </trkpt>
      <trkpt lat="50.58543" lon="3.4841">
        <ele>53.95</ele>
        <time>2023-05-12T10:35:37.133Z</time>
      </trkpt>
      <trkpt lat="50.58563" lon="3.48436">
        <ele>52.98</ele>
        <time>2023-05-12T10:35:40.130Z</time>
      </trkpt>
      <trkpt lat="50.5859" lon="3.48481">
        <ele>52.22</ele>
        <time>2023-05-12T10:35:43.133Z</time>
      </trkpt>
      <trkpt lat="50.58625" lon="3.48547">
        <ele>51.57</ele>
        <time>2023-05-12T10:35:46.145Z</time>
      </trkpt>
      <trkpt lat="50.58637" lon="3.48584">
        <ele>51.03</ele>
        <time>2023-05-12T10:35:49.161Z</time>
      </trkpt>
      <trkpt lat="50.58646" lon="3.48703">
        <ele>50.8</ele>
        <time>2023-05-12T10:35:52.189Z</time>
      </trkpt>
      <trkpt lat="50.58649" lon="3.48726">
        <ele>50.38</ele>
        <time>2023-05-12T10:35:55.220Z</time>
      </trkpt>
      <trkpt lat="50.58656" lon="3.48743">
        <ele>50</ele>
        <time>2023-05-12T10:35:58.253Z</time>
      </trkpt>
      <trkpt lat="50.58667" lon="3.48764">
        <ele>49.65</ele>
        <time>2023-05-12T10:36:01.288Z</time>
      </trkpt>
      <trkpt lat="50.58676" lon="3.48778">
        <ele>49.31</ele>
        <time>2023-05-12T10:36:04.325Z</time>
      </trkpt>
      <trkpt lat="50.58685" lon="3.48786">
        <ele>48.98</ele>
        <time>2023-05-12T10:36:07.364Z</time>
      </trkpt>
      <trkpt lat="50.58693" lon="3.4879">
        <ele>48.66</ele>
        <time>2023-05-12T10:36:10.405Z</time>
      </trkpt>
      <trkpt lat="50.58797" lon="3.48801">
        <ele>48.28</ele>
        <time>2023-05-12T10:36:13.462Z</time>
      </trkpt>
      <trkpt lat="50.58807" lon="3.48804">
        <ele>47.96</ele>
        <time>2023-05-12T10:36:16.521Z</time>
      </trkpt>
      <trkpt lat="50.58815" lon="3.48811">
        <ele>47.67</ele>
        <time>2023-05-12T10:36:19.581Z</time>
      </trkpt>
      <trkpt lat="50.58847" lon="3.48855">
        <ele>47.3</ele>
        <time>2023-05-12T10:36:22.648Z</time>
      </trkpt>
      <trkpt lat="50.58859" lon="3.48834">
        <ele>46.94</ele>
        <time>2023-05-12T10:36:25.718Z</time>
      </trkpt>
      <trkpt lat="50.58876" lon="3.488">
        <ele>46.71</ele>
        <time>2023-05-12T10:36:28.792Z</time>
      </trkpt>
      <trkpt lat="50.58898" lon="3.48765">
        <ele>46.47</ele>
        <time>2023-05-12T10:36:31.871Z</time>
      </trkpt>
      <trkpt lat="50.58929" lon="3.48711">
        <ele>46.22</ele>
        <time>2023-05-12T10:36:34.958Z</time>
      </trkpt>
      <trkpt lat="50.58944" lon="3.48719">
        <ele>46.01</ele>
        <time>2023-05-12T10:36:38.047Z</time>
      </trkpt>
      <trkpt lat="50.58963" lon="3.48726">
        <ele>45.82</ele>
        <time>2023-05-12T10:36:41.139Z</time>
      </trkpt>
      <trkpt lat="50.5898" lon="3.48729">
        <ele>45.63</ele>
        <time>2023-05-12T10:36:44.234Z</time>
      </trkpt>
      <trkpt lat="50.58996" lon="3.48724">
        <ele>45.41</ele>
        <time>2023-05-12T10:36:47.332Z</time>
      </trkpt>
      <trkpt lat="50.59015" lon="3.4871">
        <ele>45.23</ele>
        <time>2023-05-12T10:36:50.433Z</time>
      </trkpt>
      <trkpt lat="50.59026" lon="3.48699">
        <ele>45.08</ele>
        <time>2023-05-12T10:36:53.536Z</time>
      </trkpt>
      <trkpt lat="50.59039" lon="3.48676">
        <ele>44.93</ele>
        <time>2023-05-12T10:36:56.642Z</time>
      </trkpt>
      <trkpt lat="50.59042" lon="3.48656">
        <ele>44.75</ele>
        <time>2023-05-12T10:36:59.750Z</time>
      </trkpt>
      <trkpt lat="50.59041" lon="3.48578">
        <ele>44.6</ele>
        <time>2023-05-12T10:37:02.866Z</time>
      </trkpt>
      <trkpt lat="50.59039" lon="3.48508">
        <ele>44.34</ele>
        <time>2023-05-12T10:37:05.990Z</time>
      </trkpt>
      <trkpt lat="50.59042" lon="3.48498">
        <ele>44.17</ele>
        <time>2023-05-12T10:37:09.115Z</time>
      </trkpt>
      <trkpt lat="50.59071" lon="3.48457">
        <ele>44.06</ele>
        <time>2023-05-12T10:37:12.246Z</time>
      </trkpt>
      <trkpt lat="50.59089" lon="3.4842">
        <ele>43.95</ele>
        <time>2023-05-12T10:37:15.382Z</time>
      </trkpt>
      <trkpt lat="50.59099" lon="3.48388">
        <ele>43.81</ele>
        <time>2023-05-12T10:37:18.521Z</time>
      </trkpt>
      <trkpt lat="50.59102" lon="3.48367">
        <ele>43.5</ele>
        <time>2023-05-12T10:37:21.662Z</time>
      </trkpt>
      <trkpt lat="50.5911" lon="3.48351">
        <ele>43.14</ele>
        <time>2023-05-12T10:37:24.805Z</time>
      </trkpt>
      <trkpt lat="50.59123" lon="3.48336">
        <ele>42.71</ele>
        <time>2023-05-12T10:37:27.951Z</time>
      </trkpt>
      <trkpt lat="50.59198" lon="3.48302">
        <ele>42.09</ele>
        <time>2023-05-12T10:37:31.110Z</time>
      </trkpt>
      <trkpt lat="50.59243" lon="3.48273">
        <ele>41.43</ele>
        <time>2023-05-12T10:37:34.276Z</time>
      </trkpt>
      <trkpt lat="50.59332" lon="3.48142">
        <ele>40.72</ele>
        <time>2023-05-12T10:37:37.462Z</time>
      </trkpt>
      <trkpt lat="50.59369" lon="3.48082">
        <ele>40.42</ele>
        <time>2023-05-12T10:37:40.656Z</time>
      </trkpt>
      <trkpt lat="50.59315" lon="3.48023">
        <ele>40.82</ele>
        <time>2023-05-12T10:37:43.861Z</time>
      </trkpt>
      <trkpt lat="50.59304" lon="3.48014">
        <ele>40.69</ele>
        <time>2023-05-12T10:37:47.068Z</time>
      </trkpt>
      <trkpt lat="50.59227" lon="3.47948">
        <ele>40.52</ele>
        <time>2023-05-12T10:37:50.289Z</time>
      </trkpt>
      <trkpt lat="50.59219" lon="3.47937">
        <ele>40.52</ele>
        <time>2023-05-12T10:37:53.512Z</time>
      </trkpt>
      <trkpt lat="50.59216" lon="3.4792">
        <ele>40.58</ele>
        <time>2023-05-12T10:37:56.737Z</time>
      </trkpt>
      <trkpt lat="50.59222" lon="3.47887">
        <ele>40.68</ele>
        <time>2023-05-12T10:37:59.965Z</time>
      </trkpt>
      <trkpt lat="50.59245" lon="3.47798">
        <ele>40.69</ele>
        <time>2023-05-12T10:38:03.203Z</time>
      </trkpt>
      <trkpt lat="50.59267" lon="3.47728">
        <ele>40.49</ele>
        <time>2023-05-12T10:38:06.449Z</time>
      </trkpt>
      <trkpt lat="50.59281" lon="3.47696">
        <ele>40.37</ele>
        <time>2023-05-12T10:38:09.699Z</time>
      </trkpt>
      <trkpt lat="50.59281" lon="3.47696">
        <ele>40.36</ele>
        <time>2023-05-12T10:38:12.949Z</time>
      </trkpt>
      <trkpt lat="50.59314" lon="3.47621">
        <ele>40.23</ele>
        <time>2023-05-12T10:38:16.208Z</time>
      </trkpt>
      <trkpt lat="50.5933" lon="3.47563">
        <ele>40.64</ele>
        <time>2023-05-12T10:38:19.474Z</time>
      </trkpt>
      <trkpt lat="50.5933" lon="3.47563">
        <ele>40.91</ele>
        <time>2023-05-12T10:38:22.740Z</time>
      </trkpt>
      <trkpt lat="50.59349" lon="3.47484">
        <ele>41.42</ele>
        <time>2023-05-12T10:38:26.014Z</time>
      </trkpt>
      <trkpt lat="50.59356" lon="3.47475">
        <ele>41.72</ele>
        <time>2023-05-12T10:38:29.290Z</time>
      </trkpt>
      <trkpt lat="50.59381" lon="3.47432">
        <ele>41.87</ele>
        <time>2023-05-12T10:38:32.572Z</time>
      </trkpt>
      <trkpt lat="50.59426" lon="3.47386">
        <ele>41.92</ele>
        <time>2023-05-12T10:38:35.862Z</time>
      </trkpt>
      <trkpt lat="50.59426" lon="3.47386">
        <ele>41.92</ele>
        <time>2023-05-12T10:38:39.152Z</time>
      </trkpt>
      <trkpt lat="50.59426" lon="3.47386">
        <ele>41.93</ele>
        <time>2023-05-12T10:38:42.442Z</time>
      </trkpt>
      <trkpt lat="50.59426" lon="3.47386">
        <ele>41.94</ele>
        <time>2023-05-12T10:38:45.732Z</time>
      </trkpt>
      <trkpt lat="50.59426" lon="3.47386">
        <ele>41.95</ele>
        <time>2023-05-12T10:38:49.022Z</time>
      </trkpt>
      <trkpt lat="50.59426" lon="3.47386">
        <ele>41.96</ele>
        <time>2023-05-12T10:38:52.312Z</time>
      </trkpt>
      <trkpt lat="50.59429" lon="3.47383">
        <ele>41.97</ele>
        <time>2023-05-12T10:38:55.603Z</time>
      </trkpt>
      <trkpt lat="50.59429" lon="3.47383">
        <ele>41.98</ele>
        <time>2023-05-12T10:38:58.894Z</time>
      </trkpt>
      <trkpt lat="50.59432" lon="3.4738">
        <ele>41.99</ele>
        <time>2023-05-12T10:39:02.185Z</time>
      </trkpt>
      <trkpt lat="50.59515" lon="3.47315">
        <ele>41.34</ele>
        <time>2023-05-12T10:39:05.491Z</time>
      </trkpt>
      <trkpt lat="50.59575" lon="3.4728">
        <ele>40.77</ele>
        <time>2023-05-12T10:39:08.807Z</time>
      </trkpt>
      <trkpt lat="50.59581" lon="3.47228">
        <ele>39.78</ele>
        <time>2023-05-12T10:39:12.129Z</time>
      </trkpt>
      <trkpt lat="50.59596" lon="3.47123">
        <ele>39.34</ele>
        <time>2023-05-12T10:39:15.462Z</time>
      </trkpt>
      <trkpt lat="50.59596" lon="3.47123">
        <ele>39.34</ele>
        <time>2023-05-12T10:39:18.795Z</time>
      </trkpt>
      <trkpt lat="50.59596" lon="3.47123">
        <ele>39.34</ele>
        <time>2023-05-12T10:39:22.128Z</time>
      </trkpt>
      <trkpt lat="50.59596" lon="3.47123">
        <ele>39.34</ele>
        <time>2023-05-12T10:39:25.461Z</time>
      </trkpt>
      <trkpt lat="50.59596" lon="3.47123">
        <ele>39.34</ele>
        <time>2023-05-12T10:39:28.794Z</time>
      </trkpt>
      <trkpt lat="50.59596" lon="3.47123">
        <ele>39.34</ele>
        <time>2023-05-12T10:39:32.127Z</time>
      </trkpt>
      <trkpt lat="50.59597" lon="3.47118">
        <ele>39.32</ele>
        <time>2023-05-12T10:39:35.460Z</time>
      </trkpt>
      <trkpt lat="50.59597" lon="3.47118">
        <ele>39.32</ele>
        <time>2023-05-12T10:39:38.793Z</time>
      </trkpt>
      <trkpt lat="50.59597" lon="3.47118">
        <ele>39.25</ele>
        <time>2023-05-12T10:39:42.126Z</time>
      </trkpt>
      <trkpt lat="50.59602" lon="3.47085">
        <ele>40.02</ele>
        <time>2023-05-12T10:39:45.463Z</time>
      </trkpt>
      <trkpt lat="50.59602" lon="3.47085">
        <ele>40.01</ele>
        <time>2023-05-12T10:39:48.800Z</time>
      </trkpt>
      <trkpt lat="50.59616" lon="3.46988">
        <ele>39.69</ele>
        <time>2023-05-12T10:39:52.147Z</time>
      </trkpt>
      <trkpt lat="50.59628" lon="3.46912">
        <ele>39.33</ele>
        <time>2023-05-12T10:39:55.502Z</time>
      </trkpt>
      <trkpt lat="50.59628" lon="3.46912">
        <ele>38.99</ele>
        <time>2023-05-12T10:39:58.857Z</time>
      </trkpt>
      <trkpt lat="50.59633" lon="3.46885">
        <ele>38.55</ele>
        <time>2023-05-12T10:40:02.215Z</time>
      </trkpt>
      <trkpt lat="50.59641" lon="3.46846">
        <ele>38.04</ele>
        <time>2023-05-12T10:40:05.577Z</time>
      </trkpt>
      <trkpt lat="50.59643" lon="3.46847">
        <ele>37.45</ele>
        <time>2023-05-12T10:40:08.939Z</time>
      </trkpt>
      <trkpt lat="50.59748" lon="3.46916">
        <ele>36.6</ele>
        <time>2023-05-12T10:40:12.320Z</time>
      </trkpt>
      <trkpt lat="50.59802" lon="3.4695">
        <ele>35.62</ele>
        <time>2023-05-12T10:40:15.710Z</time>
      </trkpt>
      <trkpt lat="50.59859" lon="3.46987">
        <ele>34.44</ele>
        <time>2023-05-12T10:40:19.110Z</time>
      </trkpt>
      <trkpt lat="50.59863" lon="3.46989">
        <ele>33.39</ele>
        <time>2023-05-12T10:40:22.511Z</time>
      </trkpt>
      <trkpt lat="50.59938" lon="3.47033">
        <ele>31.85</ele>
        <time>2023-05-12T10:40:25.924Z</time>
      </trkpt>
      <trkpt lat="50.59958" lon="3.47034">
        <ele>30.66</ele>
        <time>2023-05-12T10:40:29.341Z</time>
      </trkpt>
      <trkpt lat="50.60084" lon="3.46996">
        <ele>29.54</ele>
        <time>2023-05-12T10:40:32.778Z</time>
      </trkpt>
      <trkpt lat="50.60096" lon="3.47001">
        <ele>28.55</ele>
        <time>2023-05-12T10:40:36.217Z</time>
      </trkpt>
      <trkpt lat="50.60106" lon="3.47009">
        <ele>27.69</ele>
        <time>2023-05-12T10:40:39.658Z</time>
      </trkpt>
      <trkpt lat="50.60118" lon="3.47021">
        <ele>27</ele>
        <time>2023-05-12T10:40:43.101Z</time>
      </trkpt>
      <trkpt lat="50.60172" lon="3.47099">
        <ele>26.61</ele>
        <time>2023-05-12T10:40:46.556Z</time>
      </trkpt>
      <trkpt lat="50.60206" lon="3.47138">
        <ele>26.8</ele>
        <time>2023-05-12T10:40:50.018Z</time>
      </trkpt>
      <trkpt lat="50.60251" lon="3.47181">
        <ele>27.15</ele>
        <time>2023-05-12T10:40:53.488Z</time>
      </trkpt>
      <trkpt lat="50.60251" lon="3.47181">
        <ele>27.16</ele>
        <time>2023-05-12T10:40:56.958Z</time>
      </trkpt>
      <trkpt lat="50.60251" lon="3.47181">
        <ele>27.17</ele>
        <time>2023-05-12T10:41:00.428Z</time>
      </trkpt>
      <trkpt lat="50.60251" lon="3.47181">
        <ele>27.18</ele>
        <time>2023-05-12T10:41:03.898Z</time>
      </trkpt>
      <trkpt lat="50.60251" lon="3.47181">
        <ele>27.19</ele>
        <time>2023-05-12T10:41:07.368Z</time>
      </trkpt>
      <trkpt lat="50.60251" lon="3.47181">
        <ele>27.2</ele>
        <time>2023-05-12T10:41:10.838Z</time>
      </trkpt>
      <trkpt lat="50.60255" lon="3.47184">
        <ele>27.24</ele>
        <time>2023-05-12T10:41:14.309Z</time>
      </trkpt>
      <trkpt lat="50.60255" lon="3.47184">
        <ele>27.25</ele>
        <time>2023-05-12T10:41:17.780Z</time>
      </trkpt>
      <trkpt lat="50.60255" lon="3.47184">
        <ele>27.6</ele>
        <time>2023-05-12T10:41:21.251Z</time>
      </trkpt>
      <trkpt lat="50.60255" lon="3.47184">
        <ele>27.61</ele>
        <time>2023-05-12T10:41:24.722Z</time>
      </trkpt>
      <trkpt lat="50.60255" lon="3.47184">
        <ele>27.62</ele>
        <time>2023-05-12T10:41:28.193Z</time>
      </trkpt>
      <trkpt lat="50.60256" lon="3.47185">
        <ele>27.63</ele>
        <time>2023-05-12T10:41:31.664Z</time>
      </trkpt>
      <trkpt lat="50.60258" lon="3.47187">
        <ele>26.99</ele>
        <time>2023-05-12T10:41:35.135Z</time>
      </trkpt>
      <trkpt lat="50.60258" lon="3.47187">
        <ele>26.98</ele>
        <time>2023-05-12T10:41:38.606Z</time>
      </trkpt>
      <trkpt lat="50.60305" lon="3.47216">
        <ele>26.28</ele>
        <time>2023-05-12T10:41:42.085Z</time>
      </trkpt>
      <trkpt lat="50.60305" lon="3.47216">
        <ele>25.66</ele>
        <time>2023-05-12T10:41:45.564Z</time>
      </trkpt>
      <trkpt lat="50.60311" lon="3.47219">
        <ele>25.05</ele>
        <time>2023-05-12T10:41:49.045Z</time>
      </trkpt>
      <trkpt lat="50.60354" lon="3.47232">
        <ele>24.29</ele>
        <time>2023-05-12T10:41:52.533Z</time>
      </trkpt>
      <trkpt lat="50.60385" lon="3.47232">
        <ele>23.44</ele>
        <time>2023-05-12T10:41:56.026Z</time>
      </trkpt>
      <trkpt lat="50.60404" lon="3.4723">
        <ele>22.53</ele>
        <time>2023-05-12T10:41:59.521Z</time>
      </trkpt>
      <trkpt lat="50.60465" lon="3.47211">
        <ele>21.74</ele>
        <time>2023-05-12T10:42:03.026Z</time>
      </trkpt>
      <trkpt lat="50.60516" lon="3.47202">
        <ele>21</ele>
        <time>2023-05-12T10:42:06.540Z</time>
      </trkpt>
      <trkpt lat="50.60555" lon="3.47209">
        <ele>20.77</ele>
        <time>2023-05-12T10:42:10.060Z</time>
      </trkpt>
      <trkpt lat="50.60613" lon="3.47237">
        <ele>20.33</ele>
        <time>2023-05-12T10:42:13.590Z</time>
      </trkpt>
      <trkpt lat="50.60759" lon="3.47354">
        <ele>20.75</ele>
        <time>2023-05-12T10:42:17.146Z</time>
      </trkpt>
      <trkpt lat="50.6085" lon="3.47419">
        <ele>21.71</ele>
        <time>2023-05-12T10:42:20.718Z</time>
      </trkpt>
      <trkpt lat="50.60975" lon="3.47513">
        <ele>22.94</ele>
        <time>2023-05-12T10:42:24.312Z</time>
      </trkpt>
      <trkpt lat="50.6098" lon="3.47517">
        <ele>23.98</ele>
        <time>2023-05-12T10:42:27.907Z</time>
      </trkpt>
      <trkpt lat="50.61076" lon="3.47589">
        <ele>25.35</ele>
        <time>2023-05-12T10:42:31.519Z</time>
      </trkpt>
      <trkpt lat="50.61099" lon="3.47599">
        <ele>26.8</ele>
        <time>2023-05-12T10:42:35.135Z</time>
      </trkpt>
      <trkpt lat="50.61139" lon="3.47606">
        <ele>28.38</ele>
        <time>2023-05-12T10:42:38.757Z</time>
      </trkpt>
      <trkpt lat="50.61163" lon="3.47607">
        <ele>29.52</ele>
        <time>2023-05-12T10:42:42.383Z</time>
      </trkpt>
      <trkpt lat="50.61211" lon="3.47601">
        <ele>30.32</ele>
        <time>2023-05-12T10:42:46.017Z</time>
      </trkpt>
      <trkpt lat="50.61226" lon="3.47744">
        <ele>31.23</ele>
        <time>2023-05-12T10:42:49.666Z</time>
      </trkpt>
      <trkpt lat="50.61229" lon="3.47778">
        <ele>31.64</ele>
        <time>2023-05-12T10:42:53.318Z</time>
      </trkpt>
      <trkpt lat="50.61226" lon="3.47806">
        <ele>31.97</ele>
        <time>2023-05-12T10:42:56.973Z</time>
      </trkpt>
      <trkpt lat="50.61222" lon="3.47834">
        <ele>32.33</ele>
        <time>2023-05-12T10:43:00.631Z</time>
      </trkpt>
      <trkpt lat="50.61214" lon="3.47861">
        <ele>32.61</ele>
        <time>2023-05-12T10:43:04.292Z</time>
      </trkpt>
      <trkpt lat="50.612" lon="3.4789">
        <ele>32.72</ele>
        <time>2023-05-12T10:43:07.957Z</time>
      </trkpt>
      <trkpt lat="50.61189" lon="3.47907">
        <ele>32.82</ele>
        <time>2023-05-12T10:43:11.624Z</time>
      </trkpt>
      <trkpt lat="50.61178" lon="3.47916">
        <ele>32.86</ele>
        <time>2023-05-12T10:43:15.293Z</time>
      </trkpt>
      <trkpt lat="50.61142" lon="3.47975">
        <ele>32.83</ele>
        <time>2023-05-12T10:43:18.971Z</time>
      </trkpt>
      <trkpt lat="50.61134" lon="3.47993">
        <ele>32.69</ele>
        <time>2023-05-12T10:43:22.651Z</time>
      </trkpt>
      <trkpt lat="50.61133" lon="3.48008">
        <ele>32.61</ele>
        <time>2023-05-12T10:43:26.332Z</time>
      </trkpt>
      <trkpt lat="50.61133" lon="3.48021">
        <ele>32.59</ele>
        <time>2023-05-12T10:43:30.015Z</time>
      </trkpt>
      <trkpt lat="50.61139" lon="3.48042">
        <ele>32.55</ele>
        <time>2023-05-12T10:43:33.700Z</time>
      </trkpt>
      <trkpt lat="50.61154" lon="3.48083">
        <ele>32.68</ele>
        <time>2023-05-12T10:43:37.390Z</time>
      </trkpt>
      <trkpt lat="50.61171" lon="3.48157">
        <ele>33.06</ele>
        <time>2023-05-12T10:43:41.088Z</time>
      </trkpt>
      <trkpt lat="50.61176" lon="3.48169">
        <ele>33.25</ele>
        <time>2023-05-12T10:43:44.787Z</time>
      </trkpt>
      <trkpt lat="50.61162" lon="3.48181">
        <ele>33.4</ele>
        <time>2023-05-12T10:43:48.489Z</time>
      </trkpt>
      <trkpt lat="50.61102" lon="3.48241">
        <ele>33.73</ele>
        <time>2023-05-12T10:43:52.202Z</time>
      </trkpt>
      <trkpt lat="50.61072" lon="3.48264">
        <ele>33.92</ele>
        <time>2023-05-12T10:43:55.921Z</time>
      </trkpt>
      <trkpt lat="50.61044" lon="3.48315">
        <ele>34.14</ele>
        <time>2023-05-12T10:43:59.647Z</time>
      </trkpt>
      <trkpt lat="50.61044" lon="3.48315">
        <ele>34.15</ele>
        <time>2023-05-12T10:44:03.373Z</time>
      </trkpt>
      <trkpt lat="50.61044" lon="3.48315">
        <ele>34.16</ele>
        <time>2023-05-12T10:44:07.099Z</time>
      </trkpt>
      <trkpt lat="50.61044" lon="3.48315">
        <ele>34.17</ele>
        <time>2023-05-12T10:44:10.825Z</time>
      </trkpt>
      <trkpt lat="50.61044" lon="3.48315">
        <ele>34.18</ele>
        <time>2023-05-12T10:44:14.551Z</time>
      </trkpt>
      <trkpt lat="50.61044" lon="3.48316">
        <ele>34.19</ele>
        <time>2023-05-12T10:44:18.277Z</time>
      </trkpt>
      <trkpt lat="50.61041" lon="3.4832">
        <ele>34.22</ele>
        <time>2023-05-12T10:44:22.003Z</time>
      </trkpt>
      <trkpt lat="50.61041" lon="3.4832">
        <ele>34.23</ele>
        <time>2023-05-12T10:44:25.729Z</time>
      </trkpt>
      <trkpt lat="50.61041" lon="3.4832">
        <ele>34.24</ele>
        <time>2023-05-12T10:44:29.455Z</time>
      </trkpt>
      <trkpt lat="50.61041" lon="3.4832">
        <ele>34.25</ele>
        <time>2023-05-12T10:44:33.181Z</time>
      </trkpt>
      <trkpt lat="50.61039" lon="3.48325">
        <ele>34.28</ele>
        <time>2023-05-12T10:44:36.908Z</time>
      </trkpt>
      <trkpt lat="50.61039" lon="3.48325">
        <ele>34.29</ele>
        <time>2023-05-12T10:44:40.635Z</time>
      </trkpt>
      <trkpt lat="50.61025" lon="3.4835">
        <ele>34.32</ele>
        <time>2023-05-12T10:44:44.365Z</time>
      </trkpt>
      <trkpt lat="50.60949" lon="3.4855">
        <ele>40.73</ele>
        <time>2023-05-12T10:44:48.119Z</time>
      </trkpt>
      <trkpt lat="50.61236" lon="3.48776">
        <ele>33.2</ele>
        <time>2023-05-12T10:44:51.924Z</time>
      </trkpt>
      <trkpt lat="50.61341" lon="3.4886">
        <ele>38.86</ele>
        <time>2023-05-12T10:44:55.748Z</time>
      </trkpt>
      <trkpt lat="50.61357" lon="3.48873">
        <ele>39.84</ele>
        <time>2023-05-12T10:44:59.575Z</time>
      </trkpt>
      <trkpt lat="50.61357" lon="3.48873">
        <ele>39.84</ele>
        <time>2023-05-12T10:45:03.402Z</time>
      </trkpt>
      <trkpt lat="50.61425" lon="3.48934">
        <ele>38.45</ele>
        <time>2023-05-12T10:45:07.242Z</time>
      </trkpt>
      <trkpt lat="50.61453" lon="3.48934">
        <ele>37.64</ele>
        <time>2023-05-12T10:45:11.086Z</time>
      </trkpt>
      <trkpt lat="50.61568" lon="3.4892">
        <ele>36.3</ele>
        <time>2023-05-12T10:45:14.949Z</time>
      </trkpt>
      <trkpt lat="50.61568" lon="3.4892">
        <ele>36.3</ele>
        <time>2023-05-12T10:45:18.812Z</time>
      </trkpt>
      <trkpt lat="50.61568" lon="3.4892">
        <ele>36.3</ele>
        <time>2023-05-12T10:45:22.675Z</time>
      </trkpt>
      <trkpt lat="50.61568" lon="3.4892">
        <ele>36.3</ele>
        <time>2023-05-12T10:45:26.538Z</time>
      </trkpt>
      <trkpt lat="50.61568" lon="3.4892">
        <ele>36.3</ele>
        <time>2023-05-12T10:45:30.401Z</time>
      </trkpt>
      <trkpt lat="50.61568" lon="3.4892">
        <ele>36.3</ele>
        <time>2023-05-12T10:45:34.264Z</time>
      </trkpt>
      <trkpt lat="50.61572" lon="3.48919">
        <ele>36.26</ele>
        <time>2023-05-12T10:45:38.127Z</time>
      </trkpt>
      <trkpt lat="50.61572" lon="3.48919">
        <ele>36.26</ele>
        <time>2023-05-12T10:45:41.990Z</time>
      </trkpt>
      <trkpt lat="50.61572" lon="3.48919">
        <ele>36.26</ele>
        <time>2023-05-12T10:45:45.853Z</time>
      </trkpt>
      <trkpt lat="50.61572" lon="3.48919">
        <ele>36.26</ele>
        <time>2023-05-12T10:45:49.716Z</time>
      </trkpt>
      <trkpt lat="50.61576" lon="3.48919">
        <ele>36.22</ele>
        <time>2023-05-12T10:45:53.580Z</time>
      </trkpt>
      <trkpt lat="50.61576" lon="3.48919">
        <ele>36.22</ele>
        <time>2023-05-12T10:45:57.444Z</time>
      </trkpt>
      <trkpt lat="50.61645" lon="3.4891">
        <ele>35.75</ele>
        <time>2023-05-12T10:46:01.319Z</time>
      </trkpt>
      <trkpt lat="50.61729" lon="3.489">
        <ele>34.57</ele>
        <time>2023-05-12T10:46:05.207Z</time>
      </trkpt>
      <trkpt lat="50.61733" lon="3.48915">
        <ele>33.91</ele>
        <time>2023-05-12T10:46:09.097Z</time>
      </trkpt>
      <trkpt lat="50.61775" lon="3.48891">
        <ele>33.04</ele>
        <time>2023-05-12T10:46:12.994Z</time>
      </trkpt>
      <trkpt lat="50.61804" lon="3.48857">
        <ele>32.35</ele>
        <time>2023-05-12T10:46:16.897Z</time>
      </trkpt>
      <trkpt lat="50.61875" lon="3.48784">
        <ele>31.66</ele>
        <time>2023-05-12T10:46:20.814Z</time>
      </trkpt>
      <trkpt lat="50.61896" lon="3.48773">
        <ele>31.66</ele>
        <time>2023-05-12T10:46:24.734Z</time>
      </trkpt>
      <trkpt lat="50.61903" lon="3.48769">
        <ele>32.26</ele>
        <time>2023-05-12T10:46:28.656Z</time>
      </trkpt>
      <trkpt lat="50.61981" lon="3.4873">
        <ele>34.02</ele>
        <time>2023-05-12T10:46:32.591Z</time>
      </trkpt>
      <trkpt lat="50.61998" lon="3.48689">
        <ele>35.62</ele>
        <time>2023-05-12T10:46:36.531Z</time>
      </trkpt>
      <trkpt lat="50.62008" lon="3.48611">
        <ele>37.41</ele>
        <time>2023-05-12T10:46:40.479Z</time>
      </trkpt>
      <trkpt lat="50.62032" lon="3.48566">
        <ele>38.97</ele>
        <time>2023-05-12T10:46:44.433Z</time>
      </trkpt>
      <trkpt lat="50.6204" lon="3.48561">
        <ele>39.6</ele>
        <time>2023-05-12T10:46:48.388Z</time>
      </trkpt>
      <trkpt lat="50.6204" lon="3.48561">
        <ele>39.61</ele>
        <time>2023-05-12T10:46:52.343Z</time>
      </trkpt>
      <trkpt lat="50.6204" lon="3.48561">
        <ele>39.62</ele>
        <time>2023-05-12T10:46:56.298Z</time>
      </trkpt>
      <trkpt lat="50.6204" lon="3.48561">
        <ele>39.63</ele>
        <time>2023-05-12T10:47:00.253Z</time>
      </trkpt>
      <trkpt lat="50.6204" lon="3.48561">
        <ele>39.64</ele>
        <time>2023-05-12T10:47:04.208Z</time>
      </trkpt>
      <trkpt lat="50.62041" lon="3.48561">
        <ele>39.65</ele>
        <time>2023-05-12T10:47:08.163Z</time>
      </trkpt>
      <trkpt lat="50.62044" lon="3.48559">
        <ele>39.96</ele>
        <time>2023-05-12T10:47:12.119Z</time>
      </trkpt>
      <trkpt lat="50.62044" lon="3.48559">
        <ele>39.97</ele>
        <time>2023-05-12T10:47:16.075Z</time>
      </trkpt>
      <trkpt lat="50.62044" lon="3.48559">
        <ele>39.98</ele>
        <time>2023-05-12T10:47:20.031Z</time>
      </trkpt>
      <trkpt lat="50.62044" lon="3.48559">
        <ele>39.99</ele>
        <time>2023-05-12T10:47:23.987Z</time>
      </trkpt>
      <trkpt lat="50.62047" lon="3.48557">
        <ele>40.23</ele>
        <time>2023-05-12T10:47:27.943Z</time>
      </trkpt>
      <trkpt lat="50.62048" lon="3.48557">
        <ele>40.98</ele>
        <time>2023-05-12T10:47:31.899Z</time>
      </trkpt>
      <trkpt lat="50.62048" lon="3.48557">
        <ele>41.08</ele>
        <time>2023-05-12T10:47:35.855Z</time>
      </trkpt>
      <trkpt lat="50.62048" lon="3.48557">
        <ele>42.27</ele>
        <time>2023-05-12T10:47:39.811Z</time>
      </trkpt>
      <trkpt lat="50.62079" lon="3.48549">
        <ele>43.16</ele>
        <time>2023-05-12T10:47:43.773Z</time>
      </trkpt>
      <trkpt lat="50.62096" lon="3.48549">
        <ele>44.03</ele>
        <time>2023-05-12T10:47:47.737Z</time>
      </trkpt>
      <trkpt lat="50.6212" lon="3.48549">
        <ele>45.1</ele>
        <time>2023-05-12T10:47:51.705Z</time>
      </trkpt>
      <trkpt lat="50.62152" lon="3.48552">
        <ele>46.39</ele>
        <time>2023-05-12T10:47:55.678Z</time>
      </trkpt>
      <trkpt lat="50.62197" lon="3.48553">
        <ele>48.34</ele>
        <time>2023-05-12T10:47:59.658Z</time>
      </trkpt>
      <trkpt lat="50.62245" lon="3.48542">
        <ele>50.56</ele>
        <time>2023-05-12T10:48:03.646Z</time>
      </trkpt>
      <trkpt lat="50.62347" lon="3.48537">
        <ele>52.86</ele>
        <time>2023-05-12T10:48:07.650Z</time>
      </trkpt>
      <trkpt lat="50.62365" lon="3.48535">
        <ele>54.87</ele>
        <time>2023-05-12T10:48:11.657Z</time>
      </trkpt>
      <trkpt lat="50.62365" lon="3.48535">
        <ele>54.88</ele>
        <time>2023-05-12T10:48:15.664Z</time>
      </trkpt>
      <trkpt lat="50.62365" lon="3.48535">
        <ele>54.89</ele>
        <time>2023-05-12T10:48:19.671Z</time>
      </trkpt>
      <trkpt lat="50.62365" lon="3.48535">
        <ele>54.9</ele>
        <time>2023-05-12T10:48:23.678Z</time>
      </trkpt>
      <trkpt lat="50.62365" lon="3.48535">
        <ele>54.91</ele>
        <time>2023-05-12T10:48:27.685Z</time>
      </trkpt>
      <trkpt lat="50.62365" lon="3.48535">
        <ele>54.92</ele>
        <time>2023-05-12T10:48:31.692Z</time>
      </trkpt>
      <trkpt lat="50.62369" lon="3.48534">
        <ele>55.36</ele>
        <time>2023-05-12T10:48:35.700Z</time>
      </trkpt>
      <trkpt lat="50.62369" lon="3.48534">
        <ele>55.37</ele>
        <time>2023-05-12T10:48:39.708Z</time>
      </trkpt>
      <trkpt lat="50.62369" lon="3.48534">
        <ele>55.38</ele>
        <time>2023-05-12T10:48:43.716Z</time>
      </trkpt>
      <trkpt lat="50.62369" lon="3.48534">
        <ele>55.39</ele>
        <time>2023-05-12T10:48:47.724Z</time>
      </trkpt>
      <trkpt lat="50.62373" lon="3.48534">
        <ele>55.8</ele>
        <time>2023-05-12T10:48:51.733Z</time>
      </trkpt>
      <trkpt lat="50.62373" lon="3.48534">
        <ele>55.81</ele>
        <time>2023-05-12T10:48:55.742Z</time>
      </trkpt>
      <trkpt lat="50.62382" lon="3.48533">
        <ele>55.88</ele>
        <time>2023-05-12T10:48:59.752Z</time>
      </trkpt>
      <trkpt lat="50.62407" lon="3.48523">
        <ele>55.86</ele>
        <time>2023-05-12T10:49:03.766Z</time>
      </trkpt>
      <trkpt lat="50.62406" lon="3.48553">
        <ele>56.1</ele>
        <time>2023-05-12T10:49:07.783Z</time>
      </trkpt>
      <trkpt lat="50.62408" lon="3.48582">
        <ele>56.09</ele>
        <time>2023-05-12T10:49:11.803Z</time>
      </trkpt>
      <trkpt lat="50.62411" lon="3.48601">
        <ele>55.93</ele>
        <time>2023-05-12T10:49:15.825Z</time>
      </trkpt>
      <trkpt lat="50.62428" lon="3.48625">
        <ele>55.52</ele>
        <time>2023-05-12T10:49:19.851Z</time>
      </trkpt>
      <trkpt lat="50.62437" lon="3.48656">
        <ele>54.93</ele>
        <time>2023-05-12T10:49:23.880Z</time>
      </trkpt>
      <trkpt lat="50.62442" lon="3.48683">
        <ele>54.15</ele>
        <time>2023-05-12T10:49:27.912Z</time>
      </trkpt>
      <trkpt lat="50.62442" lon="3.48697">
        <ele>53.21</ele>
        <time>2023-05-12T10:49:31.946Z</time>
      </trkpt>
      <trkpt lat="50.62417" lon="3.48748">
        <ele>51.86</ele>
        <time>2023-05-12T10:49:35.986Z</time>
      </trkpt>
      <trkpt lat="50.62348" lon="3.48871">
        <ele>50.22</ele>
        <time>2023-05-12T10:49:40.043Z</time>
      </trkpt>
      <trkpt lat="50.62363" lon="3.48888">
        <ele>49.38</ele>
        <time>2023-05-12T10:49:44.103Z</time>
      </trkpt>
      <trkpt lat="50.6243" lon="3.48985">
        <ele>48.18</ele>
        <time>2023-05-12T10:49:48.178Z</time>
      </trkpt>
      <trkpt lat="50.62442" lon="3.48998">
        <ele>47.26</ele>
        <time>2023-05-12T10:49:52.255Z</time>
      </trkpt>
      <trkpt lat="50.62442" lon="3.48999">
        <ele>47.26</ele>
        <time>2023-05-12T10:49:56.332Z</time>
      </trkpt>
      <trkpt lat="50.62442" lon="3.48999">
        <ele>47.26</ele>
        <time>2023-05-12T10:50:00.409Z</time>
      </trkpt>
      <trkpt lat="50.62442" lon="3.48999">
        <ele>47.26</ele>
        <time>2023-05-12T10:50:04.486Z</time>
      </trkpt>
      <trkpt lat="50.62442" lon="3.48999">
        <ele>47.26</ele>
        <time>2023-05-12T10:50:08.563Z</time>
      </trkpt>
      <trkpt lat="50.62442" lon="3.48999">
        <ele>47.26</ele>
        <time>2023-05-12T10:50:12.640Z</time>
      </trkpt>
      <trkpt lat="50.62445" lon="3.49002">
        <ele>47.01</ele>
        <time>2023-05-12T10:50:16.718Z</time>
      </trkpt>
      <trkpt lat="50.62445" lon="3.49002">
        <ele>47.01</ele>
        <time>2023-05-12T10:50:20.796Z</time>
      </trkpt>
      <trkpt lat="50.62445" lon="3.49003">
        <ele>47.01</ele>
        <time>2023-05-12T10:50:24.874Z</time>
      </trkpt>
      <trkpt lat="50.62445" lon="3.49003">
        <ele>47.01</ele>
        <time>2023-05-12T10:50:28.952Z</time>
      </trkpt>
      <trkpt lat="50.62448" lon="3.49006">
        <ele>46.78</ele>
        <time>2023-05-12T10:50:33.030Z</time>
      </trkpt>
      <trkpt lat="50.62448" lon="3.49006">
        <ele>46.78</ele>
        <time>2023-05-12T10:50:37.108Z</time>
      </trkpt>
      <trkpt lat="50.62492" lon="3.49057">
        <ele>46.25</ele>
        <time>2023-05-12T10:50:41.195Z</time>
      </trkpt>
      <trkpt lat="50.62528" lon="3.49094">
        <ele>45.96</ele>
        <time>2023-05-12T10:50:45.289Z</time>
      </trkpt>
      <trkpt lat="50.62545" lon="3.49114">
        <ele>45.88</ele>
        <time>2023-05-12T10:50:49.386Z</time>
      </trkpt>
      <trkpt lat="50.62582" lon="3.49172">
        <ele>45.79</ele>
        <time>2023-05-12T10:50:53.492Z</time>
      </trkpt>
      <trkpt lat="50.6259" lon="3.4919">
        <ele>45.51</ele>
        <time>2023-05-12T10:50:57.600Z</time>
      </trkpt>
      <trkpt lat="50.62617" lon="3.4929">
        <ele>44.86</ele>
        <time>2023-05-12T10:51:01.719Z</time>
      </trkpt>
      <trkpt lat="50.62637" lon="3.49349">
        <ele>44.42</ele>
        <time>2023-05-12T10:51:05.845Z</time>
      </trkpt>
      <trkpt lat="50.62653" lon="3.49382">
        <ele>44.12</ele>
        <time>2023-05-12T10:51:09.975Z</time>
      </trkpt>
      <trkpt lat="50.62763" lon="3.49533">
        <ele>43.88</ele>
        <time>2023-05-12T10:51:14.128Z</time>
      </trkpt>
      <trkpt lat="50.62817" lon="3.4962">
        <ele>43.74</ele>
        <time>2023-05-12T10:51:18.294Z</time>
      </trkpt>
      <trkpt lat="50.6284" lon="3.49648">
        <ele>43.89</ele>
        <time>2023-05-12T10:51:22.464Z</time>
      </trkpt>
      <trkpt lat="50.62907" lon="3.497">
        <ele>44.28</ele>
        <time>2023-05-12T10:51:26.646Z</time>
      </trkpt>
      <trkpt lat="50.62963" lon="3.4974">
        <ele>44.85</ele>
        <time>2023-05-12T10:51:30.838Z</time>
      </trkpt>
      <trkpt lat="50.62986" lon="3.49749">
        <ele>45.95</ele>
        <time>2023-05-12T10:51:35.034Z</time>
      </trkpt>
      <trkpt lat="50.62995" lon="3.49745">
        <ele>47.35</ele>
        <time>2023-05-12T10:51:39.231Z</time>
      </trkpt>
      <trkpt lat="50.63027" lon="3.49724">
        <ele>49.27</ele>
        <time>2023-05-12T10:51:43.434Z</time>
      </trkpt>
      <trkpt lat="50.63034" lon="3.49721">
        <ele>51.45</ele>
        <time>2023-05-12T10:51:47.638Z</time>
      </trkpt>
      <trkpt lat="50.63049" lon="3.49734">
        <ele>54.22</ele>
        <time>2023-05-12T10:51:51.845Z</time>
      </trkpt>
      <trkpt lat="50.63141" lon="3.49848">
        <ele>58.35</ele>
        <time>2023-05-12T10:51:56.071Z</time>
      </trkpt>
      <trkpt lat="50.63168" lon="3.49873">
        <ele>61.63</ele>
        <time>2023-05-12T10:52:00.302Z</time>
      </trkpt>
      <trkpt lat="50.63248" lon="3.49928">
        <ele>65.77</ele>
        <time>2023-05-12T10:52:04.547Z</time>
      </trkpt>
      <trkpt lat="50.6326" lon="3.49931">
        <ele>68.42</ele>
        <time>2023-05-12T10:52:08.794Z</time>
      </trkpt>
      <trkpt lat="50.63267" lon="3.49925">
        <ele>70.73</ele>
        <time>2023-05-12T10:52:13.042Z</time>
      </trkpt>
      <trkpt lat="50.63299" lon="3.49856">
        <ele>72.89</ele>
        <time>2023-05-12T10:52:17.299Z</time>
      </trkpt>
      <trkpt lat="50.63322" lon="3.4983">
        <ele>74.22</ele>
        <time>2023-05-12T10:52:21.560Z</time>
      </trkpt>
      <trkpt lat="50.63333" lon="3.49821">
        <ele>75.05</ele>
        <time>2023-05-12T10:52:25.823Z</time>
      </trkpt>
      <trkpt lat="50.63333" lon="3.49821">
        <ele>75.06</ele>
        <time>2023-05-12T10:52:30.086Z</time>
      </trkpt>
      <trkpt lat="50.63333" lon="3.49821">
        <ele>75.07</ele>
        <time>2023-05-12T10:52:34.349Z</time>
      </trkpt>
      <trkpt lat="50.63333" lon="3.49821">
        <ele>75.08</ele>
        <time>2023-05-12T10:52:38.612Z</time>
      </trkpt>
      <trkpt lat="50.63333" lon="3.49821">
        <ele>75.09</ele>
        <time>2023-05-12T10:52:42.875Z</time>
      </trkpt>
      <trkpt lat="50.63333" lon="3.49821">
        <ele>75.1</ele>
        <time>2023-05-12T10:52:47.138Z</time>
      </trkpt>
      <trkpt lat="50.63335" lon="3.4982">
        <ele>75.22</ele>
        <time>2023-05-12T10:52:51.401Z</time>
      </trkpt>
      <trkpt lat="50.63337" lon="3.49819">
        <ele>73.83</ele>
        <time>2023-05-12T10:52:55.665Z</time>
      </trkpt>
      <trkpt lat="50.63337" lon="3.49819">
        <ele>73.78</ele>
        <time>2023-05-12T10:52:59.929Z</time>
      </trkpt>
      <trkpt lat="50.63337" lon="3.49819">
        <ele>73.73</ele>
        <time>2023-05-12T10:53:04.193Z</time>
      </trkpt>
      <trkpt lat="50.63337" lon="3.49819">
        <ele>73.68</ele>
        <time>2023-05-12T10:53:08.457Z</time>
      </trkpt>
      <trkpt lat="50.63341" lon="3.49818">
        <ele>71.58</ele>
        <time>2023-05-12T10:53:12.721Z</time>
      </trkpt>
      <trkpt lat="50.63341" lon="3.49818">
        <ele>71.53</ele>
        <time>2023-05-12T10:53:16.985Z</time>
      </trkpt>
      <trkpt lat="50.63384" lon="3.49806">
        <ele>70.61</ele>
        <time>2023-05-12T10:53:21.256Z</time>
      </trkpt>
      <trkpt lat="50.63432" lon="3.49795">
        <ele>68.87</ele>
        <time>2023-05-12T10:53:25.535Z</time>
      </trkpt>
      <trkpt lat="50.6346" lon="3.49789">
        <ele>67.35</ele>
        <time>2023-05-12T10:53:29.819Z</time>
      </trkpt>
      <trkpt lat="50.63488" lon="3.49778">
        <ele>66</ele>
        <time>2023-05-12T10:53:34.107Z</time>
      </trkpt>
      <trkpt lat="50.63621" lon="3.49797">
        <ele>63.81</ele>
        <time>2023-05-12T10:53:38.417Z</time>
      </trkpt>
      <trkpt lat="50.63632" lon="3.49803">
        <ele>62.93</ele>
        <time>2023-05-12T10:53:42.729Z</time>
      </trkpt>
      <trkpt lat="50.63643" lon="3.49821">
        <ele>62.57</ele>
        <time>2023-05-12T10:53:47.043Z</time>
      </trkpt>
      <trkpt lat="50.63677" lon="3.49898">
        <ele>62.81</ele>
        <time>2023-05-12T10:53:51.367Z</time>
      </trkpt>
      <trkpt lat="50.63681" lon="3.49923">
        <ele>63.31</ele>
        <time>2023-05-12T10:53:55.693Z</time>
      </trkpt>
      <trkpt lat="50.63674" lon="3.49948">
        <ele>64.23</ele>
        <time>2023-05-12T10:54:00.022Z</time>
      </trkpt>
      <trkpt lat="50.63642" lon="3.50098">
        <ele>65.9</ele>
        <time>2023-05-12T10:54:04.367Z</time>
      </trkpt>
      <trkpt lat="50.63612" lon="3.50175">
        <ele>67.24</ele>
        <time>2023-05-12T10:54:08.722Z</time>
      </trkpt>
      <trkpt lat="50.6359" lon="3.50227">
        <ele>68.56</ele>
        <time>2023-05-12T10:54:13.083Z</time>
      </trkpt>
      <trkpt lat="50.63579" lon="3.50241">
        <ele>69.64</ele>
        <time>2023-05-12T10:54:17.446Z</time>
      </trkpt>
      <trkpt lat="50.63569" lon="3.5025">
        <ele>70.59</ele>
        <time>2023-05-12T10:54:21.811Z</time>
      </trkpt>
      <trkpt lat="50.63552" lon="3.50256">
        <ele>71.5</ele>
        <time>2023-05-12T10:54:26.179Z</time>
      </trkpt>
      <trkpt lat="50.63541" lon="3.50256">
        <ele>72.28</ele>
        <time>2023-05-12T10:54:30.549Z</time>
      </trkpt>
      <trkpt lat="50.63522" lon="3.50251">
        <ele>72.96</ele>
        <time>2023-05-12T10:54:34.921Z</time>
      </trkpt>
      <trkpt lat="50.63501" lon="3.50239">
        <ele>73.54</ele>
        <time>2023-05-12T10:54:39.297Z</time>
      </trkpt>
      <trkpt lat="50.63484" lon="3.50237">
        <ele>73.77</ele>
        <time>2023-05-12T10:54:43.676Z</time>
      </trkpt>
      <trkpt lat="50.63422" lon="3.50316">
        <ele>73.79</ele>
        <time>2023-05-12T10:54:48.068Z</time>
      </trkpt>
      <trkpt lat="50.63413" lon="3.50333">
        <ele>73.61</ele>
        <time>2023-05-12T10:54:52.462Z</time>
      </trkpt>
      <trkpt lat="50.63408" lon="3.50354">
        <ele>73.4</ele>
        <time>2023-05-12T10:54:56.858Z</time>
      </trkpt>
      <trkpt lat="50.63402" lon="3.50383">
        <ele>73.08</ele>
        <time>2023-05-12T10:55:01.257Z</time>
      </trkpt>
      <trkpt lat="50.63398" lon="3.50457">
        <ele>72.8</ele>
        <time>2023-05-12T10:55:05.664Z</time>
      </trkpt>
      <trkpt lat="50.63396" lon="3.50478">
        <ele>72.31</ele>
        <time>2023-05-12T10:55:10.073Z</time>
      </trkpt>
      <trkpt lat="50.63391" lon="3.50491">
        <ele>72.01</ele>
        <time>2023-05-12T10:55:14.484Z</time>
      </trkpt>
      <trkpt lat="50.63391" lon="3.50491">
        <ele>72.4</ele>
        <time>2023-05-12T10:55:18.895Z</time>
      </trkpt>
      <trkpt lat="50.63387" lon="3.50499">
        <ele>72.62</ele>
        <time>2023-05-12T10:55:23.307Z</time>
      </trkpt>
      <trkpt lat="50.63358" lon="3.5054">
        <ele>72.69</ele>
        <time>2023-05-12T10:55:27.725Z</time>
      </trkpt>
      <trkpt lat="50.63347" lon="3.50559">
        <ele>73.01</ele>
        <time>2023-05-12T10:55:32.146Z</time>
      </trkpt>
      <trkpt lat="50.63303" lon="3.50701">
        <ele>74.65</ele>
        <time>2023-05-12T10:55:36.583Z</time>
      </trkpt>
      <trkpt lat="50.63289" lon="3.50688">
        <ele>74.87</ele>
        <time>2023-05-12T10:55:41.022Z</time>
      </trkpt>
      <trkpt lat="50.63274" lon="3.50681">
        <ele>74.64</ele>
        <time>2023-05-12T10:55:45.464Z</time>
      </trkpt>
      <trkpt lat="50.63221" lon="3.50674">
        <ele>74.04</ele>
        <time>2023-05-12T10:55:49.914Z</time>
      </trkpt>
      <trkpt lat="50.63201" lon="3.50666">
        <ele>73.24</ele>
        <time>2023-05-12T10:55:54.368Z</time>
      </trkpt>
      <trkpt lat="50.63183" lon="3.50654">
        <ele>72.25</ele>
        <time>2023-05-12T10:55:58.825Z</time>
      </trkpt>
      <trkpt lat="50.63169" lon="3.50637">
        <ele>71.06</ele>
        <time>2023-05-12T10:56:03.284Z</time>
      </trkpt>
      <trkpt lat="50.6316" lon="3.50622">
        <ele>69.84</ele>
        <time>2023-05-12T10:56:07.746Z</time>
      </trkpt>
      <trkpt lat="50.63149" lon="3.50557">
        <ele>68.16</ele>
        <time>2023-05-12T10:56:12.214Z</time>
      </trkpt>
      <trkpt lat="50.63141" lon="3.50528">
        <ele>66.81</ele>
        <time>2023-05-12T10:56:16.686Z</time>
      </trkpt>
      <trkpt lat="50.63123" lon="3.50498">
        <ele>65.37</ele>
        <time>2023-05-12T10:56:21.162Z</time>
      </trkpt>
      <trkpt lat="50.63104" lon="3.50478">
        <ele>64.2</ele>
        <time>2023-05-12T10:56:25.641Z</time>
      </trkpt>
      <trkpt lat="50.63089" lon="3.50464">
        <ele>63.02</ele>
        <time>2023-05-12T10:56:30.123Z</time>
      </trkpt>
      <trkpt lat="50.6307" lon="3.50452">
        <ele>61.96</ele>
        <time>2023-05-12T10:56:34.609Z</time>
      </trkpt>
      <trkpt lat="50.63059" lon="3.50443">
        <ele>61.04</ele>
        <time>2023-05-12T10:56:39.096Z</time>
      </trkpt>
      <trkpt lat="50.63003" lon="3.50319">
        <ele>60.22</ele>
        <time>2023-05-12T10:56:43.599Z</time>
      </trkpt>
      <trkpt lat="50.62954" lon="3.50251">
        <ele>59.46</ele>
        <time>2023-05-12T10:56:48.112Z</time>
      </trkpt>
      <trkpt lat="50.62932" lon="3.50207">
        <ele>58.72</ele>
        <time>2023-05-12T10:56:52.631Z</time>
      </trkpt>
      <trkpt lat="50.62916" lon="3.50185">
        <ele>58.18</ele>
        <time>2023-05-12T10:56:57.154Z</time>
      </trkpt>
      <trkpt lat="50.62906" lon="3.50167">
        <ele>57.69</ele>
        <time>2023-05-12T10:57:01.679Z</time>
      </trkpt>
      <trkpt lat="50.62879" lon="3.50118">
        <ele>57.82</ele>
        <time>2023-05-12T10:57:06.211Z</time>
      </trkpt>
      <trkpt lat="50.62865" lon="3.50101">
        <ele>57.41</ele>
        <time>2023-05-12T10:57:10.745Z</time>
      </trkpt>
      <trkpt lat="50.62834" lon="3.50072">
        <ele>56.9</ele>
        <time>2023-05-12T10:57:15.285Z</time>
      </trkpt>
      <trkpt lat="50.62817" lon="3.50045">
        <ele>56.45</ele>
        <time>2023-05-12T10:57:19.829Z</time>
      </trkpt>
      <trkpt lat="50.62798" lon="3.5003">
        <ele>55.99</ele>
        <time>2023-05-12T10:57:24.376Z</time>
      </trkpt>
      <trkpt lat="50.62776" lon="3.5002">
        <ele>55.34</ele>
        <time>2023-05-12T10:57:28.927Z</time>
      </trkpt>
      <trkpt lat="50.62763" lon="3.50015">
        <ele>54.39</ele>
        <time>2023-05-12T10:57:33.480Z</time>
      </trkpt>
      <trkpt lat="50.62626" lon="3.49912">
        <ele>52.88</ele>
        <time>2023-05-12T10:57:38.058Z</time>
      </trkpt>
      <trkpt lat="50.62379" lon="3.49712">
        <ele>49.96</ele>
        <time>2023-05-12T10:57:42.680Z</time>
      </trkpt>
      <trkpt lat="50.62341" lon="3.49669">
        <ele>47.7</ele>
        <time>2023-05-12T10:57:47.310Z</time>
      </trkpt>
      <trkpt lat="50.62321" lon="3.49655">
        <ele>45.51</ele>
        <time>2023-05-12T10:57:51.943Z</time>
      </trkpt>
      <trkpt lat="50.62254" lon="3.49647">
        <ele>42.94</ele>
        <time>2023-05-12T10:57:56.587Z</time>
      </trkpt>
      <trkpt lat="50.62251" lon="3.49647">
        <ele>41.67</ele>
        <time>2023-05-12T10:58:01.231Z</time>
      </trkpt>
      <trkpt lat="50.62185" lon="3.49648">
        <ele>36.03</ele>
        <time>2023-05-12T10:58:05.886Z</time>
      </trkpt>
      <trkpt lat="50.62188" lon="3.49703">
        <ele>35.33</ele>
        <time>2023-05-12T10:58:10.547Z</time>
      </trkpt>
      <trkpt lat="50.62195" lon="3.4977">
        <ele>34.75</ele>
        <time>2023-05-12T10:58:15.215Z</time>
      </trkpt>
      <trkpt lat="50.62202" lon="3.49852">
        <ele>34.24</ele>
        <time>2023-05-12T10:58:19.891Z</time>
      </trkpt>
      <trkpt lat="50.62205" lon="3.49878">
        <ele>33.94</ele>
        <time>2023-05-12T10:58:24.570Z</time>
      </trkpt>
      <trkpt lat="50.62217" lon="3.49933">
        <ele>33.53</ele>
        <time>2023-05-12T10:58:29.255Z</time>
      </trkpt>
      <trkpt lat="50.62235" lon="3.49989">
        <ele>33.44</ele>
        <time>2023-05-12T10:58:33.946Z</time>
      </trkpt>
      <trkpt lat="50.62245" lon="3.50049">
        <ele>33.72</ele>
        <time>2023-05-12T10:58:38.643Z</time>
      </trkpt>
      <trkpt lat="50.62246" lon="3.50096">
        <ele>34.04</ele>
        <time>2023-05-12T10:58:43.345Z</time>
      </trkpt>
      <trkpt lat="50.62252" lon="3.50183">
        <ele>34.3</ele>
        <time>2023-05-12T10:58:48.056Z</time>
      </trkpt>
      <trkpt lat="50.62256" lon="3.50303">
        <ele>35.06</ele>
        <time>2023-05-12T10:58:52.779Z</time>
      </trkpt>
      <trkpt lat="50.62255" lon="3.50359">
        <ele>35.6</ele>
        <time>2023-05-12T10:58:57.508Z</time>
      </trkpt>
      <trkpt lat="50.62278" lon="3.50438">
        <ele>36.17</ele>
        <time>2023-05-12T10:59:02.246Z</time>
      </trkpt>
      <trkpt lat="50.62277" lon="3.50467">
        <ele>36.77</ele>
        <time>2023-05-12T10:59:06.987Z</time>
      </trkpt>
      <trkpt lat="50.62262" lon="3.50578">
        <ele>37.74</ele>
        <time>2023-05-12T10:59:11.739Z</time>
      </trkpt>
      <trkpt lat="50.62265" lon="3.50598">
        <ele>38.88</ele>
        <time>2023-05-12T10:59:16.493Z</time>
      </trkpt>
      <trkpt lat="50.62276" lon="3.50608">
        <ele>40.13</ele>
        <time>2023-05-12T10:59:21.249Z</time>
      </trkpt>
      <trkpt lat="50.62306" lon="3.50624">
        <ele>41.63</ele>
        <time>2023-05-12T10:59:26.010Z</time>
      </trkpt>
      <trkpt lat="50.62337" lon="3.50638">
        <ele>43.14</ele>
        <time>2023-05-12T10:59:30.777Z</time>
      </trkpt>
      <trkpt lat="50.62358" lon="3.50651">
        <ele>44.56</ele>
        <time>2023-05-12T10:59:35.547Z</time>
      </trkpt>
      <trkpt lat="50.62395" lon="3.50673">
        <ele>46.14</ele>
        <time>2023-05-12T10:59:40.324Z</time>
      </trkpt>
      <trkpt lat="50.62398" lon="3.50677">
        <ele>47.24</ele>
        <time>2023-05-12T10:59:45.101Z</time>
      </trkpt>
      <trkpt lat="50.62401" lon="3.50684">
        <ele>48.32</ele>
        <time>2023-05-12T10:59:49.879Z</time>
      </trkpt>
      <trkpt lat="50.62407" lon="3.50708">
        <ele>49.45</ele>
        <time>2023-05-12T10:59:54.660Z</time>
      </trkpt>
      <trkpt lat="50.62409" lon="3.50713">
        <ele>50.42</ele>
        <time>2023-05-12T10:59:59.441Z</time>
      </trkpt>
      <trkpt lat="50.62441" lon="3.50728">
        <ele>51.48</ele>
        <time>2023-05-12T11:00:04.228Z</time>
      </trkpt>
      <trkpt lat="50.62436" lon="3.50783">
        <ele>52.81</ele>
        <time>2023-05-12T11:00:09.020Z</time>
      </trkpt>
      <trkpt lat="50.62439" lon="3.5082">
        <ele>53.81</ele>
        <time>2023-05-12T11:00:13.816Z</time>
      </trkpt>
      <trkpt lat="50.62439" lon="3.5082">
        <ele>56.86</ele>
        <time>2023-05-12T11:00:18.612Z</time>
      </trkpt>
      <trkpt lat="50.6245" lon="3.50879">
        <ele>57.25</ele>
        <time>2023-05-12T11:00:23.414Z</time>
      </trkpt>
      <trkpt lat="50.62449" lon="3.50934">
        <ele>57.51</ele>
        <time>2023-05-12T11:00:28.222Z</time>
      </trkpt>
      <trkpt lat="50.62449" lon="3.51013">
        <ele>58.06</ele>
        <time>2023-05-12T11:00:33.038Z</time>
      </trkpt>
      <trkpt lat="50.62457" lon="3.51041">
        <ele>58.25</ele>
        <time>2023-05-12T11:00:37.857Z</time>
      </trkpt>
      <trkpt lat="50.62459" lon="3.51063">
        <ele>58.03</ele>
        <time>2023-05-12T11:00:42.679Z</time>
      </trkpt>
      <trkpt lat="50.62446" lon="3.51176">
        <ele>56.73</ele>
        <time>2023-05-12T11:00:47.512Z</time>
      </trkpt>
      <trkpt lat="50.62447" lon="3.51211">
        <ele>55.12</ele>
        <time>2023-05-12T11:00:52.349Z</time>
      </trkpt>
      <trkpt lat="50.62425" lon="3.51221">
        <ele>53.39</ele>
        <time>2023-05-12T11:00:57.190Z</time>
      </trkpt>
      <trkpt lat="50.62355" lon="3.51246">
        <ele>51.46</ele>
        <time>2023-05-12T11:01:02.042Z</time>
      </trkpt>
      <trkpt lat="50.62355" lon="3.51246">
        <ele>49.81</ele>
        <time>2023-05-12T11:01:06.894Z</time>
      </trkpt>
      <trkpt lat="50.62349" lon="3.51274">
        <ele>48.14</ele>
        <time>2023-05-12T11:01:11.749Z</time>
      </trkpt>
      <trkpt lat="50.6234" lon="3.51376">
        <ele>46.07</ele>
        <time>2023-05-12T11:01:16.615Z</time>
      </trkpt>
      <trkpt lat="50.62335" lon="3.514">
        <ele>44.57</ele>
        <time>2023-05-12T11:01:21.483Z</time>
      </trkpt>
      <trkpt lat="50.62313" lon="3.51422">
        <ele>43.26</ele>
        <time>2023-05-12T11:01:26.355Z</time>
      </trkpt>
      <trkpt lat="50.6226" lon="3.51449">
        <ele>41.95</ele>
        <time>2023-05-12T11:01:31.236Z</time>
      </trkpt>
      <trkpt lat="50.62159" lon="3.51468">
        <ele>41.48</ele>
        <time>2023-05-12T11:01:36.134Z</time>
      </trkpt>
      <trkpt lat="50.62059" lon="3.51483">
        <ele>41.98</ele>
        <time>2023-05-12T11:01:41.048Z</time>
      </trkpt>
      <trkpt lat="50.62059" lon="3.51483">
        <ele>42.16</ele>
        <time>2023-05-12T11:01:45.962Z</time>
      </trkpt>
      <trkpt lat="50.62067" lon="3.51546">
        <ele>42.43</ele>
        <time>2023-05-12T11:01:50.882Z</time>
      </trkpt>
      <trkpt lat="50.62146" lon="3.51861">
        <ele>42.44</ele>
        <time>2023-05-12T11:01:55.837Z</time>
      </trkpt>
      <trkpt lat="50.62159" lon="3.51883">
        <ele>43.21</ele>
        <time>2023-05-12T11:02:00.795Z</time>
      </trkpt>
      <trkpt lat="50.62159" lon="3.51883">
        <ele>44.42</ele>
        <time>2023-05-12T11:02:05.753Z</time>
      </trkpt>
      <trkpt lat="50.62248" lon="3.51959">
        <ele>46.42</ele>
        <time>2023-05-12T11:02:10.727Z</time>
      </trkpt>
      <trkpt lat="50.62248" lon="3.51959">
        <ele>48.16</ele>
        <time>2023-05-12T11:02:15.701Z</time>
      </trkpt>
      <trkpt lat="50.62564" lon="3.52138">
        <ele>51.46</ele>
        <time>2023-05-12T11:02:20.729Z</time>
      </trkpt>
      <trkpt lat="50.62586" lon="3.52161">
        <ele>53.4</ele>
        <time>2023-05-12T11:02:25.761Z</time>
      </trkpt>
      <trkpt lat="50.62603" lon="3.5219">
        <ele>55.1</ele>
        <time>2023-05-12T11:02:30.797Z</time>
      </trkpt>
      <trkpt lat="50.62645" lon="3.52268">
        <ele>56.74</ele>
        <time>2023-05-12T11:02:35.843Z</time>
      </trkpt>
      <trkpt lat="50.62664" lon="3.52291">
        <ele>57.97</ele>
        <time>2023-05-12T11:02:40.893Z</time>
      </trkpt>
      <trkpt lat="50.6272" lon="3.52327">
        <ele>59.03</ele>
        <time>2023-05-12T11:02:45.953Z</time>
      </trkpt>
      <trkpt lat="50.6272" lon="3.52327">
        <ele>59.64</ele>
        <time>2023-05-12T11:02:51.013Z</time>
      </trkpt>
      <trkpt lat="50.62766" lon="3.52359">
        <ele>59.99</ele>
        <time>2023-05-12T11:02:56.081Z</time>
      </trkpt>
      <trkpt lat="50.628" lon="3.52382">
        <ele>60.02</ele>
        <time>2023-05-12T11:03:01.155Z</time>
      </trkpt>
      <trkpt lat="50.62956" lon="3.52488">
        <ele>59.39</ele>
        <time>2023-05-12T11:03:06.256Z</time>
      </trkpt>
      <trkpt lat="50.6304" lon="3.5256">
        <ele>58.85</ele>
        <time>2023-05-12T11:03:11.372Z</time>
      </trkpt>
      <trkpt lat="50.63044" lon="3.52566">
        <ele>58.19</ele>
        <time>2023-05-12T11:03:16.489Z</time>
      </trkpt>
      <trkpt lat="50.63114" lon="3.52631">
        <ele>57.58</ele>
        <time>2023-05-12T11:03:21.619Z</time>
      </trkpt>
      <trkpt lat="50.63295" lon="3.52795">
        <ele>56.03</ele>
        <time>2023-05-12T11:03:26.783Z</time>
      </trkpt>
      <trkpt lat="50.6331" lon="3.52817">
        <ele>54.98</ele>
        <time>2023-05-12T11:03:31.950Z</time>
      </trkpt>
      <trkpt lat="50.63322" lon="3.52846">
        <ele>54.02</ele>
        <time>2023-05-12T11:03:37.121Z</time>
      </trkpt>
      <trkpt lat="50.63322" lon="3.52846">
        <ele>53.19</ele>
        <time>2023-05-12T11:03:42.292Z</time>
      </trkpt>
      <trkpt lat="50.63339" lon="3.52954">
        <ele>52.32</ele>
        <time>2023-05-12T11:03:47.474Z</time>
      </trkpt>
      <trkpt lat="50.63349" lon="3.52988">
        <ele>51.77</ele>
        <time>2023-05-12T11:03:52.660Z</time>
      </trkpt>
      <trkpt lat="50.63396" lon="3.53114">
        <ele>51.45</ele>
        <time>2023-05-12T11:03:57.861Z</time>
      </trkpt>
      <trkpt lat="50.63421" lon="3.53176">
        <ele>51.18</ele>
        <time>2023-05-12T11:04:03.069Z</time>
      </trkpt>
      <trkpt lat="50.63432" lon="3.53192">
        <ele>51.17</ele>
        <time>2023-05-12T11:04:08.280Z</time>
      </trkpt>
      <trkpt lat="50.63501" lon="3.53252">
        <ele>51.28</ele>
        <time>2023-05-12T11:04:13.503Z</time>
      </trkpt>
      <trkpt lat="50.63705" lon="3.53462">
        <ele>51.07</ele>
        <time>2023-05-12T11:04:18.765Z</time>
      </trkpt>
      <trkpt lat="50.63703" lon="3.53497">
        <ele>51.61</ele>
        <time>2023-05-12T11:04:24.031Z</time>
      </trkpt>
      <trkpt lat="50.63698" lon="3.53768">
        <ele>53.37</ele>
        <time>2023-05-12T11:04:29.325Z</time>
      </trkpt>
      <trkpt lat="50.63693" lon="3.53781">
        <ele>54.09</ele>
        <time>2023-05-12T11:04:34.620Z</time>
      </trkpt>
      <trkpt lat="50.63679" lon="3.53799">
        <ele>54.84</ele>
        <time>2023-05-12T11:04:39.918Z</time>
      </trkpt>
      <trkpt lat="50.63679" lon="3.53799">
        <ele>55.45</ele>
        <time>2023-05-12T11:04:45.216Z</time>
      </trkpt>
      <trkpt lat="50.63671" lon="3.53811">
        <ele>55.99</ele>
        <time>2023-05-12T11:04:50.516Z</time>
      </trkpt>
      <trkpt lat="50.63642" lon="3.53862">
        <ele>56.59</ele>
        <time>2023-05-12T11:04:55.823Z</time>
      </trkpt>
      <trkpt lat="50.63617" lon="3.53914">
        <ele>56.8</ele>
        <time>2023-05-12T11:05:01.136Z</time>
      </trkpt>
      <trkpt lat="50.636" lon="3.53954">
        <ele>56.83</ele>
        <time>2023-05-12T11:05:06.454Z</time>
      </trkpt>
      <trkpt lat="50.63593" lon="3.53978">
        <ele>56.96</ele>
        <time>2023-05-12T11:05:11.775Z</time>
      </trkpt>
      <trkpt lat="50.63574" lon="3.54023">
        <ele>57.01</ele>
        <time>2023-05-12T11:05:17.101Z</time>
      </trkpt>
      <trkpt lat="50.63492" lon="3.54128">
        <ele>57.18</ele>
        <time>2023-05-12T11:05:22.444Z</time>
      </trkpt>
      <trkpt lat="50.63471" lon="3.5415">
        <ele>57.19</ele>
        <time>2023-05-12T11:05:27.791Z</time>
      </trkpt>
      <trkpt lat="50.63458" lon="3.54169">
        <ele>57.28</ele>
        <time>2023-05-12T11:05:33.141Z</time>
      </trkpt>
      <trkpt lat="50.63454" lon="3.54191">
        <ele>57.48</ele>
        <time>2023-05-12T11:05:38.494Z</time>
      </trkpt>
      <trkpt lat="50.63463" lon="3.54228">
        <ele>57.76</ele>
        <time>2023-05-12T11:05:43.851Z</time>
      </trkpt>
      <trkpt lat="50.63466" lon="3.5425">
        <ele>58.16</ele>
        <time>2023-05-12T11:05:49.210Z</time>
      </trkpt>
      <trkpt lat="50.63455" lon="3.54306">
        <ele>58.68</ele>
        <time>2023-05-12T11:05:54.575Z</time>
      </trkpt>
      <trkpt lat="50.63403" lon="3.54377">
        <ele>59.43</ele>
        <time>2023-05-12T11:05:59.951Z</time>
      </trkpt>
      <trkpt lat="50.63363" lon="3.5444">
        <ele>60.56</ele>
        <time>2023-05-12T11:06:05.336Z</time>
      </trkpt>
      <trkpt lat="50.63253" lon="3.5456">
        <ele>62.08</ele>
        <time>2023-05-12T11:06:10.742Z</time>
      </trkpt>
      <trkpt lat="50.63195" lon="3.54609">
        <ele>63.79</ele>
        <time>2023-05-12T11:06:16.159Z</time>
      </trkpt>
      <trkpt lat="50.6313" lon="3.54656">
        <ele>65.51</ele>
        <time>2023-05-12T11:06:21.588Z</time>
      </trkpt>
      <trkpt lat="50.63011" lon="3.54705">
        <ele>68.47</ele>
        <time>2023-05-12T11:06:27.036Z</time>
      </trkpt>
      <trkpt lat="50.62989" lon="3.54722">
        <ele>70.75</ele>
        <time>2023-05-12T11:06:32.488Z</time>
      </trkpt>
      <trkpt lat="50.62972" lon="3.54741">
        <ele>72.87</ele>
        <time>2023-05-12T11:06:37.943Z</time>
      </trkpt>
      <trkpt lat="50.62929" lon="3.54796">
        <ele>75.07</ele>
        <time>2023-05-12T11:06:43.407Z</time>
      </trkpt>
      <trkpt lat="50.62997" lon="3.54962">
        <ele>76.98</ele>
        <time>2023-05-12T11:06:48.891Z</time>
      </trkpt>
      <trkpt lat="50.63005" lon="3.54989">
        <ele>78.6</ele>
        <time>2023-05-12T11:06:54.378Z</time>
      </trkpt>
      <trkpt lat="50.63011" lon="3.55016">
        <ele>79.91</ele>
        <time>2023-05-12T11:06:59.868Z</time>
      </trkpt>
      <trkpt lat="50.63019" lon="3.55094">
        <ele>81.03</ele>
        <time>2023-05-12T11:07:05.366Z</time>
      </trkpt>
      <trkpt lat="50.63027" lon="3.55129">
        <ele>81.98</ele>
        <time>2023-05-12T11:07:10.868Z</time>
      </trkpt>
      <trkpt lat="50.63038" lon="3.55163">
        <ele>82.68</ele>
        <time>2023-05-12T11:07:16.374Z</time>
      </trkpt>
      <trkpt lat="50.63055" lon="3.55197">
        <ele>83.18</ele>
        <time>2023-05-12T11:07:21.885Z</time>
      </trkpt>
      <trkpt lat="50.63082" lon="3.55233">
        <ele>83.66</ele>
        <time>2023-05-12T11:07:27.401Z</time>
      </trkpt>
      <trkpt lat="50.63094" lon="3.55252">
        <ele>84.34</ele>
        <time>2023-05-12T11:07:32.920Z</time>
      </trkpt>
      <trkpt lat="50.63121" lon="3.55306">
        <ele>85.3</ele>
        <time>2023-05-12T11:07:38.446Z</time>
      </trkpt>
      <trkpt lat="50.63133" lon="3.55348">
        <ele>86.28</ele>
        <time>2023-05-12T11:07:43.977Z</time>
      </trkpt>
      <trkpt lat="50.63151" lon="3.55428">
        <ele>87.29</ele>
        <time>2023-05-12T11:07:49.516Z</time>
      </trkpt>
      <trkpt lat="50.63164" lon="3.55477">
        <ele>88.46</ele>
        <time>2023-05-12T11:07:55.061Z</time>
      </trkpt>
      <trkpt lat="50.63172" lon="3.555">
        <ele>90.05</ele>
        <time>2023-05-12T11:08:00.608Z</time>
      </trkpt>
      <trkpt lat="50.63203" lon="3.55575">
        <ele>92.09</ele>
        <time>2023-05-12T11:08:06.164Z</time>
      </trkpt>
      <trkpt lat="50.63244" lon="3.55711">
        <ele>94.81</ele>
        <time>2023-05-12T11:08:11.736Z</time>
      </trkpt>
      <trkpt lat="50.63261" lon="3.5576">
        <ele>97.31</ele>
        <time>2023-05-12T11:08:17.313Z</time>
      </trkpt>
      <trkpt lat="50.6328" lon="3.55799">
        <ele>99.48</ele>
        <time>2023-05-12T11:08:22.896Z</time>
      </trkpt>
      <trkpt lat="50.63304" lon="3.55838">
        <ele>100.69</ele>
        <time>2023-05-12T11:08:28.484Z</time>
      </trkpt>
      <trkpt lat="50.63321" lon="3.55874">
        <ele>101.25</ele>
        <time>2023-05-12T11:08:34.077Z</time>
      </trkpt>
      <trkpt lat="50.63336" lon="3.55916">
        <ele>101.31</ele>
        <time>2023-05-12T11:08:39.674Z</time>
      </trkpt>
      <trkpt lat="50.63355" lon="3.55994">
        <ele>101.14</ele>
        <time>2023-05-12T11:08:45.280Z</time>
      </trkpt>
      <trkpt lat="50.63409" lon="3.56247">
        <ele>100.79</ele>
        <time>2023-05-12T11:08:50.913Z</time>
      </trkpt>
      <trkpt lat="50.63451" lon="3.56413">
        <ele>99.84</ele>
        <time>2023-05-12T11:08:56.564Z</time>
      </trkpt>
      <trkpt lat="50.63534" lon="3.56643">
        <ele>99.75</ele>
        <time>2023-05-12T11:09:02.242Z</time>
      </trkpt>
      <trkpt lat="50.63534" lon="3.56643">
        <ele>99.84</ele>
        <time>2023-05-12T11:09:07.920Z</time>
      </trkpt>
      <trkpt lat="50.63534" lon="3.56643">
        <ele>99.71</ele>
        <time>2023-05-12T11:09:13.598Z</time>
      </trkpt>
      <trkpt lat="50.63534" lon="3.56642">
        <ele>99.71</ele>
        <time>2023-05-12T11:09:19.276Z</time>
      </trkpt>
      <trkpt lat="50.63534" lon="3.56642">
        <ele>99.71</ele>
        <time>2023-05-12T11:09:24.954Z</time>
      </trkpt>
      <trkpt lat="50.63534" lon="3.56642">
        <ele>99.71</ele>
        <time>2023-05-12T11:09:30.632Z</time>
      </trkpt>
      <trkpt lat="50.63534" lon="3.56642">
        <ele>99.71</ele>
        <time>2023-05-12T11:09:36.310Z</time>
      </trkpt>
      <trkpt lat="50.63534" lon="3.56644">
        <ele>99.71</ele>
        <time>2023-05-12T11:09:41.989Z</time>
      </trkpt>
      <trkpt lat="50.63535" lon="3.56647">
        <ele>99.54</ele>
        <time>2023-05-12T11:09:47.668Z</time>
      </trkpt>
      <trkpt lat="50.63535" lon="3.56647">
        <ele>99.54</ele>
        <time>2023-05-12T11:09:53.347Z</time>
      </trkpt>
      <trkpt lat="50.63535" lon="3.56647">
        <ele>99.54</ele>
        <time>2023-05-12T11:09:59.026Z</time>
      </trkpt>
      <trkpt lat="50.63535" lon="3.56648">
        <ele>99.54</ele>
        <time>2023-05-12T11:10:04.705Z</time>
      </trkpt>
      <trkpt lat="50.63536" lon="3.56653">
        <ele>99.32</ele>
        <time>2023-05-12T11:10:10.385Z</time>
      </trkpt>
      <trkpt lat="50.63536" lon="3.56653">
        <ele>99.32</ele>
        <time>2023-05-12T11:10:16.065Z</time>
      </trkpt>
      <trkpt lat="50.63536" lon="3.56653">
        <ele>96.57</ele>
        <time>2023-05-12T11:10:21.745Z</time>
      </trkpt>
      <trkpt lat="50.63558" lon="3.56748">
        <ele>95.85</ele>
        <time>2023-05-12T11:10:27.435Z</time>
      </trkpt>
      <trkpt lat="50.63564" lon="3.56781">
        <ele>95.41</ele>
        <time>2023-05-12T11:10:33.128Z</time>
      </trkpt>
      <trkpt lat="50.63599" lon="3.5699">
        <ele>94.45</ele>
        <time>2023-05-12T11:10:38.843Z</time>
      </trkpt>
      <trkpt lat="50.63608" lon="3.5703">
        <ele>94.25</ele>
        <time>2023-05-12T11:10:44.563Z</time>
      </trkpt>
      <trkpt lat="50.63622" lon="3.57069">
        <ele>94.22</ele>
        <time>2023-05-12T11:10:50.287Z</time>
      </trkpt>
      <trkpt lat="50.63635" lon="3.57096">
        <ele>94.22</ele>
        <time>2023-05-12T11:10:56.015Z</time>
      </trkpt>
      <trkpt lat="50.63695" lon="3.57257">
        <ele>93.94</ele>
        <time>2023-05-12T11:11:01.762Z</time>
      </trkpt>
      <trkpt lat="50.63771" lon="3.5746">
        <ele>94.3</ele>
        <time>2023-05-12T11:11:07.533Z</time>
      </trkpt>
      <trkpt lat="50.6378" lon="3.5749">
        <ele>93.8</ele>
        <time>2023-05-12T11:11:13.307Z</time>
      </trkpt>
      <trkpt lat="50.63795" lon="3.57553">
        <ele>92.31</ele>
        <time>2023-05-12T11:11:19.088Z</time>
      </trkpt>
      <trkpt lat="50.6381" lon="3.57636">
        <ele>90.55</ele>
        <time>2023-05-12T11:11:24.878Z</time>
      </trkpt>
      <trkpt lat="50.63823" lon="3.57753">
        <ele>88.7</ele>
        <time>2023-05-12T11:11:30.680Z</time>
      </trkpt>
      <trkpt lat="50.63826" lon="3.57769">
        <ele>87.57</ele>
        <time>2023-05-12T11:11:36.484Z</time>
      </trkpt>
      <trkpt lat="50.63829" lon="3.57816">
        <ele>86.64</ele>
        <time>2023-05-12T11:11:42.292Z</time>
      </trkpt>
      <trkpt lat="50.63835" lon="3.57974">
        <ele>86.06</ele>
        <time>2023-05-12T11:11:48.117Z</time>
      </trkpt>
      <trkpt lat="50.6384" lon="3.58043">
        <ele>85.53</ele>
        <time>2023-05-12T11:11:53.949Z</time>
      </trkpt>
      <trkpt lat="50.63853" lon="3.58029">
        <ele>86.08</ele>
        <time>2023-05-12T11:11:59.783Z</time>
      </trkpt>
      <trkpt lat="50.63883" lon="3.57975">
        <ele>87.13</ele>
        <time>2023-05-12T11:12:05.624Z</time>
      </trkpt>
      <trkpt lat="50.63939" lon="3.57894">
        <ele>88.48</ele>
        <time>2023-05-12T11:12:11.478Z</time>
      </trkpt>
      <trkpt lat="50.63954" lon="3.57872">
        <ele>89.72</ele>
        <time>2023-05-12T11:12:17.335Z</time>
      </trkpt>
      <trkpt lat="50.63987" lon="3.57834">
        <ele>91.35</ele>
        <time>2023-05-12T11:12:23.198Z</time>
      </trkpt>
      <trkpt lat="50.64043" lon="3.57784">
        <ele>92.39</ele>
        <time>2023-05-12T11:12:29.072Z</time>
      </trkpt>
      <trkpt lat="50.64076" lon="3.57743">
        <ele>92.15</ele>
        <time>2023-05-12T11:12:34.952Z</time>
      </trkpt>
      <trkpt lat="50.64076" lon="3.57743">
        <ele>90.57</ele>
        <time>2023-05-12T11:12:40.832Z</time>
      </trkpt>
      <trkpt lat="50.64202" lon="3.57557">
        <ele>86.01</ele>
        <time>2023-05-12T11:12:46.740Z</time>
      </trkpt>
      <trkpt lat="50.64211" lon="3.57545">
        <ele>84.13</ele>
        <time>2023-05-12T11:12:52.650Z</time>
      </trkpt>
      <trkpt lat="50.64232" lon="3.57527">
        <ele>73.45</ele>
        <time>2023-05-12T11:12:58.564Z</time>
      </trkpt>
      <trkpt lat="50.64232" lon="3.57527">
        <ele>73.42</ele>
        <time>2023-05-12T11:13:04.478Z</time>
      </trkpt>
      <trkpt lat="50.64232" lon="3.57527">
        <ele>73.39</ele>
        <time>2023-05-12T11:13:10.392Z</time>
      </trkpt>
      <trkpt lat="50.64232" lon="3.57527">
        <ele>73.34</ele>
        <time>2023-05-12T11:13:16.306Z</time>
      </trkpt>
      <trkpt lat="50.64232" lon="3.57527">
        <ele>73.33</ele>
        <time>2023-05-12T11:13:22.220Z</time>
      </trkpt>
      <trkpt lat="50.64232" lon="3.57527">
        <ele>73.32</ele>
        <time>2023-05-12T11:13:28.134Z</time>
      </trkpt>
      <trkpt lat="50.64236" lon="3.57524">
        <ele>71.51</ele>
        <time>2023-05-12T11:13:34.049Z</time>
      </trkpt>
      <trkpt lat="50.64236" lon="3.57524">
        <ele>71.48</ele>
        <time>2023-05-12T11:13:39.964Z</time>
      </trkpt>
      <trkpt lat="50.64236" lon="3.57524">
        <ele>71.45</ele>
        <time>2023-05-12T11:13:45.879Z</time>
      </trkpt>
      <trkpt lat="50.64236" lon="3.57524">
        <ele>71.41</ele>
        <time>2023-05-12T11:13:51.794Z</time>
      </trkpt>
      <trkpt lat="50.64239" lon="3.57521">
        <ele>69.76</ele>
        <time>2023-05-12T11:13:57.709Z</time>
      </trkpt>
      <trkpt lat="50.64239" lon="3.57521">
        <ele>69.72</ele>
        <time>2023-05-12T11:14:03.624Z</time>
      </trkpt>
      <trkpt lat="50.6434" lon="3.57437">
        <ele>65.82</ele>
        <time>2023-05-12T11:14:09.558Z</time>
      </trkpt>
      <trkpt lat="50.64381" lon="3.57411">
        <ele>62.22</ele>
        <time>2023-05-12T11:14:15.499Z</time>
      </trkpt>
      <trkpt lat="50.64448" lon="3.57393">
        <ele>58.68</ele>
        <time>2023-05-12T11:14:21.451Z</time>
      </trkpt>
      <trkpt lat="50.6449" lon="3.57367">
        <ele>55.75</ele>
        <time>2023-05-12T11:14:27.410Z</time>
      </trkpt>
      <trkpt lat="50.64503" lon="3.57356">
        <ele>53.9</ele>
        <time>2023-05-12T11:14:33.371Z</time>
      </trkpt>
      <trkpt lat="50.64516" lon="3.5735">
        <ele>52.63</ele>
        <time>2023-05-12T11:14:39.334Z</time>
      </trkpt>
      <trkpt lat="50.64567" lon="3.5732">
        <ele>51.79</ele>
        <time>2023-05-12T11:14:45.306Z</time>
      </trkpt>
      <trkpt lat="50.64691" lon="3.5724">
        <ele>51</ele>
        <time>2023-05-12T11:14:51.299Z</time>
      </trkpt>
      <trkpt lat="50.64763" lon="3.57209">
        <ele>50.75</ele>
        <time>2023-05-12T11:14:57.304Z</time>
      </trkpt>
      <trkpt lat="50.64767" lon="3.57201">
        <ele>50.56</ele>
        <time>2023-05-12T11:15:03.310Z</time>
      </trkpt>
      <trkpt lat="50.6477" lon="3.57191">
        <ele>50.44</ele>
        <time>2023-05-12T11:15:09.318Z</time>
      </trkpt>
      <trkpt lat="50.6477" lon="3.57184">
        <ele>50.33</ele>
        <time>2023-05-12T11:15:15.326Z</time>
      </trkpt>
      <trkpt lat="50.64755" lon="3.5706">
        <ele>49.83</ele>
        <time>2023-05-12T11:15:21.347Z</time>
      </trkpt>
      <trkpt lat="50.64755" lon="3.57031">
        <ele>49.84</ele>
        <time>2023-05-12T11:15:27.371Z</time>
      </trkpt>
      <trkpt lat="50.64758" lon="3.57015">
        <ele>49.97</ele>
        <time>2023-05-12T11:15:33.397Z</time>
      </trkpt>
      <trkpt lat="50.64765" lon="3.57007">
        <ele>50.21</ele>
        <time>2023-05-12T11:15:39.424Z</time>
      </trkpt>
      <trkpt lat="50.64776" lon="3.57002">
        <ele>50.54</ele>
        <time>2023-05-12T11:15:45.453Z</time>
      </trkpt>
      <trkpt lat="50.64912" lon="3.56977">
        <ele>51.22</ele>
        <time>2023-05-12T11:15:51.504Z</time>
      </trkpt>
      <trkpt lat="50.64994" lon="3.56949">
        <ele>51.45</ele>
        <time>2023-05-12T11:15:57.568Z</time>
      </trkpt>
      <trkpt lat="50.65009" lon="3.56936">
        <ele>51.66</ele>
        <time>2023-05-12T11:16:03.635Z</time>
      </trkpt>
      <trkpt lat="50.65024" lon="3.56917">
        <ele>51.89</ele>
        <time>2023-05-12T11:16:09.705Z</time>
      </trkpt>
      <trkpt lat="50.65032" lon="3.56902">
        <ele>52.12</ele>
        <time>2023-05-12T11:16:15.777Z</time>
      </trkpt>
      <trkpt lat="50.65052" lon="3.56871">
        <ele>52.21</ele>
        <time>2023-05-12T11:16:21.854Z</time>
      </trkpt>
      <trkpt lat="50.65074" lon="3.56852">
        <ele>52.14</ele>
        <time>2023-05-12T11:16:27.935Z</time>
      </trkpt>
      <trkpt lat="50.65102" lon="3.56831">
        <ele>51.82</ele>
        <time>2023-05-12T11:16:34.021Z</time>
      </trkpt>
      <trkpt lat="50.65154" lon="3.56792">
        <ele>51.5</ele>
        <time>2023-05-12T11:16:40.116Z</time>
      </trkpt>
      <trkpt lat="50.65183" lon="3.56767">
        <ele>51.26</ele>
        <time>2023-05-12T11:16:46.216Z</time>
      </trkpt>
      <trkpt lat="50.65204" lon="3.56741">
        <ele>51.04</ele>
        <time>2023-05-12T11:16:52.320Z</time>
      </trkpt>
      <trkpt lat="50.6522" lon="3.56719">
        <ele>50.65</ele>
        <time>2023-05-12T11:16:58.428Z</time>
      </trkpt>
      <trkpt lat="50.65228" lon="3.56704">
        <ele>50.49</ele>
        <time>2023-05-12T11:17:04.538Z</time>
      </trkpt>
      <trkpt lat="50.65228" lon="3.56704">
        <ele>50.49</ele>
        <time>2023-05-12T11:17:10.648Z</time>
      </trkpt>
      <trkpt lat="50.65228" lon="3.56704">
        <ele>50.49</ele>
        <time>2023-05-12T11:17:16.758Z</time>
      </trkpt>
      <trkpt lat="50.65228" lon="3.56704">
        <ele>50.49</ele>
        <time>2023-05-12T11:17:22.868Z</time>
      </trkpt>
      <trkpt lat="50.65228" lon="3.56704">
        <ele>50.49</ele>
        <time>2023-05-12T11:17:28.978Z</time>
      </trkpt>
      <trkpt lat="50.65228" lon="3.56704">
        <ele>50.49</ele>
        <time>2023-05-12T11:17:35.088Z</time>
      </trkpt>
      <trkpt lat="50.65231" lon="3.56699">
        <ele>50.45</ele>
        <time>2023-05-12T11:17:41.198Z</time>
      </trkpt>
      <trkpt lat="50.65231" lon="3.56699">
        <ele>50.45</ele>
        <time>2023-05-12T11:17:47.308Z</time>
      </trkpt>
      <trkpt lat="50.65231" lon="3.56699">
        <ele>50.45</ele>
        <time>2023-05-12T11:17:53.419Z</time>
      </trkpt>
      <trkpt lat="50.65231" lon="3.56699">
        <ele>50.45</ele>
        <time>2023-05-12T11:17:59.530Z</time>
      </trkpt>
      <trkpt lat="50.65233" lon="3.56695">
        <ele>50.41</ele>
        <time>2023-05-12T11:18:05.641Z</time>
      </trkpt>
      <trkpt lat="50.65233" lon="3.56695">
        <ele>50.41</ele>
        <time>2023-05-12T11:18:11.752Z</time>
      </trkpt>
      <trkpt lat="50.65233" lon="3.56695">
        <ele>48.64</ele>
        <time>2023-05-12T11:18:17.863Z</time>
      </trkpt>
      <trkpt lat="50.65295" lon="3.56584">
        <ele>47.05</ele>
        <time>2023-05-12T11:18:23.989Z</time>
      </trkpt>
      <trkpt lat="50.65306" lon="3.56578">
        <ele>46.97</ele>
        <time>2023-05-12T11:18:30.117Z</time>
      </trkpt>
      <trkpt lat="50.65354" lon="3.56529">
        <ele>47.25</ele>
        <time>2023-05-12T11:18:36.254Z</time>
      </trkpt>
      <trkpt lat="50.65354" lon="3.56529">
        <ele>47.43</ele>
        <time>2023-05-12T11:18:42.391Z</time>
      </trkpt>
      <trkpt lat="50.65381" lon="3.56501">
        <ele>47.82</ele>
        <time>2023-05-12T11:18:48.533Z</time>
      </trkpt>
      <trkpt lat="50.65385" lon="3.56485">
        <ele>47.8</ele>
        <time>2023-05-12T11:18:54.677Z</time>
      </trkpt>
      <trkpt lat="50.6541" lon="3.56446">
        <ele>47.52</ele>
        <time>2023-05-12T11:19:00.827Z</time>
      </trkpt>
      <trkpt lat="50.65446" lon="3.56395">
        <ele>46.87</ele>
        <time>2023-05-12T11:19:06.985Z</time>
      </trkpt>
      <trkpt lat="50.656" lon="3.56228">
        <ele>46.6</ele>
        <time>2023-05-12T11:19:13.172Z</time>
      </trkpt>
      <trkpt lat="50.6561" lon="3.56217">
        <ele>46.15</ele>
        <time>2023-05-12T11:19:19.361Z</time>
      </trkpt>
      <trkpt lat="50.657" lon="3.56136">
        <ele>45.89</ele>
        <time>2023-05-12T11:19:25.567Z</time>
      </trkpt>
      <trkpt lat="50.65872" lon="3.5595">
        <ele>44.48</ele>
        <time>2023-05-12T11:19:31.806Z</time>
      </trkpt>
      <trkpt lat="50.65922" lon="3.56043">
        <ele>44.05</ele>
        <time>2023-05-12T11:19:38.058Z</time>
      </trkpt>
      <trkpt lat="50.6597" lon="3.56089">
        <ele>44.03</ele>
        <time>2023-05-12T11:19:44.319Z</time>
      </trkpt>
      <trkpt lat="50.6599" lon="3.56122">
        <ele>44.03</ele>
        <time>2023-05-12T11:19:50.585Z</time>
      </trkpt>
      <trkpt lat="50.66155" lon="3.56219">
        <ele>44</ele>
        <time>2023-05-12T11:19:56.879Z</time>
      </trkpt>
      <trkpt lat="50.66155" lon="3.56219">
        <ele>44.4</ele>
        <time>2023-05-12T11:20:03.173Z</time>
      </trkpt>
      <trkpt lat="50.66242" lon="3.56287">
        <ele>45.74</ele>
        <time>2023-05-12T11:20:09.482Z</time>
      </trkpt>
      <trkpt lat="50.66272" lon="3.56316">
        <ele>50.04</ele>
        <time>2023-05-12T11:20:15.797Z</time>
      </trkpt>
      <trkpt lat="50.66272" lon="3.56316">
        <ele>50.05</ele>
        <time>2023-05-12T11:20:22.112Z</time>
      </trkpt>
      <trkpt lat="50.66272" lon="3.56316">
        <ele>50.06</ele>
        <time>2023-05-12T11:20:28.427Z</time>
      </trkpt>
      <trkpt lat="50.66272" lon="3.56316">
        <ele>50.08</ele>
        <time>2023-05-12T11:20:34.742Z</time>
      </trkpt>
      <trkpt lat="50.66272" lon="3.56316">
        <ele>50.09</ele>
        <time>2023-05-12T11:20:41.057Z</time>
      </trkpt>
      <trkpt lat="50.66272" lon="3.56316">
        <ele>50.1</ele>
        <time>2023-05-12T11:20:47.372Z</time>
      </trkpt>
      <trkpt lat="50.66275" lon="3.56319">
        <ele>50.61</ele>
        <time>2023-05-12T11:20:53.688Z</time>
      </trkpt>
      <trkpt lat="50.66275" lon="3.56319">
        <ele>50.63</ele>
        <time>2023-05-12T11:21:00.004Z</time>
      </trkpt>
      <trkpt lat="50.66275" lon="3.56319">
        <ele>50.65</ele>
        <time>2023-05-12T11:21:06.320Z</time>
      </trkpt>
      <trkpt lat="50.66275" lon="3.56319">
        <ele>50.67</ele>
        <time>2023-05-12T11:21:12.636Z</time>
      </trkpt>
      <trkpt lat="50.66279" lon="3.56322">
        <ele>51.14</ele>
        <time>2023-05-12T11:21:18.952Z</time>
      </trkpt>
      <trkpt lat="50.66279" lon="3.56322">
        <ele>51.16</ele>
        <time>2023-05-12T11:21:25.268Z</time>
      </trkpt>
      <trkpt lat="50.6629" lon="3.56334">
        <ele>52.7</ele>
        <time>2023-05-12T11:21:31.586Z</time>
      </trkpt>
      <trkpt lat="50.66328" lon="3.56378">
        <ele>54.85</ele>
        <time>2023-05-12T11:21:37.912Z</time>
      </trkpt>
      <trkpt lat="50.66389" lon="3.56447">
        <ele>57.66</ele>
        <time>2023-05-12T11:21:44.250Z</time>
      </trkpt>
      <trkpt lat="50.66421" lon="3.56485">
        <ele>60.35</ele>
        <time>2023-05-12T11:21:50.594Z</time>
      </trkpt>
      <trkpt lat="50.66494" lon="3.56541">
        <ele>62.67</ele>
        <time>2023-05-12T11:21:56.951Z</time>
      </trkpt>
      <trkpt lat="50.6658" lon="3.56599">
        <ele>64.66</ele>
        <time>2023-05-12T11:22:03.323Z</time>
      </trkpt>
      <trkpt lat="50.6659" lon="3.56601">
        <ele>65.86</ele>
        <time>2023-05-12T11:22:09.697Z</time>
      </trkpt>
      <trkpt lat="50.66591" lon="3.56609">
        <ele>66.56</ele>
        <time>2023-05-12T11:22:16.072Z</time>
      </trkpt>
      <trkpt lat="50.66592" lon="3.56627">
        <ele>66.83</ele>
        <time>2023-05-12T11:22:22.449Z</time>
      </trkpt>
      <trkpt lat="50.66589" lon="3.5665">
        <ele>66.71</ele>
        <time>2023-05-12T11:22:28.828Z</time>
      </trkpt>
      <trkpt lat="50.66574" lon="3.56716">
        <ele>66.39</ele>
        <time>2023-05-12T11:22:35.214Z</time>
      </trkpt>
      <trkpt lat="50.66572" lon="3.56734">
        <ele>65.97</ele>
        <time>2023-05-12T11:22:41.602Z</time>
      </trkpt>
      <trkpt lat="50.66568" lon="3.56811">
        <ele>65.25</ele>
        <time>2023-05-12T11:22:47.998Z</time>
      </trkpt>
      <trkpt lat="50.66566" lon="3.56827">
        <ele>64.46</ele>
        <time>2023-05-12T11:22:54.396Z</time>
      </trkpt>
      <trkpt lat="50.66557" lon="3.56854">
        <ele>63.57</ele>
        <time>2023-05-12T11:23:00.797Z</time>
      </trkpt>
      <trkpt lat="50.66547" lon="3.56872">
        <ele>62.55</ele>
        <time>2023-05-12T11:23:07.200Z</time>
      </trkpt>
      <trkpt lat="50.66532" lon="3.56893">
        <ele>61.53</ele>
        <time>2023-05-12T11:23:13.606Z</time>
      </trkpt>
      <trkpt lat="50.66505" lon="3.5692">
        <ele>60.35</ele>
        <time>2023-05-12T11:23:20.017Z</time>
      </trkpt>
      <trkpt lat="50.66501" lon="3.56931">
        <ele>59.36</ele>
        <time>2023-05-12T11:23:26.430Z</time>
      </trkpt>
      <trkpt lat="50.665" lon="3.56943">
        <ele>58.38</ele>
        <time>2023-05-12T11:23:32.844Z</time>
      </trkpt>
      <trkpt lat="50.66514" lon="3.5702">
        <ele>57.37</ele>
        <time>2023-05-12T11:23:39.266Z</time>
      </trkpt>
      <trkpt lat="50.66518" lon="3.5706">
        <ele>56.38</ele>
        <time>2023-05-12T11:23:45.692Z</time>
      </trkpt>
      <trkpt lat="50.6652" lon="3.57101">
        <ele>55.46</ele>
        <time>2023-05-12T11:23:52.122Z</time>
      </trkpt>
      <trkpt lat="50.66522" lon="3.57117">
        <ele>54.62</ele>
        <time>2023-05-12T11:23:58.554Z</time>
      </trkpt>
      <trkpt lat="50.66549" lon="3.57226">
        <ele>53.66</ele>
        <time>2023-05-12T11:24:04.998Z</time>
      </trkpt>
      <trkpt lat="50.66557" lon="3.57249">
        <ele>53.02</ele>
        <time>2023-05-12T11:24:11.445Z</time>
      </trkpt>
      <trkpt lat="50.66565" lon="3.57272">
        <ele>52.25</ele>
        <time>2023-05-12T11:24:17.894Z</time>
      </trkpt>
      <trkpt lat="50.66613" lon="3.57363">
        <ele>51.49</ele>
        <time>2023-05-12T11:24:24.355Z</time>
      </trkpt>
      <trkpt lat="50.66613" lon="3.57375">
        <ele>50.65</ele>
        <time>2023-05-12T11:24:30.818Z</time>
      </trkpt>
      <trkpt lat="50.66617" lon="3.57383">
        <ele>49.61</ele>
        <time>2023-05-12T11:24:37.282Z</time>
      </trkpt>
      <trkpt lat="50.66712" lon="3.57535">
        <ele>47.89</ele>
        <time>2023-05-12T11:24:43.767Z</time>
      </trkpt>
      <trkpt lat="50.66722" lon="3.57557">
        <ele>47.32</ele>
        <time>2023-05-12T11:24:50.255Z</time>
      </trkpt>
      <trkpt lat="50.66722" lon="3.57557">
        <ele>47.32</ele>
        <time>2023-05-12T11:24:56.743Z</time>
      </trkpt>
      <trkpt lat="50.66722" lon="3.57557">
        <ele>47.32</ele>
        <time>2023-05-12T11:25:03.231Z</time>
      </trkpt>
      <trkpt lat="50.66722" lon="3.57557">
        <ele>47.32</ele>
        <time>2023-05-12T11:25:09.719Z</time>
      </trkpt>
      <trkpt lat="50.66722" lon="3.57557">
        <ele>47.32</ele>
        <time>2023-05-12T11:25:16.207Z</time>
      </trkpt>
      <trkpt lat="50.66722" lon="3.57557">
        <ele>47.32</ele>
        <time>2023-05-12T11:25:22.695Z</time>
      </trkpt>
      <trkpt lat="50.66723" lon="3.57559">
        <ele>47.28</ele>
        <time>2023-05-12T11:25:29.183Z</time>
      </trkpt>
      <trkpt lat="50.66724" lon="3.57563">
        <ele>47.09</ele>
        <time>2023-05-12T11:25:35.672Z</time>
      </trkpt>
      <trkpt lat="50.66724" lon="3.57563">
        <ele>47.09</ele>
        <time>2023-05-12T11:25:42.161Z</time>
      </trkpt>
      <trkpt lat="50.66724" lon="3.57563">
        <ele>47.09</ele>
        <time>2023-05-12T11:25:48.650Z</time>
      </trkpt>
      <trkpt lat="50.66724" lon="3.57563">
        <ele>47.09</ele>
        <time>2023-05-12T11:25:55.139Z</time>
      </trkpt>
      <trkpt lat="50.66725" lon="3.57569">
        <ele>46.87</ele>
        <time>2023-05-12T11:26:01.628Z</time>
      </trkpt>
      <trkpt lat="50.66726" lon="3.57569">
        <ele>46.87</ele>
        <time>2023-05-12T11:26:08.117Z</time>
      </trkpt>
      <trkpt lat="50.66726" lon="3.57569">
        <ele>46.25</ele>
        <time>2023-05-12T11:26:14.606Z</time>
      </trkpt>
      <trkpt lat="50.66738" lon="3.57615">
        <ele>45.46</ele>
        <time>2023-05-12T11:26:21.101Z</time>
      </trkpt>
      <trkpt lat="50.66746" lon="3.57635">
        <ele>44.66</ele>
        <time>2023-05-12T11:26:27.598Z</time>
      </trkpt>
      <trkpt lat="50.66795" lon="3.57741">
        <ele>43.62</ele>
        <time>2023-05-12T11:26:34.108Z</time>
      </trkpt>
      <trkpt lat="50.6684" lon="3.57823">
        <ele>42.21</ele>
        <time>2023-05-12T11:26:40.629Z</time>
      </trkpt>
      <trkpt lat="50.66886" lon="3.57926">
        <ele>40.43</ele>
        <time>2023-05-12T11:26:47.163Z</time>
      </trkpt>
      <trkpt lat="50.66906" lon="3.57964">
        <ele>39.27</ele>
        <time>2023-05-12T11:26:53.702Z</time>
      </trkpt>
      <trkpt lat="50.66962" lon="3.58061">
        <ele>37.93</ele>
        <time>2023-05-12T11:27:00.255Z</time>
      </trkpt>
      <trkpt lat="50.66966" lon="3.58074">
        <ele>37.16</ele>
        <time>2023-05-12T11:27:06.809Z</time>
      </trkpt>
      <trkpt lat="50.66974" lon="3.58082">
        <ele>36.44</ele>
        <time>2023-05-12T11:27:13.365Z</time>
      </trkpt>
      <trkpt lat="50.67094" lon="3.58207">
        <ele>35.4</ele>
        <time>2023-05-12T11:27:19.944Z</time>
      </trkpt>
      <trkpt lat="50.67161" lon="3.58283">
        <ele>34.36</ele>
        <time>2023-05-12T11:27:26.536Z</time>
      </trkpt>
      <trkpt lat="50.67161" lon="3.58283">
        <ele>34.36</ele>
        <time>2023-05-12T11:27:33.128Z</time>
      </trkpt>
      <trkpt lat="50.67161" lon="3.58283">
        <ele>34.36</ele>
        <time>2023-05-12T11:27:39.720Z</time>
      </trkpt>
      <trkpt lat="50.67161" lon="3.58283">
        <ele>34.36</ele>
        <time>2023-05-12T11:27:46.312Z</time>
      </trkpt>
      <trkpt lat="50.67161" lon="3.58283">
        <ele>34.36</ele>
        <time>2023-05-12T11:27:52.904Z</time>
      </trkpt>
      <trkpt lat="50.67164" lon="3.58286">
        <ele>34.31</ele>
        <time>2023-05-12T11:27:59.496Z</time>
      </trkpt>
      <trkpt lat="50.67164" lon="3.58286">
        <ele>34.31</ele>
        <time>2023-05-12T11:28:06.088Z</time>
      </trkpt>
      <trkpt lat="50.67167" lon="3.5829">
        <ele>34.27</ele>
        <time>2023-05-12T11:28:12.681Z</time>
      </trkpt>
      <trkpt lat="50.67167" lon="3.5829">
        <ele>34.27</ele>
        <time>2023-05-12T11:28:19.274Z</time>
      </trkpt>
      <trkpt lat="50.67167" lon="3.5829">
        <ele>33.85</ele>
        <time>2023-05-12T11:28:25.867Z</time>
      </trkpt>
      <trkpt lat="50.67251" lon="3.58385">
        <ele>38.06</ele>
        <time>2023-05-12T11:28:32.477Z</time>
      </trkpt>
      <trkpt lat="50.67255" lon="3.58389">
        <ele>38.8</ele>
        <time>2023-05-12T11:28:39.087Z</time>
      </trkpt>
      <trkpt lat="50.67596" lon="3.57626">
        <ele>35.27</ele>
        <time>2023-05-12T11:28:45.792Z</time>
      </trkpt>
      <trkpt lat="50.67596" lon="3.57626">
        <ele>35.21</ele>
        <time>2023-05-12T11:28:52.497Z</time>
      </trkpt>
      <trkpt lat="50.67652" lon="3.57502">
        <ele>33.39</ele>
        <time>2023-05-12T11:28:59.218Z</time>
      </trkpt>
      <trkpt lat="50.6779" lon="3.57662">
        <ele>30.97</ele>
        <time>2023-05-12T11:29:05.966Z</time>
      </trkpt>
      <trkpt lat="50.67808" lon="3.57681">
        <ele>31.14</ele>
        <time>2023-05-12T11:29:12.718Z</time>
      </trkpt>
      <trkpt lat="50.6785" lon="3.57732">
        <ele>35.34</ele>
        <time>2023-05-12T11:29:19.478Z</time>
      </trkpt>
      <trkpt lat="50.67852" lon="3.57733">
        <ele>35.56</ele>
        <time>2023-05-12T11:29:26.238Z</time>
      </trkpt>
      <trkpt lat="50.6786" lon="3.57742">
        <ele>36.84</ele>
        <time>2023-05-12T11:29:33.000Z</time>
      </trkpt>
      <trkpt lat="50.6786" lon="3.57742">
        <ele>36.94</ele>
        <time>2023-05-12T11:29:39.762Z</time>
      </trkpt>
      <trkpt lat="50.67889" lon="3.57772">
        <ele>43.61</ele>
        <time>2023-05-12T11:29:46.530Z</time>
      </trkpt>
      <trkpt lat="50.67985" lon="3.5788">
        <ele>51.36</ele>
        <time>2023-05-12T11:29:53.317Z</time>
      </trkpt>
      <trkpt lat="50.67985" lon="3.5788">
        <ele>51.37</ele>
        <time>2023-05-12T11:30:00.104Z</time>
      </trkpt>
      <trkpt lat="50.67985" lon="3.5788">
        <ele>51.38</ele>
        <time>2023-05-12T11:30:06.891Z</time>
      </trkpt>
      <trkpt lat="50.67985" lon="3.5788">
        <ele>51.39</ele>
        <time>2023-05-12T11:30:13.678Z</time>
      </trkpt>
      <trkpt lat="50.67985" lon="3.5788">
        <ele>51.4</ele>
        <time>2023-05-12T11:30:20.465Z</time>
      </trkpt>
      <trkpt lat="50.67985" lon="3.5788">
        <ele>51.41</ele>
        <time>2023-05-12T11:30:27.252Z</time>
      </trkpt>
      <trkpt lat="50.67988" lon="3.57884">
        <ele>51.69</ele>
        <time>2023-05-12T11:30:34.039Z</time>
      </trkpt>
      <trkpt lat="50.67988" lon="3.57884">
        <ele>51.7</ele>
        <time>2023-05-12T11:30:40.826Z</time>
      </trkpt>
      <trkpt lat="50.67988" lon="3.57884">
        <ele>51.71</ele>
        <time>2023-05-12T11:30:47.613Z</time>
      </trkpt>
      <trkpt lat="50.67988" lon="3.57884">
        <ele>51.72</ele>
        <time>2023-05-12T11:30:54.400Z</time>
      </trkpt>
      <trkpt lat="50.67991" lon="3.57887">
        <ele>51.98</ele>
        <time>2023-05-12T11:31:01.188Z</time>
      </trkpt>
      <trkpt lat="50.67991" lon="3.57887">
        <ele>51.99</ele>
        <time>2023-05-12T11:31:07.976Z</time>
      </trkpt>
      <trkpt lat="50.6803" lon="3.5793">
        <ele>51.03</ele>
        <time>2023-05-12T11:31:14.771Z</time>
      </trkpt>
      <trkpt lat="50.6803" lon="3.5793">
        <ele>49.67</ele>
        <time>2023-05-12T11:31:21.566Z</time>
      </trkpt>
      <trkpt lat="50.68132" lon="3.58046">
        <ele>47.64</ele>
        <time>2023-05-12T11:31:28.382Z</time>
      </trkpt>
      <trkpt lat="50.68191" lon="3.57939">
        <ele>44.77</ele>
        <time>2023-05-12T11:31:35.212Z</time>
      </trkpt>
      <trkpt lat="50.68238" lon="3.57862">
        <ele>41.09</ele>
        <time>2023-05-12T11:31:42.053Z</time>
      </trkpt>
      <trkpt lat="50.68339" lon="3.57724">
        <ele>36.57</ele>
        <time>2023-05-12T11:31:48.915Z</time>
      </trkpt>
      <trkpt lat="50.68395" lon="3.57667">
        <ele>33.86</ele>
        <time>2023-05-12T11:31:55.788Z</time>
      </trkpt>
      <trkpt lat="50.68405" lon="3.5765">
        <ele>31.66</ele>
        <time>2023-05-12T11:32:02.663Z</time>
      </trkpt>
      <trkpt lat="50.68413" lon="3.57626">
        <ele>29.97</ele>
        <time>2023-05-12T11:32:09.541Z</time>
      </trkpt>
      <trkpt lat="50.68424" lon="3.57557">
        <ele>28.43</ele>
        <time>2023-05-12T11:32:16.426Z</time>
      </trkpt>
      <trkpt lat="50.68431" lon="3.57541">
        <ele>27.78</ele>
        <time>2023-05-12T11:32:23.313Z</time>
      </trkpt>
      <trkpt lat="50.68477" lon="3.57481">
        <ele>27.5</ele>
        <time>2023-05-12T11:32:30.210Z</time>
      </trkpt>
      <trkpt lat="50.68482" lon="3.57476">
        <ele>29.04</ele>
        <time>2023-05-12T11:32:37.108Z</time>
      </trkpt>
      <trkpt lat="50.68482" lon="3.57476">
        <ele>29.06</ele>
        <time>2023-05-12T11:32:44.006Z</time>
      </trkpt>
      <trkpt lat="50.68482" lon="3.57476">
        <ele>29.08</ele>
        <time>2023-05-12T11:32:50.904Z</time>
      </trkpt>
      <trkpt lat="50.68482" lon="3.57476">
        <ele>29.12</ele>
        <time>2023-05-12T11:32:57.802Z</time>
      </trkpt>
      <trkpt lat="50.68482" lon="3.57476">
        <ele>29.13</ele>
        <time>2023-05-12T11:33:04.700Z</time>
      </trkpt>
      <trkpt lat="50.68482" lon="3.57476">
        <ele>29.14</ele>
        <time>2023-05-12T11:33:11.598Z</time>
      </trkpt>
      <trkpt lat="50.68486" lon="3.57472">
        <ele>30.3</ele>
        <time>2023-05-12T11:33:18.497Z</time>
      </trkpt>
      <trkpt lat="50.68486" lon="3.57472">
        <ele>30.32</ele>
        <time>2023-05-12T11:33:25.396Z</time>
      </trkpt>
      <trkpt lat="50.68486" lon="3.57472">
        <ele>30.35</ele>
        <time>2023-05-12T11:33:32.295Z</time>
      </trkpt>
      <trkpt lat="50.68486" lon="3.57472">
        <ele>30.38</ele>
        <time>2023-05-12T11:33:39.194Z</time>
      </trkpt>
      <trkpt lat="50.68489" lon="3.57469">
        <ele>31.44</ele>
        <time>2023-05-12T11:33:46.093Z</time>
      </trkpt>
      <trkpt lat="50.68489" lon="3.57469">
        <ele>31.47</ele>
        <time>2023-05-12T11:33:52.992Z</time>
      </trkpt>
      <trkpt lat="50.68547" lon="3.57415">
        <ele>32.57</ele>
        <time>2023-05-12T11:33:59.902Z</time>
      </trkpt>
      <trkpt lat="50.68629" lon="3.57402">
        <ele>34.45</ele>
        <time>2023-05-12T11:34:06.825Z</time>
      </trkpt>
      <trkpt lat="50.68678" lon="3.57374">
        <ele>36.37</ele>
        <time>2023-05-12T11:34:13.757Z</time>
      </trkpt>
      <trkpt lat="50.68682" lon="3.57405">
        <ele>36.67</ele>
        <time>2023-05-12T11:34:20.692Z</time>
      </trkpt>
      <trkpt lat="50.68692" lon="3.57459">
        <ele>36.42</ele>
        <time>2023-05-12T11:34:27.632Z</time>
      </trkpt>
      <trkpt lat="50.68693" lon="3.57553">
        <ele>35.82</ele>
        <time>2023-05-12T11:34:34.582Z</time>
      </trkpt>
      <trkpt lat="50.68699" lon="3.57635">
        <ele>35.13</ele>
        <time>2023-05-12T11:34:41.540Z</time>
      </trkpt>
      <trkpt lat="50.68698" lon="3.57658">
        <ele>34.56</ele>
        <time>2023-05-12T11:34:48.501Z</time>
      </trkpt>
      <trkpt lat="50.68695" lon="3.5768">
        <ele>34</ele>
        <time>2023-05-12T11:34:55.464Z</time>
      </trkpt>
      <trkpt lat="50.68686" lon="3.57719">
        <ele>33.46</ele>
        <time>2023-05-12T11:35:02.431Z</time>
      </trkpt>
      <trkpt lat="50.6868" lon="3.5774">
        <ele>33.06</ele>
        <time>2023-05-12T11:35:09.401Z</time>
      </trkpt>
      <trkpt lat="50.68658" lon="3.57782">
        <ele>32.88</ele>
        <time>2023-05-12T11:35:16.376Z</time>
      </trkpt>
      <trkpt lat="50.68655" lon="3.57796">
        <ele>32.87</ele>
        <time>2023-05-12T11:35:23.353Z</time>
      </trkpt>
      <trkpt lat="50.68655" lon="3.57823">
        <ele>33.05</ele>
        <time>2023-05-12T11:35:30.332Z</time>
      </trkpt>
      <trkpt lat="50.68666" lon="3.57906">
        <ele>33.88</ele>
        <time>2023-05-12T11:35:37.320Z</time>
      </trkpt>
      <trkpt lat="50.68669" lon="3.57938">
        <ele>34.47</ele>
        <time>2023-05-12T11:35:44.311Z</time>
      </trkpt>
      <trkpt lat="50.68668" lon="3.5794">
        <ele>34.98</ele>
        <time>2023-05-12T11:35:51.303Z</time>
      </trkpt>
      <trkpt lat="50.68668" lon="3.5794">
        <ele>35</ele>
        <time>2023-05-12T11:35:58.295Z</time>
      </trkpt>
      <trkpt lat="50.68668" lon="3.5794">
        <ele>35.02</ele>
        <time>2023-05-12T11:36:05.287Z</time>
      </trkpt>
      <trkpt lat="50.68668" lon="3.5794">
        <ele>35.06</ele>
        <time>2023-05-12T11:36:12.279Z</time>
      </trkpt>
      <trkpt lat="50.68668" lon="3.5794">
        <ele>35.07</ele>
        <time>2023-05-12T11:36:19.271Z</time>
      </trkpt>
      <trkpt lat="50.68668" lon="3.5794">
        <ele>35.09</ele>
        <time>2023-05-12T11:36:26.263Z</time>
      </trkpt>
      <trkpt lat="50.68667" lon="3.57946">
        <ele>36.39</ele>
        <time>2023-05-12T11:36:33.255Z</time>
      </trkpt>
      <trkpt lat="50.68667" lon="3.57946">
        <ele>36.42</ele>
        <time>2023-05-12T11:36:40.247Z</time>
      </trkpt>
      <trkpt lat="50.68667" lon="3.57947">
        <ele>36.45</ele>
        <time>2023-05-12T11:36:47.239Z</time>
      </trkpt>
      <trkpt lat="50.68667" lon="3.57947">
        <ele>36.49</ele>
        <time>2023-05-12T11:36:54.231Z</time>
      </trkpt>
      <trkpt lat="50.68665" lon="3.57952">
        <ele>37.7</ele>
        <time>2023-05-12T11:37:01.224Z</time>
      </trkpt>
      <trkpt lat="50.68665" lon="3.57952">
        <ele>37.74</ele>
        <time>2023-05-12T11:37:08.217Z</time>
      </trkpt>
      <trkpt lat="50.68662" lon="3.57964">
        <ele>39.04</ele>
        <time>2023-05-12T11:37:15.211Z</time>
      </trkpt>
      <trkpt lat="50.6862" lon="3.58095">
        <ele>42.95</ele>
        <time>2023-05-12T11:37:22.220Z</time>
      </trkpt>
      <trkpt lat="50.68592" lon="3.58161">
        <ele>44.55</ele>
        <time>2023-05-12T11:37:29.237Z</time>
      </trkpt>
      <trkpt lat="50.6882" lon="3.58134">
        <ele>42.77</ele>
        <time>2023-05-12T11:37:36.291Z</time>
      </trkpt>
      <trkpt lat="50.68822" lon="3.58155">
        <ele>42.95</ele>
        <time>2023-05-12T11:37:43.347Z</time>
      </trkpt>
      <trkpt lat="50.68822" lon="3.58155">
        <ele>42.96</ele>
        <time>2023-05-12T11:37:50.403Z</time>
      </trkpt>
      <trkpt lat="50.68822" lon="3.58155">
        <ele>42.97</ele>
        <time>2023-05-12T11:37:57.459Z</time>
      </trkpt>
      <trkpt lat="50.68822" lon="3.58155">
        <ele>42.98</ele>
        <time>2023-05-12T11:38:04.515Z</time>
      </trkpt>
      <trkpt lat="50.68822" lon="3.58155">
        <ele>42.99</ele>
        <time>2023-05-12T11:38:11.571Z</time>
      </trkpt>
      <trkpt lat="50.68822" lon="3.58155">
        <ele>43</ele>
        <time>2023-05-12T11:38:18.627Z</time>
      </trkpt>
      <trkpt lat="50.68822" lon="3.58162">
        <ele>43.08</ele>
        <time>2023-05-12T11:38:25.684Z</time>
      </trkpt>
      <trkpt lat="50.68822" lon="3.58162">
        <ele>43.09</ele>
        <time>2023-05-12T11:38:32.741Z</time>
      </trkpt>
      <trkpt lat="50.68822" lon="3.58162">
        <ele>43.1</ele>
        <time>2023-05-12T11:38:39.798Z</time>
      </trkpt>
      <trkpt lat="50.68822" lon="3.58162">
        <ele>43.11</ele>
        <time>2023-05-12T11:38:46.855Z</time>
      </trkpt>
      <trkpt lat="50.68823" lon="3.58168">
        <ele>43.19</ele>
        <time>2023-05-12T11:38:53.912Z</time>
      </trkpt>
      <trkpt lat="50.68823" lon="3.58168">
        <ele>43.2</ele>
        <time>2023-05-12T11:39:00.969Z</time>
      </trkpt>
      <trkpt lat="50.68828" lon="3.58245">
        <ele>44.2</ele>
        <time>2023-05-12T11:39:08.034Z</time>
      </trkpt>
      <trkpt lat="50.68827" lon="3.58259">
        <ele>44.92</ele>
        <time>2023-05-12T11:39:15.101Z</time>
      </trkpt>
      <trkpt lat="50.68823" lon="3.58272">
        <ele>45.73</ele>
        <time>2023-05-12T11:39:22.169Z</time>
      </trkpt>
      <trkpt lat="50.68817" lon="3.58283">
        <ele>46.69</ele>
        <time>2023-05-12T11:39:29.239Z</time>
      </trkpt>
      <trkpt lat="50.688" lon="3.58299">
        <ele>47.58</ele>
        <time>2023-05-12T11:39:36.312Z</time>
      </trkpt>
      <trkpt lat="50.68799" lon="3.58321">
        <ele>48.86</ele>
        <time>2023-05-12T11:39:43.387Z</time>
      </trkpt>
      <trkpt lat="50.68653" lon="3.58407">
        <ele>51.77</ele>
        <time>2023-05-12T11:39:50.487Z</time>
      </trkpt>
      <trkpt lat="50.68653" lon="3.58407">
        <ele>53.41</ele>
        <time>2023-05-12T11:39:57.587Z</time>
      </trkpt>
      <trkpt lat="50.68618" lon="3.58438">
        <ele>55.44</ele>
        <time>2023-05-12T11:40:04.693Z</time>
      </trkpt>
      <trkpt lat="50.68611" lon="3.58441">
        <ele>56.89</ele>
        <time>2023-05-12T11:40:11.800Z</time>
      </trkpt>
      <trkpt lat="50.68568" lon="3.58444">
        <ele>58.34</ele>
        <time>2023-05-12T11:40:18.914Z</time>
      </trkpt>
      <trkpt lat="50.68554" lon="3.58453">
        <ele>59.48</ele>
        <time>2023-05-12T11:40:26.031Z</time>
      </trkpt>
      <trkpt lat="50.68622" lon="3.5856">
        <ele>60.27</ele>
        <time>2023-05-12T11:40:33.163Z</time>
      </trkpt>
      <trkpt lat="50.68664" lon="3.58623">
        <ele>61.57</ele>
        <time>2023-05-12T11:40:40.304Z</time>
      </trkpt>
      <trkpt lat="50.68681" lon="3.58655">
        <ele>63.04</ele>
        <time>2023-05-12T11:40:47.450Z</time>
      </trkpt>
      <trkpt lat="50.68687" lon="3.58669">
        <ele>65.51</ele>
        <time>2023-05-12T11:40:54.597Z</time>
      </trkpt>
      <trkpt lat="50.68687" lon="3.58669">
        <ele>65.53</ele>
        <time>2023-05-12T11:41:01.744Z</time>
      </trkpt>
      <trkpt lat="50.68687" lon="3.58669">
        <ele>65.55</ele>
        <time>2023-05-12T11:41:08.891Z</time>
      </trkpt>
      <trkpt lat="50.68687" lon="3.58669">
        <ele>65.58</ele>
        <time>2023-05-12T11:41:16.038Z</time>
      </trkpt>
      <trkpt lat="50.68687" lon="3.58669">
        <ele>65.59</ele>
        <time>2023-05-12T11:41:23.185Z</time>
      </trkpt>
      <trkpt lat="50.68687" lon="3.58669">
        <ele>65.6</ele>
        <time>2023-05-12T11:41:30.332Z</time>
      </trkpt>
      <trkpt lat="50.6869" lon="3.58674">
        <ele>66.59</ele>
        <time>2023-05-12T11:41:37.480Z</time>
      </trkpt>
      <trkpt lat="50.6869" lon="3.58675">
        <ele>66.61</ele>
        <time>2023-05-12T11:41:44.628Z</time>
      </trkpt>
      <trkpt lat="50.6869" lon="3.58675">
        <ele>66.64</ele>
        <time>2023-05-12T11:41:51.776Z</time>
      </trkpt>
      <trkpt lat="50.6869" lon="3.58675">
        <ele>66.67</ele>
        <time>2023-05-12T11:41:58.924Z</time>
      </trkpt>
      <trkpt lat="50.68692" lon="3.58679">
        <ele>67.57</ele>
        <time>2023-05-12T11:42:06.073Z</time>
      </trkpt>
      <trkpt lat="50.68692" lon="3.5868">
        <ele>67.6</ele>
        <time>2023-05-12T11:42:13.222Z</time>
      </trkpt>
      <trkpt lat="50.68728" lon="3.58758">
        <ele>70.74</ele>
        <time>2023-05-12T11:42:20.381Z</time>
      </trkpt>
      <trkpt lat="50.68758" lon="3.58793">
        <ele>73.83</ele>
        <time>2023-05-12T11:42:27.546Z</time>
      </trkpt>
      <trkpt lat="50.68759" lon="3.58802">
        <ele>76.29</ele>
        <time>2023-05-12T11:42:34.712Z</time>
      </trkpt>
      <trkpt lat="50.68759" lon="3.58802">
        <ele>78.48</ele>
        <time>2023-05-12T11:42:41.878Z</time>
      </trkpt>
      <trkpt lat="50.68763" lon="3.58855">
        <ele>81.42</ele>
        <time>2023-05-12T11:42:49.049Z</time>
      </trkpt>
      <trkpt lat="50.68755" lon="3.58907">
        <ele>84</ele>
        <time>2023-05-12T11:42:56.226Z</time>
      </trkpt>
      <trkpt lat="50.68754" lon="3.58949">
        <ele>86.69</ele>
        <time>2023-05-12T11:43:03.407Z</time>
      </trkpt>
      <trkpt lat="50.68761" lon="3.59003">
        <ele>89.53</ele>
        <time>2023-05-12T11:43:10.593Z</time>
      </trkpt>
      <trkpt lat="50.68779" lon="3.59061">
        <ele>92.42</ele>
        <time>2023-05-12T11:43:17.786Z</time>
      </trkpt>
      <trkpt lat="50.68781" lon="3.59081">
        <ele>94.12</ele>
        <time>2023-05-12T11:43:24.981Z</time>
      </trkpt>
      <trkpt lat="50.6878" lon="3.59117">
        <ele>95.53</ele>
        <time>2023-05-12T11:43:32.180Z</time>
      </trkpt>
      <trkpt lat="50.6877" lon="3.59198">
        <ele>96.65</ele>
        <time>2023-05-12T11:43:39.387Z</time>
      </trkpt>
      <trkpt lat="50.68771" lon="3.5929">
        <ele>98.79</ele>
        <time>2023-05-12T11:43:46.603Z</time>
      </trkpt>
      <trkpt lat="50.68774" lon="3.5937">
        <ele>100.75</ele>
        <time>2023-05-12T11:43:53.827Z</time>
      </trkpt>
      <trkpt lat="50.68782" lon="3.59442">
        <ele>103.15</ele>
        <time>2023-05-12T11:44:01.059Z</time>
      </trkpt>
      <trkpt lat="50.68787" lon="3.5946">
        <ele>104.83</ele>
        <time>2023-05-12T11:44:08.293Z</time>
      </trkpt>
      <trkpt lat="50.68825" lon="3.59539">
        <ele>106.55</ele>
        <time>2023-05-12T11:44:15.537Z</time>
      </trkpt>
      <trkpt lat="50.68825" lon="3.59539">
        <ele>106.56</ele>
        <time>2023-05-12T11:44:22.781Z</time>
      </trkpt>
      <trkpt lat="50.68825" lon="3.59539">
        <ele>106.57</ele>
        <time>2023-05-12T11:44:30.025Z</time>
      </trkpt>
      <trkpt lat="50.68825" lon="3.59539">
        <ele>106.58</ele>
        <time>2023-05-12T11:44:37.269Z</time>
      </trkpt>
      <trkpt lat="50.68825" lon="3.59539">
        <ele>106.59</ele>
        <time>2023-05-12T11:44:44.513Z</time>
      </trkpt>
      <trkpt lat="50.68825" lon="3.59539">
        <ele>106.6</ele>
        <time>2023-05-12T11:44:51.757Z</time>
      </trkpt>
      <trkpt lat="50.68828" lon="3.59544">
        <ele>106.72</ele>
        <time>2023-05-12T11:44:59.002Z</time>
      </trkpt>
      <trkpt lat="50.68828" lon="3.59544">
        <ele>106.73</ele>
        <time>2023-05-12T11:45:06.247Z</time>
      </trkpt>
      <trkpt lat="50.68828" lon="3.59544">
        <ele>106.74</ele>
        <time>2023-05-12T11:45:13.492Z</time>
      </trkpt>
      <trkpt lat="50.6883" lon="3.59549">
        <ele>106.86</ele>
        <time>2023-05-12T11:45:20.737Z</time>
      </trkpt>
      <trkpt lat="50.6883" lon="3.59549">
        <ele>108.89</ele>
        <time>2023-05-12T11:45:27.982Z</time>
      </trkpt>
      <trkpt lat="50.68836" lon="3.59562">
        <ele>109.48</ele>
        <time>2023-05-12T11:45:35.229Z</time>
      </trkpt>
      <trkpt lat="50.68869" lon="3.59657">
        <ele>110.71</ele>
        <time>2023-05-12T11:45:42.487Z</time>
      </trkpt>
      <trkpt lat="50.68869" lon="3.59657">
        <ele>111.65</ele>
        <time>2023-05-12T11:45:49.745Z</time>
      </trkpt>
      <trkpt lat="50.6889" lon="3.59704">
        <ele>113.21</ele>
        <time>2023-05-12T11:45:57.009Z</time>
      </trkpt>
      <trkpt lat="50.68893" lon="3.59724">
        <ele>114.35</ele>
        <time>2023-05-12T11:46:04.275Z</time>
      </trkpt>
      <trkpt lat="50.68893" lon="3.59724">
        <ele>115.36</ele>
        <time>2023-05-12T11:46:11.541Z</time>
      </trkpt>
      <trkpt lat="50.689" lon="3.5976">
        <ele>116.43</ele>
        <time>2023-05-12T11:46:18.811Z</time>
      </trkpt>
      <trkpt lat="50.68902" lon="3.59792">
        <ele>117.54</ele>
        <time>2023-05-12T11:46:26.084Z</time>
      </trkpt>
      <trkpt lat="50.68902" lon="3.59801">
        <ele>118.59</ele>
        <time>2023-05-12T11:46:33.358Z</time>
      </trkpt>
      <trkpt lat="50.68898" lon="3.59834">
        <ele>119.74</ele>
        <time>2023-05-12T11:46:40.635Z</time>
      </trkpt>
      <trkpt lat="50.68898" lon="3.59853">
        <ele>120.92</ele>
        <time>2023-05-12T11:46:47.914Z</time>
      </trkpt>
      <trkpt lat="50.68909" lon="3.59914">
        <ele>122.41</ele>
        <time>2023-05-12T11:46:55.200Z</time>
      </trkpt>
      <trkpt lat="50.68912" lon="3.59933">
        <ele>123.49</ele>
        <time>2023-05-12T11:47:02.488Z</time>
      </trkpt>
      <trkpt lat="50.6891" lon="3.59954">
        <ele>124.48</ele>
        <time>2023-05-12T11:47:09.778Z</time>
      </trkpt>
      <trkpt lat="50.68903" lon="3.59977">
        <ele>125.27</ele>
        <time>2023-05-12T11:47:17.071Z</time>
      </trkpt>
      <trkpt lat="50.68903" lon="3.59977">
        <ele>125.84</ele>
        <time>2023-05-12T11:47:24.364Z</time>
      </trkpt>
      <trkpt lat="50.68874" lon="3.60007">
        <ele>126.18</ele>
        <time>2023-05-12T11:47:31.662Z</time>
      </trkpt>
      <trkpt lat="50.68851" lon="3.60021">
        <ele>126.34</ele>
        <time>2023-05-12T11:47:38.964Z</time>
      </trkpt>
      <trkpt lat="50.68747" lon="3.60101">
        <ele>127.28</ele>
        <time>2023-05-12T11:47:46.285Z</time>
      </trkpt>
      <trkpt lat="50.68703" lon="3.60137">
        <ele>127.1</ele>
        <time>2023-05-12T11:47:53.614Z</time>
      </trkpt>
      <trkpt lat="50.68658" lon="3.60171">
        <ele>126.31</ele>
        <time>2023-05-12T11:48:00.951Z</time>
      </trkpt>
      <trkpt lat="50.68532" lon="3.60279">
        <ele>124.74</ele>
        <time>2023-05-12T11:48:08.311Z</time>
      </trkpt>
      <trkpt lat="50.68508" lon="3.60302">
        <ele>124.26</ele>
        <time>2023-05-12T11:48:15.675Z</time>
      </trkpt>
      <trkpt lat="50.68522" lon="3.60301">
        <ele>124.07</ele>
        <time>2023-05-12T11:48:23.041Z</time>
      </trkpt>
      <trkpt lat="50.68538" lon="3.60312">
        <ele>124.08</ele>
        <time>2023-05-12T11:48:30.410Z</time>
      </trkpt>
      <trkpt lat="50.68663" lon="3.60422">
        <ele>125.64</ele>
        <time>2023-05-12T11:48:37.802Z</time>
      </trkpt>
      <trkpt lat="50.68663" lon="3.60422">
        <ele>125.65</ele>
        <time>2023-05-12T11:48:45.194Z</time>
      </trkpt>
      <trkpt lat="50.68663" lon="3.60422">
        <ele>125.66</ele>
        <time>2023-05-12T11:48:52.586Z</time>
      </trkpt>
      <trkpt lat="50.68663" lon="3.60422">
        <ele>125.67</ele>
        <time>2023-05-12T11:48:59.978Z</time>
      </trkpt>
      <trkpt lat="50.68663" lon="3.60422">
        <ele>125.68</ele>
        <time>2023-05-12T11:49:07.370Z</time>
      </trkpt>
      <trkpt lat="50.68663" lon="3.60422">
        <ele>125.69</ele>
        <time>2023-05-12T11:49:14.762Z</time>
      </trkpt>
      <trkpt lat="50.68667" lon="3.60426">
        <ele>125.74</ele>
        <time>2023-05-12T11:49:22.155Z</time>
      </trkpt>
      <trkpt lat="50.68667" lon="3.60426">
        <ele>125.75</ele>
        <time>2023-05-12T11:49:29.548Z</time>
      </trkpt>
      <trkpt lat="50.68667" lon="3.60426">
        <ele>125.76</ele>
        <time>2023-05-12T11:49:36.941Z</time>
      </trkpt>
      <trkpt lat="50.68667" lon="3.60426">
        <ele>125.77</ele>
        <time>2023-05-12T11:49:44.334Z</time>
      </trkpt>
      <trkpt lat="50.6867" lon="3.60429">
        <ele>125.82</ele>
        <time>2023-05-12T11:49:51.727Z</time>
      </trkpt>
      <trkpt lat="50.6867" lon="3.60429">
        <ele>125.83</ele>
        <time>2023-05-12T11:49:59.120Z</time>
      </trkpt>
      <trkpt lat="50.68733" lon="3.60485">
        <ele>126.75</ele>
        <time>2023-05-12T11:50:06.525Z</time>
      </trkpt>
      <trkpt lat="50.68733" lon="3.60485">
        <ele>127.67</ele>
        <time>2023-05-12T11:50:13.930Z</time>
      </trkpt>
      <trkpt lat="50.68839" lon="3.60583">
        <ele>130.11</ele>
        <time>2023-05-12T11:50:21.355Z</time>
      </trkpt>
      <trkpt lat="50.689" lon="3.60634">
        <ele>131.28</ele>
        <time>2023-05-12T11:50:28.791Z</time>
      </trkpt>
      <trkpt lat="50.68943" lon="3.60666">
        <ele>131.78</ele>
        <time>2023-05-12T11:50:36.234Z</time>
      </trkpt>
      <trkpt lat="50.69026" lon="3.60722">
        <ele>131.99</ele>
        <time>2023-05-12T11:50:43.692Z</time>
      </trkpt>
      <trkpt lat="50.69067" lon="3.60741">
        <ele>132.17</ele>
        <time>2023-05-12T11:50:51.157Z</time>
      </trkpt>
      <trkpt lat="50.6911" lon="3.60806">
        <ele>131.71</ele>
        <time>2023-05-12T11:50:58.631Z</time>
      </trkpt>
      <trkpt lat="50.69133" lon="3.60847">
        <ele>131.7</ele>
        <time>2023-05-12T11:51:06.111Z</time>
      </trkpt>
      <trkpt lat="50.69133" lon="3.60847">
        <ele>131.58</ele>
        <time>2023-05-12T11:51:13.591Z</time>
      </trkpt>
      <trkpt lat="50.69162" lon="3.60896">
        <ele>131.46</ele>
        <time>2023-05-12T11:51:21.078Z</time>
      </trkpt>
      <trkpt lat="50.69162" lon="3.60896">
        <ele>131.46</ele>
        <time>2023-05-12T11:51:28.565Z</time>
      </trkpt>
      <trkpt lat="50.69162" lon="3.60896">
        <ele>131.46</ele>
        <time>2023-05-12T11:51:36.052Z</time>
      </trkpt>
      <trkpt lat="50.69162" lon="3.60896">
        <ele>131.46</ele>
        <time>2023-05-12T11:51:43.539Z</time>
      </trkpt>
      <trkpt lat="50.69162" lon="3.60896">
        <ele>131.46</ele>
        <time>2023-05-12T11:51:51.026Z</time>
      </trkpt>
      <trkpt lat="50.69164" lon="3.60899">
        <ele>131.46</ele>
        <time>2023-05-12T11:51:58.513Z</time>
      </trkpt>
      <trkpt lat="50.69162" lon="3.60901">
        <ele>132.24</ele>
        <time>2023-05-12T11:52:06.000Z</time>
      </trkpt>
      <trkpt lat="50.69162" lon="3.60901">
        <ele>132.28</ele>
        <time>2023-05-12T11:52:13.487Z</time>
      </trkpt>
      <trkpt lat="50.69162" lon="3.60901">
        <ele>132.33</ele>
        <time>2023-05-12T11:52:20.974Z</time>
      </trkpt>
      <trkpt lat="50.69162" lon="3.60901">
        <ele>132.4</ele>
        <time>2023-05-12T11:52:28.461Z</time>
      </trkpt>
      <trkpt lat="50.69159" lon="3.60905">
        <ele>134.09</ele>
        <time>2023-05-12T11:52:35.949Z</time>
      </trkpt>
      <trkpt lat="50.69159" lon="3.60905">
        <ele>134.16</ele>
        <time>2023-05-12T11:52:43.437Z</time>
      </trkpt>
      <trkpt lat="50.69164" lon="3.60899">
        <ele>133.13</ele>
        <time>2023-05-12T11:52:50.926Z</time>
      </trkpt>
      <trkpt lat="50.69188" lon="3.60941">
        <ele>131.64</ele>
        <time>2023-05-12T11:52:58.421Z</time>
      </trkpt>
      <trkpt lat="50.69198" lon="3.60959">
        <ele>129.83</ele>
        <time>2023-05-12T11:53:05.918Z</time>
      </trkpt>
      <trkpt lat="50.69204" lon="3.60978">
        <ele>127.69</ele>
        <time>2023-05-12T11:53:13.417Z</time>
      </trkpt>
      <trkpt lat="50.69214" lon="3.60986">
        <ele>125.12</ele>
        <time>2023-05-12T11:53:20.918Z</time>
      </trkpt>
      <trkpt lat="50.6924" lon="3.60957">
        <ele>121.85</ele>
        <time>2023-05-12T11:53:28.424Z</time>
      </trkpt>
      <trkpt lat="50.69349" lon="3.60861">
        <ele>117.13</ele>
        <time>2023-05-12T11:53:35.950Z</time>
      </trkpt>
      <trkpt lat="50.69385" lon="3.60827">
        <ele>112.71</ele>
        <time>2023-05-12T11:53:43.483Z</time>
      </trkpt>
      <trkpt lat="50.69442" lon="3.60764">
        <ele>108.02</ele>
        <time>2023-05-12T11:53:51.027Z</time>
      </trkpt>
      <trkpt lat="50.69473" lon="3.60718">
        <ele>103.43</ele>
        <time>2023-05-12T11:53:58.578Z</time>
      </trkpt>
      <trkpt lat="50.69587" lon="3.60554">
        <ele>97.85</ele>
        <time>2023-05-12T11:54:06.154Z</time>
      </trkpt>
      <trkpt lat="50.69604" lon="3.60514">
        <ele>92.96</ele>
        <time>2023-05-12T11:54:13.734Z</time>
      </trkpt>
      <trkpt lat="50.69604" lon="3.60514">
        <ele>88.82</ele>
        <time>2023-05-12T11:54:21.314Z</time>
      </trkpt>
      <trkpt lat="50.69635" lon="3.6042">
        <ele>83.46</ele>
        <time>2023-05-12T11:54:28.905Z</time>
      </trkpt>
      <trkpt lat="50.6964" lon="3.60399">
        <ele>79.74</ele>
        <time>2023-05-12T11:54:36.499Z</time>
      </trkpt>
      <trkpt lat="50.69643" lon="3.60372">
        <ele>76.35</ele>
        <time>2023-05-12T11:54:44.095Z</time>
      </trkpt>
      <trkpt lat="50.69648" lon="3.60269">
        <ele>72.8</ele>
        <time>2023-05-12T11:54:51.702Z</time>
      </trkpt>
      <trkpt lat="50.69654" lon="3.60239">
        <ele>70.08</ele>
        <time>2023-05-12T11:54:59.312Z</time>
      </trkpt>
      <trkpt lat="50.69664" lon="3.60216">
        <ele>67.71</ele>
        <time>2023-05-12T11:55:06.925Z</time>
      </trkpt>
      <trkpt lat="50.69677" lon="3.602">
        <ele>65.7</ele>
        <time>2023-05-12T11:55:14.540Z</time>
      </trkpt>
      <trkpt lat="50.6969" lon="3.6019">
        <ele>63.85</ele>
        <time>2023-05-12T11:55:22.158Z</time>
      </trkpt>
      <trkpt lat="50.69739" lon="3.6017">
        <ele>61.99</ele>
        <time>2023-05-12T11:55:29.784Z</time>
      </trkpt>
      <trkpt lat="50.69797" lon="3.60152">
        <ele>60.36</ele>
        <time>2023-05-12T11:55:37.419Z</time>
      </trkpt>
      <trkpt lat="50.69816" lon="3.60147">
        <ele>59.17</ele>
        <time>2023-05-12T11:55:45.058Z</time>
      </trkpt>
      <trkpt lat="50.69839" lon="3.60146">
        <ele>57.91</ele>
        <time>2023-05-12T11:55:52.700Z</time>
      </trkpt>
      <trkpt lat="50.69906" lon="3.60159">
        <ele>56.89</ele>
        <time>2023-05-12T11:56:00.353Z</time>
      </trkpt>
      <trkpt lat="50.69906" lon="3.60159">
        <ele>56.89</ele>
        <time>2023-05-12T11:56:08.006Z</time>
      </trkpt>
      <trkpt lat="50.69906" lon="3.60159">
        <ele>56.89</ele>
        <time>2023-05-12T11:56:15.659Z</time>
      </trkpt>
      <trkpt lat="50.69906" lon="3.60159">
        <ele>56.89</ele>
        <time>2023-05-12T11:56:23.312Z</time>
      </trkpt>
      <trkpt lat="50.69906" lon="3.60159">
        <ele>56.89</ele>
        <time>2023-05-12T11:56:30.965Z</time>
      </trkpt>
      <trkpt lat="50.69906" lon="3.60159">
        <ele>56.89</ele>
        <time>2023-05-12T11:56:38.618Z</time>
      </trkpt>
      <trkpt lat="50.6991" lon="3.6016">
        <ele>56.83</ele>
        <time>2023-05-12T11:56:46.272Z</time>
      </trkpt>
      <trkpt lat="50.6991" lon="3.6016">
        <ele>56.83</ele>
        <time>2023-05-12T11:56:53.926Z</time>
      </trkpt>
      <trkpt lat="50.6991" lon="3.6016">
        <ele>56.83</ele>
        <time>2023-05-12T11:57:01.580Z</time>
      </trkpt>
      <trkpt lat="50.6991" lon="3.6016">
        <ele>56.83</ele>
        <time>2023-05-12T11:57:09.234Z</time>
      </trkpt>
      <trkpt lat="50.69911" lon="3.60161">
        <ele>56.82</ele>
        <time>2023-05-12T11:57:16.888Z</time>
      </trkpt>
      <trkpt lat="50.69914" lon="3.60161">
        <ele>56.23</ele>
        <time>2023-05-12T11:57:24.542Z</time>
      </trkpt>
      <trkpt lat="50.69914" lon="3.60161">
        <ele>56.2</ele>
        <time>2023-05-12T11:57:32.196Z</time>
      </trkpt>
      <trkpt lat="50.69945" lon="3.60161">
        <ele>54.9</ele>
        <time>2023-05-12T11:57:39.855Z</time>
      </trkpt>
      <trkpt lat="50.7001" lon="3.60137">
        <ele>53.16</ele>
        <time>2023-05-12T11:57:47.525Z</time>
      </trkpt>
      <trkpt lat="50.70053" lon="3.60131">
        <ele>51.48</ele>
        <time>2023-05-12T11:57:55.202Z</time>
      </trkpt>
      <trkpt lat="50.70179" lon="3.60076">
        <ele>49.27</ele>
        <time>2023-05-12T11:58:02.900Z</time>
      </trkpt>
      <trkpt lat="50.7022" lon="3.60057">
        <ele>48.09</ele>
        <time>2023-05-12T11:58:10.605Z</time>
      </trkpt>
      <trkpt lat="50.70287" lon="3.60011">
        <ele>46.53</ele>
        <time>2023-05-12T11:58:18.321Z</time>
      </trkpt>
      <trkpt lat="50.70287" lon="3.60011">
        <ele>45.63</ele>
        <time>2023-05-12T11:58:26.037Z</time>
      </trkpt>
      <trkpt lat="50.70331" lon="3.59984">
        <ele>44.87</ele>
        <time>2023-05-12T11:58:33.761Z</time>
      </trkpt>
      <trkpt lat="50.70424" lon="3.59922">
        <ele>44.26</ele>
        <time>2023-05-12T11:58:41.501Z</time>
      </trkpt>
      <trkpt lat="50.70448" lon="3.5991">
        <ele>43.81</ele>
        <time>2023-05-12T11:58:49.245Z</time>
      </trkpt>
      <trkpt lat="50.70575" lon="3.59826">
        <ele>43.27</ele>
        <time>2023-05-12T11:58:57.011Z</time>
      </trkpt>
      <trkpt lat="50.70579" lon="3.59817">
        <ele>43.1</ele>
        <time>2023-05-12T11:59:04.778Z</time>
      </trkpt>
      <trkpt lat="50.70588" lon="3.59802">
        <ele>43.04</ele>
        <time>2023-05-12T11:59:12.547Z</time>
      </trkpt>
      <trkpt lat="50.70601" lon="3.59774">
        <ele>43.25</ele>
        <time>2023-05-12T11:59:20.320Z</time>
      </trkpt>
      <trkpt lat="50.70609" lon="3.59749">
        <ele>43.27</ele>
        <time>2023-05-12T11:59:28.096Z</time>
      </trkpt>
      <trkpt lat="50.70624" lon="3.59693">
        <ele>43.19</ele>
        <time>2023-05-12T11:59:35.878Z</time>
      </trkpt>
      <trkpt lat="50.70649" lon="3.59716">
        <ele>42.78</ele>
        <time>2023-05-12T11:59:43.665Z</time>
      </trkpt>
      <trkpt lat="50.70649" lon="3.59716">
        <ele>42.09</ele>
        <time>2023-05-12T11:59:51.452Z</time>
      </trkpt>
      <trkpt lat="50.7074" lon="3.59804">
        <ele>40.41</ele>
        <time>2023-05-12T11:59:59.256Z</time>
      </trkpt>
      <trkpt lat="50.70763" lon="3.5983">
        <ele>40.01</ele>
        <time>2023-05-12T12:00:07.064Z</time>
      </trkpt>
      <trkpt lat="50.70775" lon="3.59849">
        <ele>40.07</ele>
        <time>2023-05-12T12:00:14.875Z</time>
      </trkpt>
      <trkpt lat="50.70833" lon="3.59975">
        <ele>40.03</ele>
        <time>2023-05-12T12:00:22.702Z</time>
      </trkpt>
      <trkpt lat="50.70833" lon="3.59975">
        <ele>40.03</ele>
        <time>2023-05-12T12:00:30.529Z</time>
      </trkpt>
      <trkpt lat="50.70833" lon="3.59975">
        <ele>40.03</ele>
        <time>2023-05-12T12:00:38.356Z</time>
      </trkpt>
      <trkpt lat="50.70833" lon="3.59975">
        <ele>40.03</ele>
        <time>2023-05-12T12:00:46.183Z</time>
      </trkpt>
      <trkpt lat="50.70833" lon="3.59975">
        <ele>40.03</ele>
        <time>2023-05-12T12:00:54.010Z</time>
      </trkpt>
      <trkpt lat="50.70833" lon="3.59975">
        <ele>40.03</ele>
        <time>2023-05-12T12:01:01.837Z</time>
      </trkpt>
      <trkpt lat="50.70836" lon="3.5998">
        <ele>40.03</ele>
        <time>2023-05-12T12:01:09.665Z</time>
      </trkpt>
      <trkpt lat="50.70836" lon="3.5998">
        <ele>40.03</ele>
        <time>2023-05-12T12:01:17.493Z</time>
      </trkpt>
      <trkpt lat="50.70836" lon="3.5998">
        <ele>40.03</ele>
        <time>2023-05-12T12:01:25.321Z</time>
      </trkpt>
      <trkpt lat="50.70836" lon="3.5998">
        <ele>40.03</ele>
        <time>2023-05-12T12:01:33.149Z</time>
      </trkpt>
      <trkpt lat="50.70838" lon="3.59985">
        <ele>40.03</ele>
        <time>2023-05-12T12:01:40.977Z</time>
      </trkpt>
      <trkpt lat="50.70838" lon="3.59985">
        <ele>40.03</ele>
        <time>2023-05-12T12:01:48.805Z</time>
      </trkpt>
      <trkpt lat="50.70844" lon="3.59998">
        <ele>40.01</ele>
        <time>2023-05-12T12:01:56.635Z</time>
      </trkpt>
      <trkpt lat="50.70862" lon="3.60036">
        <ele>40.28</ele>
        <time>2023-05-12T12:02:04.470Z</time>
      </trkpt>
      <trkpt lat="50.70902" lon="3.60123">
        <ele>40.86</ele>
        <time>2023-05-12T12:02:12.316Z</time>
      </trkpt>
      <trkpt lat="50.70916" lon="3.60154">
        <ele>41.6</ele>
        <time>2023-05-12T12:02:20.166Z</time>
      </trkpt>
      <trkpt lat="50.70931" lon="3.60197">
        <ele>42.56</ele>
        <time>2023-05-12T12:02:28.021Z</time>
      </trkpt>
      <trkpt lat="50.70901" lon="3.6025">
        <ele>44.01</ele>
        <time>2023-05-12T12:02:35.883Z</time>
      </trkpt>
      <trkpt lat="50.70814" lon="3.6039">
        <ele>46.33</ele>
        <time>2023-05-12T12:02:43.765Z</time>
      </trkpt>
      <trkpt lat="50.70814" lon="3.6039">
        <ele>48.74</ele>
        <time>2023-05-12T12:02:51.647Z</time>
      </trkpt>
      <trkpt lat="50.70728" lon="3.60524">
        <ele>52.68</ele>
        <time>2023-05-12T12:02:59.548Z</time>
      </trkpt>
      <trkpt lat="50.70594" lon="3.60744">
        <ele>58.35</ele>
        <time>2023-05-12T12:03:07.480Z</time>
      </trkpt>
      <trkpt lat="50.70585" lon="3.60772">
        <ele>62.45</ele>
        <time>2023-05-12T12:03:15.415Z</time>
      </trkpt>
      <trkpt lat="50.70571" lon="3.60842">
        <ele>66.04</ele>
        <time>2023-05-12T12:03:23.358Z</time>
      </trkpt>
      <trkpt lat="50.70571" lon="3.60841">
        <ele>66.05</ele>
        <time>2023-05-12T12:03:31.301Z</time>
      </trkpt>
      <trkpt lat="50.70571" lon="3.60841">
        <ele>66.06</ele>
        <time>2023-05-12T12:03:39.244Z</time>
      </trkpt>
      <trkpt lat="50.70571" lon="3.60841">
        <ele>66.08</ele>
        <time>2023-05-12T12:03:47.187Z</time>
      </trkpt>
      <trkpt lat="50.70571" lon="3.60842">
        <ele>66.1</ele>
        <time>2023-05-12T12:03:55.130Z</time>
      </trkpt>
      <trkpt lat="50.70571" lon="3.60842">
        <ele>66.12</ele>
        <time>2023-05-12T12:04:03.073Z</time>
      </trkpt>
      <trkpt lat="50.7057" lon="3.60848">
        <ele>66.5</ele>
        <time>2023-05-12T12:04:11.016Z</time>
      </trkpt>
      <trkpt lat="50.7057" lon="3.60848">
        <ele>66.51</ele>
        <time>2023-05-12T12:04:18.959Z</time>
      </trkpt>
      <trkpt lat="50.7057" lon="3.60848">
        <ele>66.52</ele>
        <time>2023-05-12T12:04:26.902Z</time>
      </trkpt>
      <trkpt lat="50.7057" lon="3.60848">
        <ele>66.54</ele>
        <time>2023-05-12T12:04:34.845Z</time>
      </trkpt>
      <trkpt lat="50.70569" lon="3.60854">
        <ele>66.87</ele>
        <time>2023-05-12T12:04:42.789Z</time>
      </trkpt>
      <trkpt lat="50.70569" lon="3.60854">
        <ele>66.89</ele>
        <time>2023-05-12T12:04:50.733Z</time>
      </trkpt>
      <trkpt lat="50.70569" lon="3.60854">
        <ele>70.84</ele>
        <time>2023-05-12T12:04:58.677Z</time>
      </trkpt>
      <trkpt lat="50.70542" lon="3.60987">
        <ele>71.91</ele>
        <time>2023-05-12T12:05:06.635Z</time>
      </trkpt>
      <trkpt lat="50.70536" lon="3.61004">
        <ele>72.97</ele>
        <time>2023-05-12T12:05:14.595Z</time>
      </trkpt>
      <trkpt lat="50.70526" lon="3.61021">
        <ele>74.27</ele>
        <time>2023-05-12T12:05:22.558Z</time>
      </trkpt>
      <trkpt lat="50.70517" lon="3.61034">
        <ele>75.62</ele>
        <time>2023-05-12T12:05:30.523Z</time>
      </trkpt>
      <trkpt lat="50.70504" lon="3.61044">
        <ele>77.13</ele>
        <time>2023-05-12T12:05:38.490Z</time>
      </trkpt>
      <trkpt lat="50.70494" lon="3.61047">
        <ele>78.69</ele>
        <time>2023-05-12T12:05:46.458Z</time>
      </trkpt>
      <trkpt lat="50.70482" lon="3.61046">
        <ele>80.48</ele>
        <time>2023-05-12T12:05:54.428Z</time>
      </trkpt>
      <trkpt lat="50.70472" lon="3.61039">
        <ele>82.41</ele>
        <time>2023-05-12T12:06:02.400Z</time>
      </trkpt>
      <trkpt lat="50.70458" lon="3.61025">
        <ele>84.51</ele>
        <time>2023-05-12T12:06:10.375Z</time>
      </trkpt>
      <trkpt lat="50.7043" lon="3.60981">
        <ele>86.83</ele>
        <time>2023-05-12T12:06:18.356Z</time>
      </trkpt>
      <trkpt lat="50.70424" lon="3.60975">
        <ele>89.03</ele>
        <time>2023-05-12T12:06:26.338Z</time>
      </trkpt>
      <trkpt lat="50.70348" lon="3.60862">
        <ele>92.07</ele>
        <time>2023-05-12T12:06:34.337Z</time>
      </trkpt>
      <trkpt lat="50.70331" lon="3.60853">
        <ele>94.71</ele>
        <time>2023-05-12T12:06:42.339Z</time>
      </trkpt>
      <trkpt lat="50.70312" lon="3.60856">
        <ele>97.22</ele>
        <time>2023-05-12T12:06:50.344Z</time>
      </trkpt>
      <trkpt lat="50.70269" lon="3.60913">
        <ele>99.7</ele>
        <time>2023-05-12T12:06:58.358Z</time>
      </trkpt>
      <trkpt lat="50.70269" lon="3.60913">
        <ele>101.8</ele>
        <time>2023-05-12T12:07:06.372Z</time>
      </trkpt>
      <trkpt lat="50.70233" lon="3.60964">
        <ele>104.4</ele>
        <time>2023-05-12T12:07:14.394Z</time>
      </trkpt>
      <trkpt lat="50.70216" lon="3.60986">
        <ele>106.46</ele>
        <time>2023-05-12T12:07:22.419Z</time>
      </trkpt>
      <trkpt lat="50.70183" lon="3.61024">
        <ele>108.38</ele>
        <time>2023-05-12T12:07:30.451Z</time>
      </trkpt>
      <trkpt lat="50.70135" lon="3.61076">
        <ele>109.84</ele>
        <time>2023-05-12T12:07:38.492Z</time>
      </trkpt>
      <trkpt lat="50.70098" lon="3.61109">
        <ele>111.49</ele>
        <time>2023-05-12T12:07:46.540Z</time>
      </trkpt>
      <trkpt lat="50.70098" lon="3.61109">
        <ele>112.75</ele>
        <time>2023-05-12T12:07:54.588Z</time>
      </trkpt>
      <trkpt lat="50.7006" lon="3.61163">
        <ele>114.37</ele>
        <time>2023-05-12T12:08:02.644Z</time>
      </trkpt>
      <trkpt lat="50.70021" lon="3.61231">
        <ele>114.85</ele>
        <time>2023-05-12T12:08:10.710Z</time>
      </trkpt>
      <trkpt lat="50.69998" lon="3.61297">
        <ele>114.09</ele>
        <time>2023-05-12T12:08:18.783Z</time>
      </trkpt>
      <trkpt lat="50.69956" lon="3.61517">
        <ele>113.41</ele>
        <time>2023-05-12T12:08:26.879Z</time>
      </trkpt>
      <trkpt lat="50.69956" lon="3.61516">
        <ele>113.41</ele>
        <time>2023-05-12T12:08:34.976Z</time>
      </trkpt>
      <trkpt lat="50.69956" lon="3.61516">
        <ele>113.41</ele>
        <time>2023-05-12T12:08:43.073Z</time>
      </trkpt>
      <trkpt lat="50.69956" lon="3.61515">
        <ele>113.41</ele>
        <time>2023-05-12T12:08:51.170Z</time>
      </trkpt>
      <trkpt lat="50.69956" lon="3.61515">
        <ele>113.41</ele>
        <time>2023-05-12T12:08:59.267Z</time>
      </trkpt>
      <trkpt lat="50.69956" lon="3.61515">
        <ele>113.41</ele>
        <time>2023-05-12T12:09:07.364Z</time>
      </trkpt>
      <trkpt lat="50.69955" lon="3.61522">
        <ele>113.39</ele>
        <time>2023-05-12T12:09:15.461Z</time>
      </trkpt>
      <trkpt lat="50.69955" lon="3.61522">
        <ele>113.39</ele>
        <time>2023-05-12T12:09:23.558Z</time>
      </trkpt>
      <trkpt lat="50.69955" lon="3.61522">
        <ele>113.39</ele>
        <time>2023-05-12T12:09:31.655Z</time>
      </trkpt>
      <trkpt lat="50.69955" lon="3.61521">
        <ele>113.39</ele>
        <time>2023-05-12T12:09:39.753Z</time>
      </trkpt>
      <trkpt lat="50.69954" lon="3.61527">
        <ele>113.38</ele>
        <time>2023-05-12T12:09:47.851Z</time>
      </trkpt>
      <trkpt lat="50.69954" lon="3.61527">
        <ele>113.38</ele>
        <time>2023-05-12T12:09:55.949Z</time>
      </trkpt>
      <trkpt lat="50.69937" lon="3.61613">
        <ele>114.73</ele>
        <time>2023-05-12T12:10:04.056Z</time>
      </trkpt>
      <trkpt lat="50.69915" lon="3.61672">
        <ele>116.27</ele>
        <time>2023-05-12T12:10:12.170Z</time>
      </trkpt>
      <trkpt lat="50.69862" lon="3.61751">
        <ele>118.42</ele>
        <time>2023-05-12T12:10:20.296Z</time>
      </trkpt>
      <trkpt lat="50.69734" lon="3.61907">
        <ele>121.33</ele>
        <time>2023-05-12T12:10:28.448Z</time>
      </trkpt>
      <trkpt lat="50.69703" lon="3.61954">
        <ele>122.03</ele>
        <time>2023-05-12T12:10:36.607Z</time>
      </trkpt>
      <trkpt lat="50.69682" lon="3.61993">
        <ele>122.02</ele>
        <time>2023-05-12T12:10:44.771Z</time>
      </trkpt>
      <trkpt lat="50.69579" lon="3.62236">
        <ele>119.44</ele>
        <time>2023-05-12T12:10:52.965Z</time>
      </trkpt>
      <trkpt lat="50.69576" lon="3.62238">
        <ele>118.28</ele>
        <time>2023-05-12T12:11:01.159Z</time>
      </trkpt>
      <trkpt lat="50.69567" lon="3.6226">
        <ele>117.2</ele>
        <time>2023-05-12T12:11:09.356Z</time>
      </trkpt>
      <trkpt lat="50.69535" lon="3.62326">
        <ele>116.06</ele>
        <time>2023-05-12T12:11:17.561Z</time>
      </trkpt>
      <trkpt lat="50.69525" lon="3.62339">
        <ele>114.91</ele>
        <time>2023-05-12T12:11:25.768Z</time>
      </trkpt>
      <trkpt lat="50.69507" lon="3.62355">
        <ele>113.67</ele>
        <time>2023-05-12T12:11:33.979Z</time>
      </trkpt>
      <trkpt lat="50.6948" lon="3.62376">
        <ele>112.46</ele>
        <time>2023-05-12T12:11:42.195Z</time>
      </trkpt>
      <trkpt lat="50.69466" lon="3.62391">
        <ele>110.96</ele>
        <time>2023-05-12T12:11:50.413Z</time>
      </trkpt>
      <trkpt lat="50.69408" lon="3.62435">
        <ele>108.69</ele>
        <time>2023-05-12T12:11:58.642Z</time>
      </trkpt>
      <trkpt lat="50.69383" lon="3.62458">
        <ele>105.31</ele>
        <time>2023-05-12T12:12:06.875Z</time>
      </trkpt>
      <trkpt lat="50.69383" lon="3.62458">
        <ele>105.31</ele>
        <time>2023-05-12T12:12:15.108Z</time>
      </trkpt>
      <trkpt lat="50.69383" lon="3.62458">
        <ele>105.3</ele>
        <time>2023-05-12T12:12:23.341Z</time>
      </trkpt>
      <trkpt lat="50.69383" lon="3.62458">
        <ele>105.29</ele>
        <time>2023-05-12T12:12:31.574Z</time>
      </trkpt>
      <trkpt lat="50.69383" lon="3.62458">
        <ele>105.29</ele>
        <time>2023-05-12T12:12:39.807Z</time>
      </trkpt>
      <trkpt lat="50.69383" lon="3.62458">
        <ele>105.29</ele>
        <time>2023-05-12T12:12:48.040Z</time>
      </trkpt>
      <trkpt lat="50.69378" lon="3.62462">
        <ele>104.66</ele>
        <time>2023-05-12T12:12:56.274Z</time>
      </trkpt>
      <trkpt lat="50.69378" lon="3.62462">
        <ele>104.66</ele>
        <time>2023-05-12T12:13:04.508Z</time>
      </trkpt>
      <trkpt lat="50.69378" lon="3.62462">
        <ele>104.65</ele>
        <time>2023-05-12T12:13:12.742Z</time>
      </trkpt>
      <trkpt lat="50.69378" lon="3.62462">
        <ele>104.64</ele>
        <time>2023-05-12T12:13:20.976Z</time>
      </trkpt>
      <trkpt lat="50.69374" lon="3.62466">
        <ele>104.13</ele>
        <time>2023-05-12T12:13:29.211Z</time>
      </trkpt>
      <trkpt lat="50.69374" lon="3.62466">
        <ele>104.12</ele>
        <time>2023-05-12T12:13:37.446Z</time>
      </trkpt>
      <trkpt lat="50.69361" lon="3.62478">
        <ele>102.23</ele>
        <time>2023-05-12T12:13:45.683Z</time>
      </trkpt>
      <trkpt lat="50.69317" lon="3.62516">
        <ele>98.62</ele>
        <time>2023-05-12T12:13:53.928Z</time>
      </trkpt>
      <trkpt lat="50.693" lon="3.62525">
        <ele>95.73</ele>
        <time>2023-05-12T12:14:02.176Z</time>
      </trkpt>
      <trkpt lat="50.6928" lon="3.62547">
        <ele>92.84</ele>
        <time>2023-05-12T12:14:10.428Z</time>
      </trkpt>
      <trkpt lat="50.69272" lon="3.6256">
        <ele>90.45</ele>
        <time>2023-05-12T12:14:18.682Z</time>
      </trkpt>
      <trkpt lat="50.69244" lon="3.62616">
        <ele>87.78</ele>
        <time>2023-05-12T12:14:26.943Z</time>
      </trkpt>
      <trkpt lat="50.69216" lon="3.62667">
        <ele>84.8</ele>
        <time>2023-05-12T12:14:35.211Z</time>
      </trkpt>
      <trkpt lat="50.69202" lon="3.62688">
        <ele>82.19</ele>
        <time>2023-05-12T12:14:43.482Z</time>
      </trkpt>
      <trkpt lat="50.69186" lon="3.6271">
        <ele>79.58</ele>
        <time>2023-05-12T12:14:51.757Z</time>
      </trkpt>
      <trkpt lat="50.69124" lon="3.62784">
        <ele>76.69</ele>
        <time>2023-05-12T12:15:00.044Z</time>
      </trkpt>
      <trkpt lat="50.69095" lon="3.62823">
        <ele>75</ele>
        <time>2023-05-12T12:15:08.337Z</time>
      </trkpt>
      <trkpt lat="50.69095" lon="3.62823">
        <ele>73.26</ele>
        <time>2023-05-12T12:15:16.630Z</time>
      </trkpt>
      <trkpt lat="50.69088" lon="3.62848">
        <ele>71.34</ele>
        <time>2023-05-12T12:15:24.926Z</time>
      </trkpt>
      <trkpt lat="50.69083" lon="3.62874">
        <ele>69.19</ele>
        <time>2023-05-12T12:15:33.225Z</time>
      </trkpt>
      <trkpt lat="50.69065" lon="3.63063">
        <ele>66.05</ele>
        <time>2023-05-12T12:15:41.543Z</time>
      </trkpt>
      <trkpt lat="50.6906" lon="3.63159">
        <ele>60.68</ele>
        <time>2023-05-12T12:15:49.871Z</time>
      </trkpt>
      <trkpt lat="50.6906" lon="3.63159">
        <ele>60.68</ele>
        <time>2023-05-12T12:15:58.199Z</time>
      </trkpt>
      <trkpt lat="50.6906" lon="3.63159">
        <ele>60.68</ele>
        <time>2023-05-12T12:16:06.527Z</time>
      </trkpt>
      <trkpt lat="50.6906" lon="3.63159">
        <ele>60.67</ele>
        <time>2023-05-12T12:16:14.855Z</time>
      </trkpt>
      <trkpt lat="50.6906" lon="3.63159">
        <ele>60.66</ele>
        <time>2023-05-12T12:16:23.183Z</time>
      </trkpt>
      <trkpt lat="50.6906" lon="3.63159">
        <ele>60.65</ele>
        <time>2023-05-12T12:16:31.511Z</time>
      </trkpt>
      <trkpt lat="50.69059" lon="3.63167">
        <ele>60.17</ele>
        <time>2023-05-12T12:16:39.840Z</time>
      </trkpt>
      <trkpt lat="50.69059" lon="3.63167">
        <ele>60.17</ele>
        <time>2023-05-12T12:16:48.169Z</time>
      </trkpt>
      <trkpt lat="50.69059" lon="3.63167">
        <ele>60.16</ele>
        <time>2023-05-12T12:16:56.498Z</time>
      </trkpt>
      <trkpt lat="50.69059" lon="3.63167">
        <ele>60.47</ele>
        <time>2023-05-12T12:17:04.827Z</time>
      </trkpt>
      <trkpt lat="50.69048" lon="3.6338">
        <ele>57.65</ele>
        <time>2023-05-12T12:17:13.178Z</time>
      </trkpt>
      <trkpt lat="50.69044" lon="3.6343">
        <ele>56.31</ele>
        <time>2023-05-12T12:17:21.534Z</time>
      </trkpt>
      <trkpt lat="50.69041" lon="3.63446">
        <ele>55.34</ele>
        <time>2023-05-12T12:17:29.891Z</time>
      </trkpt>
      <trkpt lat="50.69026" lon="3.6343">
        <ele>54.74</ele>
        <time>2023-05-12T12:17:38.251Z</time>
      </trkpt>
      <trkpt lat="50.69006" lon="3.63414">
        <ele>54.12</ele>
        <time>2023-05-12T12:17:46.615Z</time>
      </trkpt>
      <trkpt lat="50.69006" lon="3.63414">
        <ele>53.73</ele>
        <time>2023-05-12T12:17:54.979Z</time>
      </trkpt>
      <trkpt lat="50.6895" lon="3.63369">
        <ele>53.15</ele>
        <time>2023-05-12T12:18:03.353Z</time>
      </trkpt>
      <trkpt lat="50.68888" lon="3.63332">
        <ele>52.97</ele>
        <time>2023-05-12T12:18:11.738Z</time>
      </trkpt>
      <trkpt lat="50.68888" lon="3.63332">
        <ele>52.6</ele>
        <time>2023-05-12T12:18:20.123Z</time>
      </trkpt>
      <trkpt lat="50.68811" lon="3.63288">
        <ele>51.85</ele>
        <time>2023-05-12T12:18:28.521Z</time>
      </trkpt>
      <trkpt lat="50.68765" lon="3.63267">
        <ele>51.39</ele>
        <time>2023-05-12T12:18:36.927Z</time>
      </trkpt>
      <trkpt lat="50.68758" lon="3.63281">
        <ele>51.24</ele>
        <time>2023-05-12T12:18:45.334Z</time>
      </trkpt>
      <trkpt lat="50.68758" lon="3.63281">
        <ele>51.24</ele>
        <time>2023-05-12T12:18:53.741Z</time>
      </trkpt>
      <trkpt lat="50.68758" lon="3.63281">
        <ele>51.24</ele>
        <time>2023-05-12T12:19:02.148Z</time>
      </trkpt>
      <trkpt lat="50.68758" lon="3.63281">
        <ele>51.24</ele>
        <time>2023-05-12T12:19:10.555Z</time>
      </trkpt>
      <trkpt lat="50.68758" lon="3.63281">
        <ele>51.24</ele>
        <time>2023-05-12T12:19:18.962Z</time>
      </trkpt>
      <trkpt lat="50.68758" lon="3.63281">
        <ele>51.24</ele>
        <time>2023-05-12T12:19:27.369Z</time>
      </trkpt>
      <trkpt lat="50.68755" lon="3.63289">
        <ele>51.17</ele>
        <time>2023-05-12T12:19:35.777Z</time>
      </trkpt>
      <trkpt lat="50.68755" lon="3.63289">
        <ele>51.17</ele>
        <time>2023-05-12T12:19:44.185Z</time>
      </trkpt>
      <trkpt lat="50.68755" lon="3.63289">
        <ele>51.17</ele>
        <time>2023-05-12T12:19:52.593Z</time>
      </trkpt>
      <trkpt lat="50.68765" lon="3.63267">
        <ele>53.32</ele>
        <time>2023-05-12T12:20:01.004Z</time>
      </trkpt>
      <trkpt lat="50.68718" lon="3.63262">
        <ele>54.83</ele>
        <time>2023-05-12T12:20:09.422Z</time>
      </trkpt>
      <trkpt lat="50.68597" lon="3.63258">
        <ele>56.62</ele>
        <time>2023-05-12T12:20:17.860Z</time>
      </trkpt>
      <trkpt lat="50.68526" lon="3.63258">
        <ele>58.05</ele>
        <time>2023-05-12T12:20:26.309Z</time>
      </trkpt>
      <trkpt lat="50.68511" lon="3.63256">
        <ele>58.48</ele>
        <time>2023-05-12T12:20:34.761Z</time>
      </trkpt>
      <trkpt lat="50.68483" lon="3.63242">
        <ele>58.41</ele>
        <time>2023-05-12T12:20:43.217Z</time>
      </trkpt>
      <trkpt lat="50.68405" lon="3.63513">
        <ele>55.88</ele>
        <time>2023-05-12T12:20:51.704Z</time>
      </trkpt>
      <trkpt lat="50.68386" lon="3.6358">
        <ele>54.28</ele>
        <time>2023-05-12T12:21:00.198Z</time>
      </trkpt>
      <trkpt lat="50.68375" lon="3.63605">
        <ele>52.98</ele>
        <time>2023-05-12T12:21:08.695Z</time>
      </trkpt>
      <trkpt lat="50.68338" lon="3.63568">
        <ele>51.69</ele>
        <time>2023-05-12T12:21:17.199Z</time>
      </trkpt>
      <trkpt lat="50.68338" lon="3.63568">
        <ele>51.69</ele>
        <time>2023-05-12T12:21:25.703Z</time>
      </trkpt>
      <trkpt lat="50.68338" lon="3.63568">
        <ele>51.69</ele>
        <time>2023-05-12T12:21:34.207Z</time>
      </trkpt>
      <trkpt lat="50.68338" lon="3.63567">
        <ele>51.69</ele>
        <time>2023-05-12T12:21:42.711Z</time>
      </trkpt>
      <trkpt lat="50.68338" lon="3.63567">
        <ele>51.69</ele>
        <time>2023-05-12T12:21:51.215Z</time>
      </trkpt>
      <trkpt lat="50.68338" lon="3.63567">
        <ele>51.69</ele>
        <time>2023-05-12T12:21:59.719Z</time>
      </trkpt>
      <trkpt lat="50.68333" lon="3.63563">
        <ele>51.53</ele>
        <time>2023-05-12T12:22:08.224Z</time>
      </trkpt>
      <trkpt lat="50.68333" lon="3.63563">
        <ele>51.53</ele>
        <time>2023-05-12T12:22:16.729Z</time>
      </trkpt>
      <trkpt lat="50.68333" lon="3.63563">
        <ele>51.53</ele>
        <time>2023-05-12T12:22:25.234Z</time>
      </trkpt>
      <trkpt lat="50.68275" lon="3.63505">
        <ele>48.59</ele>
        <time>2023-05-12T12:22:33.750Z</time>
      </trkpt>
      <trkpt lat="50.6827" lon="3.63502">
        <ele>48.01</ele>
        <time>2023-05-12T12:22:42.267Z</time>
      </trkpt>
      <trkpt lat="50.68265" lon="3.63506">
        <ele>47.3</ele>
        <time>2023-05-12T12:22:50.785Z</time>
      </trkpt>
      <trkpt lat="50.68246" lon="3.63529">
        <ele>46.41</ele>
        <time>2023-05-12T12:22:59.307Z</time>
      </trkpt>
      <trkpt lat="50.68246" lon="3.63529">
        <ele>46.41</ele>
        <time>2023-05-12T12:23:07.829Z</time>
      </trkpt>
      <trkpt lat="50.68246" lon="3.63529">
        <ele>46.41</ele>
        <time>2023-05-12T12:23:16.351Z</time>
      </trkpt>
      <trkpt lat="50.68246" lon="3.6353">
        <ele>46.41</ele>
        <time>2023-05-12T12:23:24.873Z</time>
      </trkpt>
      <trkpt lat="50.68246" lon="3.6353">
        <ele>46.41</ele>
        <time>2023-05-12T12:23:33.395Z</time>
      </trkpt>
      <trkpt lat="50.68246" lon="3.6353">
        <ele>46.41</ele>
        <time>2023-05-12T12:23:41.917Z</time>
      </trkpt>
      <trkpt lat="50.68242" lon="3.63535">
        <ele>46.21</ele>
        <time>2023-05-12T12:23:50.440Z</time>
      </trkpt>
      <trkpt lat="50.68242" lon="3.63535">
        <ele>46.21</ele>
        <time>2023-05-12T12:23:58.963Z</time>
      </trkpt>
      <trkpt lat="50.68242" lon="3.63535">
        <ele>46.21</ele>
        <time>2023-05-12T12:24:07.486Z</time>
      </trkpt>
      <trkpt lat="50.68242" lon="3.63535">
        <ele>45.52</ele>
        <time>2023-05-12T12:24:16.009Z</time>
      </trkpt>
      <trkpt lat="50.68231" lon="3.63549">
        <ele>44.27</ele>
        <time>2023-05-12T12:24:24.534Z</time>
      </trkpt>
      <trkpt lat="50.68195" lon="3.63588">
        <ele>42.71</ele>
        <time>2023-05-12T12:24:33.066Z</time>
      </trkpt>
      <trkpt lat="50.68176" lon="3.63613">
        <ele>41.32</ele>
        <time>2023-05-12T12:24:41.602Z</time>
      </trkpt>
      <trkpt lat="50.68126" lon="3.63714">
        <ele>39.96</ele>
        <time>2023-05-12T12:24:50.151Z</time>
      </trkpt>
      <trkpt lat="50.68112" lon="3.63735">
        <ele>38.34</ele>
        <time>2023-05-12T12:24:58.703Z</time>
      </trkpt>
      <trkpt lat="50.68112" lon="3.63735">
        <ele>38.34</ele>
        <time>2023-05-12T12:25:07.255Z</time>
      </trkpt>
      <trkpt lat="50.68112" lon="3.63735">
        <ele>38.33</ele>
        <time>2023-05-12T12:25:15.807Z</time>
      </trkpt>
      <trkpt lat="50.68112" lon="3.63735">
        <ele>38.32</ele>
        <time>2023-05-12T12:25:24.359Z</time>
      </trkpt>
      <trkpt lat="50.68112" lon="3.63735">
        <ele>37.63</ele>
        <time>2023-05-12T12:25:32.911Z</time>
      </trkpt>
      <trkpt lat="50.68111" lon="3.63737">
        <ele>37.5</ele>
        <time>2023-05-12T12:25:41.463Z</time>
      </trkpt>
      <trkpt lat="50.68096" lon="3.63756">
        <ele>37.33</ele>
        <time>2023-05-12T12:25:50.018Z</time>
      </trkpt>
      <trkpt lat="50.68092" lon="3.63759">
        <ele>37.19</ele>
        <time>2023-05-12T12:25:58.574Z</time>
      </trkpt>
      <trkpt lat="50.6808" lon="3.6379">
        <ele>36.96</ele>
        <time>2023-05-12T12:26:07.134Z</time>
      </trkpt>
      <trkpt lat="50.6808" lon="3.63801">
        <ele>37</ele>
        <time>2023-05-12T12:26:15.695Z</time>
      </trkpt>
      <trkpt lat="50.68125" lon="3.63914">
        <ele>37.11</ele>
        <time>2023-05-12T12:26:24.269Z</time>
      </trkpt>
      <trkpt lat="50.6813" lon="3.63946">
        <ele>37.28</ele>
        <time>2023-05-12T12:26:32.847Z</time>
      </trkpt>
      <trkpt lat="50.68135" lon="3.64003">
        <ele>37.66</ele>
        <time>2023-05-12T12:26:41.431Z</time>
      </trkpt>
      <trkpt lat="50.68135" lon="3.64015">
        <ele>38.34</ele>
        <time>2023-05-12T12:26:50.016Z</time>
      </trkpt>
      <trkpt lat="50.68135" lon="3.64015">
        <ele>39.26</ele>
        <time>2023-05-12T12:26:58.601Z</time>
      </trkpt>
      <trkpt lat="50.68133" lon="3.64024">
        <ele>40.61</ele>
        <time>2023-05-12T12:27:07.187Z</time>
      </trkpt>
      <trkpt lat="50.68121" lon="3.64048">
        <ele>42.44</ele>
        <time>2023-05-12T12:27:15.776Z</time>
      </trkpt>
      <trkpt lat="50.68044" lon="3.64181">
        <ele>45.73</ele>
        <time>2023-05-12T12:27:24.383Z</time>
      </trkpt>
      <trkpt lat="50.68029" lon="3.64202">
        <ele>47.41</ele>
        <time>2023-05-12T12:27:32.994Z</time>
      </trkpt>
      <trkpt lat="50.68014" lon="3.64218">
        <ele>48.84</ele>
        <time>2023-05-12T12:27:41.607Z</time>
      </trkpt>
      <trkpt lat="50.68014" lon="3.64218">
        <ele>48.85</ele>
        <time>2023-05-12T12:27:50.220Z</time>
      </trkpt>
      <trkpt lat="50.68014" lon="3.64219">
        <ele>48.87</ele>
        <time>2023-05-12T12:27:58.833Z</time>
      </trkpt>
      <trkpt lat="50.68014" lon="3.64219">
        <ele>48.89</ele>
        <time>2023-05-12T12:28:07.446Z</time>
      </trkpt>
      <trkpt lat="50.6798" lon="3.64257">
        <ele>53.12</ele>
        <time>2023-05-12T12:28:16.066Z</time>
      </trkpt>
      <trkpt lat="50.67926" lon="3.64317">
        <ele>53.51</ele>
        <time>2023-05-12T12:28:24.697Z</time>
      </trkpt>
      <trkpt lat="50.67911" lon="3.64342">
        <ele>53.24</ele>
        <time>2023-05-12T12:28:33.331Z</time>
      </trkpt>
      <trkpt lat="50.67898" lon="3.64373">
        <ele>52.92</ele>
        <time>2023-05-12T12:28:41.969Z</time>
      </trkpt>
      <trkpt lat="50.67898" lon="3.64373">
        <ele>52.38</ele>
        <time>2023-05-12T12:28:50.607Z</time>
      </trkpt>
      <trkpt lat="50.67837" lon="3.64256">
        <ele>51.05</ele>
        <time>2023-05-12T12:28:59.260Z</time>
      </trkpt>
      <trkpt lat="50.67823" lon="3.64234">
        <ele>50.38</ele>
        <time>2023-05-12T12:29:07.917Z</time>
      </trkpt>
      <trkpt lat="50.67823" lon="3.64234">
        <ele>50.38</ele>
        <time>2023-05-12T12:29:16.574Z</time>
      </trkpt>
      <trkpt lat="50.67823" lon="3.64234">
        <ele>50.38</ele>
        <time>2023-05-12T12:29:25.231Z</time>
      </trkpt>
      <trkpt lat="50.67823" lon="3.64233">
        <ele>50.38</ele>
        <time>2023-05-12T12:29:33.888Z</time>
      </trkpt>
      <trkpt lat="50.67822" lon="3.64231">
        <ele>45.75</ele>
        <time>2023-05-12T12:29:42.545Z</time>
      </trkpt>
      <trkpt lat="50.67686" lon="3.64041">
        <ele>42.54</ele>
        <time>2023-05-12T12:29:51.231Z</time>
      </trkpt>
      <trkpt lat="50.67673" lon="3.64021">
        <ele>41.23</ele>
        <time>2023-05-12T12:29:59.920Z</time>
      </trkpt>
      <trkpt lat="50.67662" lon="3.63993">
        <ele>40.33</ele>
        <time>2023-05-12T12:30:08.612Z</time>
      </trkpt>
      <trkpt lat="50.67644" lon="3.64003">
        <ele>39.78</ele>
        <time>2023-05-12T12:30:17.307Z</time>
      </trkpt>
      <trkpt lat="50.67642" lon="3.64005">
        <ele>39.39</ele>
        <time>2023-05-12T12:30:26.003Z</time>
      </trkpt>
      <trkpt lat="50.67642" lon="3.64005">
        <ele>39.38</ele>
        <time>2023-05-12T12:30:34.699Z</time>
      </trkpt>
      <trkpt lat="50.67642" lon="3.64005">
        <ele>39.36</ele>
        <time>2023-05-12T12:30:43.395Z</time>
      </trkpt>
      <trkpt lat="50.67641" lon="3.64006">
        <ele>39.34</ele>
        <time>2023-05-12T12:30:52.091Z</time>
      </trkpt>
      <trkpt lat="50.67641" lon="3.64006">
        <ele>39.95</ele>
        <time>2023-05-12T12:31:00.787Z</time>
      </trkpt>
      <trkpt lat="50.67635" lon="3.64012">
        <ele>37.97</ele>
        <time>2023-05-12T12:31:09.484Z</time>
      </trkpt>
      <trkpt lat="50.67616" lon="3.64042">
        <ele>37.15</ele>
        <time>2023-05-12T12:31:18.185Z</time>
      </trkpt>
      <trkpt lat="50.67603" lon="3.64058">
        <ele>36.37</ele>
        <time>2023-05-12T12:31:26.889Z</time>
      </trkpt>
      <trkpt lat="50.67584" lon="3.64077">
        <ele>35.75</ele>
        <time>2023-05-12T12:31:35.596Z</time>
      </trkpt>
      <trkpt lat="50.67546" lon="3.64102">
        <ele>35.82</ele>
        <time>2023-05-12T12:31:44.310Z</time>
      </trkpt>
      <trkpt lat="50.67516" lon="3.64077">
        <ele>35.76</ele>
        <time>2023-05-12T12:31:53.030Z</time>
      </trkpt>
      <trkpt lat="50.675" lon="3.64068">
        <ele>35.68</ele>
        <time>2023-05-12T12:32:01.752Z</time>
      </trkpt>
      <trkpt lat="50.67488" lon="3.64066">
        <ele>35.65</ele>
        <time>2023-05-12T12:32:10.476Z</time>
      </trkpt>
      <trkpt lat="50.67478" lon="3.64067">
        <ele>35.65</ele>
        <time>2023-05-12T12:32:19.202Z</time>
      </trkpt>
      <trkpt lat="50.67469" lon="3.64072">
        <ele>35.82</ele>
        <time>2023-05-12T12:32:27.929Z</time>
      </trkpt>
      <trkpt lat="50.67469" lon="3.64072">
        <ele>35.83</ele>
        <time>2023-05-12T12:32:36.656Z</time>
      </trkpt>
      <trkpt lat="50.67469" lon="3.64072">
        <ele>35.84</ele>
        <time>2023-05-12T12:32:45.383Z</time>
      </trkpt>
      <trkpt lat="50.67469" lon="3.64073">
        <ele>35.85</ele>
        <time>2023-05-12T12:32:54.110Z</time>
      </trkpt>
      <trkpt lat="50.67469" lon="3.64073">
        <ele>35.86</ele>
        <time>2023-05-12T12:33:02.837Z</time>
      </trkpt>
      <trkpt lat="50.67469" lon="3.64073">
        <ele>35.87</ele>
        <time>2023-05-12T12:33:11.564Z</time>
      </trkpt>
      <trkpt lat="50.67464" lon="3.64076">
        <ele>36</ele>
        <time>2023-05-12T12:33:20.292Z</time>
      </trkpt>
      <trkpt lat="50.67464" lon="3.64076">
        <ele>36.01</ele>
        <time>2023-05-12T12:33:29.020Z</time>
      </trkpt>
      <trkpt lat="50.67463" lon="3.64076">
        <ele>36.02</ele>
        <time>2023-05-12T12:33:37.748Z</time>
      </trkpt>
      <trkpt lat="50.67463" lon="3.64076">
        <ele>36.03</ele>
        <time>2023-05-12T12:33:46.476Z</time>
      </trkpt>
      <trkpt lat="50.67459" lon="3.64079">
        <ele>36.15</ele>
        <time>2023-05-12T12:33:55.205Z</time>
      </trkpt>
      <trkpt lat="50.67459" lon="3.64079">
        <ele>35.79</ele>
        <time>2023-05-12T12:34:03.934Z</time>
      </trkpt>
      <trkpt lat="50.67459" lon="3.64079">
        <ele>36.15</ele>
        <time>2023-05-12T12:34:12.663Z</time>
      </trkpt>
      <trkpt lat="50.67456" lon="3.6408">
        <ele>36.67</ele>
        <time>2023-05-12T12:34:21.393Z</time>
      </trkpt>
      <trkpt lat="50.67445" lon="3.64084">
        <ele>37.44</ele>
        <time>2023-05-12T12:34:30.124Z</time>
      </trkpt>
      <trkpt lat="50.67422" lon="3.64087">
        <ele>38.57</ele>
        <time>2023-05-12T12:34:38.859Z</time>
      </trkpt>
      <trkpt lat="50.67332" lon="3.64199">
        <ele>40.51</ele>
        <time>2023-05-12T12:34:47.612Z</time>
      </trkpt>
      <trkpt lat="50.67309" lon="3.6424">
        <ele>42</ele>
        <time>2023-05-12T12:34:56.371Z</time>
      </trkpt>
      <trkpt lat="50.6728" lon="3.6428">
        <ele>42.61</ele>
        <time>2023-05-12T12:35:05.136Z</time>
      </trkpt>
      <trkpt lat="50.67237" lon="3.64328">
        <ele>43.2</ele>
        <time>2023-05-12T12:35:13.910Z</time>
      </trkpt>
      <trkpt lat="50.67223" lon="3.64341">
        <ele>44.34</ele>
        <time>2023-05-12T12:35:22.686Z</time>
      </trkpt>
      <trkpt lat="50.67223" lon="3.64341">
        <ele>44.35</ele>
        <time>2023-05-12T12:35:31.462Z</time>
      </trkpt>
      <trkpt lat="50.67223" lon="3.64341">
        <ele>44.37</ele>
        <time>2023-05-12T12:35:40.238Z</time>
      </trkpt>
      <trkpt lat="50.67223" lon="3.64341">
        <ele>44.39</ele>
        <time>2023-05-12T12:35:49.014Z</time>
      </trkpt>
      <trkpt lat="50.67223" lon="3.64341">
        <ele>44.4</ele>
        <time>2023-05-12T12:35:57.790Z</time>
      </trkpt>
      <trkpt lat="50.67223" lon="3.64341">
        <ele>44.41</ele>
        <time>2023-05-12T12:36:06.566Z</time>
      </trkpt>
      <trkpt lat="50.67218" lon="3.64346">
        <ele>44.82</ele>
        <time>2023-05-12T12:36:15.343Z</time>
      </trkpt>
      <trkpt lat="50.67218" lon="3.64346">
        <ele>44.83</ele>
        <time>2023-05-12T12:36:24.120Z</time>
      </trkpt>
      <trkpt lat="50.67218" lon="3.64346">
        <ele>44.85</ele>
        <time>2023-05-12T12:36:32.897Z</time>
      </trkpt>
      <trkpt lat="50.67218" lon="3.64346">
        <ele>44.87</ele>
        <time>2023-05-12T12:36:41.674Z</time>
      </trkpt>
      <trkpt lat="50.67214" lon="3.6435">
        <ele>45.23</ele>
        <time>2023-05-12T12:36:50.452Z</time>
      </trkpt>
      <trkpt lat="50.67172" lon="3.6439">
        <ele>47.22</ele>
        <time>2023-05-12T12:36:59.238Z</time>
      </trkpt>
      <trkpt lat="50.67151" lon="3.64416">
        <ele>48.19</ele>
        <time>2023-05-12T12:37:08.028Z</time>
      </trkpt>
      <trkpt lat="50.67145" lon="3.6443">
        <ele>48.66</ele>
        <time>2023-05-12T12:37:16.820Z</time>
      </trkpt>
      <trkpt lat="50.67141" lon="3.64459">
        <ele>48.87</ele>
        <time>2023-05-12T12:37:25.615Z</time>
      </trkpt>
      <trkpt lat="50.67138" lon="3.64479">
        <ele>49.11</ele>
        <time>2023-05-12T12:37:34.412Z</time>
      </trkpt>
      <trkpt lat="50.67126" lon="3.64495">
        <ele>49.42</ele>
        <time>2023-05-12T12:37:43.211Z</time>
      </trkpt>
      <trkpt lat="50.67061" lon="3.64544">
        <ele>50.39</ele>
        <time>2023-05-12T12:37:52.022Z</time>
      </trkpt>
      <trkpt lat="50.67008" lon="3.64584">
        <ele>50.62</ele>
        <time>2023-05-12T12:38:00.842Z</time>
      </trkpt>
      <trkpt lat="50.66958" lon="3.64628">
        <ele>51.02</ele>
        <time>2023-05-12T12:38:09.672Z</time>
      </trkpt>
      <trkpt lat="50.66933" lon="3.64643">
        <ele>51.68</ele>
        <time>2023-05-12T12:38:18.506Z</time>
      </trkpt>
      <trkpt lat="50.66916" lon="3.64656">
        <ele>52.22</ele>
        <time>2023-05-12T12:38:27.343Z</time>
      </trkpt>
      <trkpt lat="50.66887" lon="3.64695">
        <ele>52.75</ele>
        <time>2023-05-12T12:38:36.186Z</time>
      </trkpt>
      <trkpt lat="50.66884" lon="3.64699">
        <ele>53.12</ele>
        <time>2023-05-12T12:38:45.030Z</time>
      </trkpt>
      <trkpt lat="50.6686" lon="3.64725">
        <ele>53.47</ele>
        <time>2023-05-12T12:38:53.878Z</time>
      </trkpt>
      <trkpt lat="50.6686" lon="3.64725">
        <ele>53.77</ele>
        <time>2023-05-12T12:39:02.726Z</time>
      </trkpt>
      <trkpt lat="50.66845" lon="3.64734">
        <ele>54.18</ele>
        <time>2023-05-12T12:39:11.577Z</time>
      </trkpt>
      <trkpt lat="50.66802" lon="3.64753">
        <ele>54.37</ele>
        <time>2023-05-12T12:39:20.435Z</time>
      </trkpt>
      <trkpt lat="50.66762" lon="3.64773">
        <ele>54.75</ele>
        <time>2023-05-12T12:39:29.300Z</time>
      </trkpt>
      <trkpt lat="50.66755" lon="3.64778">
        <ele>55.25</ele>
        <time>2023-05-12T12:39:38.166Z</time>
      </trkpt>
      <trkpt lat="50.66711" lon="3.64838">
        <ele>55.96</ele>
        <time>2023-05-12T12:39:47.041Z</time>
      </trkpt>
      <trkpt lat="50.667" lon="3.64851">
        <ele>56.66</ele>
        <time>2023-05-12T12:39:55.919Z</time>
      </trkpt>
      <trkpt lat="50.66619" lon="3.64917">
        <ele>57.54</ele>
        <time>2023-05-12T12:40:04.811Z</time>
      </trkpt>
      <trkpt lat="50.66538" lon="3.64971">
        <ele>58.39</ele>
        <time>2023-05-12T12:40:13.717Z</time>
      </trkpt>
      <trkpt lat="50.66483" lon="3.65013">
        <ele>59.3</ele>
        <time>2023-05-12T12:40:22.633Z</time>
      </trkpt>
      <trkpt lat="50.6647" lon="3.65026">
        <ele>60.02</ele>
        <time>2023-05-12T12:40:31.552Z</time>
      </trkpt>
      <trkpt lat="50.66402" lon="3.65116">
        <ele>60.93</ele>
        <time>2023-05-12T12:40:40.485Z</time>
      </trkpt>
      <trkpt lat="50.66367" lon="3.65149">
        <ele>61.4</ele>
        <time>2023-05-12T12:40:49.424Z</time>
      </trkpt>
      <trkpt lat="50.66338" lon="3.65162">
        <ele>61.34</ele>
        <time>2023-05-12T12:40:58.368Z</time>
      </trkpt>
      <trkpt lat="50.66303" lon="3.65171">
        <ele>61.04</ele>
        <time>2023-05-12T12:41:07.318Z</time>
      </trkpt>
      <trkpt lat="50.66297" lon="3.65172">
        <ele>60.45</ele>
        <time>2023-05-12T12:41:16.269Z</time>
      </trkpt>
      <trkpt lat="50.66235" lon="3.65165">
        <ele>59.3</ele>
        <time>2023-05-12T12:41:25.230Z</time>
      </trkpt>
      <trkpt lat="50.66195" lon="3.65156">
        <ele>57.87</ele>
        <time>2023-05-12T12:41:34.197Z</time>
      </trkpt>
      <trkpt lat="50.66152" lon="3.65142">
        <ele>56.85</ele>
        <time>2023-05-12T12:41:43.171Z</time>
      </trkpt>
      <trkpt lat="50.66007" lon="3.65536">
        <ele>57.11</ele>
        <time>2023-05-12T12:41:52.192Z</time>
      </trkpt>
      <trkpt lat="50.66007" lon="3.65535">
        <ele>57.12</ele>
        <time>2023-05-12T12:42:01.213Z</time>
      </trkpt>
      <trkpt lat="50.66008" lon="3.65535">
        <ele>57.13</ele>
        <time>2023-05-12T12:42:10.234Z</time>
      </trkpt>
      <trkpt lat="50.66008" lon="3.65534">
        <ele>57.14</ele>
        <time>2023-05-12T12:42:19.255Z</time>
      </trkpt>
      <trkpt lat="50.66008" lon="3.65534">
        <ele>57.15</ele>
        <time>2023-05-12T12:42:28.276Z</time>
      </trkpt>
      <trkpt lat="50.66008" lon="3.65534">
        <ele>57.16</ele>
        <time>2023-05-12T12:42:37.297Z</time>
      </trkpt>
      <trkpt lat="50.66005" lon="3.65542">
        <ele>57.17</ele>
        <time>2023-05-12T12:42:46.319Z</time>
      </trkpt>
      <trkpt lat="50.66005" lon="3.65541">
        <ele>57.18</ele>
        <time>2023-05-12T12:42:55.341Z</time>
      </trkpt>
      <trkpt lat="50.66006" lon="3.6554">
        <ele>57.19</ele>
        <time>2023-05-12T12:43:04.363Z</time>
      </trkpt>
      <trkpt lat="50.66006" lon="3.6554">
        <ele>57.2</ele>
        <time>2023-05-12T12:43:13.385Z</time>
      </trkpt>
      <trkpt lat="50.66004" lon="3.65545">
        <ele>57.21</ele>
        <time>2023-05-12T12:43:22.408Z</time>
      </trkpt>
      <trkpt lat="50.66004" lon="3.65545">
        <ele>55.97</ele>
        <time>2023-05-12T12:43:31.431Z</time>
      </trkpt>
      <trkpt lat="50.65999" lon="3.65559">
        <ele>55.94</ele>
        <time>2023-05-12T12:43:40.455Z</time>
      </trkpt>
      <trkpt lat="50.6598" lon="3.65601">
        <ele>55.91</ele>
        <time>2023-05-12T12:43:49.484Z</time>
      </trkpt>
      <trkpt lat="50.65966" lon="3.65625">
        <ele>55.98</ele>
        <time>2023-05-12T12:43:58.517Z</time>
      </trkpt>
      <trkpt lat="50.65953" lon="3.65647">
        <ele>56.09</ele>
        <time>2023-05-12T12:44:07.553Z</time>
      </trkpt>
      <trkpt lat="50.65949" lon="3.65652">
        <ele>56.07</ele>
        <time>2023-05-12T12:44:16.590Z</time>
      </trkpt>
      <trkpt lat="50.65941" lon="3.65663">
        <ele>56</ele>
        <time>2023-05-12T12:44:25.628Z</time>
      </trkpt>
      <trkpt lat="50.65917" lon="3.65633">
        <ele>55.67</ele>
        <time>2023-05-12T12:44:34.671Z</time>
      </trkpt>
      <trkpt lat="50.65817" lon="3.65506">
        <ele>54.59</ele>
        <time>2023-05-12T12:44:43.735Z</time>
      </trkpt>
      <trkpt lat="50.65817" lon="3.65506">
        <ele>54</ele>
        <time>2023-05-12T12:44:52.799Z</time>
      </trkpt>
      <trkpt lat="50.65807" lon="3.65499">
        <ele>53.4</ele>
        <time>2023-05-12T12:45:01.865Z</time>
      </trkpt>
      <trkpt lat="50.65752" lon="3.6549">
        <ele>52.7</ele>
        <time>2023-05-12T12:45:10.940Z</time>
      </trkpt>
      <trkpt lat="50.65729" lon="3.65482">
        <ele>51.87</ele>
        <time>2023-05-12T12:45:20.018Z</time>
      </trkpt>
      <trkpt lat="50.65705" lon="3.6547">
        <ele>50.95</ele>
        <time>2023-05-12T12:45:29.100Z</time>
      </trkpt>
      <trkpt lat="50.65645" lon="3.65418">
        <ele>50.06</ele>
        <time>2023-05-12T12:45:38.193Z</time>
      </trkpt>
      <trkpt lat="50.65592" lon="3.65363">
        <ele>49.11</ele>
        <time>2023-05-12T12:45:47.296Z</time>
      </trkpt>
      <trkpt lat="50.65579" lon="3.65344">
        <ele>48.58</ele>
        <time>2023-05-12T12:45:56.402Z</time>
      </trkpt>
      <trkpt lat="50.65568" lon="3.65322">
        <ele>48.33</ele>
        <time>2023-05-12T12:46:05.511Z</time>
      </trkpt>
      <trkpt lat="50.65568" lon="3.65322">
        <ele>48.33</ele>
        <time>2023-05-12T12:46:14.620Z</time>
      </trkpt>
      <trkpt lat="50.65568" lon="3.65322">
        <ele>48.33</ele>
        <time>2023-05-12T12:46:23.729Z</time>
      </trkpt>
      <trkpt lat="50.65567" lon="3.65321">
        <ele>48.33</ele>
        <time>2023-05-12T12:46:32.838Z</time>
      </trkpt>
      <trkpt lat="50.65567" lon="3.65321">
        <ele>48.33</ele>
        <time>2023-05-12T12:46:41.947Z</time>
      </trkpt>
      <trkpt lat="50.65567" lon="3.65321">
        <ele>48.33</ele>
        <time>2023-05-12T12:46:51.056Z</time>
      </trkpt>
      <trkpt lat="50.65563" lon="3.65313">
        <ele>48.25</ele>
        <time>2023-05-12T12:47:00.166Z</time>
      </trkpt>
      <trkpt lat="50.65563" lon="3.65313">
        <ele>48.25</ele>
        <time>2023-05-12T12:47:09.276Z</time>
      </trkpt>
      <trkpt lat="50.65563" lon="3.65313">
        <ele>48.25</ele>
        <time>2023-05-12T12:47:18.386Z</time>
      </trkpt>
      <trkpt lat="50.65563" lon="3.65313">
        <ele>48.25</ele>
        <time>2023-05-12T12:47:27.496Z</time>
      </trkpt>
      <trkpt lat="50.6556" lon="3.65307">
        <ele>48.2</ele>
        <time>2023-05-12T12:47:36.607Z</time>
      </trkpt>
      <trkpt lat="50.65535" lon="3.65244">
        <ele>48.57</ele>
        <time>2023-05-12T12:47:45.726Z</time>
      </trkpt>
      <trkpt lat="50.6553" lon="3.65235">
        <ele>49.14</ele>
        <time>2023-05-12T12:47:54.846Z</time>
      </trkpt>
      <trkpt lat="50.65521" lon="3.65228">
        <ele>49.94</ele>
        <time>2023-05-12T12:48:03.968Z</time>
      </trkpt>
      <trkpt lat="50.65495" lon="3.65213">
        <ele>51.04</ele>
        <time>2023-05-12T12:48:13.094Z</time>
      </trkpt>
      <trkpt lat="50.65464" lon="3.65197">
        <ele>51.82</ele>
        <time>2023-05-12T12:48:22.225Z</time>
      </trkpt>
      <trkpt lat="50.65406" lon="3.65143">
        <ele>52.19</ele>
        <time>2023-05-12T12:48:31.367Z</time>
      </trkpt>
      <trkpt lat="50.65332" lon="3.65072">
        <ele>53.34</ele>
        <time>2023-05-12T12:48:40.523Z</time>
      </trkpt>
      <trkpt lat="50.65254" lon="3.64993">
        <ele>54.23</ele>
        <time>2023-05-12T12:48:49.694Z</time>
      </trkpt>
      <trkpt lat="50.65121" lon="3.64858">
        <ele>53.5</ele>
        <time>2023-05-12T12:48:58.890Z</time>
      </trkpt>
      <trkpt lat="50.65102" lon="3.64832">
        <ele>53.29</ele>
        <time>2023-05-12T12:49:08.090Z</time>
      </trkpt>
      <trkpt lat="50.65079" lon="3.64783">
        <ele>53.25</ele>
        <time>2023-05-12T12:49:17.296Z</time>
      </trkpt>
      <trkpt lat="50.65048" lon="3.64728">
        <ele>53.85</ele>
        <time>2023-05-12T12:49:26.510Z</time>
      </trkpt>
      <trkpt lat="50.65031" lon="3.64692">
        <ele>54.6</ele>
        <time>2023-05-12T12:49:35.728Z</time>
      </trkpt>
      <trkpt lat="50.65019" lon="3.64662">
        <ele>55.3</ele>
        <time>2023-05-12T12:49:44.950Z</time>
      </trkpt>
      <trkpt lat="50.65019" lon="3.64662">
        <ele>55.31</ele>
        <time>2023-05-12T12:49:54.172Z</time>
      </trkpt>
      <trkpt lat="50.65018" lon="3.64662">
        <ele>55.32</ele>
        <time>2023-05-12T12:50:03.394Z</time>
      </trkpt>
      <trkpt lat="50.65018" lon="3.64662">
        <ele>55.33</ele>
        <time>2023-05-12T12:50:12.616Z</time>
      </trkpt>
      <trkpt lat="50.65018" lon="3.64662">
        <ele>55.34</ele>
        <time>2023-05-12T12:50:21.838Z</time>
      </trkpt>
      <trkpt lat="50.65018" lon="3.64662">
        <ele>55.35</ele>
        <time>2023-05-12T12:50:31.060Z</time>
      </trkpt>
      <trkpt lat="50.65015" lon="3.64653">
        <ele>55.57</ele>
        <time>2023-05-12T12:50:40.283Z</time>
      </trkpt>
      <trkpt lat="50.65015" lon="3.64653">
        <ele>55.58</ele>
        <time>2023-05-12T12:50:49.506Z</time>
      </trkpt>
      <trkpt lat="50.65015" lon="3.64653">
        <ele>55.59</ele>
        <time>2023-05-12T12:50:58.729Z</time>
      </trkpt>
      <trkpt lat="50.65015" lon="3.64653">
        <ele>55.6</ele>
        <time>2023-05-12T12:51:07.952Z</time>
      </trkpt>
      <trkpt lat="50.65012" lon="3.64646">
        <ele>55.76</ele>
        <time>2023-05-12T12:51:17.176Z</time>
      </trkpt>
      <trkpt lat="50.64991" lon="3.64596">
        <ele>55.67</ele>
        <time>2023-05-12T12:51:26.406Z</time>
      </trkpt>
      <trkpt lat="50.64991" lon="3.64596">
        <ele>55.7</ele>
        <time>2023-05-12T12:51:35.636Z</time>
      </trkpt>
      <trkpt lat="50.64983" lon="3.64597">
        <ele>55.82</ele>
        <time>2023-05-12T12:51:44.867Z</time>
      </trkpt>
      <trkpt lat="50.64967" lon="3.64593">
        <ele>56.05</ele>
        <time>2023-05-12T12:51:54.101Z</time>
      </trkpt>
      <trkpt lat="50.64956" lon="3.64585">
        <ele>56.31</ele>
        <time>2023-05-12T12:52:03.337Z</time>
      </trkpt>
      <trkpt lat="50.64948" lon="3.64576">
        <ele>56.57</ele>
        <time>2023-05-12T12:52:12.574Z</time>
      </trkpt>
      <trkpt lat="50.6494" lon="3.64564">
        <ele>56.87</ele>
        <time>2023-05-12T12:52:21.813Z</time>
      </trkpt>
      <trkpt lat="50.6483" lon="3.64351">
        <ele>56.79</ele>
        <time>2023-05-12T12:52:31.080Z</time>
      </trkpt>
      <trkpt lat="50.64825" lon="3.64335">
        <ele>57.19</ele>
        <time>2023-05-12T12:52:40.349Z</time>
      </trkpt>
      <trkpt lat="50.64822" lon="3.6432">
        <ele>57.71</ele>
        <time>2023-05-12T12:52:49.620Z</time>
      </trkpt>
      <trkpt lat="50.64813" lon="3.64156">
        <ele>58.57</ele>
        <time>2023-05-12T12:52:58.907Z</time>
      </trkpt>
      <trkpt lat="50.64767" lon="3.64015">
        <ele>59.49</ele>
        <time>2023-05-12T12:53:08.211Z</time>
      </trkpt>
      <trkpt lat="50.64752" lon="3.63977">
        <ele>60.14</ele>
        <time>2023-05-12T12:53:17.519Z</time>
      </trkpt>
      <trkpt lat="50.64734" lon="3.63945">
        <ele>60.75</ele>
        <time>2023-05-12T12:53:26.832Z</time>
      </trkpt>
      <trkpt lat="50.64677" lon="3.63874">
        <ele>61.18</ele>
        <time>2023-05-12T12:53:36.156Z</time>
      </trkpt>
      <trkpt lat="50.64653" lon="3.63827">
        <ele>61.76</ele>
        <time>2023-05-12T12:53:45.486Z</time>
      </trkpt>
      <trkpt lat="50.64683" lon="3.63792">
        <ele>61.63</ele>
        <time>2023-05-12T12:53:54.822Z</time>
      </trkpt>
      <trkpt lat="50.64692" lon="3.63784">
        <ele>61.29</ele>
        <time>2023-05-12T12:54:04.160Z</time>
      </trkpt>
      <trkpt lat="50.64718" lon="3.6376">
        <ele>60.65</ele>
        <time>2023-05-12T12:54:13.503Z</time>
      </trkpt>
      <trkpt lat="50.64809" lon="3.63676">
        <ele>60</ele>
        <time>2023-05-12T12:54:22.863Z</time>
      </trkpt>
      <trkpt lat="50.64809" lon="3.63676">
        <ele>59</ele>
        <time>2023-05-12T12:54:32.223Z</time>
      </trkpt>
      <trkpt lat="50.64813" lon="3.63672">
        <ele>57.72</ele>
        <time>2023-05-12T12:54:41.583Z</time>
      </trkpt>
      <trkpt lat="50.64797" lon="3.63621">
        <ele>56.17</ele>
        <time>2023-05-12T12:54:50.949Z</time>
      </trkpt>
      <trkpt lat="50.64781" lon="3.63548">
        <ele>54.13</ele>
        <time>2023-05-12T12:55:00.323Z</time>
      </trkpt>
      <trkpt lat="50.6475" lon="3.63349">
        <ele>51.02</ele>
        <time>2023-05-12T12:55:09.718Z</time>
      </trkpt>
      <trkpt lat="50.64751" lon="3.63337">
        <ele>49.46</ele>
        <time>2023-05-12T12:55:19.114Z</time>
      </trkpt>
      <trkpt lat="50.64753" lon="3.63326">
        <ele>48.05</ele>
        <time>2023-05-12T12:55:28.511Z</time>
      </trkpt>
      <trkpt lat="50.64788" lon="3.63263">
        <ele>46.9</ele>
        <time>2023-05-12T12:55:37.917Z</time>
      </trkpt>
      <trkpt lat="50.64796" lon="3.63248">
        <ele>45.88</ele>
        <time>2023-05-12T12:55:47.325Z</time>
      </trkpt>
      <trkpt lat="50.64797" lon="3.63239">
        <ele>45.06</ele>
        <time>2023-05-12T12:55:56.734Z</time>
      </trkpt>
      <trkpt lat="50.64809" lon="3.63065">
        <ele>44.51</ele>
        <time>2023-05-12T12:56:06.161Z</time>
      </trkpt>
      <trkpt lat="50.64807" lon="3.63047">
        <ele>44.23</ele>
        <time>2023-05-12T12:56:15.589Z</time>
      </trkpt>
      <trkpt lat="50.64798" lon="3.6302">
        <ele>44.25</ele>
        <time>2023-05-12T12:56:25.021Z</time>
      </trkpt>
      <trkpt lat="50.64798" lon="3.6302">
        <ele>44.72</ele>
        <time>2023-05-12T12:56:34.453Z</time>
      </trkpt>
      <trkpt lat="50.64788" lon="3.62967">
        <ele>45.71</ele>
        <time>2023-05-12T12:56:43.890Z</time>
      </trkpt>
      <trkpt lat="50.64729" lon="3.62637">
        <ele>48.02</ele>
        <time>2023-05-12T12:56:53.362Z</time>
      </trkpt>
      <trkpt lat="50.64729" lon="3.62638">
        <ele>48.03</ele>
        <time>2023-05-12T12:57:02.834Z</time>
      </trkpt>
      <trkpt lat="50.64729" lon="3.62638">
        <ele>48.04</ele>
        <time>2023-05-12T12:57:12.306Z</time>
      </trkpt>
      <trkpt lat="50.64729" lon="3.62638">
        <ele>54.41</ele>
        <time>2023-05-12T12:57:21.778Z</time>
      </trkpt>
      <trkpt lat="50.64728" lon="3.62633">
        <ele>54.83</ele>
        <time>2023-05-12T12:57:31.251Z</time>
      </trkpt>
      <trkpt lat="50.64691" lon="3.62486">
        <ele>56.07</ele>
        <time>2023-05-12T12:57:40.740Z</time>
      </trkpt>
      <trkpt lat="50.64603" lon="3.62541">
        <ele>56.1</ele>
        <time>2023-05-12T12:57:50.244Z</time>
      </trkpt>
      <trkpt lat="50.64497" lon="3.62617">
        <ele>56.14</ele>
        <time>2023-05-12T12:57:59.767Z</time>
      </trkpt>
      <trkpt lat="50.64447" lon="3.62655">
        <ele>55.7</ele>
        <time>2023-05-12T12:58:09.299Z</time>
      </trkpt>
      <trkpt lat="50.64447" lon="3.62655">
        <ele>54.86</ele>
        <time>2023-05-12T12:58:18.831Z</time>
      </trkpt>
      <trkpt lat="50.64322" lon="3.62749">
        <ele>53.57</ele>
        <time>2023-05-12T12:58:28.385Z</time>
      </trkpt>
      <trkpt lat="50.64286" lon="3.62509">
        <ele>51.1</ele>
        <time>2023-05-12T12:58:37.964Z</time>
      </trkpt>
      <trkpt lat="50.64262" lon="3.62347">
        <ele>48.59</ele>
        <time>2023-05-12T12:58:47.560Z</time>
      </trkpt>
      <trkpt lat="50.64254" lon="3.62278">
        <ele>46.49</ele>
        <time>2023-05-12T12:58:57.163Z</time>
      </trkpt>
      <trkpt lat="50.6425" lon="3.62254">
        <ele>45.28</ele>
        <time>2023-05-12T12:59:06.769Z</time>
      </trkpt>
      <trkpt lat="50.64243" lon="3.6223">
        <ele>44.4</ele>
        <time>2023-05-12T12:59:16.377Z</time>
      </trkpt>
      <trkpt lat="50.64226" lon="3.62181">
        <ele>43.79</ele>
        <time>2023-05-12T12:59:25.991Z</time>
      </trkpt>
      <trkpt lat="50.64208" lon="3.62141">
        <ele>43.45</ele>
        <time>2023-05-12T12:59:35.610Z</time>
      </trkpt>
      <trkpt lat="50.64208" lon="3.62141">
        <ele>43.45</ele>
        <time>2023-05-12T12:59:45.229Z</time>
      </trkpt>
      <trkpt lat="50.64208" lon="3.6214">
        <ele>43.45</ele>
        <time>2023-05-12T12:59:54.848Z</time>
      </trkpt>
      <trkpt lat="50.6416" lon="3.62037">
        <ele>48.96</ele>
        <time>2023-05-12T13:00:04.480Z</time>
      </trkpt>
      <trkpt lat="50.64136" lon="3.61986">
        <ele>51.17</ele>
        <time>2023-05-12T13:00:14.119Z</time>
      </trkpt>
      <trkpt lat="50.64101" lon="3.61888">
        <ele>52.62</ele>
        <time>2023-05-12T13:00:23.769Z</time>
      </trkpt>
      <trkpt lat="50.6407" lon="3.61819">
        <ele>55.09</ele>
        <time>2023-05-12T13:00:33.428Z</time>
      </trkpt>
      <trkpt lat="50.63998" lon="3.61683">
        <ele>55.79</ele>
        <time>2023-05-12T13:00:43.105Z</time>
      </trkpt>
      <trkpt lat="50.64017" lon="3.61692">
        <ele>56.46</ele>
        <time>2023-05-12T13:00:52.785Z</time>
      </trkpt>
      <trkpt lat="50.64045" lon="3.61696">
        <ele>56.96</ele>
        <time>2023-05-12T13:01:02.469Z</time>
      </trkpt>
      <trkpt lat="50.64072" lon="3.61697">
        <ele>57.04</ele>
        <time>2023-05-12T13:01:12.158Z</time>
      </trkpt>
      <trkpt lat="50.64099" lon="3.61695">
        <ele>57.45</ele>
        <time>2023-05-12T13:01:21.851Z</time>
      </trkpt>
      <trkpt lat="50.64134" lon="3.61687">
        <ele>57.1</ele>
        <time>2023-05-12T13:01:31.550Z</time>
      </trkpt>
      <trkpt lat="50.64268" lon="3.61622">
        <ele>54.53</ele>
        <time>2023-05-12T13:01:41.271Z</time>
      </trkpt>
      <trkpt lat="50.64332" lon="3.61589">
        <ele>54.92</ele>
        <time>2023-05-12T13:01:51.003Z</time>
      </trkpt>
      <trkpt lat="50.64397" lon="3.6155">
        <ele>54.51</ele>
        <time>2023-05-12T13:02:00.746Z</time>
      </trkpt>
      <trkpt lat="50.64481" lon="3.61505">
        <ele>52.19</ele>
        <time>2023-05-12T13:02:10.503Z</time>
      </trkpt>
      <trkpt lat="50.64481" lon="3.61505">
        <ele>51.53</ele>
        <time>2023-05-12T13:02:20.260Z</time>
      </trkpt>
      <trkpt lat="50.6484" lon="3.61333">
        <ele>45.81</ele>
        <time>2023-05-12T13:02:30.077Z</time>
      </trkpt>
      <trkpt lat="50.64674" lon="3.61011">
        <ele>40.08</ele>
        <time>2023-05-12T13:02:39.937Z</time>
      </trkpt>
      <trkpt lat="50.64675" lon="3.61011">
        <ele>40.08</ele>
        <time>2023-05-12T13:02:49.797Z</time>
      </trkpt>
      <trkpt lat="50.64675" lon="3.61012">
        <ele>40.08</ele>
        <time>2023-05-12T13:02:59.657Z</time>
      </trkpt>
      <trkpt lat="50.64675" lon="3.61012">
        <ele>38.44</ele>
        <time>2023-05-12T13:03:09.517Z</time>
      </trkpt>
      <trkpt lat="50.64675" lon="3.61012">
        <ele>38.44</ele>
        <time>2023-05-12T13:03:19.377Z</time>
      </trkpt>
      <trkpt lat="50.64675" lon="3.61012">
        <ele>38.44</ele>
        <time>2023-05-12T13:03:29.237Z</time>
      </trkpt>
      <trkpt lat="50.64675" lon="3.61012">
        <ele>38.44</ele>
        <time>2023-05-12T13:03:39.097Z</time>
      </trkpt>
      <trkpt lat="50.64671" lon="3.61004">
        <ele>38.35</ele>
        <time>2023-05-12T13:03:48.958Z</time>
      </trkpt>
      <trkpt lat="50.64671" lon="3.61004">
        <ele>38.35</ele>
        <time>2023-05-12T13:03:58.819Z</time>
      </trkpt>
      <trkpt lat="50.64671" lon="3.61004">
        <ele>38.35</ele>
        <time>2023-05-12T13:04:08.680Z</time>
      </trkpt>
      <trkpt lat="50.64671" lon="3.61005">
        <ele>38.35</ele>
        <time>2023-05-12T13:04:18.541Z</time>
      </trkpt>
      <trkpt lat="50.64668" lon="3.60999">
        <ele>38.29</ele>
        <time>2023-05-12T13:04:28.403Z</time>
      </trkpt>
      <trkpt lat="50.64596" lon="3.60859">
        <ele>38.05</ele>
        <time>2023-05-12T13:04:38.283Z</time>
      </trkpt>
      <trkpt lat="50.64581" lon="3.60824">
        <ele>38.25</ele>
        <time>2023-05-12T13:04:48.167Z</time>
      </trkpt>
      <trkpt lat="50.64581" lon="3.60824">
        <ele>38.61</ele>
        <time>2023-05-12T13:04:58.051Z</time>
      </trkpt>
      <trkpt lat="50.64569" lon="3.60789">
        <ele>39.4</ele>
        <time>2023-05-12T13:05:07.939Z</time>
      </trkpt>
      <trkpt lat="50.64547" lon="3.60718">
        <ele>40.34</ele>
        <time>2023-05-12T13:05:17.835Z</time>
      </trkpt>
      <trkpt lat="50.64528" lon="3.60643">
        <ele>41.37</ele>
        <time>2023-05-12T13:05:27.740Z</time>
      </trkpt>
      <trkpt lat="50.64499" lon="3.60656">
        <ele>42.75</ele>
        <time>2023-05-12T13:05:37.649Z</time>
      </trkpt>
      <trkpt lat="50.64493" lon="3.60655">
        <ele>43.81</ele>
        <time>2023-05-12T13:05:47.559Z</time>
      </trkpt>
      <trkpt lat="50.64487" lon="3.60648">
        <ele>44.99</ele>
        <time>2023-05-12T13:05:57.471Z</time>
      </trkpt>
      <trkpt lat="50.64393" lon="3.60481">
        <ele>46.53</ele>
        <time>2023-05-12T13:06:07.405Z</time>
      </trkpt>
      <trkpt lat="50.64393" lon="3.60481">
        <ele>46.54</ele>
        <time>2023-05-12T13:06:17.339Z</time>
      </trkpt>
      <trkpt lat="50.64393" lon="3.60481">
        <ele>46.55</ele>
        <time>2023-05-12T13:06:27.273Z</time>
      </trkpt>
      <trkpt lat="50.64393" lon="3.60481">
        <ele>46.56</ele>
        <time>2023-05-12T13:06:37.207Z</time>
      </trkpt>
      <trkpt lat="50.64393" lon="3.6048">
        <ele>46.57</ele>
        <time>2023-05-12T13:06:47.141Z</time>
      </trkpt>
      <trkpt lat="50.64393" lon="3.6048">
        <ele>46.58</ele>
        <time>2023-05-12T13:06:57.075Z</time>
      </trkpt>
      <trkpt lat="50.64388" lon="3.60472">
        <ele>46.67</ele>
        <time>2023-05-12T13:07:07.011Z</time>
      </trkpt>
      <trkpt lat="50.64388" lon="3.60472">
        <ele>46.68</ele>
        <time>2023-05-12T13:07:16.947Z</time>
      </trkpt>
      <trkpt lat="50.64388" lon="3.60472">
        <ele>46.69</ele>
        <time>2023-05-12T13:07:26.883Z</time>
      </trkpt>
      <trkpt lat="50.64388" lon="3.60472">
        <ele>46.7</ele>
        <time>2023-05-12T13:07:36.819Z</time>
      </trkpt>
      <trkpt lat="50.64385" lon="3.60467">
        <ele>46.76</ele>
        <time>2023-05-12T13:07:46.755Z</time>
      </trkpt>
      <trkpt lat="50.64385" lon="3.60467">
        <ele>48.87</ele>
        <time>2023-05-12T13:07:56.691Z</time>
      </trkpt>
      <trkpt lat="50.64378" lon="3.60452">
        <ele>49.33</ele>
        <time>2023-05-12T13:08:06.629Z</time>
      </trkpt>
      <trkpt lat="50.64346" lon="3.60387">
        <ele>50.24</ele>
        <time>2023-05-12T13:08:16.576Z</time>
      </trkpt>
      <trkpt lat="50.64329" lon="3.60344">
        <ele>51.06</ele>
        <time>2023-05-12T13:08:26.528Z</time>
      </trkpt>
      <trkpt lat="50.64319" lon="3.60317">
        <ele>51.7</ele>
        <time>2023-05-12T13:08:36.483Z</time>
      </trkpt>
      <trkpt lat="50.6431" lon="3.60289">
        <ele>52.37</ele>
        <time>2023-05-12T13:08:46.441Z</time>
      </trkpt>
      <trkpt lat="50.64278" lon="3.60168">
        <ele>52.99</ele>
        <time>2023-05-12T13:08:56.412Z</time>
      </trkpt>
      <trkpt lat="50.64278" lon="3.60168">
        <ele>53.39</ele>
        <time>2023-05-12T13:09:06.383Z</time>
      </trkpt>
      <trkpt lat="50.64268" lon="3.6012">
        <ele>53.56</ele>
        <time>2023-05-12T13:09:16.360Z</time>
      </trkpt>
      <trkpt lat="50.64263" lon="3.6008">
        <ele>53.81</ele>
        <time>2023-05-12T13:09:26.341Z</time>
      </trkpt>
      <trkpt lat="50.64261" lon="3.60023">
        <ele>54.23</ele>
        <time>2023-05-12T13:09:36.328Z</time>
      </trkpt>
      <trkpt lat="50.64265" lon="3.59945">
        <ele>54.62</ele>
        <time>2023-05-12T13:09:46.323Z</time>
      </trkpt>
      <trkpt lat="50.64273" lon="3.59882">
        <ele>55.11</ele>
        <time>2023-05-12T13:09:56.324Z</time>
      </trkpt>
      <trkpt lat="50.64278" lon="3.5986">
        <ele>55.54</ele>
        <time>2023-05-12T13:10:06.327Z</time>
      </trkpt>
      <trkpt lat="50.64278" lon="3.5986">
        <ele>55.83</ele>
        <time>2023-05-12T13:10:16.330Z</time>
      </trkpt>
      <trkpt lat="50.64283" lon="3.59857">
        <ele>56.13</ele>
        <time>2023-05-12T13:10:26.334Z</time>
      </trkpt>
      <trkpt lat="50.64283" lon="3.59857">
        <ele>56.38</ele>
        <time>2023-05-12T13:10:36.338Z</time>
      </trkpt>
      <trkpt lat="50.643" lon="3.59849">
        <ele>56.79</ele>
        <time>2023-05-12T13:10:46.345Z</time>
      </trkpt>
      <trkpt lat="50.64299" lon="3.59829">
        <ele>57.04</ele>
        <time>2023-05-12T13:10:56.354Z</time>
      </trkpt>
      <trkpt lat="50.64297" lon="3.59808">
        <ele>57.38</ele>
        <time>2023-05-12T13:11:06.366Z</time>
      </trkpt>
      <trkpt lat="50.64293" lon="3.59639">
        <ele>57.84</ele>
        <time>2023-05-12T13:11:16.395Z</time>
      </trkpt>
      <trkpt lat="50.64291" lon="3.59618">
        <ele>58.69</ele>
        <time>2023-05-12T13:11:26.426Z</time>
      </trkpt>
      <trkpt lat="50.64285" lon="3.5959">
        <ele>59.83</ele>
        <time>2023-05-12T13:11:36.460Z</time>
      </trkpt>
      <trkpt lat="50.64285" lon="3.5959">
        <ele>61.2</ele>
        <time>2023-05-12T13:11:46.494Z</time>
      </trkpt>
      <trkpt lat="50.6416" lon="3.59142">
        <ele>63.73</ele>
        <time>2023-05-12T13:11:56.578Z</time>
      </trkpt>
      <trkpt lat="50.64149" lon="3.59109">
        <ele>65.09</ele>
        <time>2023-05-12T13:12:06.665Z</time>
      </trkpt>
      <trkpt lat="50.64134" lon="3.59072">
        <ele>66.47</ele>
        <time>2023-05-12T13:12:16.757Z</time>
      </trkpt>
      <trkpt lat="50.64107" lon="3.59017">
        <ele>67.65</ele>
        <time>2023-05-12T13:12:26.856Z</time>
      </trkpt>
      <trkpt lat="50.64077" lon="3.5893">
        <ele>68.17</ele>
        <time>2023-05-12T13:12:36.965Z</time>
      </trkpt>
      <trkpt lat="50.64037" lon="3.58866">
        <ele>69.83</ele>
        <time>2023-05-12T13:12:47.083Z</time>
      </trkpt>
      <trkpt lat="50.64037" lon="3.58866">
        <ele>69.84</ele>
        <time>2023-05-12T13:12:57.201Z</time>
      </trkpt>
      <trkpt lat="50.64037" lon="3.58866">
        <ele>69.85</ele>
        <time>2023-05-12T13:13:07.319Z</time>
      </trkpt>
      <trkpt lat="50.64037" lon="3.58866">
        <ele>69.86</ele>
        <time>2023-05-12T13:13:17.437Z</time>
      </trkpt>
      <trkpt lat="50.64037" lon="3.58866">
        <ele>69.87</ele>
        <time>2023-05-12T13:13:27.555Z</time>
      </trkpt>
      <trkpt lat="50.64037" lon="3.58866">
        <ele>69.88</ele>
        <time>2023-05-12T13:13:37.673Z</time>
      </trkpt>
      <trkpt lat="50.64032" lon="3.58857">
        <ele>70.11</ele>
        <time>2023-05-12T13:13:47.793Z</time>
      </trkpt>
      <trkpt lat="50.64032" lon="3.58857">
        <ele>70.12</ele>
        <time>2023-05-12T13:13:57.913Z</time>
      </trkpt>
      <trkpt lat="50.64031" lon="3.58857">
        <ele>70.13</ele>
        <time>2023-05-12T13:14:08.033Z</time>
      </trkpt>
      <trkpt lat="50.64031" lon="3.58857">
        <ele>70.14</ele>
        <time>2023-05-12T13:14:18.153Z</time>
      </trkpt>
      <trkpt lat="50.64028" lon="3.58852">
        <ele>70.29</ele>
        <time>2023-05-12T13:14:28.273Z</time>
      </trkpt>
      <trkpt lat="50.63998" lon="3.58803">
        <ele>70.96</ele>
        <time>2023-05-12T13:14:38.400Z</time>
      </trkpt>
      <trkpt lat="50.63898" lon="3.58659">
        <ele>71.89</ele>
        <time>2023-05-12T13:14:48.549Z</time>
      </trkpt>
      <trkpt lat="50.63885" lon="3.58625">
        <ele>72.67</ele>
        <time>2023-05-12T13:14:58.702Z</time>
      </trkpt>
      <trkpt lat="50.63829" lon="3.58411">
        <ele>74.92</ele>
        <time>2023-05-12T13:15:08.879Z</time>
      </trkpt>
      <trkpt lat="50.63732" lon="3.58179">
        <ele>75.52</ele>
        <time>2023-05-12T13:15:19.084Z</time>
      </trkpt>
      <trkpt lat="50.63742" lon="3.5817">
        <ele>75.95</ele>
        <time>2023-05-12T13:15:29.291Z</time>
      </trkpt>
      <trkpt lat="50.63733" lon="3.58151">
        <ele>76.12</ele>
        <time>2023-05-12T13:15:39.500Z</time>
      </trkpt>
      <trkpt lat="50.63716" lon="3.58125">
        <ele>76.12</ele>
        <time>2023-05-12T13:15:49.713Z</time>
      </trkpt>
      <trkpt lat="50.63622" lon="3.58026">
        <ele>75.63</ele>
        <time>2023-05-12T13:15:59.944Z</time>
      </trkpt>
      <trkpt lat="50.63595" lon="3.58008">
        <ele>75.43</ele>
        <time>2023-05-12T13:16:10.180Z</time>
      </trkpt>
      <trkpt lat="50.63546" lon="3.57989">
        <ele>75.26</ele>
        <time>2023-05-12T13:16:20.424Z</time>
      </trkpt>
      <trkpt lat="50.63534" lon="3.57983">
        <ele>75.3</ele>
        <time>2023-05-12T13:16:30.670Z</time>
      </trkpt>
      <trkpt lat="50.63527" lon="3.57975">
        <ele>75.45</ele>
        <time>2023-05-12T13:16:40.917Z</time>
      </trkpt>
      <trkpt lat="50.63519" lon="3.57965">
        <ele>75.7</ele>
        <time>2023-05-12T13:16:51.166Z</time>
      </trkpt>
      <trkpt lat="50.63502" lon="3.57933">
        <ele>76.11</ele>
        <time>2023-05-12T13:17:01.419Z</time>
      </trkpt>
      <trkpt lat="50.63484" lon="3.57879">
        <ele>76.78</ele>
        <time>2023-05-12T13:17:11.679Z</time>
      </trkpt>
      <trkpt lat="50.63469" lon="3.57803">
        <ele>77.44</ele>
        <time>2023-05-12T13:17:21.947Z</time>
      </trkpt>
      <trkpt lat="50.63419" lon="3.57822">
        <ele>77.45</ele>
        <time>2023-05-12T13:17:32.223Z</time>
      </trkpt>
      <trkpt lat="50.63401" lon="3.57821">
        <ele>77.42</ele>
        <time>2023-05-12T13:17:42.502Z</time>
      </trkpt>
      <trkpt lat="50.63392" lon="3.57816">
        <ele>77.29</ele>
        <time>2023-05-12T13:17:52.782Z</time>
      </trkpt>
      <trkpt lat="50.63333" lon="3.57781">
        <ele>76.74</ele>
        <time>2023-05-12T13:18:03.072Z</time>
      </trkpt>
      <trkpt lat="50.63315" lon="3.57756">
        <ele>76.31</ele>
        <time>2023-05-12T13:18:13.366Z</time>
      </trkpt>
      <trkpt lat="50.63301" lon="3.57718">
        <ele>75.94</ele>
        <time>2023-05-12T13:18:23.665Z</time>
      </trkpt>
      <trkpt lat="50.63292" lon="3.57665">
        <ele>75.06</ele>
        <time>2023-05-12T13:18:33.969Z</time>
      </trkpt>
      <trkpt lat="50.63246" lon="3.57528">
        <ele>73.34</ele>
        <time>2023-05-12T13:18:44.289Z</time>
      </trkpt>
      <trkpt lat="50.63232" lon="3.57504">
        <ele>72.33</ele>
        <time>2023-05-12T13:18:54.612Z</time>
      </trkpt>
      <trkpt lat="50.63166" lon="3.57437">
        <ele>71.51</ele>
        <time>2023-05-12T13:19:04.948Z</time>
      </trkpt>
      <trkpt lat="50.63156" lon="3.57422">
        <ele>71</ele>
        <time>2023-05-12T13:19:15.286Z</time>
      </trkpt>
      <trkpt lat="50.63155" lon="3.57422">
        <ele>71</ele>
        <time>2023-05-12T13:19:25.624Z</time>
      </trkpt>
      <trkpt lat="50.63155" lon="3.57421">
        <ele>71</ele>
        <time>2023-05-12T13:19:35.962Z</time>
      </trkpt>
      <trkpt lat="50.63155" lon="3.57421">
        <ele>70.99</ele>
        <time>2023-05-12T13:19:46.300Z</time>
      </trkpt>
      <trkpt lat="50.63155" lon="3.57421">
        <ele>70.99</ele>
        <time>2023-05-12T13:19:56.638Z</time>
      </trkpt>
      <trkpt lat="50.63155" lon="3.57421">
        <ele>70.99</ele>
        <time>2023-05-12T13:20:06.976Z</time>
      </trkpt>
      <trkpt lat="50.63149" lon="3.57413">
        <ele>70.73</ele>
        <time>2023-05-12T13:20:17.315Z</time>
      </trkpt>
      <trkpt lat="50.63149" lon="3.57413">
        <ele>70.73</ele>
        <time>2023-05-12T13:20:27.654Z</time>
      </trkpt>
      <trkpt lat="50.63149" lon="3.57413">
        <ele>70.73</ele>
        <time>2023-05-12T13:20:37.993Z</time>
      </trkpt>
      <trkpt lat="50.63149" lon="3.57413">
        <ele>70.7</ele>
        <time>2023-05-12T13:20:48.332Z</time>
      </trkpt>
      <trkpt lat="50.63149" lon="3.57412">
        <ele>70.6</ele>
        <time>2023-05-12T13:20:58.672Z</time>
      </trkpt>
      <trkpt lat="50.63146" lon="3.57406">
        <ele>69.05</ele>
        <time>2023-05-12T13:21:09.012Z</time>
      </trkpt>
      <trkpt lat="50.63101" lon="3.57293">
        <ele>69.1</ele>
        <time>2023-05-12T13:21:19.366Z</time>
      </trkpt>
      <trkpt lat="50.6309" lon="3.5728">
        <ele>68.85</ele>
        <time>2023-05-12T13:21:29.722Z</time>
      </trkpt>
      <trkpt lat="50.63077" lon="3.57277">
        <ele>68.33</ele>
        <time>2023-05-12T13:21:40.080Z</time>
      </trkpt>
      <trkpt lat="50.62967" lon="3.57366">
        <ele>67.08</ele>
        <time>2023-05-12T13:21:50.458Z</time>
      </trkpt>
      <trkpt lat="50.6295" lon="3.57368">
        <ele>66.21</ele>
        <time>2023-05-12T13:22:00.839Z</time>
      </trkpt>
      <trkpt lat="50.6294" lon="3.57352">
        <ele>65.37</ele>
        <time>2023-05-12T13:22:11.222Z</time>
      </trkpt>
      <trkpt lat="50.62932" lon="3.57322">
        <ele>64.56</ele>
        <time>2023-05-12T13:22:21.608Z</time>
      </trkpt>
      <trkpt lat="50.62925" lon="3.57084">
        <ele>63.86</ele>
        <time>2023-05-12T13:22:32.019Z</time>
      </trkpt>
      <trkpt lat="50.62909" lon="3.56992">
        <ele>63.14</ele>
        <time>2023-05-12T13:22:42.439Z</time>
      </trkpt>
      <trkpt lat="50.62883" lon="3.56904">
        <ele>62.55</ele>
        <time>2023-05-12T13:22:52.869Z</time>
      </trkpt>
      <trkpt lat="50.62872" lon="3.56882">
        <ele>62.53</ele>
        <time>2023-05-12T13:23:03.302Z</time>
      </trkpt>
      <trkpt lat="50.62865" lon="3.56846">
        <ele>62.97</ele>
        <time>2023-05-12T13:23:13.739Z</time>
      </trkpt>
      <trkpt lat="50.62859" lon="3.568">
        <ele>63.8</ele>
        <time>2023-05-12T13:23:24.181Z</time>
      </trkpt>
      <trkpt lat="50.62839" lon="3.56595">
        <ele>65.24</ele>
        <time>2023-05-12T13:23:34.644Z</time>
      </trkpt>
      <trkpt lat="50.62843" lon="3.56549">
        <ele>66.7</ele>
        <time>2023-05-12T13:23:45.112Z</time>
      </trkpt>
      <trkpt lat="50.62983" lon="3.5643">
        <ele>69.17</ele>
        <time>2023-05-12T13:23:55.605Z</time>
      </trkpt>
      <trkpt lat="50.62996" lon="3.56425">
        <ele>71</ele>
        <time>2023-05-12T13:24:06.100Z</time>
      </trkpt>
      <trkpt lat="50.63097" lon="3.56412">
        <ele>73.16</ele>
        <time>2023-05-12T13:24:16.611Z</time>
      </trkpt>
      <trkpt lat="50.63123" lon="3.56411">
        <ele>74.76</ele>
        <time>2023-05-12T13:24:27.127Z</time>
      </trkpt>
      <trkpt lat="50.63145" lon="3.56412">
        <ele>76.22</ele>
        <time>2023-05-12T13:24:37.646Z</time>
      </trkpt>
      <trkpt lat="50.63159" lon="3.56398">
        <ele>77.56</ele>
        <time>2023-05-12T13:24:48.168Z</time>
      </trkpt>
      <trkpt lat="50.63166" lon="3.56374">
        <ele>78.98</ele>
        <time>2023-05-12T13:24:58.692Z</time>
      </trkpt>
      <trkpt lat="50.63177" lon="3.56284">
        <ele>80.73</ele>
        <time>2023-05-12T13:25:09.226Z</time>
      </trkpt>
      <trkpt lat="50.63171" lon="3.56099">
        <ele>82.37</ele>
        <time>2023-05-12T13:25:19.779Z</time>
      </trkpt>
      <trkpt lat="50.63132" lon="3.55933">
        <ele>83.59</ele>
        <time>2023-05-12T13:25:30.350Z</time>
      </trkpt>
      <trkpt lat="50.63131" lon="3.55899">
        <ele>84.42</ele>
        <time>2023-05-12T13:25:40.924Z</time>
      </trkpt>
      <trkpt lat="50.63132" lon="3.55883">
        <ele>85.05</ele>
        <time>2023-05-12T13:25:51.500Z</time>
      </trkpt>
      <trkpt lat="50.63137" lon="3.55866">
        <ele>85.76</ele>
        <time>2023-05-12T13:26:02.078Z</time>
      </trkpt>
      <trkpt lat="50.63164" lon="3.55815">
        <ele>86.5</ele>
        <time>2023-05-12T13:26:12.662Z</time>
      </trkpt>
      <trkpt lat="50.63182" lon="3.55788">
        <ele>86.98</ele>
        <time>2023-05-12T13:26:23.250Z</time>
      </trkpt>
      <trkpt lat="50.63182" lon="3.55788">
        <ele>86.99</ele>
        <time>2023-05-12T13:26:33.838Z</time>
      </trkpt>
      <trkpt lat="50.63182" lon="3.55788">
        <ele>87</ele>
        <time>2023-05-12T13:26:44.426Z</time>
      </trkpt>
      <trkpt lat="50.63182" lon="3.55788">
        <ele>87.01</ele>
        <time>2023-05-12T13:26:55.014Z</time>
      </trkpt>
      <trkpt lat="50.63182" lon="3.55788">
        <ele>87.02</ele>
        <time>2023-05-12T13:27:05.602Z</time>
      </trkpt>
      <trkpt lat="50.63182" lon="3.55788">
        <ele>87.03</ele>
        <time>2023-05-12T13:27:16.190Z</time>
      </trkpt>
      <trkpt lat="50.63186" lon="3.55782">
        <ele>87.14</ele>
        <time>2023-05-12T13:27:26.779Z</time>
      </trkpt>
      <trkpt lat="50.63188" lon="3.5578">
        <ele>87.25</ele>
        <time>2023-05-12T13:27:37.369Z</time>
      </trkpt>
      <trkpt lat="50.63188" lon="3.55779">
        <ele>87.26</ele>
        <time>2023-05-12T13:27:47.959Z</time>
      </trkpt>
      <trkpt lat="50.63188" lon="3.55779">
        <ele>87.28</ele>
        <time>2023-05-12T13:27:58.549Z</time>
      </trkpt>
      <trkpt lat="50.63188" lon="3.55779">
        <ele>87.3</ele>
        <time>2023-05-12T13:28:09.139Z</time>
      </trkpt>
      <trkpt lat="50.63192" lon="3.55774">
        <ele>87.55</ele>
        <time>2023-05-12T13:28:19.729Z</time>
      </trkpt>
      <trkpt lat="50.63244" lon="3.55711">
        <ele>89.27</ele>
        <time>2023-05-12T13:28:30.330Z</time>
      </trkpt>
      <trkpt lat="50.63203" lon="3.55575">
        <ele>88.01</ele>
        <time>2023-05-12T13:28:40.946Z</time>
      </trkpt>
      <trkpt lat="50.63172" lon="3.555">
        <ele>86.96</ele>
        <time>2023-05-12T13:28:51.571Z</time>
      </trkpt>
      <trkpt lat="50.63164" lon="3.55477">
        <ele>86.13</ele>
        <time>2023-05-12T13:29:02.199Z</time>
      </trkpt>
      <trkpt lat="50.63155" lon="3.55442">
        <ele>86.07</ele>
        <time>2023-05-12T13:29:12.831Z</time>
      </trkpt>
      <trkpt lat="50.63151" lon="3.55428">
        <ele>85.54</ele>
        <time>2023-05-12T13:29:23.464Z</time>
      </trkpt>
      <trkpt lat="50.63133" lon="3.55348">
        <ele>84.92</ele>
        <time>2023-05-12T13:29:34.106Z</time>
      </trkpt>
      <trkpt lat="50.63121" lon="3.55306">
        <ele>84.14</ele>
        <time>2023-05-12T13:29:44.753Z</time>
      </trkpt>
      <trkpt lat="50.63094" lon="3.55252">
        <ele>83.27</ele>
        <time>2023-05-12T13:29:55.407Z</time>
      </trkpt>
      <trkpt lat="50.63082" lon="3.55233">
        <ele>82.69</ele>
        <time>2023-05-12T13:30:06.064Z</time>
      </trkpt>
      <trkpt lat="50.63055" lon="3.55197">
        <ele>82.4</ele>
        <time>2023-05-12T13:30:16.726Z</time>
      </trkpt>
      <trkpt lat="50.63038" lon="3.55163">
        <ele>82.21</ele>
        <time>2023-05-12T13:30:27.393Z</time>
      </trkpt>
      <trkpt lat="50.63027" lon="3.55129">
        <ele>81.94</ele>
        <time>2023-05-12T13:30:38.064Z</time>
      </trkpt>
      <trkpt lat="50.63019" lon="3.55094">
        <ele>81.61</ele>
        <time>2023-05-12T13:30:48.738Z</time>
      </trkpt>
      <trkpt lat="50.63011" lon="3.55016">
        <ele>81.31</ele>
        <time>2023-05-12T13:30:59.420Z</time>
      </trkpt>
      <trkpt lat="50.63005" lon="3.54989">
        <ele>81.09</ele>
        <time>2023-05-12T13:31:10.105Z</time>
      </trkpt>
      <trkpt lat="50.62997" lon="3.54964">
        <ele>80.12</ele>
        <time>2023-05-12T13:31:20.793Z</time>
      </trkpt>
      <trkpt lat="50.62997" lon="3.54962">
        <ele>80.83</ele>
        <time>2023-05-12T13:31:31.481Z</time>
      </trkpt>
      <trkpt lat="50.62932" lon="3.54804">
        <ele>77.58</ele>
        <time>2023-05-12T13:31:42.188Z</time>
      </trkpt>
      <trkpt lat="50.62929" lon="3.54796">
        <ele>80.59</ele>
        <time>2023-05-12T13:31:52.896Z</time>
      </trkpt>
      <trkpt lat="50.62925" lon="3.54802">
        <ele>80.82</ele>
        <time>2023-05-12T13:32:03.605Z</time>
      </trkpt>
      <trkpt lat="50.62857" lon="3.54899">
        <ele>81.27</ele>
        <time>2023-05-12T13:32:14.329Z</time>
      </trkpt>
      <trkpt lat="50.6282" lon="3.54988">
        <ele>81.54</ele>
        <time>2023-05-12T13:32:25.064Z</time>
      </trkpt>
      <trkpt lat="50.62784" lon="3.55049">
        <ele>82.07</ele>
        <time>2023-05-12T13:32:35.807Z</time>
      </trkpt>
      <trkpt lat="50.6273" lon="3.55099">
        <ele>82.41</ele>
        <time>2023-05-12T13:32:46.560Z</time>
      </trkpt>
      <trkpt lat="50.6272" lon="3.55093">
        <ele>82.08</ele>
        <time>2023-05-12T13:32:57.315Z</time>
      </trkpt>
      <trkpt lat="50.6269" lon="3.55076">
        <ele>81.13</ele>
        <time>2023-05-12T13:33:08.075Z</time>
      </trkpt>
      <trkpt lat="50.62675" lon="3.55074">
        <ele>79.81</ele>
        <time>2023-05-12T13:33:18.838Z</time>
      </trkpt>
      <trkpt lat="50.6266" lon="3.55079">
        <ele>78.02</ele>
        <time>2023-05-12T13:33:29.603Z</time>
      </trkpt>
      <trkpt lat="50.62558" lon="3.55132">
        <ele>75.19</ele>
        <time>2023-05-12T13:33:40.385Z</time>
      </trkpt>
      <trkpt lat="50.62437" lon="3.55142">
        <ele>71.59</ele>
        <time>2023-05-12T13:33:51.187Z</time>
      </trkpt>
      <trkpt lat="50.62313" lon="3.55108">
        <ele>61.24</ele>
        <time>2023-05-12T13:34:02.009Z</time>
      </trkpt>
      <trkpt lat="50.62313" lon="3.55108">
        <ele>61.23</ele>
        <time>2023-05-12T13:34:12.831Z</time>
      </trkpt>
      <trkpt lat="50.62312" lon="3.55108">
        <ele>61.21</ele>
        <time>2023-05-12T13:34:23.653Z</time>
      </trkpt>
      <trkpt lat="50.62312" lon="3.55108">
        <ele>61.19</ele>
        <time>2023-05-12T13:34:34.475Z</time>
      </trkpt>
      <trkpt lat="50.62312" lon="3.55108">
        <ele>61.19</ele>
        <time>2023-05-12T13:34:45.297Z</time>
      </trkpt>
      <trkpt lat="50.62312" lon="3.55108">
        <ele>61.19</ele>
        <time>2023-05-12T13:34:56.119Z</time>
      </trkpt>
      <trkpt lat="50.62305" lon="3.55106">
        <ele>60.57</ele>
        <time>2023-05-12T13:35:06.942Z</time>
      </trkpt>
      <trkpt lat="50.62304" lon="3.55106">
        <ele>60.56</ele>
        <time>2023-05-12T13:35:17.765Z</time>
      </trkpt>
      <trkpt lat="50.62304" lon="3.55106">
        <ele>60.54</ele>
        <time>2023-05-12T13:35:28.588Z</time>
      </trkpt>
      <trkpt lat="50.62304" lon="3.55106">
        <ele>60.52</ele>
        <time>2023-05-12T13:35:39.411Z</time>
      </trkpt>
      <trkpt lat="50.62299" lon="3.55105">
        <ele>60.13</ele>
        <time>2023-05-12T13:35:50.235Z</time>
      </trkpt>
      <trkpt lat="50.62212" lon="3.55082">
        <ele>58.64</ele>
        <time>2023-05-12T13:36:01.073Z</time>
      </trkpt>
      <trkpt lat="50.62168" lon="3.55073">
        <ele>57.93</ele>
        <time>2023-05-12T13:36:11.918Z</time>
      </trkpt>
      <trkpt lat="50.6215" lon="3.55067">
        <ele>57.39</ele>
        <time>2023-05-12T13:36:22.766Z</time>
      </trkpt>
      <trkpt lat="50.6215" lon="3.55067">
        <ele>57.19</ele>
        <time>2023-05-12T13:36:33.614Z</time>
      </trkpt>
      <trkpt lat="50.62132" lon="3.5505">
        <ele>56.94</ele>
        <time>2023-05-12T13:36:44.466Z</time>
      </trkpt>
      <trkpt lat="50.61988" lon="3.54886">
        <ele>57.49</ele>
        <time>2023-05-12T13:36:55.346Z</time>
      </trkpt>
      <trkpt lat="50.61971" lon="3.54877">
        <ele>57.88</ele>
        <time>2023-05-12T13:37:06.229Z</time>
      </trkpt>
      <trkpt lat="50.6196" lon="3.54878">
        <ele>58.26</ele>
        <time>2023-05-12T13:37:17.114Z</time>
      </trkpt>
      <trkpt lat="50.61868" lon="3.54967">
        <ele>58.74</ele>
        <time>2023-05-12T13:37:28.016Z</time>
      </trkpt>
      <trkpt lat="50.61749" lon="3.55046">
        <ele>58.9</ele>
        <time>2023-05-12T13:37:38.939Z</time>
      </trkpt>
      <trkpt lat="50.61737" lon="3.5505">
        <ele>59.49</ele>
        <time>2023-05-12T13:37:49.864Z</time>
      </trkpt>
      <trkpt lat="50.61732" lon="3.55048">
        <ele>60.22</ele>
        <time>2023-05-12T13:38:00.790Z</time>
      </trkpt>
      <trkpt lat="50.61723" lon="3.55028">
        <ele>61.1</ele>
        <time>2023-05-12T13:38:11.718Z</time>
      </trkpt>
      <trkpt lat="50.61664" lon="3.54837">
        <ele>62.94</ele>
        <time>2023-05-12T13:38:22.668Z</time>
      </trkpt>
      <trkpt lat="50.61659" lon="3.54823">
        <ele>64</ele>
        <time>2023-05-12T13:38:33.619Z</time>
      </trkpt>
      <trkpt lat="50.61655" lon="3.54815">
        <ele>64.96</ele>
        <time>2023-05-12T13:38:44.571Z</time>
      </trkpt>
      <trkpt lat="50.61643" lon="3.54803">
        <ele>65.82</ele>
        <time>2023-05-12T13:38:55.526Z</time>
      </trkpt>
      <trkpt lat="50.61635" lon="3.54797">
        <ele>66.49</ele>
        <time>2023-05-12T13:39:06.482Z</time>
      </trkpt>
      <trkpt lat="50.61619" lon="3.54796">
        <ele>67.02</ele>
        <time>2023-05-12T13:39:17.441Z</time>
      </trkpt>
      <trkpt lat="50.61615" lon="3.54793">
        <ele>67.46</ele>
        <time>2023-05-12T13:39:28.400Z</time>
      </trkpt>
      <trkpt lat="50.61615" lon="3.54793">
        <ele>67.81</ele>
        <time>2023-05-12T13:39:39.359Z</time>
      </trkpt>
      <trkpt lat="50.61606" lon="3.54799">
        <ele>68.05</ele>
        <time>2023-05-12T13:39:50.320Z</time>
      </trkpt>
      <trkpt lat="50.61599" lon="3.54798">
        <ele>68.36</ele>
        <time>2023-05-12T13:40:01.282Z</time>
      </trkpt>
      <trkpt lat="50.61579" lon="3.54794">
        <ele>68.71</ele>
        <time>2023-05-12T13:40:12.247Z</time>
      </trkpt>
      <trkpt lat="50.61558" lon="3.54784">
        <ele>69.1</ele>
        <time>2023-05-12T13:40:23.216Z</time>
      </trkpt>
      <trkpt lat="50.61434" lon="3.54691">
        <ele>69.63</ele>
        <time>2023-05-12T13:40:34.207Z</time>
      </trkpt>
      <trkpt lat="50.61446" lon="3.54392">
        <ele>69.75</ele>
        <time>2023-05-12T13:40:45.228Z</time>
      </trkpt>
      <trkpt lat="50.61448" lon="3.54377">
        <ele>69.7</ele>
        <time>2023-05-12T13:40:56.251Z</time>
      </trkpt>
      <trkpt lat="50.61319" lon="3.54267">
        <ele>69.42</ele>
        <time>2023-05-12T13:41:07.297Z</time>
      </trkpt>
      <trkpt lat="50.61305" lon="3.54248">
        <ele>69.23</ele>
        <time>2023-05-12T13:41:18.346Z</time>
      </trkpt>
      <trkpt lat="50.61196" lon="3.54069">
        <ele>67.45</ele>
        <time>2023-05-12T13:41:29.421Z</time>
      </trkpt>
      <trkpt lat="50.61196" lon="3.54069">
        <ele>67.45</ele>
        <time>2023-05-12T13:41:40.496Z</time>
      </trkpt>
      <trkpt lat="50.61196" lon="3.54069">
        <ele>67.45</ele>
        <time>2023-05-12T13:41:51.571Z</time>
      </trkpt>
      <trkpt lat="50.61196" lon="3.54069">
        <ele>67.45</ele>
        <time>2023-05-12T13:42:02.646Z</time>
      </trkpt>
      <trkpt lat="50.61196" lon="3.54069">
        <ele>67.45</ele>
        <time>2023-05-12T13:42:13.721Z</time>
      </trkpt>
      <trkpt lat="50.61196" lon="3.54068">
        <ele>67.45</ele>
        <time>2023-05-12T13:42:24.796Z</time>
      </trkpt>
      <trkpt lat="50.61191" lon="3.5406">
        <ele>67.37</ele>
        <time>2023-05-12T13:42:35.872Z</time>
      </trkpt>
      <trkpt lat="50.61191" lon="3.5406">
        <ele>67.37</ele>
        <time>2023-05-12T13:42:46.948Z</time>
      </trkpt>
      <trkpt lat="50.61191" lon="3.5406">
        <ele>67.37</ele>
        <time>2023-05-12T13:42:58.024Z</time>
      </trkpt>
      <trkpt lat="50.61191" lon="3.5406">
        <ele>67.37</ele>
        <time>2023-05-12T13:43:09.100Z</time>
      </trkpt>
      <trkpt lat="50.61188" lon="3.54055">
        <ele>67.32</ele>
        <time>2023-05-12T13:43:20.177Z</time>
      </trkpt>
      <trkpt lat="50.61093" lon="3.53899">
        <ele>67.16</ele>
        <time>2023-05-12T13:43:31.276Z</time>
      </trkpt>
      <trkpt lat="50.61093" lon="3.53899">
        <ele>67.19</ele>
        <time>2023-05-12T13:43:42.375Z</time>
      </trkpt>
      <trkpt lat="50.61063" lon="3.53851">
        <ele>67.35</ele>
        <time>2023-05-12T13:43:53.480Z</time>
      </trkpt>
      <trkpt lat="50.61055" lon="3.53843">
        <ele>67.64</ele>
        <time>2023-05-12T13:44:04.587Z</time>
      </trkpt>
      <trkpt lat="50.61046" lon="3.5384">
        <ele>68</ele>
        <time>2023-05-12T13:44:15.695Z</time>
      </trkpt>
      <trkpt lat="50.61039" lon="3.53841">
        <ele>68.39</ele>
        <time>2023-05-12T13:44:26.805Z</time>
      </trkpt>
      <trkpt lat="50.61025" lon="3.53846">
        <ele>68.79</ele>
        <time>2023-05-12T13:44:37.917Z</time>
      </trkpt>
      <trkpt lat="50.60945" lon="3.53893">
        <ele>69.23</ele>
        <time>2023-05-12T13:44:49.042Z</time>
      </trkpt>
      <trkpt lat="50.60913" lon="3.53922">
        <ele>69.57</ele>
        <time>2023-05-12T13:45:00.173Z</time>
      </trkpt>
      <trkpt lat="50.60865" lon="3.53972">
        <ele>70.11</ele>
        <time>2023-05-12T13:45:11.314Z</time>
      </trkpt>
      <trkpt lat="50.6082" lon="3.54027">
        <ele>71.02</ele>
        <time>2023-05-12T13:45:22.464Z</time>
      </trkpt>
      <trkpt lat="50.60798" lon="3.54051">
        <ele>71.73</ele>
        <time>2023-05-12T13:45:33.618Z</time>
      </trkpt>
      <trkpt lat="50.60725" lon="3.54089">
        <ele>72.29</ele>
        <time>2023-05-12T13:45:44.784Z</time>
      </trkpt>
      <trkpt lat="50.60681" lon="3.54107">
        <ele>72.96</ele>
        <time>2023-05-12T13:45:55.958Z</time>
      </trkpt>
      <trkpt lat="50.60665" lon="3.5411">
        <ele>73.47</ele>
        <time>2023-05-12T13:46:07.134Z</time>
      </trkpt>
      <trkpt lat="50.60654" lon="3.54108">
        <ele>73.9</ele>
        <time>2023-05-12T13:46:18.312Z</time>
      </trkpt>
      <trkpt lat="50.60636" lon="3.54106">
        <ele>74.28</ele>
        <time>2023-05-12T13:46:29.493Z</time>
      </trkpt>
      <trkpt lat="50.60601" lon="3.54097">
        <ele>74.58</ele>
        <time>2023-05-12T13:46:40.680Z</time>
      </trkpt>
      <trkpt lat="50.60586" lon="3.54097">
        <ele>74.98</ele>
        <time>2023-05-12T13:46:51.869Z</time>
      </trkpt>
      <trkpt lat="50.60561" lon="3.54108">
        <ele>75.5</ele>
        <time>2023-05-12T13:47:03.062Z</time>
      </trkpt>
      <trkpt lat="50.60548" lon="3.5412">
        <ele>76.04</ele>
        <time>2023-05-12T13:47:14.258Z</time>
      </trkpt>
      <trkpt lat="50.60536" lon="3.54138">
        <ele>76.59</ele>
        <time>2023-05-12T13:47:25.456Z</time>
      </trkpt>
      <trkpt lat="50.60497" lon="3.54219">
        <ele>77.23</ele>
        <time>2023-05-12T13:47:36.665Z</time>
      </trkpt>
      <trkpt lat="50.60456" lon="3.54297">
        <ele>78</ele>
        <time>2023-05-12T13:47:47.884Z</time>
      </trkpt>
      <trkpt lat="50.60441" lon="3.54303">
        <ele>78.79</ele>
        <time>2023-05-12T13:47:59.105Z</time>
      </trkpt>
      <trkpt lat="50.60435" lon="3.54303">
        <ele>79.52</ele>
        <time>2023-05-12T13:48:10.327Z</time>
      </trkpt>
      <trkpt lat="50.60411" lon="3.54293">
        <ele>80.27</ele>
        <time>2023-05-12T13:48:21.553Z</time>
      </trkpt>
      <trkpt lat="50.60399" lon="3.54294">
        <ele>81</ele>
        <time>2023-05-12T13:48:32.781Z</time>
      </trkpt>
      <trkpt lat="50.60384" lon="3.54299">
        <ele>81.72</ele>
        <time>2023-05-12T13:48:44.012Z</time>
      </trkpt>
      <trkpt lat="50.60368" lon="3.54313">
        <ele>82.29</ele>
        <time>2023-05-12T13:48:55.246Z</time>
      </trkpt>
      <trkpt lat="50.60357" lon="3.54328">
        <ele>82.69</ele>
        <time>2023-05-12T13:49:06.482Z</time>
      </trkpt>
      <trkpt lat="50.6035" lon="3.54348">
        <ele>82.87</ele>
        <time>2023-05-12T13:49:17.720Z</time>
      </trkpt>
      <trkpt lat="50.60346" lon="3.54363">
        <ele>82.87</ele>
        <time>2023-05-12T13:49:28.960Z</time>
      </trkpt>
      <trkpt lat="50.60336" lon="3.54429">
        <ele>82.64</ele>
        <time>2023-05-12T13:49:40.207Z</time>
      </trkpt>
      <trkpt lat="50.60332" lon="3.54447">
        <ele>82.28</ele>
        <time>2023-05-12T13:49:51.456Z</time>
      </trkpt>
      <trkpt lat="50.60325" lon="3.54456">
        <ele>81.7</ele>
        <time>2023-05-12T13:50:02.706Z</time>
      </trkpt>
      <trkpt lat="50.60317" lon="3.54461">
        <ele>80.95</ele>
        <time>2023-05-12T13:50:13.958Z</time>
      </trkpt>
      <trkpt lat="50.60249" lon="3.54486">
        <ele>79.98</ele>
        <time>2023-05-12T13:50:25.221Z</time>
      </trkpt>
      <trkpt lat="50.60231" lon="3.54485">
        <ele>78.89</ele>
        <time>2023-05-12T13:50:36.487Z</time>
      </trkpt>
      <trkpt lat="50.6015" lon="3.54429">
        <ele>77.24</ele>
        <time>2023-05-12T13:50:47.767Z</time>
      </trkpt>
      <trkpt lat="50.60058" lon="3.54363">
        <ele>75.86</ele>
        <time>2023-05-12T13:50:59.063Z</time>
      </trkpt>
      <trkpt lat="50.60041" lon="3.5436">
        <ele>74.53</ele>
        <time>2023-05-12T13:51:10.362Z</time>
      </trkpt>
      <trkpt lat="50.59959" lon="3.54388">
        <ele>73.18</ele>
        <time>2023-05-12T13:51:21.674Z</time>
      </trkpt>
      <trkpt lat="50.599" lon="3.5444">
        <ele>72.26</ele>
        <time>2023-05-12T13:51:32.997Z</time>
      </trkpt>
      <trkpt lat="50.59873" lon="3.5446">
        <ele>71.38</ele>
        <time>2023-05-12T13:51:44.325Z</time>
      </trkpt>
      <trkpt lat="50.59873" lon="3.5446">
        <ele>70.71</ele>
        <time>2023-05-12T13:51:55.653Z</time>
      </trkpt>
      <trkpt lat="50.59811" lon="3.54431">
        <ele>67.92</ele>
        <time>2023-05-12T13:52:06.991Z</time>
      </trkpt>
      <trkpt lat="50.59811" lon="3.5443">
        <ele>67.91</ele>
        <time>2023-05-12T13:52:18.329Z</time>
      </trkpt>
      <trkpt lat="50.59811" lon="3.5443">
        <ele>67.9</ele>
        <time>2023-05-12T13:52:29.667Z</time>
      </trkpt>
      <trkpt lat="50.59811" lon="3.5443">
        <ele>67.89</ele>
        <time>2023-05-12T13:52:41.005Z</time>
      </trkpt>
      <trkpt lat="50.59811" lon="3.5443">
        <ele>67.89</ele>
        <time>2023-05-12T13:52:52.343Z</time>
      </trkpt>
      <trkpt lat="50.59811" lon="3.5443">
        <ele>67.89</ele>
        <time>2023-05-12T13:53:03.681Z</time>
      </trkpt>
      <trkpt lat="50.59803" lon="3.54427">
        <ele>67.56</ele>
        <time>2023-05-12T13:53:15.021Z</time>
      </trkpt>
      <trkpt lat="50.59803" lon="3.54427">
        <ele>67.56</ele>
        <time>2023-05-12T13:53:26.361Z</time>
      </trkpt>
      <trkpt lat="50.59803" lon="3.54426">
        <ele>67.55</ele>
        <time>2023-05-12T13:53:37.701Z</time>
      </trkpt>
      <trkpt lat="50.59803" lon="3.54426">
        <ele>67.54</ele>
        <time>2023-05-12T13:53:49.041Z</time>
      </trkpt>
      <trkpt lat="50.59798" lon="3.54424">
        <ele>67.34</ele>
        <time>2023-05-12T13:54:00.381Z</time>
      </trkpt>
      <trkpt lat="50.59747" lon="3.54399">
        <ele>65.97</ele>
        <time>2023-05-12T13:54:11.730Z</time>
      </trkpt>
      <trkpt lat="50.59482" lon="3.5426">
        <ele>61.64</ele>
        <time>2023-05-12T13:54:23.124Z</time>
      </trkpt>
      <trkpt lat="50.59429" lon="3.54235">
        <ele>59.03</ele>
        <time>2023-05-12T13:54:34.527Z</time>
      </trkpt>
      <trkpt lat="50.59368" lon="3.54211">
        <ele>57.51</ele>
        <time>2023-05-12T13:54:45.940Z</time>
      </trkpt>
      <trkpt lat="50.59332" lon="3.54209">
        <ele>57.09</ele>
        <time>2023-05-12T13:54:57.359Z</time>
      </trkpt>
      <trkpt lat="50.59304" lon="3.5421">
        <ele>56.87</ele>
        <time>2023-05-12T13:55:08.782Z</time>
      </trkpt>
      <trkpt lat="50.59301" lon="3.5421">
        <ele>56.77</ele>
        <time>2023-05-12T13:55:20.206Z</time>
      </trkpt>
      <trkpt lat="50.59299" lon="3.54211">
        <ele>56.7</ele>
        <time>2023-05-12T13:55:31.630Z</time>
      </trkpt>
      <trkpt lat="50.59142" lon="3.5424">
        <ele>56.75</ele>
        <time>2023-05-12T13:55:43.079Z</time>
      </trkpt>
      <trkpt lat="50.5899" lon="3.54265">
        <ele>56.57</ele>
        <time>2023-05-12T13:55:54.553Z</time>
      </trkpt>
      <trkpt lat="50.58922" lon="3.54275">
        <ele>56</ele>
        <time>2023-05-12T13:56:06.038Z</time>
      </trkpt>
      <trkpt lat="50.58821" lon="3.54285">
        <ele>54.6</ele>
        <time>2023-05-12T13:56:17.539Z</time>
      </trkpt>
      <trkpt lat="50.58778" lon="3.54302">
        <ele>54.23</ele>
        <time>2023-05-12T13:56:29.047Z</time>
      </trkpt>
      <trkpt lat="50.58736" lon="3.54294">
        <ele>53.64</ele>
        <time>2023-05-12T13:56:40.562Z</time>
      </trkpt>
      <trkpt lat="50.58711" lon="3.54278">
        <ele>53.5</ele>
        <time>2023-05-12T13:56:52.081Z</time>
      </trkpt>
      <trkpt lat="50.5864" lon="3.54248">
        <ele>54.36</ele>
        <time>2023-05-12T13:57:03.612Z</time>
      </trkpt>
      <trkpt lat="50.58625" lon="3.54241">
        <ele>54.69</ele>
        <time>2023-05-12T13:57:15.145Z</time>
      </trkpt>
      <trkpt lat="50.58615" lon="3.54236">
        <ele>54.85</ele>
        <time>2023-05-12T13:57:26.680Z</time>
      </trkpt>
      <trkpt lat="50.58615" lon="3.54236">
        <ele>54.86</ele>
        <time>2023-05-12T13:57:38.215Z</time>
      </trkpt>
      <trkpt lat="50.58615" lon="3.54235">
        <ele>54.87</ele>
        <time>2023-05-12T13:57:49.750Z</time>
      </trkpt>
      <trkpt lat="50.58614" lon="3.54235">
        <ele>54.88</ele>
        <time>2023-05-12T13:58:01.285Z</time>
      </trkpt>
      <trkpt lat="50.58614" lon="3.54235">
        <ele>54.89</ele>
        <time>2023-05-12T13:58:12.820Z</time>
      </trkpt>
      <trkpt lat="50.58614" lon="3.54235">
        <ele>54.9</ele>
        <time>2023-05-12T13:58:24.355Z</time>
      </trkpt>
      <trkpt lat="50.58607" lon="3.54231">
        <ele>55.06</ele>
        <time>2023-05-12T13:58:35.891Z</time>
      </trkpt>
      <trkpt lat="50.58607" lon="3.54231">
        <ele>55.07</ele>
        <time>2023-05-12T13:58:47.427Z</time>
      </trkpt>
      <trkpt lat="50.58607" lon="3.54231">
        <ele>55.08</ele>
        <time>2023-05-12T13:58:58.963Z</time>
      </trkpt>
      <trkpt lat="50.58606" lon="3.54231">
        <ele>55.09</ele>
        <time>2023-05-12T13:59:10.499Z</time>
      </trkpt>
      <trkpt lat="50.58602" lon="3.54228">
        <ele>55.2</ele>
        <time>2023-05-12T13:59:22.036Z</time>
      </trkpt>
      <trkpt lat="50.58598" lon="3.54225">
        <ele>55.14</ele>
        <time>2023-05-12T13:59:33.574Z</time>
      </trkpt>
      <trkpt lat="50.58553" lon="3.54196">
        <ele>54.57</ele>
        <time>2023-05-12T13:59:45.120Z</time>
      </trkpt>
      <trkpt lat="50.58501" lon="3.54162">
        <ele>54.97</ele>
        <time>2023-05-12T13:59:56.675Z</time>
      </trkpt>
      <trkpt lat="50.58483" lon="3.54154">
        <ele>55.3</ele>
        <time>2023-05-12T14:00:08.233Z</time>
      </trkpt>
      <trkpt lat="50.58466" lon="3.54149">
        <ele>55.64</ele>
        <time>2023-05-12T14:00:19.793Z</time>
      </trkpt>
      <trkpt lat="50.58442" lon="3.54149">
        <ele>55.97</ele>
        <time>2023-05-12T14:00:31.357Z</time>
      </trkpt>
      <trkpt lat="50.58379" lon="3.5417">
        <ele>55.91</ele>
        <time>2023-05-12T14:00:42.932Z</time>
      </trkpt>
      <trkpt lat="50.58328" lon="3.54173">
        <ele>55.98</ele>
        <time>2023-05-12T14:00:54.515Z</time>
      </trkpt>
      <trkpt lat="50.58325" lon="3.54143">
        <ele>56.33</ele>
        <time>2023-05-12T14:01:06.101Z</time>
      </trkpt>
      <trkpt lat="50.58321" lon="3.54047">
        <ele>56.8</ele>
        <time>2023-05-12T14:01:17.697Z</time>
      </trkpt>
      <trkpt lat="50.58319" lon="3.54022">
        <ele>56.98</ele>
        <time>2023-05-12T14:01:29.295Z</time>
      </trkpt>
      <trkpt lat="50.58299" lon="3.53928">
        <ele>57.19</ele>
        <time>2023-05-12T14:01:40.903Z</time>
      </trkpt>
      <trkpt lat="50.58275" lon="3.53799">
        <ele>57.26</ele>
        <time>2023-05-12T14:01:52.525Z</time>
      </trkpt>
      <trkpt lat="50.58269" lon="3.53758">
        <ele>57.58</ele>
        <time>2023-05-12T14:02:04.151Z</time>
      </trkpt>
      <trkpt lat="50.58262" lon="3.53713">
        <ele>58.05</ele>
        <time>2023-05-12T14:02:15.782Z</time>
      </trkpt>
      <trkpt lat="50.58261" lon="3.53707">
        <ele>58.2</ele>
        <time>2023-05-12T14:02:27.414Z</time>
      </trkpt>
      <trkpt lat="50.58261" lon="3.53706">
        <ele>58.22</ele>
        <time>2023-05-12T14:02:39.046Z</time>
      </trkpt>
      <trkpt lat="50.58261" lon="3.53706">
        <ele>58.24</ele>
        <time>2023-05-12T14:02:50.678Z</time>
      </trkpt>
      <trkpt lat="50.58261" lon="3.53706">
        <ele>58.26</ele>
        <time>2023-05-12T14:03:02.310Z</time>
      </trkpt>
      <trkpt lat="50.58261" lon="3.53705">
        <ele>58.27</ele>
        <time>2023-05-12T14:03:13.942Z</time>
      </trkpt>
      <trkpt lat="50.58261" lon="3.53705">
        <ele>58.28</ele>
        <time>2023-05-12T14:03:25.574Z</time>
      </trkpt>
      <trkpt lat="50.5826" lon="3.53694">
        <ele>58.69</ele>
        <time>2023-05-12T14:03:37.207Z</time>
      </trkpt>
      <trkpt lat="50.5826" lon="3.53693">
        <ele>58.71</ele>
        <time>2023-05-12T14:03:48.840Z</time>
      </trkpt>
      <trkpt lat="50.5826" lon="3.53693">
        <ele>58.73</ele>
        <time>2023-05-12T14:04:00.473Z</time>
      </trkpt>
      <trkpt lat="50.5826" lon="3.53692">
        <ele>58.75</ele>
        <time>2023-05-12T14:04:12.106Z</time>
      </trkpt>
      <trkpt lat="50.58259" lon="3.53685">
        <ele>59.01</ele>
        <time>2023-05-12T14:04:23.740Z</time>
      </trkpt>
      <trkpt lat="50.58247" lon="3.53577">
        <ele>61.05</ele>
        <time>2023-05-12T14:04:35.385Z</time>
      </trkpt>
      <trkpt lat="50.58243" lon="3.53391">
        <ele>62.36</ele>
        <time>2023-05-12T14:04:47.049Z</time>
      </trkpt>
      <trkpt lat="50.58243" lon="3.53284">
        <ele>65.87</ele>
        <time>2023-05-12T14:04:58.724Z</time>
      </trkpt>
      <trkpt lat="50.58243" lon="3.53284">
        <ele>65.91</ele>
        <time>2023-05-12T14:05:10.399Z</time>
      </trkpt>
      <trkpt lat="50.5825" lon="3.53259">
        <ele>68.21</ele>
        <time>2023-05-12T14:05:22.077Z</time>
      </trkpt>
      <trkpt lat="50.58258" lon="3.53197">
        <ele>69.18</ele>
        <time>2023-05-12T14:05:33.761Z</time>
      </trkpt>
      <trkpt lat="50.58277" lon="3.53081">
        <ele>64.14</ele>
        <time>2023-05-12T14:05:45.458Z</time>
      </trkpt>
      <trkpt lat="50.58234" lon="3.5307">
        <ele>66.28</ele>
        <time>2023-05-12T14:05:57.162Z</time>
      </trkpt>
      <trkpt lat="50.58149" lon="3.53044">
        <ele>66.99</ele>
        <time>2023-05-12T14:06:08.879Z</time>
      </trkpt>
      <trkpt lat="50.58138" lon="3.53033">
        <ele>67.17</ele>
        <time>2023-05-12T14:06:20.599Z</time>
      </trkpt>
      <trkpt lat="50.5774" lon="3.52426">
        <ele>73.04</ele>
        <time>2023-05-12T14:06:32.407Z</time>
      </trkpt>
      <trkpt lat="50.5774" lon="3.52426">
        <ele>73.09</ele>
        <time>2023-05-12T14:06:44.215Z</time>
      </trkpt>
      <trkpt lat="50.57727" lon="3.52407">
        <ele>72.54</ele>
        <time>2023-05-12T14:06:56.026Z</time>
      </trkpt>
      <trkpt lat="50.577" lon="3.5236">
        <ele>71.22</ele>
        <time>2023-05-12T14:07:07.844Z</time>
      </trkpt>
      <trkpt lat="50.57637" lon="3.52289">
        <ele>67.86</ele>
        <time>2023-05-12T14:07:19.674Z</time>
      </trkpt>
      <trkpt lat="50.57453" lon="3.52072">
        <ele>66.45</ele>
        <time>2023-05-12T14:07:31.541Z</time>
      </trkpt>
      <trkpt lat="50.57453" lon="3.52072">
        <ele>66.45</ele>
        <time>2023-05-12T14:07:43.408Z</time>
      </trkpt>
      <trkpt lat="50.57453" lon="3.52072">
        <ele>66.45</ele>
        <time>2023-05-12T14:07:55.275Z</time>
      </trkpt>
      <trkpt lat="50.57453" lon="3.52072">
        <ele>66.45</ele>
        <time>2023-05-12T14:08:07.142Z</time>
      </trkpt>
      <trkpt lat="50.57453" lon="3.52072">
        <ele>66.45</ele>
        <time>2023-05-12T14:08:19.009Z</time>
      </trkpt>
      <trkpt lat="50.57453" lon="3.52072">
        <ele>66.45</ele>
        <time>2023-05-12T14:08:30.876Z</time>
      </trkpt>
      <trkpt lat="50.57447" lon="3.52064">
        <ele>66.41</ele>
        <time>2023-05-12T14:08:42.744Z</time>
      </trkpt>
      <trkpt lat="50.57447" lon="3.52065">
        <ele>66.41</ele>
        <time>2023-05-12T14:08:54.612Z</time>
      </trkpt>
      <trkpt lat="50.57447" lon="3.52064">
        <ele>66.41</ele>
        <time>2023-05-12T14:09:06.480Z</time>
      </trkpt>
      <trkpt lat="50.57447" lon="3.52064">
        <ele>66.41</ele>
        <time>2023-05-12T14:09:18.348Z</time>
      </trkpt>
      <trkpt lat="50.57443" lon="3.5206">
        <ele>66.39</ele>
        <time>2023-05-12T14:09:30.217Z</time>
      </trkpt>
      <trkpt lat="50.57293" lon="3.51883">
        <ele>65.23</ele>
        <time>2023-05-12T14:09:42.116Z</time>
      </trkpt>
      <trkpt lat="50.57207" lon="3.51782">
        <ele>64.38</ele>
        <time>2023-05-12T14:09:54.032Z</time>
      </trkpt>
      <trkpt lat="50.57196" lon="3.5176">
        <ele>63.73</ele>
        <time>2023-05-12T14:10:05.951Z</time>
      </trkpt>
      <trkpt lat="50.57205" lon="3.51729">
        <ele>62.93</ele>
        <time>2023-05-12T14:10:17.874Z</time>
      </trkpt>
      <trkpt lat="50.57281" lon="3.51579">
        <ele>62.54</ele>
        <time>2023-05-12T14:10:29.816Z</time>
      </trkpt>
      <trkpt lat="50.57284" lon="3.51566">
        <ele>61.91</ele>
        <time>2023-05-12T14:10:41.760Z</time>
      </trkpt>
      <trkpt lat="50.57279" lon="3.51556">
        <ele>61.09</ele>
        <time>2023-05-12T14:10:53.705Z</time>
      </trkpt>
      <trkpt lat="50.57213" lon="3.51454">
        <ele>59.73</ele>
        <time>2023-05-12T14:11:05.665Z</time>
      </trkpt>
      <trkpt lat="50.57175" lon="3.51391">
        <ele>58.12</ele>
        <time>2023-05-12T14:11:17.634Z</time>
      </trkpt>
      <trkpt lat="50.57136" lon="3.51318">
        <ele>56.51</ele>
        <time>2023-05-12T14:11:29.612Z</time>
      </trkpt>
      <trkpt lat="50.57082" lon="3.51198">
        <ele>55.45</ele>
        <time>2023-05-12T14:11:41.605Z</time>
      </trkpt>
      <trkpt lat="50.57069" lon="3.51156">
        <ele>54.77</ele>
        <time>2023-05-12T14:11:53.603Z</time>
      </trkpt>
      <trkpt lat="50.57069" lon="3.51156">
        <ele>54.28</ele>
        <time>2023-05-12T14:12:05.601Z</time>
      </trkpt>
      <trkpt lat="50.57059" lon="3.51115">
        <ele>53.95</ele>
        <time>2023-05-12T14:12:17.603Z</time>
      </trkpt>
      <trkpt lat="50.5705" lon="3.51075">
        <ele>53.93</ele>
        <time>2023-05-12T14:12:29.610Z</time>
      </trkpt>
      <trkpt lat="50.57045" lon="3.51054">
        <ele>53.83</ele>
        <time>2023-05-12T14:12:41.619Z</time>
      </trkpt>
      <trkpt lat="50.57045" lon="3.51054">
        <ele>53.83</ele>
        <time>2023-05-12T14:12:53.628Z</time>
      </trkpt>
      <trkpt lat="50.57045" lon="3.51053">
        <ele>53.83</ele>
        <time>2023-05-12T14:13:05.637Z</time>
      </trkpt>
      <trkpt lat="50.57045" lon="3.51053">
        <ele>53.83</ele>
        <time>2023-05-12T14:13:17.646Z</time>
      </trkpt>
      <trkpt lat="50.57045" lon="3.51053">
        <ele>53.83</ele>
        <time>2023-05-12T14:13:29.655Z</time>
      </trkpt>
      <trkpt lat="50.57045" lon="3.51053">
        <ele>53.83</ele>
        <time>2023-05-12T14:13:41.664Z</time>
      </trkpt>
      <trkpt lat="50.57043" lon="3.51041">
        <ele>53.78</ele>
        <time>2023-05-12T14:13:53.674Z</time>
      </trkpt>
      <trkpt lat="50.57043" lon="3.51041">
        <ele>53.78</ele>
        <time>2023-05-12T14:14:05.685Z</time>
      </trkpt>
      <trkpt lat="50.57043" lon="3.51041">
        <ele>53.78</ele>
        <time>2023-05-12T14:14:17.696Z</time>
      </trkpt>
      <trkpt lat="50.57043" lon="3.5104">
        <ele>53.78</ele>
        <time>2023-05-12T14:14:29.707Z</time>
      </trkpt>
      <trkpt lat="50.57041" lon="3.51033">
        <ele>53.75</ele>
        <time>2023-05-12T14:14:41.718Z</time>
      </trkpt>
      <trkpt lat="50.57041" lon="3.51033">
        <ele>55.35</ele>
        <time>2023-05-12T14:14:53.729Z</time>
      </trkpt>
      <trkpt lat="50.57039" lon="3.51022">
        <ele>55.54</ele>
        <time>2023-05-12T14:15:05.742Z</time>
      </trkpt>
      <trkpt lat="50.57033" lon="3.50972">
        <ele>55.64</ele>
        <time>2023-05-12T14:15:17.760Z</time>
      </trkpt>
      <trkpt lat="50.57028" lon="3.50919">
        <ele>56.06</ele>
        <time>2023-05-12T14:15:29.783Z</time>
      </trkpt>
      <trkpt lat="50.57018" lon="3.50895">
        <ele>56.28</ele>
        <time>2023-05-12T14:15:41.809Z</time>
      </trkpt>
      <trkpt lat="50.57006" lon="3.50892">
        <ele>56.4</ele>
        <time>2023-05-12T14:15:53.837Z</time>
      </trkpt>
      <trkpt lat="50.56989" lon="3.50887">
        <ele>56.47</ele>
        <time>2023-05-12T14:16:05.868Z</time>
      </trkpt>
      <trkpt lat="50.56955" lon="3.50881">
        <ele>56.45</ele>
        <time>2023-05-12T14:16:17.904Z</time>
      </trkpt>
      <trkpt lat="50.569" lon="3.5086">
        <ele>56.11</ele>
        <time>2023-05-12T14:16:29.949Z</time>
      </trkpt>
      <trkpt lat="50.5689" lon="3.50852">
        <ele>55.63</ele>
        <time>2023-05-12T14:16:41.996Z</time>
      </trkpt>
      <trkpt lat="50.56881" lon="3.50837">
        <ele>54.85</ele>
        <time>2023-05-12T14:16:54.045Z</time>
      </trkpt>
      <trkpt lat="50.56886" lon="3.50698">
        <ele>54.07</ele>
        <time>2023-05-12T14:17:06.108Z</time>
      </trkpt>
      <trkpt lat="50.56893" lon="3.50501">
        <ele>52.77</ele>
        <time>2023-05-12T14:17:18.192Z</time>
      </trkpt>
      <trkpt lat="50.56897" lon="3.50369">
        <ele>51.03</ele>
        <time>2023-05-12T14:17:30.289Z</time>
      </trkpt>
      <trkpt lat="50.56867" lon="3.50147">
        <ele>49.24</ele>
        <time>2023-05-12T14:17:42.409Z</time>
      </trkpt>
      <trkpt lat="50.56859" lon="3.50045">
        <ele>47.35</ele>
        <time>2023-05-12T14:17:54.540Z</time>
      </trkpt>
      <trkpt lat="50.5685" lon="3.49946">
        <ele>45.52</ele>
        <time>2023-05-12T14:18:06.681Z</time>
      </trkpt>
      <trkpt lat="50.56844" lon="3.49892">
        <ele>43.92</ele>
        <time>2023-05-12T14:18:18.828Z</time>
      </trkpt>
      <trkpt lat="50.56776" lon="3.49917">
        <ele>42.2</ele>
        <time>2023-05-12T14:18:30.986Z</time>
      </trkpt>
      <trkpt lat="50.56741" lon="3.49936">
        <ele>41.07</ele>
        <time>2023-05-12T14:18:43.150Z</time>
      </trkpt>
      <trkpt lat="50.56657" lon="3.49993">
        <ele>40.5</ele>
        <time>2023-05-12T14:18:55.328Z</time>
      </trkpt>
      <trkpt lat="50.56547" lon="3.50081">
        <ele>40.38</ele>
        <time>2023-05-12T14:19:07.526Z</time>
      </trkpt>
      <trkpt lat="50.5653" lon="3.50101">
        <ele>40.54</ele>
        <time>2023-05-12T14:19:19.727Z</time>
      </trkpt>
      <trkpt lat="50.56518" lon="3.50134">
        <ele>41.04</ele>
        <time>2023-05-12T14:19:31.932Z</time>
      </trkpt>
      <trkpt lat="50.56509" lon="3.50186">
        <ele>41.91</ele>
        <time>2023-05-12T14:19:44.143Z</time>
      </trkpt>
      <trkpt lat="50.56505" lon="3.50247">
        <ele>42.95</ele>
        <time>2023-05-12T14:19:56.360Z</time>
      </trkpt>
      <trkpt lat="50.56504" lon="3.50273">
        <ele>44.05</ele>
        <time>2023-05-12T14:20:08.580Z</time>
      </trkpt>
      <trkpt lat="50.56496" lon="3.50334">
        <ele>45.46</ele>
        <time>2023-05-12T14:20:20.806Z</time>
      </trkpt>
      <trkpt lat="50.5649" lon="3.50369">
        <ele>46.46</ele>
        <time>2023-05-12T14:20:33.036Z</time>
      </trkpt>
      <trkpt lat="50.56424" lon="3.50493">
        <ele>47.66</ele>
        <time>2023-05-12T14:20:45.282Z</time>
      </trkpt>
      <trkpt lat="50.56424" lon="3.50494">
        <ele>47.66</ele>
        <time>2023-05-12T14:20:57.528Z</time>
      </trkpt>
      <trkpt lat="50.56424" lon="3.50494">
        <ele>47.66</ele>
        <time>2023-05-12T14:21:09.774Z</time>
      </trkpt>
      <trkpt lat="50.56423" lon="3.50495">
        <ele>47.67</ele>
        <time>2023-05-12T14:21:22.020Z</time>
      </trkpt>
      <trkpt lat="50.56423" lon="3.50495">
        <ele>47.68</ele>
        <time>2023-05-12T14:21:34.267Z</time>
      </trkpt>
      <trkpt lat="50.56423" lon="3.50495">
        <ele>47.69</ele>
        <time>2023-05-12T14:21:46.514Z</time>
      </trkpt>
      <trkpt lat="50.56423" lon="3.50495">
        <ele>47.7</ele>
        <time>2023-05-12T14:21:58.761Z</time>
      </trkpt>
      <trkpt lat="50.56418" lon="3.50505">
        <ele>47.9</ele>
        <time>2023-05-12T14:22:11.009Z</time>
      </trkpt>
      <trkpt lat="50.56418" lon="3.50505">
        <ele>47.91</ele>
        <time>2023-05-12T14:22:23.257Z</time>
      </trkpt>
      <trkpt lat="50.56418" lon="3.50505">
        <ele>47.92</ele>
        <time>2023-05-12T14:22:35.505Z</time>
      </trkpt>
      <trkpt lat="50.56418" lon="3.50506">
        <ele>47.94</ele>
        <time>2023-05-12T14:22:47.753Z</time>
      </trkpt>
      <trkpt lat="50.56415" lon="3.50512">
        <ele>48.08</ele>
        <time>2023-05-12T14:23:00.002Z</time>
      </trkpt>
      <trkpt lat="50.56321" lon="3.50696">
        <ele>47.52</ele>
        <time>2023-05-12T14:23:12.275Z</time>
      </trkpt>
      <trkpt lat="50.56301" lon="3.50747">
        <ele>47.56</ele>
        <time>2023-05-12T14:23:24.554Z</time>
      </trkpt>
      <trkpt lat="50.56272" lon="3.50886">
        <ele>48.03</ele>
        <time>2023-05-12T14:23:36.848Z</time>
      </trkpt>
      <trkpt lat="50.56238" lon="3.50964">
        <ele>47.06</ele>
        <time>2023-05-12T14:23:49.151Z</time>
      </trkpt>
      <trkpt lat="50.56214" lon="3.50999">
        <ele>46.32</ele>
        <time>2023-05-12T14:24:01.460Z</time>
      </trkpt>
      <trkpt lat="50.56152" lon="3.51083">
        <ele>45.3</ele>
        <time>2023-05-12T14:24:13.782Z</time>
      </trkpt>
      <trkpt lat="50.56116" lon="3.51113">
        <ele>44.87</ele>
        <time>2023-05-12T14:24:26.110Z</time>
      </trkpt>
      <trkpt lat="50.56116" lon="3.51113">
        <ele>44.9</ele>
        <time>2023-05-12T14:24:38.438Z</time>
      </trkpt>
      <trkpt lat="50.56112" lon="3.51114">
        <ele>45.29</ele>
        <time>2023-05-12T14:24:50.767Z</time>
      </trkpt>
      <trkpt lat="50.5601" lon="3.51144">
        <ele>45.89</ele>
        <time>2023-05-12T14:25:03.113Z</time>
      </trkpt>
      <trkpt lat="50.55985" lon="3.51149">
        <ele>46.94</ele>
        <time>2023-05-12T14:25:15.463Z</time>
      </trkpt>
      <trkpt lat="50.55931" lon="3.51162">
        <ele>48.45</ele>
        <time>2023-05-12T14:25:27.821Z</time>
      </trkpt>
      <trkpt lat="50.55745" lon="3.51206">
        <ele>50.96</ele>
        <time>2023-05-12T14:25:40.209Z</time>
      </trkpt>
      <trkpt lat="50.55669" lon="3.51223">
        <ele>52.64</ele>
        <time>2023-05-12T14:25:52.610Z</time>
      </trkpt>
      <trkpt lat="50.55611" lon="3.51238">
        <ele>54.67</ele>
        <time>2023-05-12T14:26:05.020Z</time>
      </trkpt>
      <trkpt lat="50.55588" lon="3.51248">
        <ele>56.26</ele>
        <time>2023-05-12T14:26:17.434Z</time>
      </trkpt>
      <trkpt lat="50.55541" lon="3.51279">
        <ele>57.4</ele>
        <time>2023-05-12T14:26:29.856Z</time>
      </trkpt>
      <trkpt lat="50.55537" lon="3.51271">
        <ele>58.32</ele>
        <time>2023-05-12T14:26:42.279Z</time>
      </trkpt>
      <trkpt lat="50.55531" lon="3.51267">
        <ele>59</ele>
        <time>2023-05-12T14:26:54.703Z</time>
      </trkpt>
      <trkpt lat="50.55525" lon="3.51271">
        <ele>59.48</ele>
        <time>2023-05-12T14:27:07.128Z</time>
      </trkpt>
      <trkpt lat="50.55521" lon="3.51278">
        <ele>59.82</ele>
        <time>2023-05-12T14:27:19.554Z</time>
      </trkpt>
      <trkpt lat="50.5552" lon="3.51285">
        <ele>60.03</ele>
        <time>2023-05-12T14:27:31.981Z</time>
      </trkpt>
      <trkpt lat="50.55518" lon="3.51293">
        <ele>60.12</ele>
        <time>2023-05-12T14:27:44.409Z</time>
      </trkpt>
      <trkpt lat="50.55508" lon="3.51313">
        <ele>60.18</ele>
        <time>2023-05-12T14:27:56.839Z</time>
      </trkpt>
      <trkpt lat="50.55464" lon="3.51357">
        <ele>60.02</ele>
        <time>2023-05-12T14:28:09.278Z</time>
      </trkpt>
      <trkpt lat="50.55448" lon="3.51368">
        <ele>59.99</ele>
        <time>2023-05-12T14:28:21.720Z</time>
      </trkpt>
      <trkpt lat="50.55416" lon="3.51399">
        <ele>59.88</ele>
        <time>2023-05-12T14:28:34.168Z</time>
      </trkpt>
      <trkpt lat="50.55404" lon="3.51408">
        <ele>59.77</ele>
        <time>2023-05-12T14:28:46.618Z</time>
      </trkpt>
      <trkpt lat="50.5539" lon="3.51416">
        <ele>59.65</ele>
        <time>2023-05-12T14:28:59.070Z</time>
      </trkpt>
      <trkpt lat="50.55361" lon="3.51418">
        <ele>59.51</ele>
        <time>2023-05-12T14:29:11.527Z</time>
      </trkpt>
      <trkpt lat="50.55333" lon="3.51409">
        <ele>59.33</ele>
        <time>2023-05-12T14:29:23.988Z</time>
      </trkpt>
      <trkpt lat="50.55325" lon="3.51404">
        <ele>59.09</ele>
        <time>2023-05-12T14:29:36.451Z</time>
      </trkpt>
      <trkpt lat="50.55318" lon="3.51398">
        <ele>58.75</ele>
        <time>2023-05-12T14:29:48.915Z</time>
      </trkpt>
      <trkpt lat="50.55301" lon="3.51387">
        <ele>58.29</ele>
        <time>2023-05-12T14:30:01.382Z</time>
      </trkpt>
      <trkpt lat="50.55222" lon="3.51315">
        <ele>57.7</ele>
        <time>2023-05-12T14:30:13.864Z</time>
      </trkpt>
      <trkpt lat="50.5519" lon="3.5129">
        <ele>56.31</ele>
        <time>2023-05-12T14:30:26.351Z</time>
      </trkpt>
      <trkpt lat="50.5517" lon="3.51271">
        <ele>54.96</ele>
        <time>2023-05-12T14:30:38.842Z</time>
      </trkpt>
      <trkpt lat="50.55057" lon="3.51176">
        <ele>53.11</ele>
        <time>2023-05-12T14:30:51.354Z</time>
      </trkpt>
      <trkpt lat="50.55018" lon="3.51152">
        <ele>51.79</ele>
        <time>2023-05-12T14:31:03.872Z</time>
      </trkpt>
      <trkpt lat="50.55032" lon="3.51069">
        <ele>51.63</ele>
        <time>2023-05-12T14:31:16.399Z</time>
      </trkpt>
      <trkpt lat="50.55046" lon="3.50997">
        <ele>49.54</ele>
        <time>2023-05-12T14:31:28.934Z</time>
      </trkpt>
      <trkpt lat="50.55046" lon="3.50997">
        <ele>49.53</ele>
        <time>2023-05-12T14:31:41.469Z</time>
      </trkpt>
      <trkpt lat="50.55046" lon="3.50997">
        <ele>49.52</ele>
        <time>2023-05-12T14:31:54.004Z</time>
      </trkpt>
      <trkpt lat="50.55046" lon="3.50997">
        <ele>49.51</ele>
        <time>2023-05-12T14:32:06.539Z</time>
      </trkpt>
      <trkpt lat="50.55046" lon="3.50996">
        <ele>49.51</ele>
        <time>2023-05-12T14:32:19.074Z</time>
      </trkpt>
      <trkpt lat="50.55046" lon="3.50996">
        <ele>49.51</ele>
        <time>2023-05-12T14:32:31.609Z</time>
      </trkpt>
      <trkpt lat="50.55048" lon="3.50985">
        <ele>49.17</ele>
        <time>2023-05-12T14:32:44.145Z</time>
      </trkpt>
      <trkpt lat="50.55049" lon="3.50985">
        <ele>49.16</ele>
        <time>2023-05-12T14:32:56.681Z</time>
      </trkpt>
      <trkpt lat="50.55049" lon="3.50984">
        <ele>49.15</ele>
        <time>2023-05-12T14:33:09.217Z</time>
      </trkpt>
      <trkpt lat="50.55049" lon="3.50984">
        <ele>49.14</ele>
        <time>2023-05-12T14:33:21.753Z</time>
      </trkpt>
      <trkpt lat="50.5505" lon="3.50977">
        <ele>48.93</ele>
        <time>2023-05-12T14:33:34.290Z</time>
      </trkpt>
      <trkpt lat="50.55053" lon="3.50962">
        <ele>48.23</ele>
        <time>2023-05-12T14:33:46.829Z</time>
      </trkpt>
      <trkpt lat="50.55079" lon="3.50878">
        <ele>47</ele>
        <time>2023-05-12T14:33:59.377Z</time>
      </trkpt>
      <trkpt lat="50.55095" lon="3.50843">
        <ele>45.72</ele>
        <time>2023-05-12T14:34:11.929Z</time>
      </trkpt>
      <trkpt lat="50.5509" lon="3.50811">
        <ele>44.67</ele>
        <time>2023-05-12T14:34:24.485Z</time>
      </trkpt>
      <trkpt lat="50.55089" lon="3.5079">
        <ele>43.67</ele>
        <time>2023-05-12T14:34:37.043Z</time>
      </trkpt>
      <trkpt lat="50.55102" lon="3.50717">
        <ele>42.51</ele>
        <time>2023-05-12T14:34:49.609Z</time>
      </trkpt>
      <trkpt lat="50.55104" lon="3.50688">
        <ele>41.57</ele>
        <time>2023-05-12T14:35:02.178Z</time>
      </trkpt>
      <trkpt lat="50.55101" lon="3.50663">
        <ele>40.77</ele>
        <time>2023-05-12T14:35:14.749Z</time>
      </trkpt>
      <trkpt lat="50.55086" lon="3.50621">
        <ele>40.13</ele>
        <time>2023-05-12T14:35:27.325Z</time>
      </trkpt>
      <trkpt lat="50.55085" lon="3.50597">
        <ele>39.61</ele>
        <time>2023-05-12T14:35:39.904Z</time>
      </trkpt>
      <trkpt lat="50.55086" lon="3.50579">
        <ele>39.22</ele>
        <time>2023-05-12T14:35:52.485Z</time>
      </trkpt>
      <trkpt lat="50.55087" lon="3.50569">
        <ele>38.98</ele>
        <time>2023-05-12T14:36:05.067Z</time>
      </trkpt>
      <trkpt lat="50.55091" lon="3.50556">
        <ele>38.8</ele>
        <time>2023-05-12T14:36:17.650Z</time>
      </trkpt>
      <trkpt lat="50.55104" lon="3.50527">
        <ele>38.53</ele>
        <time>2023-05-12T14:36:30.237Z</time>
      </trkpt>
      <trkpt lat="50.5514" lon="3.50454">
        <ele>38.37</ele>
        <time>2023-05-12T14:36:42.833Z</time>
      </trkpt>
      <trkpt lat="50.55149" lon="3.50426">
        <ele>37.98</ele>
        <time>2023-05-12T14:36:55.432Z</time>
      </trkpt>
      <trkpt lat="50.55158" lon="3.50395">
        <ele>37.46</ele>
        <time>2023-05-12T14:37:08.035Z</time>
      </trkpt>
      <trkpt lat="50.55201" lon="3.50228">
        <ele>34.72</ele>
        <time>2023-05-12T14:37:20.656Z</time>
      </trkpt>
      <trkpt lat="50.55201" lon="3.50228">
        <ele>34.72</ele>
        <time>2023-05-12T14:37:33.277Z</time>
      </trkpt>
      <trkpt lat="50.55201" lon="3.50228">
        <ele>34.72</ele>
        <time>2023-05-12T14:37:45.898Z</time>
      </trkpt>
      <trkpt lat="50.55201" lon="3.50228">
        <ele>34.72</ele>
        <time>2023-05-12T14:37:58.519Z</time>
      </trkpt>
      <trkpt lat="50.55201" lon="3.50228">
        <ele>34.72</ele>
        <time>2023-05-12T14:38:11.140Z</time>
      </trkpt>
      <trkpt lat="50.55201" lon="3.50227">
        <ele>34.72</ele>
        <time>2023-05-12T14:38:23.761Z</time>
      </trkpt>
      <trkpt lat="50.55204" lon="3.50216">
        <ele>34.53</ele>
        <time>2023-05-12T14:38:36.383Z</time>
      </trkpt>
      <trkpt lat="50.55204" lon="3.50216">
        <ele>34.53</ele>
        <time>2023-05-12T14:38:49.005Z</time>
      </trkpt>
      <trkpt lat="50.55204" lon="3.50216">
        <ele>34.53</ele>
        <time>2023-05-12T14:39:01.627Z</time>
      </trkpt>
      <trkpt lat="50.55204" lon="3.50216">
        <ele>34.53</ele>
        <time>2023-05-12T14:39:14.249Z</time>
      </trkpt>
      <trkpt lat="50.55206" lon="3.5021">
        <ele>34.42</ele>
        <time>2023-05-12T14:39:26.872Z</time>
      </trkpt>
      <trkpt lat="50.55223" lon="3.50144">
        <ele>33.89</ele>
        <time>2023-05-12T14:39:39.502Z</time>
      </trkpt>
      <trkpt lat="50.55238" lon="3.5008">
        <ele>33.55</ele>
        <time>2023-05-12T14:39:52.139Z</time>
      </trkpt>
      <trkpt lat="50.5524" lon="3.50064">
        <ele>33.31</ele>
        <time>2023-05-12T14:40:04.778Z</time>
      </trkpt>
      <trkpt lat="50.55243" lon="3.50063">
        <ele>33.14</ele>
        <time>2023-05-12T14:40:17.418Z</time>
      </trkpt>
      <trkpt lat="50.55246" lon="3.50057">
        <ele>33.03</ele>
        <time>2023-05-12T14:40:30.058Z</time>
      </trkpt>
      <trkpt lat="50.55247" lon="3.50048">
        <ele>32.92</ele>
        <time>2023-05-12T14:40:42.699Z</time>
      </trkpt>
      <trkpt lat="50.55246" lon="3.50043">
        <ele>32.91</ele>
        <time>2023-05-12T14:40:55.341Z</time>
      </trkpt>
      <trkpt lat="50.55245" lon="3.5004">
        <ele>32.98</ele>
        <time>2023-05-12T14:41:07.983Z</time>
      </trkpt>
      <trkpt lat="50.5524" lon="3.50037">
        <ele>33.16</ele>
        <time>2023-05-12T14:41:20.626Z</time>
      </trkpt>
      <trkpt lat="50.55232" lon="3.50041">
        <ele>33.52</ele>
        <time>2023-05-12T14:41:33.270Z</time>
      </trkpt>
      <trkpt lat="50.55231" lon="3.50045">
        <ele>34.03</ele>
        <time>2023-05-12T14:41:45.915Z</time>
      </trkpt>
      <trkpt lat="50.55208" lon="3.50036">
        <ele>34.71</ele>
        <time>2023-05-12T14:41:58.564Z</time>
      </trkpt>
      <trkpt lat="50.55185" lon="3.50035">
        <ele>35.61</ele>
        <time>2023-05-12T14:42:11.216Z</time>
      </trkpt>
      <trkpt lat="50.55166" lon="3.50026">
        <ele>36.71</ele>
        <time>2023-05-12T14:42:23.872Z</time>
      </trkpt>
      <trkpt lat="50.55119" lon="3.49992">
        <ele>38.23</ele>
        <time>2023-05-12T14:42:36.536Z</time>
      </trkpt>
      <trkpt lat="50.55092" lon="3.49976">
        <ele>39.4</ele>
        <time>2023-05-12T14:42:49.204Z</time>
      </trkpt>
      <trkpt lat="50.55057" lon="3.49946">
        <ele>40.57</ele>
        <time>2023-05-12T14:43:01.879Z</time>
      </trkpt>
      <trkpt lat="50.5501" lon="3.49909">
        <ele>41.38</ele>
        <time>2023-05-12T14:43:14.562Z</time>
      </trkpt>
      <trkpt lat="50.54991" lon="3.49891">
        <ele>41.54</ele>
        <time>2023-05-12T14:43:27.249Z</time>
      </trkpt>
      <trkpt lat="50.54952" lon="3.49835">
        <ele>41.14</ele>
        <time>2023-05-12T14:43:39.944Z</time>
      </trkpt>
      <trkpt lat="50.54888" lon="3.49749">
        <ele>40.37</ele>
        <time>2023-05-12T14:43:52.653Z</time>
      </trkpt>
      <trkpt lat="50.54879" lon="3.4974">
        <ele>39.07</ele>
        <time>2023-05-12T14:44:05.363Z</time>
      </trkpt>
      <trkpt lat="50.54879" lon="3.4974">
        <ele>39.04</ele>
        <time>2023-05-12T14:44:18.073Z</time>
      </trkpt>
      <trkpt lat="50.54879" lon="3.49739">
        <ele>39</ele>
        <time>2023-05-12T14:44:30.783Z</time>
      </trkpt>
      <trkpt lat="50.54879" lon="3.49739">
        <ele>38.95</ele>
        <time>2023-05-12T14:44:43.494Z</time>
      </trkpt>
      <trkpt lat="50.54879" lon="3.49739">
        <ele>38.95</ele>
        <time>2023-05-12T14:44:56.205Z</time>
      </trkpt>
      <trkpt lat="50.54879" lon="3.49739">
        <ele>38.95</ele>
        <time>2023-05-12T14:45:08.916Z</time>
      </trkpt>
      <trkpt lat="50.54872" lon="3.49732">
        <ele>37.98</ele>
        <time>2023-05-12T14:45:21.628Z</time>
      </trkpt>
      <trkpt lat="50.54872" lon="3.49732">
        <ele>37.95</ele>
        <time>2023-05-12T14:45:34.340Z</time>
      </trkpt>
      <trkpt lat="50.54872" lon="3.49731">
        <ele>37.92</ele>
        <time>2023-05-12T14:45:47.052Z</time>
      </trkpt>
      <trkpt lat="50.54871" lon="3.49731">
        <ele>37.88</ele>
        <time>2023-05-12T14:45:59.764Z</time>
      </trkpt>
      <trkpt lat="50.54867" lon="3.49727">
        <ele>37.29</ele>
        <time>2023-05-12T14:46:12.477Z</time>
      </trkpt>
      <trkpt lat="50.54806" lon="3.49659">
        <ele>36.34</ele>
        <time>2023-05-12T14:46:25.202Z</time>
      </trkpt>
      <trkpt lat="50.54806" lon="3.49659">
        <ele>35.96</ele>
        <time>2023-05-12T14:46:37.927Z</time>
      </trkpt>
      <trkpt lat="50.5478" lon="3.49632">
        <ele>35.95</ele>
        <time>2023-05-12T14:46:50.657Z</time>
      </trkpt>
      <trkpt lat="50.54746" lon="3.4961">
        <ele>36.09</ele>
        <time>2023-05-12T14:47:03.393Z</time>
      </trkpt>
      <trkpt lat="50.54724" lon="3.49595">
        <ele>36.02</ele>
        <time>2023-05-12T14:47:16.133Z</time>
      </trkpt>
      <trkpt lat="50.54711" lon="3.49587">
        <ele>35.95</ele>
        <time>2023-05-12T14:47:28.875Z</time>
      </trkpt>
      <trkpt lat="50.547" lon="3.49583">
        <ele>35.87</ele>
        <time>2023-05-12T14:47:41.618Z</time>
      </trkpt>
      <trkpt lat="50.54682" lon="3.49581">
        <ele>35.86</ele>
        <time>2023-05-12T14:47:54.364Z</time>
      </trkpt>
      <trkpt lat="50.54656" lon="3.49585">
        <ele>35.85</ele>
        <time>2023-05-12T14:48:07.115Z</time>
      </trkpt>
      <trkpt lat="50.54648" lon="3.49595">
        <ele>35.75</ele>
        <time>2023-05-12T14:48:19.867Z</time>
      </trkpt>
      <trkpt lat="50.54606" lon="3.49568">
        <ele>35.39</ele>
        <time>2023-05-12T14:48:32.627Z</time>
      </trkpt>
      <trkpt lat="50.54596" lon="3.49565">
        <ele>35.23</ele>
        <time>2023-05-12T14:48:45.388Z</time>
      </trkpt>
      <trkpt lat="50.54584" lon="3.49565">
        <ele>35.15</ele>
        <time>2023-05-12T14:48:58.151Z</time>
      </trkpt>
      <trkpt lat="50.54581" lon="3.49558">
        <ele>35.2</ele>
        <time>2023-05-12T14:49:10.915Z</time>
      </trkpt>
      <trkpt lat="50.54575" lon="3.4955">
        <ele>35.38</ele>
        <time>2023-05-12T14:49:23.680Z</time>
      </trkpt>
      <trkpt lat="50.54557" lon="3.49524">
        <ele>35.73</ele>
        <time>2023-05-12T14:49:36.449Z</time>
      </trkpt>
      <trkpt lat="50.5455" lon="3.49514">
        <ele>36.14</ele>
        <time>2023-05-12T14:49:49.220Z</time>
      </trkpt>
      <trkpt lat="50.54543" lon="3.49499">
        <ele>36.53</ele>
        <time>2023-05-12T14:50:01.992Z</time>
      </trkpt>
      <trkpt lat="50.5454" lon="3.49483">
        <ele>36.74</ele>
        <time>2023-05-12T14:50:14.766Z</time>
      </trkpt>
      <trkpt lat="50.54539" lon="3.49468">
        <ele>36.85</ele>
        <time>2023-05-12T14:50:27.542Z</time>
      </trkpt>
      <trkpt lat="50.54543" lon="3.49447">
        <ele>36.7</ele>
        <time>2023-05-12T14:50:40.320Z</time>
      </trkpt>
      <trkpt lat="50.54548" lon="3.49433">
        <ele>36.17</ele>
        <time>2023-05-12T14:50:53.100Z</time>
      </trkpt>
      <trkpt lat="50.54593" lon="3.4929">
        <ele>33.65</ele>
        <time>2023-05-12T14:51:05.896Z</time>
      </trkpt>
      <trkpt lat="50.54594" lon="3.4929">
        <ele>33.65</ele>
        <time>2023-05-12T14:51:18.692Z</time>
      </trkpt>
      <trkpt lat="50.54594" lon="3.4929">
        <ele>33.65</ele>
        <time>2023-05-12T14:51:31.488Z</time>
      </trkpt>
      <trkpt lat="50.54594" lon="3.49289">
        <ele>33.64</ele>
        <time>2023-05-12T14:51:44.284Z</time>
      </trkpt>
      <trkpt lat="50.54594" lon="3.49289">
        <ele>33.64</ele>
        <time>2023-05-12T14:51:57.080Z</time>
      </trkpt>
      <trkpt lat="50.54594" lon="3.49289">
        <ele>33.64</ele>
        <time>2023-05-12T14:52:09.876Z</time>
      </trkpt>
      <trkpt lat="50.54597" lon="3.49278">
        <ele>33.44</ele>
        <time>2023-05-12T14:52:22.673Z</time>
      </trkpt>
      <trkpt lat="50.54597" lon="3.49278">
        <ele>33.44</ele>
        <time>2023-05-12T14:52:35.470Z</time>
      </trkpt>
      <trkpt lat="50.54597" lon="3.49278">
        <ele>33.44</ele>
        <time>2023-05-12T14:52:48.267Z</time>
      </trkpt>
      <trkpt lat="50.54597" lon="3.49278">
        <ele>33.44</ele>
        <time>2023-05-12T14:53:01.064Z</time>
      </trkpt>
      <trkpt lat="50.54599" lon="3.49272">
        <ele>33.32</ele>
        <time>2023-05-12T14:53:13.862Z</time>
      </trkpt>
      <trkpt lat="50.54616" lon="3.49218">
        <ele>33.23</ele>
        <time>2023-05-12T14:53:26.666Z</time>
      </trkpt>
      <trkpt lat="50.54635" lon="3.49172">
        <ele>33.07</ele>
        <time>2023-05-12T14:53:39.476Z</time>
      </trkpt>
      <trkpt lat="50.54645" lon="3.49112">
        <ele>32.78</ele>
        <time>2023-05-12T14:53:52.292Z</time>
      </trkpt>
      <trkpt lat="50.54677" lon="3.48985">
        <ele>32.59</ele>
        <time>2023-05-12T14:54:05.122Z</time>
      </trkpt>
      <trkpt lat="50.5471" lon="3.4886">
        <ele>32</ele>
        <time>2023-05-12T14:54:17.966Z</time>
      </trkpt>
      <trkpt lat="50.54729" lon="3.48719">
        <ele>31.22</ele>
        <time>2023-05-12T14:54:30.824Z</time>
      </trkpt>
      <trkpt lat="50.54733" lon="3.48698">
        <ele>30.67</ele>
        <time>2023-05-12T14:54:43.685Z</time>
      </trkpt>
      <trkpt lat="50.54744" lon="3.48679">
        <ele>30.08</ele>
        <time>2023-05-12T14:54:56.548Z</time>
      </trkpt>
      <trkpt lat="50.54771" lon="3.48643">
        <ele>29.48</ele>
        <time>2023-05-12T14:55:09.417Z</time>
      </trkpt>
      <trkpt lat="50.54798" lon="3.48614">
        <ele>29.16</ele>
        <time>2023-05-12T14:55:22.291Z</time>
      </trkpt>
      <trkpt lat="50.54886" lon="3.48423">
        <ele>28.63</ele>
        <time>2023-05-12T14:55:35.189Z</time>
      </trkpt>
      <trkpt lat="50.54938" lon="3.48314">
        <ele>28.39</ele>
        <time>2023-05-12T14:55:48.101Z</time>
      </trkpt>
      <trkpt lat="50.54948" lon="3.48294">
        <ele>28.12</ele>
        <time>2023-05-12T14:56:01.016Z</time>
      </trkpt>
      <trkpt lat="50.5498" lon="3.48244">
        <ele>27.96</ele>
        <time>2023-05-12T14:56:13.938Z</time>
      </trkpt>
      <trkpt lat="50.55018" lon="3.48198">
        <ele>27.63</ele>
        <time>2023-05-12T14:56:26.868Z</time>
      </trkpt>
      <trkpt lat="50.55038" lon="3.48178">
        <ele>27.43</ele>
        <time>2023-05-12T14:56:39.801Z</time>
      </trkpt>
      <trkpt lat="50.5518" lon="3.48053">
        <ele>27.28</ele>
        <time>2023-05-12T14:56:52.760Z</time>
      </trkpt>
      <trkpt lat="50.55188" lon="3.48047">
        <ele>27.13</ele>
        <time>2023-05-12T14:57:05.721Z</time>
      </trkpt>
      <trkpt lat="50.55201" lon="3.48027">
        <ele>27.01</ele>
        <time>2023-05-12T14:57:18.685Z</time>
      </trkpt>
      <trkpt lat="50.5521" lon="3.48008">
        <ele>27.08</ele>
        <time>2023-05-12T14:57:31.651Z</time>
      </trkpt>
      <trkpt lat="50.55205" lon="3.47937">
        <ele>27.15</ele>
        <time>2023-05-12T14:57:44.624Z</time>
      </trkpt>
      <trkpt lat="50.55207" lon="3.47918">
        <ele>27.17</ele>
        <time>2023-05-12T14:57:57.599Z</time>
      </trkpt>
      <trkpt lat="50.55212" lon="3.47892">
        <ele>27.47</ele>
        <time>2023-05-12T14:58:10.577Z</time>
      </trkpt>
      <trkpt lat="50.55231" lon="3.4781">
        <ele>27.6</ele>
        <time>2023-05-12T14:58:23.564Z</time>
      </trkpt>
      <trkpt lat="50.55234" lon="3.47796">
        <ele>28.12</ele>
        <time>2023-05-12T14:58:36.553Z</time>
      </trkpt>
      <trkpt lat="50.55234" lon="3.47795">
        <ele>28.14</ele>
        <time>2023-05-12T14:58:49.542Z</time>
      </trkpt>
      <trkpt lat="50.55234" lon="3.47795">
        <ele>28.16</ele>
        <time>2023-05-12T14:59:02.531Z</time>
      </trkpt>
      <trkpt lat="50.55234" lon="3.47794">
        <ele>28.19</ele>
        <time>2023-05-12T14:59:15.520Z</time>
      </trkpt>
      <trkpt lat="50.55234" lon="3.47794">
        <ele>28.2</ele>
        <time>2023-05-12T14:59:28.509Z</time>
      </trkpt>
      <trkpt lat="50.55234" lon="3.47794">
        <ele>28.21</ele>
        <time>2023-05-12T14:59:41.498Z</time>
      </trkpt>
      <trkpt lat="50.55236" lon="3.47782">
        <ele>28.69</ele>
        <time>2023-05-12T14:59:54.488Z</time>
      </trkpt>
      <trkpt lat="50.55236" lon="3.47782">
        <ele>28.71</ele>
        <time>2023-05-12T15:00:07.478Z</time>
      </trkpt>
      <trkpt lat="50.55236" lon="3.47782">
        <ele>29.58</ele>
        <time>2023-05-12T15:00:20.468Z</time>
      </trkpt>
      <trkpt lat="50.55242" lon="3.47753">
        <ele>30.88</ele>
        <time>2023-05-12T15:00:33.461Z</time>
      </trkpt>
      <trkpt lat="50.55304" lon="3.47635">
        <ele>33.66</ele>
        <time>2023-05-12T15:00:46.470Z</time>
      </trkpt>
      <trkpt lat="50.55336" lon="3.47594">
        <ele>35.64</ele>
        <time>2023-05-12T15:00:59.485Z</time>
      </trkpt>
      <trkpt lat="50.55428" lon="3.47519">
        <ele>36.77</ele>
        <time>2023-05-12T15:01:12.517Z</time>
      </trkpt>
      <trkpt lat="50.55454" lon="3.47487">
        <ele>37.44</ele>
        <time>2023-05-12T15:01:25.554Z</time>
      </trkpt>
      <trkpt lat="50.55475" lon="3.47439">
        <ele>37.49</ele>
        <time>2023-05-12T15:01:38.597Z</time>
      </trkpt>
      <trkpt lat="50.55524" lon="3.47241">
        <ele>37.42</ele>
        <time>2023-05-12T15:01:51.662Z</time>
      </trkpt>
      <trkpt lat="50.55524" lon="3.47241">
        <ele>37.42</ele>
        <time>2023-05-12T15:02:04.727Z</time>
      </trkpt>
      <trkpt lat="50.55524" lon="3.47241">
        <ele>37.42</ele>
        <time>2023-05-12T15:02:17.792Z</time>
      </trkpt>
      <trkpt lat="50.55524" lon="3.47241">
        <ele>37.42</ele>
        <time>2023-05-12T15:02:30.857Z</time>
      </trkpt>
      <trkpt lat="50.55524" lon="3.47241">
        <ele>37.42</ele>
        <time>2023-05-12T15:02:43.922Z</time>
      </trkpt>
      <trkpt lat="50.55524" lon="3.47241">
        <ele>37.42</ele>
        <time>2023-05-12T15:02:56.987Z</time>
      </trkpt>
      <trkpt lat="50.55526" lon="3.47231">
        <ele>37.42</ele>
        <time>2023-05-12T15:03:10.053Z</time>
      </trkpt>
      <trkpt lat="50.55526" lon="3.4723">
        <ele>37.34</ele>
        <time>2023-05-12T15:03:23.119Z</time>
      </trkpt>
      <trkpt lat="50.55526" lon="3.4723">
        <ele>37.32</ele>
        <time>2023-05-12T15:03:36.185Z</time>
      </trkpt>
      <trkpt lat="50.55541" lon="3.47116">
        <ele>29.43</ele>
        <time>2023-05-12T15:03:49.263Z</time>
      </trkpt>
      <trkpt lat="50.55553" lon="3.46969">
        <ele>27.41</ele>
        <time>2023-05-12T15:04:02.356Z</time>
      </trkpt>
      <trkpt lat="50.55558" lon="3.46948">
        <ele>26.33</ele>
        <time>2023-05-12T15:04:15.451Z</time>
      </trkpt>
      <trkpt lat="50.55575" lon="3.46894">
        <ele>25.6</ele>
        <time>2023-05-12T15:04:28.552Z</time>
      </trkpt>
      <trkpt lat="50.55583" lon="3.46868">
        <ele>25.19</ele>
        <time>2023-05-12T15:04:41.657Z</time>
      </trkpt>
      <trkpt lat="50.55481" lon="3.46779">
        <ele>25.1</ele>
        <time>2023-05-12T15:04:54.780Z</time>
      </trkpt>
      <trkpt lat="50.55482" lon="3.4673">
        <ele>25.14</ele>
        <time>2023-05-12T15:05:07.908Z</time>
      </trkpt>
      <trkpt lat="50.5548" lon="3.46677">
        <ele>25.55</ele>
        <time>2023-05-12T15:05:21.042Z</time>
      </trkpt>
      <trkpt lat="50.55472" lon="3.46635">
        <ele>26.12</ele>
        <time>2023-05-12T15:05:34.180Z</time>
      </trkpt>
      <trkpt lat="50.55459" lon="3.46583">
        <ele>27.14</ele>
        <time>2023-05-12T15:05:47.324Z</time>
      </trkpt>
      <trkpt lat="50.55451" lon="3.46546">
        <ele>28.22</ele>
        <time>2023-05-12T15:06:00.472Z</time>
      </trkpt>
      <trkpt lat="50.55446" lon="3.46503">
        <ele>29.41</ele>
        <time>2023-05-12T15:06:13.624Z</time>
      </trkpt>
      <trkpt lat="50.55445" lon="3.46463">
        <ele>30.68</ele>
        <time>2023-05-12T15:06:26.780Z</time>
      </trkpt>
      <trkpt lat="50.55447" lon="3.46404">
        <ele>32.3</ele>
        <time>2023-05-12T15:06:39.942Z</time>
      </trkpt>
      <trkpt lat="50.55446" lon="3.46356">
        <ele>33.9</ele>
        <time>2023-05-12T15:06:53.109Z</time>
      </trkpt>
      <trkpt lat="50.55444" lon="3.46314">
        <ele>35.47</ele>
        <time>2023-05-12T15:07:06.281Z</time>
      </trkpt>
      <trkpt lat="50.55434" lon="3.46225">
        <ele>37.18</ele>
        <time>2023-05-12T15:07:19.462Z</time>
      </trkpt>
      <trkpt lat="50.55432" lon="3.46188">
        <ele>38.1</ele>
        <time>2023-05-12T15:07:32.647Z</time>
      </trkpt>
      <trkpt lat="50.55433" lon="3.46164">
        <ele>38.43</ele>
        <time>2023-05-12T15:07:45.834Z</time>
      </trkpt>
      <trkpt lat="50.55433" lon="3.46163">
        <ele>38.44</ele>
        <time>2023-05-12T15:07:59.021Z</time>
      </trkpt>
      <trkpt lat="50.55433" lon="3.46163">
        <ele>38.45</ele>
        <time>2023-05-12T15:08:12.208Z</time>
      </trkpt>
      <trkpt lat="50.55433" lon="3.46162">
        <ele>38.46</ele>
        <time>2023-05-12T15:08:25.395Z</time>
      </trkpt>
      <trkpt lat="50.55433" lon="3.46162">
        <ele>38.47</ele>
        <time>2023-05-12T15:08:38.582Z</time>
      </trkpt>
      <trkpt lat="50.55433" lon="3.46162">
        <ele>38.48</ele>
        <time>2023-05-12T15:08:51.769Z</time>
      </trkpt>
      <trkpt lat="50.55433" lon="3.46161">
        <ele>38.51</ele>
        <time>2023-05-12T15:09:04.956Z</time>
      </trkpt>
      <trkpt lat="50.5543" lon="3.46151">
        <ele>38.81</ele>
        <time>2023-05-12T15:09:18.144Z</time>
      </trkpt>
      <trkpt lat="50.5543" lon="3.4615">
        <ele>38.83</ele>
        <time>2023-05-12T15:09:31.332Z</time>
      </trkpt>
      <trkpt lat="50.5543" lon="3.4615">
        <ele>38.14</ele>
        <time>2023-05-12T15:09:44.520Z</time>
      </trkpt>
      <trkpt lat="50.5543" lon="3.4615">
        <ele>36.45</ele>
        <time>2023-05-12T15:09:57.708Z</time>
      </trkpt>
      <trkpt lat="50.5543" lon="3.46149">
        <ele>35.3</ele>
        <time>2023-05-12T15:10:10.897Z</time>
      </trkpt>
      <trkpt lat="50.55304" lon="3.45989">
        <ele>32.77</ele>
        <time>2023-05-12T15:10:24.112Z</time>
      </trkpt>
      <trkpt lat="50.55361" lon="3.45894">
        <ele>30.31</ele>
        <time>2023-05-12T15:10:37.340Z</time>
      </trkpt>
      <trkpt lat="50.55475" lon="3.4569">
        <ele>28.16</ele>
        <time>2023-05-12T15:10:50.596Z</time>
      </trkpt>
      <trkpt lat="50.55517" lon="3.45624">
        <ele>27.13</ele>
        <time>2023-05-12T15:11:03.861Z</time>
      </trkpt>
      <trkpt lat="50.55513" lon="3.45607">
        <ele>26.42</ele>
        <time>2023-05-12T15:11:17.128Z</time>
      </trkpt>
      <trkpt lat="50.55521" lon="3.45562">
        <ele>25.66</ele>
        <time>2023-05-12T15:11:30.400Z</time>
      </trkpt>
      <trkpt lat="50.55532" lon="3.45525">
        <ele>25.01</ele>
        <time>2023-05-12T15:11:43.676Z</time>
      </trkpt>
      <trkpt lat="50.5554" lon="3.45501">
        <ele>24.36</ele>
        <time>2023-05-12T15:11:56.955Z</time>
      </trkpt>
      <trkpt lat="50.55577" lon="3.45431">
        <ele>23.72</ele>
        <time>2023-05-12T15:12:10.243Z</time>
      </trkpt>
      <trkpt lat="50.55582" lon="3.45413">
        <ele>23.27</ele>
        <time>2023-05-12T15:12:23.533Z</time>
      </trkpt>
      <trkpt lat="50.55569" lon="3.45403">
        <ele>22.81</ele>
        <time>2023-05-12T15:12:36.825Z</time>
      </trkpt>
      <trkpt lat="50.55525" lon="3.45389">
        <ele>22.37</ele>
        <time>2023-05-12T15:12:50.124Z</time>
      </trkpt>
      <trkpt lat="50.55345" lon="3.4533">
        <ele>21.88</ele>
        <time>2023-05-12T15:13:03.453Z</time>
      </trkpt>
      <trkpt lat="50.55305" lon="3.45318">
        <ele>21.52</ele>
        <time>2023-05-12T15:13:16.788Z</time>
      </trkpt>
      <trkpt lat="50.55292" lon="3.4532">
        <ele>21.6</ele>
        <time>2023-05-12T15:13:30.125Z</time>
      </trkpt>
      <trkpt lat="50.55238" lon="3.45339">
        <ele>22.1</ele>
        <time>2023-05-12T15:13:43.471Z</time>
      </trkpt>
      <trkpt lat="50.5519" lon="3.45355">
        <ele>22.43</ele>
        <time>2023-05-12T15:13:56.825Z</time>
      </trkpt>
      <trkpt lat="50.55173" lon="3.45361">
        <ele>22.24</ele>
        <time>2023-05-12T15:14:10.182Z</time>
      </trkpt>
      <trkpt lat="50.55151" lon="3.4537">
        <ele>22</ele>
        <time>2023-05-12T15:14:23.543Z</time>
      </trkpt>
      <trkpt lat="50.5515" lon="3.4537">
        <ele>22</ele>
        <time>2023-05-12T15:14:36.904Z</time>
      </trkpt>
      <trkpt lat="50.5515" lon="3.4537">
        <ele>22</ele>
        <time>2023-05-12T15:14:50.265Z</time>
      </trkpt>
      <trkpt lat="50.5515" lon="3.4537">
        <ele>22</ele>
        <time>2023-05-12T15:15:03.626Z</time>
      </trkpt>
      <trkpt lat="50.5515" lon="3.4537">
        <ele>22</ele>
        <time>2023-05-12T15:15:16.987Z</time>
      </trkpt>
      <trkpt lat="50.5515" lon="3.45371">
        <ele>22</ele>
        <time>2023-05-12T15:15:30.348Z</time>
      </trkpt>
      <trkpt lat="50.55142" lon="3.45373">
        <ele>21.93</ele>
        <time>2023-05-12T15:15:43.710Z</time>
      </trkpt>
      <trkpt lat="50.55142" lon="3.45374">
        <ele>21.93</ele>
        <time>2023-05-12T15:15:57.072Z</time>
      </trkpt>
      <trkpt lat="50.55119" lon="3.45383">
        <ele>22.91</ele>
        <time>2023-05-12T15:16:10.438Z</time>
      </trkpt>
      <trkpt lat="50.55042" lon="3.4541">
        <ele>23.44</ele>
        <time>2023-05-12T15:16:23.816Z</time>
      </trkpt>
      <trkpt lat="50.55032" lon="3.45412">
        <ele>23.64</ele>
        <time>2023-05-12T15:16:37.196Z</time>
      </trkpt>
      <trkpt lat="50.55027" lon="3.45413">
        <ele>23.6</ele>
        <time>2023-05-12T15:16:50.577Z</time>
      </trkpt>
      <trkpt lat="50.55017" lon="3.45412">
        <ele>23.28</ele>
        <time>2023-05-12T15:17:03.960Z</time>
      </trkpt>
      <trkpt lat="50.54997" lon="3.454">
        <ele>22.75</ele>
        <time>2023-05-12T15:17:17.346Z</time>
      </trkpt>
      <trkpt lat="50.5495" lon="3.45346">
        <ele>22.07</ele>
        <time>2023-05-12T15:17:30.741Z</time>
      </trkpt>
      <trkpt lat="50.54927" lon="3.4531">
        <ele>21.32</ele>
        <time>2023-05-12T15:17:44.142Z</time>
      </trkpt>
      <trkpt lat="50.54821" lon="3.45121">
        <ele>20.49</ele>
        <time>2023-05-12T15:17:57.568Z</time>
      </trkpt>
      <trkpt lat="50.54753" lon="3.45003">
        <ele>19.85</ele>
        <time>2023-05-12T15:18:11.010Z</time>
      </trkpt>
      <trkpt lat="50.54753" lon="3.45003">
        <ele>19.85</ele>
        <time>2023-05-12T15:18:24.452Z</time>
      </trkpt>
      <trkpt lat="50.54753" lon="3.45003">
        <ele>19.85</ele>
        <time>2023-05-12T15:18:37.894Z</time>
      </trkpt>
      <trkpt lat="50.54753" lon="3.45003">
        <ele>19.48</ele>
        <time>2023-05-12T15:18:51.336Z</time>
      </trkpt>
      <trkpt lat="50.54753" lon="3.45003">
        <ele>19.46</ele>
        <time>2023-05-12T15:19:04.778Z</time>
      </trkpt>
      <trkpt lat="50.54752" lon="3.45002">
        <ele>19.45</ele>
        <time>2023-05-12T15:19:18.221Z</time>
      </trkpt>
      <trkpt lat="50.54752" lon="3.45002">
        <ele>19.45</ele>
        <time>2023-05-12T15:19:31.664Z</time>
      </trkpt>
      <trkpt lat="50.54752" lon="3.45002">
        <ele>19.45</ele>
        <time>2023-05-12T15:19:45.107Z</time>
      </trkpt>
      <trkpt lat="50.54747" lon="3.44994">
        <ele>19.23</ele>
        <time>2023-05-12T15:19:58.551Z</time>
      </trkpt>
      <trkpt lat="50.54746" lon="3.44993">
        <ele>19.23</ele>
        <time>2023-05-12T15:20:11.995Z</time>
      </trkpt>
      <trkpt lat="50.54728" lon="3.44965">
        <ele>19.02</ele>
        <time>2023-05-12T15:20:25.443Z</time>
      </trkpt>
      <trkpt lat="50.54728" lon="3.44965">
        <ele>19.03</ele>
        <time>2023-05-12T15:20:38.891Z</time>
      </trkpt>
      <trkpt lat="50.54592" lon="3.44759">
        <ele>18.44</ele>
        <time>2023-05-12T15:20:52.369Z</time>
      </trkpt>
      <trkpt lat="50.54535" lon="3.44672">
        <ele>18.21</ele>
        <time>2023-05-12T15:21:05.860Z</time>
      </trkpt>
      <trkpt lat="50.54513" lon="3.44649">
        <ele>18.44</ele>
        <time>2023-05-12T15:21:19.355Z</time>
      </trkpt>
      <trkpt lat="50.54467" lon="3.44602">
        <ele>19.17</ele>
        <time>2023-05-12T15:21:32.859Z</time>
      </trkpt>
      <trkpt lat="50.54445" lon="3.44587">
        <ele>19.6</ele>
        <time>2023-05-12T15:21:46.367Z</time>
      </trkpt>
      <trkpt lat="50.54422" lon="3.4458">
        <ele>19.66</ele>
        <time>2023-05-12T15:21:59.879Z</time>
      </trkpt>
      <trkpt lat="50.54403" lon="3.4458">
        <ele>19.62</ele>
        <time>2023-05-12T15:22:13.394Z</time>
      </trkpt>
      <trkpt lat="50.54389" lon="3.44586">
        <ele>19.53</ele>
        <time>2023-05-12T15:22:26.911Z</time>
      </trkpt>
      <trkpt lat="50.5438" lon="3.44595">
        <ele>19.45</ele>
        <time>2023-05-12T15:22:40.430Z</time>
      </trkpt>
      <trkpt lat="50.54332" lon="3.44657">
        <ele>19.28</ele>
        <time>2023-05-12T15:22:53.959Z</time>
      </trkpt>
      <trkpt lat="50.54288" lon="3.44721">
        <ele>18.95</ele>
        <time>2023-05-12T15:23:07.497Z</time>
      </trkpt>
      <trkpt lat="50.54262" lon="3.4474">
        <ele>18.5</ele>
        <time>2023-05-12T15:23:21.040Z</time>
      </trkpt>
      <trkpt lat="50.54248" lon="3.44741">
        <ele>18.01</ele>
        <time>2023-05-12T15:23:34.585Z</time>
      </trkpt>
      <trkpt lat="50.54222" lon="3.44731">
        <ele>17.47</ele>
        <time>2023-05-12T15:23:48.134Z</time>
      </trkpt>
      <trkpt lat="50.54222" lon="3.44731">
        <ele>17.14</ele>
        <time>2023-05-12T15:24:01.683Z</time>
      </trkpt>
      <trkpt lat="50.54138" lon="3.44698">
        <ele>16.8</ele>
        <time>2023-05-12T15:24:15.246Z</time>
      </trkpt>
      <trkpt lat="50.54138" lon="3.44698">
        <ele>16.54</ele>
        <time>2023-05-12T15:24:28.809Z</time>
      </trkpt>
      <trkpt lat="50.54123" lon="3.44692">
        <ele>16.43</ele>
        <time>2023-05-12T15:24:42.375Z</time>
      </trkpt>
      <trkpt lat="50.54132" lon="3.44645">
        <ele>16</ele>
        <time>2023-05-12T15:24:55.946Z</time>
      </trkpt>
      <trkpt lat="50.54166" lon="3.44422">
        <ele>15.38</ele>
        <time>2023-05-12T15:25:09.540Z</time>
      </trkpt>
      <trkpt lat="50.54178" lon="3.44365">
        <ele>14.97</ele>
        <time>2023-05-12T15:25:23.140Z</time>
      </trkpt>
      <trkpt lat="50.54193" lon="3.443">
        <ele>14.7</ele>
        <time>2023-05-12T15:25:36.747Z</time>
      </trkpt>
      <trkpt lat="50.54178" lon="3.44295">
        <ele>14.62</ele>
        <time>2023-05-12T15:25:50.357Z</time>
      </trkpt>
      <trkpt lat="50.54203" lon="3.44127">
        <ele>13.91</ele>
        <time>2023-05-12T15:26:03.984Z</time>
      </trkpt>
      <trkpt lat="50.54203" lon="3.44127">
        <ele>13.91</ele>
        <time>2023-05-12T15:26:17.611Z</time>
      </trkpt>
      <trkpt lat="50.54203" lon="3.44127">
        <ele>13.91</ele>
        <time>2023-05-12T15:26:31.238Z</time>
      </trkpt>
      <trkpt lat="50.54204" lon="3.44126">
        <ele>13.91</ele>
        <time>2023-05-12T15:26:44.865Z</time>
      </trkpt>
      <trkpt lat="50.54204" lon="3.44126">
        <ele>13.91</ele>
        <time>2023-05-12T15:26:58.492Z</time>
      </trkpt>
      <trkpt lat="50.54204" lon="3.44126">
        <ele>13.91</ele>
        <time>2023-05-12T15:27:12.119Z</time>
      </trkpt>
      <trkpt lat="50.54205" lon="3.44114">
        <ele>13.86</ele>
        <time>2023-05-12T15:27:25.748Z</time>
      </trkpt>
      <trkpt lat="50.54205" lon="3.44114">
        <ele>13.86</ele>
        <time>2023-05-12T15:27:39.377Z</time>
      </trkpt>
      <trkpt lat="50.54205" lon="3.44114">
        <ele>14.68</ele>
        <time>2023-05-12T15:27:53.006Z</time>
      </trkpt>
      <trkpt lat="50.54205" lon="3.44114">
        <ele>14.78</ele>
        <time>2023-05-12T15:28:06.635Z</time>
      </trkpt>
      <trkpt lat="50.54225" lon="3.43988">
        <ele>16.94</ele>
        <time>2023-05-12T15:28:20.277Z</time>
      </trkpt>
      <trkpt lat="50.54225" lon="3.43988">
        <ele>17.28</ele>
        <time>2023-05-12T15:28:33.919Z</time>
      </trkpt>
      <trkpt lat="50.54286" lon="3.43627">
        <ele>16.26</ele>
        <time>2023-05-12T15:28:47.599Z</time>
      </trkpt>
      <trkpt lat="50.54304" lon="3.43511">
        <ele>16.24</ele>
        <time>2023-05-12T15:29:01.291Z</time>
      </trkpt>
      <trkpt lat="50.54304" lon="3.43511">
        <ele>16.14</ele>
        <time>2023-05-12T15:29:14.983Z</time>
      </trkpt>
      <trkpt lat="50.54376" lon="3.43061">
        <ele>16.15</ele>
        <time>2023-05-12T15:29:28.723Z</time>
      </trkpt>
      <trkpt lat="50.54381" lon="3.43059">
        <ele>16.24</ele>
        <time>2023-05-12T15:29:42.464Z</time>
      </trkpt>
      <trkpt lat="50.54384" lon="3.43056">
        <ele>16.49</ele>
        <time>2023-05-12T15:29:56.205Z</time>
      </trkpt>
      <trkpt lat="50.54386" lon="3.4305">
        <ele>16.86</ele>
        <time>2023-05-12T15:30:09.947Z</time>
      </trkpt>
      <trkpt lat="50.54384" lon="3.43042">
        <ele>17.39</ele>
        <time>2023-05-12T15:30:23.690Z</time>
      </trkpt>
      <trkpt lat="50.54379" lon="3.43038">
        <ele>18.1</ele>
        <time>2023-05-12T15:30:37.433Z</time>
      </trkpt>
      <trkpt lat="50.54414" lon="3.42831">
        <ele>19.67</ele>
        <time>2023-05-12T15:30:51.198Z</time>
      </trkpt>
      <trkpt lat="50.5442" lon="3.42792">
        <ele>20.52</ele>
        <time>2023-05-12T15:31:04.967Z</time>
      </trkpt>
      <trkpt lat="50.54439" lon="3.42734">
        <ele>21.28</ele>
        <time>2023-05-12T15:31:18.743Z</time>
      </trkpt>
      <trkpt lat="50.54416" lon="3.42728">
        <ele>21.7</ele>
        <time>2023-05-12T15:31:32.523Z</time>
      </trkpt>
      <trkpt lat="50.54325" lon="3.427">
        <ele>22.02</ele>
        <time>2023-05-12T15:31:46.318Z</time>
      </trkpt>
      <trkpt lat="50.54325" lon="3.427">
        <ele>22.1</ele>
        <time>2023-05-12T15:32:00.113Z</time>
      </trkpt>
      <trkpt lat="50.54239" lon="3.42675">
        <ele>21.89</ele>
        <time>2023-05-12T15:32:13.922Z</time>
      </trkpt>
      <trkpt lat="50.54248" lon="3.42586">
        <ele>21.59</ele>
        <time>2023-05-12T15:32:27.740Z</time>
      </trkpt>
      <trkpt lat="50.54248" lon="3.42573">
        <ele>21.29</ele>
        <time>2023-05-12T15:32:41.559Z</time>
      </trkpt>
      <trkpt lat="50.54235" lon="3.42431">
        <ele>20.82</ele>
        <time>2023-05-12T15:32:55.393Z</time>
      </trkpt>
      <trkpt lat="50.54232" lon="3.42405">
        <ele>20.32</ele>
        <time>2023-05-12T15:33:09.230Z</time>
      </trkpt>
      <trkpt lat="50.54232" lon="3.42405">
        <ele>19.95</ele>
        <time>2023-05-12T15:33:23.067Z</time>
      </trkpt>
      <trkpt lat="50.54211" lon="3.42191">
        <ele>19.38</ele>
        <time>2023-05-12T15:33:36.926Z</time>
      </trkpt>
      <trkpt lat="50.5421" lon="3.42175">
        <ele>19.48</ele>
        <time>2023-05-12T15:33:50.786Z</time>
      </trkpt>
      <trkpt lat="50.54187" lon="3.41949">
        <ele>20.06</ele>
        <time>2023-05-12T15:34:04.670Z</time>
      </trkpt>
      <trkpt lat="50.5418" lon="3.41882">
        <ele>20.23</ele>
        <time>2023-05-12T15:34:18.561Z</time>
      </trkpt>
      <trkpt lat="50.54169" lon="3.4178">
        <ele>20.85</ele>
        <time>2023-05-12T15:34:32.462Z</time>
      </trkpt>
      <trkpt lat="50.54169" lon="3.4178">
        <ele>20.86</ele>
        <time>2023-05-12T15:34:46.363Z</time>
      </trkpt>
      <trkpt lat="50.54169" lon="3.4178">
        <ele>20.87</ele>
        <time>2023-05-12T15:35:00.264Z</time>
      </trkpt>
      <trkpt lat="50.54169" lon="3.41779">
        <ele>20.88</ele>
        <time>2023-05-12T15:35:14.165Z</time>
      </trkpt>
      <trkpt lat="50.54169" lon="3.41779">
        <ele>20.89</ele>
        <time>2023-05-12T15:35:28.066Z</time>
      </trkpt>
      <trkpt lat="50.54169" lon="3.41779">
        <ele>20.9</ele>
        <time>2023-05-12T15:35:41.967Z</time>
      </trkpt>
      <trkpt lat="50.54168" lon="3.41767">
        <ele>20.99</ele>
        <time>2023-05-12T15:35:55.870Z</time>
      </trkpt>
      <trkpt lat="50.54168" lon="3.41767">
        <ele>21</ele>
        <time>2023-05-12T15:36:09.773Z</time>
      </trkpt>
      <trkpt lat="50.54158" lon="3.4168">
        <ele>21.64</ele>
        <time>2023-05-12T15:36:23.685Z</time>
      </trkpt>
      <trkpt lat="50.54152" lon="3.41643">
        <ele>21.8</ele>
        <time>2023-05-12T15:36:37.601Z</time>
      </trkpt>
      <trkpt lat="50.54141" lon="3.41601">
        <ele>21.88</ele>
        <time>2023-05-12T15:36:51.521Z</time>
      </trkpt>
      <trkpt lat="50.54066" lon="3.41387">
        <ele>22.2</ele>
        <time>2023-05-12T15:37:05.466Z</time>
      </trkpt>
      <trkpt lat="50.54054" lon="3.41353">
        <ele>22.42</ele>
        <time>2023-05-12T15:37:19.415Z</time>
      </trkpt>
      <trkpt lat="50.54048" lon="3.41329">
        <ele>22.81</ele>
        <time>2023-05-12T15:37:33.367Z</time>
      </trkpt>
      <trkpt lat="50.54044" lon="3.41311">
        <ele>23.13</ele>
        <time>2023-05-12T15:37:47.321Z</time>
      </trkpt>
      <trkpt lat="50.5403" lon="3.41105">
        <ele>23.72</ele>
        <time>2023-05-12T15:38:01.296Z</time>
      </trkpt>
      <trkpt lat="50.54024" lon="3.41041">
        <ele>24.14</ele>
        <time>2023-05-12T15:38:15.277Z</time>
      </trkpt>
      <trkpt lat="50.54018" lon="3.40995">
        <ele>24.46</ele>
        <time>2023-05-12T15:38:29.263Z</time>
      </trkpt>
      <trkpt lat="50.5397" lon="3.40683">
        <ele>25.3</ele>
        <time>2023-05-12T15:38:43.282Z</time>
      </trkpt>
      <trkpt lat="50.53943" lon="3.40587">
        <ele>25.47</ele>
        <time>2023-05-12T15:38:57.312Z</time>
      </trkpt>
      <trkpt lat="50.53934" lon="3.40545">
        <ele>25.65</ele>
        <time>2023-05-12T15:39:11.346Z</time>
      </trkpt>
      <trkpt lat="50.53913" lon="3.40421">
        <ele>25.71</ele>
        <time>2023-05-12T15:39:25.393Z</time>
      </trkpt>
      <trkpt lat="50.53909" lon="3.40413">
        <ele>25.86</ele>
        <time>2023-05-12T15:39:39.441Z</time>
      </trkpt>
      <trkpt lat="50.53907" lon="3.40407">
        <ele>26.02</ele>
        <time>2023-05-12T15:39:53.490Z</time>
      </trkpt>
      <trkpt lat="50.53916" lon="3.4037">
        <ele>26.36</ele>
        <time>2023-05-12T15:40:07.543Z</time>
      </trkpt>
      <trkpt lat="50.53927" lon="3.40308">
        <ele>26.5</ele>
        <time>2023-05-12T15:40:21.603Z</time>
      </trkpt>
      <trkpt lat="50.53938" lon="3.40241">
        <ele>26.33</ele>
        <time>2023-05-12T15:40:35.670Z</time>
      </trkpt>
      <trkpt lat="50.53952" lon="3.40212">
        <ele>26.17</ele>
        <time>2023-05-12T15:40:49.740Z</time>
      </trkpt>
      <trkpt lat="50.53964" lon="3.40194">
        <ele>25.74</ele>
        <time>2023-05-12T15:41:03.813Z</time>
      </trkpt>
      <trkpt lat="50.54061" lon="3.40057">
        <ele>25.22</ele>
        <time>2023-05-12T15:41:17.907Z</time>
      </trkpt>
      <trkpt lat="50.54093" lon="3.40011">
        <ele>24.65</ele>
        <time>2023-05-12T15:41:32.008Z</time>
      </trkpt>
      <trkpt lat="50.54122" lon="3.39978">
        <ele>24.58</ele>
        <time>2023-05-12T15:41:46.115Z</time>
      </trkpt>
      <trkpt lat="50.54277" lon="3.39927">
        <ele>24.97</ele>
        <time>2023-05-12T15:42:00.247Z</time>
      </trkpt>
      <trkpt lat="50.54321" lon="3.39905">
        <ele>24.77</ele>
        <time>2023-05-12T15:42:14.386Z</time>
      </trkpt>
      <trkpt lat="50.54358" lon="3.39879">
        <ele>24.67</ele>
        <time>2023-05-12T15:42:28.532Z</time>
      </trkpt>
      <trkpt lat="50.54429" lon="3.39823">
        <ele>24.63</ele>
        <time>2023-05-12T15:42:42.691Z</time>
      </trkpt>
      <trkpt lat="50.5443" lon="3.39823">
        <ele>24.63</ele>
        <time>2023-05-12T15:42:56.850Z</time>
      </trkpt>
      <trkpt lat="50.5443" lon="3.39822">
        <ele>24.63</ele>
        <time>2023-05-12T15:43:11.009Z</time>
      </trkpt>
      <trkpt lat="50.5443" lon="3.39822">
        <ele>24.63</ele>
        <time>2023-05-12T15:43:25.168Z</time>
      </trkpt>
      <trkpt lat="50.5443" lon="3.39822">
        <ele>24.63</ele>
        <time>2023-05-12T15:43:39.327Z</time>
      </trkpt>
      <trkpt lat="50.5443" lon="3.39822">
        <ele>24.63</ele>
        <time>2023-05-12T15:43:53.486Z</time>
      </trkpt>
      <trkpt lat="50.54438" lon="3.39817">
        <ele>24.63</ele>
        <time>2023-05-12T15:44:07.646Z</time>
      </trkpt>
      <trkpt lat="50.54438" lon="3.39816">
        <ele>24.63</ele>
        <time>2023-05-12T15:44:21.806Z</time>
      </trkpt>
      <trkpt lat="50.54438" lon="3.39816">
        <ele>24.67</ele>
        <time>2023-05-12T15:44:35.966Z</time>
      </trkpt>
      <trkpt lat="50.54501" lon="3.39767">
        <ele>25.92</ele>
        <time>2023-05-12T15:44:50.137Z</time>
      </trkpt>
      <trkpt lat="50.54501" lon="3.39767">
        <ele>26.33</ele>
        <time>2023-05-12T15:45:04.308Z</time>
      </trkpt>
      <trkpt lat="50.54556" lon="3.39723">
        <ele>27.03</ele>
        <time>2023-05-12T15:45:18.489Z</time>
      </trkpt>
      <trkpt lat="50.54585" lon="3.39696">
        <ele>27.69</ele>
        <time>2023-05-12T15:45:32.676Z</time>
      </trkpt>
      <trkpt lat="50.54611" lon="3.39661">
        <ele>28.24</ele>
        <time>2023-05-12T15:45:46.868Z</time>
      </trkpt>
      <trkpt lat="50.54629" lon="3.3963">
        <ele>28.58</ele>
        <time>2023-05-12T15:46:01.065Z</time>
      </trkpt>
      <trkpt lat="50.54635" lon="3.39618">
        <ele>28.87</ele>
        <time>2023-05-12T15:46:15.263Z</time>
      </trkpt>
      <trkpt lat="50.54649" lon="3.39583">
        <ele>29.03</ele>
        <time>2023-05-12T15:46:29.465Z</time>
      </trkpt>
      <trkpt lat="50.54662" lon="3.39539">
        <ele>29.37</ele>
        <time>2023-05-12T15:46:43.672Z</time>
      </trkpt>
      <trkpt lat="50.54673" lon="3.3948">
        <ele>29.88</ele>
        <time>2023-05-12T15:46:57.886Z</time>
      </trkpt>
      <trkpt lat="50.54681" lon="3.39443">
        <ele>30.24</ele>
        <time>2023-05-12T15:47:12.103Z</time>
      </trkpt>
      <trkpt lat="50.54686" lon="3.39417">
        <ele>30.7</ele>
        <time>2023-05-12T15:47:26.323Z</time>
      </trkpt>
      <trkpt lat="50.54695" lon="3.39387">
        <ele>31.05</ele>
        <time>2023-05-12T15:47:40.547Z</time>
      </trkpt>
      <trkpt lat="50.54711" lon="3.3935">
        <ele>31.41</ele>
        <time>2023-05-12T15:47:54.775Z</time>
      </trkpt>
      <trkpt lat="50.54721" lon="3.39322">
        <ele>31.66</ele>
        <time>2023-05-12T15:48:09.006Z</time>
      </trkpt>
      <trkpt lat="50.54749" lon="3.3921">
        <ele>31.96</ele>
        <time>2023-05-12T15:48:23.250Z</time>
      </trkpt>
      <trkpt lat="50.54755" lon="3.39185">
        <ele>32.03</ele>
        <time>2023-05-12T15:48:37.497Z</time>
      </trkpt>
      <trkpt lat="50.54769" lon="3.39062">
        <ele>32.51</ele>
        <time>2023-05-12T15:48:51.756Z</time>
      </trkpt>
      <trkpt lat="50.54774" lon="3.38926">
        <ele>32.09</ele>
        <time>2023-05-12T15:49:06.029Z</time>
      </trkpt>
      <trkpt lat="50.54777" lon="3.38912">
        <ele>31.96</ele>
        <time>2023-05-12T15:49:20.304Z</time>
      </trkpt>
      <trkpt lat="50.5478" lon="3.38893">
        <ele>31.55</ele>
        <time>2023-05-12T15:49:34.581Z</time>
      </trkpt>
      <trkpt lat="50.54798" lon="3.38741">
        <ele>31.03</ele>
        <time>2023-05-12T15:49:48.873Z</time>
      </trkpt>
      <trkpt lat="50.54798" lon="3.38741">
        <ele>31.03</ele>
        <time>2023-05-12T15:50:03.165Z</time>
      </trkpt>
      <trkpt lat="50.54798" lon="3.38741">
        <ele>31.03</ele>
        <time>2023-05-12T15:50:17.457Z</time>
      </trkpt>
      <trkpt lat="50.54798" lon="3.38741">
        <ele>31.03</ele>
        <time>2023-05-12T15:50:31.749Z</time>
      </trkpt>
      <trkpt lat="50.54798" lon="3.3874">
        <ele>31.03</ele>
        <time>2023-05-12T15:50:46.041Z</time>
      </trkpt>
      <trkpt lat="50.54798" lon="3.3874">
        <ele>31.03</ele>
        <time>2023-05-12T15:51:00.333Z</time>
      </trkpt>
      <trkpt lat="50.54799" lon="3.38728">
        <ele>30.99</ele>
        <time>2023-05-12T15:51:14.627Z</time>
      </trkpt>
      <trkpt lat="50.54799" lon="3.38728">
        <ele>30.99</ele>
        <time>2023-05-12T15:51:28.921Z</time>
      </trkpt>
      <trkpt lat="50.54799" lon="3.38728">
        <ele>29.84</ele>
        <time>2023-05-12T15:51:43.215Z</time>
      </trkpt>
      <trkpt lat="50.54799" lon="3.38728">
        <ele>29.84</ele>
        <time>2023-05-12T15:51:57.509Z</time>
      </trkpt>
      <trkpt lat="50.54799" lon="3.38728">
        <ele>29.84</ele>
        <time>2023-05-12T15:52:11.803Z</time>
      </trkpt>
      <trkpt lat="50.548" lon="3.38721">
        <ele>29.77</ele>
        <time>2023-05-12T15:52:26.098Z</time>
      </trkpt>
      <trkpt lat="50.54808" lon="3.38651">
        <ele>29.71</ele>
        <time>2023-05-12T15:52:40.400Z</time>
      </trkpt>
      <trkpt lat="50.54818" lon="3.38647">
        <ele>29.89</ele>
        <time>2023-05-12T15:52:54.703Z</time>
      </trkpt>
      <trkpt lat="50.54842" lon="3.38644">
        <ele>30.24</ele>
        <time>2023-05-12T15:53:09.010Z</time>
      </trkpt>
      <trkpt lat="50.54892" lon="3.38648">
        <ele>30.52</ele>
        <time>2023-05-12T15:53:23.325Z</time>
      </trkpt>
      <trkpt lat="50.54895" lon="3.38577">
        <ele>30.55</ele>
        <time>2023-05-12T15:53:37.647Z</time>
      </trkpt>
      <trkpt lat="50.549" lon="3.3843">
        <ele>31.08</ele>
        <time>2023-05-12T15:53:51.984Z</time>
      </trkpt>
      <trkpt lat="50.549" lon="3.3843">
        <ele>31.39</ele>
        <time>2023-05-12T15:54:06.321Z</time>
      </trkpt>
      <trkpt lat="50.54902" lon="3.38389">
        <ele>31.72</ele>
        <time>2023-05-12T15:54:20.663Z</time>
      </trkpt>
      <trkpt lat="50.54927" lon="3.38292">
        <ele>32.22</ele>
        <time>2023-05-12T15:54:35.015Z</time>
      </trkpt>
      <trkpt lat="50.54937" lon="3.38218">
        <ele>32.46</ele>
        <time>2023-05-12T15:54:49.375Z</time>
      </trkpt>
      <trkpt lat="50.54946" lon="3.38124">
        <ele>32.68</ele>
        <time>2023-05-12T15:55:03.745Z</time>
      </trkpt>
      <trkpt lat="50.54946" lon="3.38062">
        <ele>32.77</ele>
        <time>2023-05-12T15:55:18.121Z</time>
      </trkpt>
      <trkpt lat="50.54937" lon="3.38009">
        <ele>32.84</ele>
        <time>2023-05-12T15:55:32.503Z</time>
      </trkpt>
      <trkpt lat="50.54911" lon="3.37924">
        <ele>32.71</ele>
        <time>2023-05-12T15:55:46.894Z</time>
      </trkpt>
      <trkpt lat="50.54902" lon="3.37898">
        <ele>32.61</ele>
        <time>2023-05-12T15:56:01.288Z</time>
      </trkpt>
      <trkpt lat="50.54905" lon="3.37881">
        <ele>32.55</ele>
        <time>2023-05-12T15:56:15.684Z</time>
      </trkpt>
      <trkpt lat="50.54921" lon="3.37832">
        <ele>32.55</ele>
        <time>2023-05-12T15:56:30.086Z</time>
      </trkpt>
      <trkpt lat="50.54938" lon="3.37777">
        <ele>32.51</ele>
        <time>2023-05-12T15:56:44.494Z</time>
      </trkpt>
      <trkpt lat="50.5494" lon="3.37761">
        <ele>32.48</ele>
        <time>2023-05-12T15:56:58.904Z</time>
      </trkpt>
      <trkpt lat="50.54935" lon="3.37706">
        <ele>32.45</ele>
        <time>2023-05-12T15:57:13.319Z</time>
      </trkpt>
      <trkpt lat="50.54936" lon="3.3769">
        <ele>32.55</ele>
        <time>2023-05-12T15:57:27.736Z</time>
      </trkpt>
      <trkpt lat="50.54937" lon="3.37675">
        <ele>32.73</ele>
        <time>2023-05-12T15:57:42.155Z</time>
      </trkpt>
      <trkpt lat="50.54943" lon="3.37659">
        <ele>33</ele>
        <time>2023-05-12T15:57:56.575Z</time>
      </trkpt>
      <trkpt lat="50.54951" lon="3.37642">
        <ele>33.42</ele>
        <time>2023-05-12T15:58:10.998Z</time>
      </trkpt>
      <trkpt lat="50.5491" lon="3.37577">
        <ele>33.91</ele>
        <time>2023-05-12T15:58:25.430Z</time>
      </trkpt>
      <trkpt lat="50.54888" lon="3.37551">
        <ele>34.52</ele>
        <time>2023-05-12T15:58:39.866Z</time>
      </trkpt>
      <trkpt lat="50.54875" lon="3.37542">
        <ele>35.02</ele>
        <time>2023-05-12T15:58:54.305Z</time>
      </trkpt>
      <trkpt lat="50.54876" lon="3.37525">
        <ele>35.51</ele>
        <time>2023-05-12T15:59:08.745Z</time>
      </trkpt>
      <trkpt lat="50.54871" lon="3.37486">
        <ele>36</ele>
        <time>2023-05-12T15:59:23.190Z</time>
      </trkpt>
      <trkpt lat="50.54848" lon="3.37386">
        <ele>36.53</ele>
        <time>2023-05-12T15:59:37.645Z</time>
      </trkpt>
      <trkpt lat="50.54821" lon="3.37263">
        <ele>37.02</ele>
        <time>2023-05-12T15:59:52.114Z</time>
      </trkpt>
      <trkpt lat="50.54804" lon="3.37182">
        <ele>37.44</ele>
        <time>2023-05-12T16:00:06.591Z</time>
      </trkpt>
      <trkpt lat="50.54763" lon="3.37012">
        <ele>37.9</ele>
        <time>2023-05-12T16:00:21.087Z</time>
      </trkpt>
      <trkpt lat="50.54756" lon="3.36935">
        <ele>37.73</ele>
        <time>2023-05-12T16:00:35.591Z</time>
      </trkpt>
      <trkpt lat="50.54753" lon="3.36817">
        <ele>37.58</ele>
        <time>2023-05-12T16:00:50.107Z</time>
      </trkpt>
      <trkpt lat="50.54749" lon="3.36748">
        <ele>37.61</ele>
        <time>2023-05-12T16:01:04.630Z</time>
      </trkpt>
      <trkpt lat="50.54734" lon="3.36706">
        <ele>37.59</ele>
        <time>2023-05-12T16:01:19.158Z</time>
      </trkpt>
      <trkpt lat="50.54734" lon="3.36696">
        <ele>37.67</ele>
        <time>2023-05-12T16:01:33.687Z</time>
      </trkpt>
      <trkpt lat="50.54743" lon="3.36657">
        <ele>37.82</ele>
        <time>2023-05-12T16:01:48.220Z</time>
      </trkpt>
      <trkpt lat="50.54791" lon="3.365">
        <ele>38.06</ele>
        <time>2023-05-12T16:02:02.771Z</time>
      </trkpt>
      <trkpt lat="50.54791" lon="3.365">
        <ele>38.21</ele>
        <time>2023-05-12T16:02:17.322Z</time>
      </trkpt>
      <trkpt lat="50.54806" lon="3.36439">
        <ele>38.56</ele>
        <time>2023-05-12T16:02:31.880Z</time>
      </trkpt>
      <trkpt lat="50.54821" lon="3.36349">
        <ele>38.71</ele>
        <time>2023-05-12T16:02:46.447Z</time>
      </trkpt>
      <trkpt lat="50.54824" lon="3.36302">
        <ele>38.72</ele>
        <time>2023-05-12T16:03:01.019Z</time>
      </trkpt>
      <trkpt lat="50.5485" lon="3.36033">
        <ele>39.09</ele>
        <time>2023-05-12T16:03:15.619Z</time>
      </trkpt>
      <trkpt lat="50.54868" lon="3.35956">
        <ele>39.19</ele>
        <time>2023-05-12T16:03:30.227Z</time>
      </trkpt>
      <trkpt lat="50.54878" lon="3.35928">
        <ele>39.37</ele>
        <time>2023-05-12T16:03:44.838Z</time>
      </trkpt>
      <trkpt lat="50.54903" lon="3.35875">
        <ele>39.5</ele>
        <time>2023-05-12T16:03:59.456Z</time>
      </trkpt>
      <trkpt lat="50.54958" lon="3.35792">
        <ele>39.65</ele>
        <time>2023-05-12T16:04:14.086Z</time>
      </trkpt>
      <trkpt lat="50.54958" lon="3.35792">
        <ele>39.66</ele>
        <time>2023-05-12T16:04:28.716Z</time>
      </trkpt>
      <trkpt lat="50.54958" lon="3.35792">
        <ele>39.67</ele>
        <time>2023-05-12T16:04:43.346Z</time>
      </trkpt>
      <trkpt lat="50.54958" lon="3.35791">
        <ele>39.68</ele>
        <time>2023-05-12T16:04:57.976Z</time>
      </trkpt>
      <trkpt lat="50.54958" lon="3.35791">
        <ele>39.69</ele>
        <time>2023-05-12T16:05:12.606Z</time>
      </trkpt>
      <trkpt lat="50.54958" lon="3.35791">
        <ele>39.7</ele>
        <time>2023-05-12T16:05:27.236Z</time>
      </trkpt>
      <trkpt lat="50.54964" lon="3.35783">
        <ele>39.73</ele>
        <time>2023-05-12T16:05:41.868Z</time>
      </trkpt>
      <trkpt lat="50.54964" lon="3.35782">
        <ele>39.74</ele>
        <time>2023-05-12T16:05:56.500Z</time>
      </trkpt>
      <trkpt lat="50.54964" lon="3.35782">
        <ele>39.75</ele>
        <time>2023-05-12T16:06:11.132Z</time>
      </trkpt>
      <trkpt lat="50.54964" lon="3.35782">
        <ele>39.76</ele>
        <time>2023-05-12T16:06:25.764Z</time>
      </trkpt>
      <trkpt lat="50.54968" lon="3.35777">
        <ele>39.78</ele>
        <time>2023-05-12T16:06:40.396Z</time>
      </trkpt>
      <trkpt lat="50.54968" lon="3.35777">
        <ele>42.62</ele>
        <time>2023-05-12T16:06:55.029Z</time>
      </trkpt>
      <trkpt lat="50.55006" lon="3.35719">
        <ele>44.17</ele>
        <time>2023-05-12T16:07:09.670Z</time>
      </trkpt>
      <trkpt lat="50.55019" lon="3.35695">
        <ele>45.69</ele>
        <time>2023-05-12T16:07:24.314Z</time>
      </trkpt>
      <trkpt lat="50.55065" lon="3.35592">
        <ele>48.13</ele>
        <time>2023-05-12T16:07:38.971Z</time>
      </trkpt>
      <trkpt lat="50.55125" lon="3.35461">
        <ele>50.4</ele>
        <time>2023-05-12T16:07:53.645Z</time>
      </trkpt>
      <trkpt lat="50.55145" lon="3.3541">
        <ele>52.94</ele>
        <time>2023-05-12T16:08:08.325Z</time>
      </trkpt>
      <trkpt lat="50.55223" lon="3.35242">
        <ele>55.79</ele>
        <time>2023-05-12T16:08:23.026Z</time>
      </trkpt>
      <trkpt lat="50.55252" lon="3.35166">
        <ele>58.18</ele>
        <time>2023-05-12T16:08:37.736Z</time>
      </trkpt>
      <trkpt lat="50.55257" lon="3.35139">
        <ele>59.65</ele>
        <time>2023-05-12T16:08:52.449Z</time>
      </trkpt>
      <trkpt lat="50.55264" lon="3.3508">
        <ele>60.59</ele>
        <time>2023-05-12T16:09:07.168Z</time>
      </trkpt>
      <trkpt lat="50.55198" lon="3.35085">
        <ele>61.49</ele>
        <time>2023-05-12T16:09:21.898Z</time>
      </trkpt>
      <trkpt lat="50.55186" lon="3.35089">
        <ele>61.77</ele>
        <time>2023-05-12T16:09:36.629Z</time>
      </trkpt>
      <trkpt lat="50.55178" lon="3.35096">
        <ele>61.77</ele>
        <time>2023-05-12T16:09:51.362Z</time>
      </trkpt>
      <trkpt lat="50.55169" lon="3.35106">
        <ele>61.58</ele>
        <time>2023-05-12T16:10:06.097Z</time>
      </trkpt>
      <trkpt lat="50.55145" lon="3.3515">
        <ele>60.98</ele>
        <time>2023-05-12T16:10:20.838Z</time>
      </trkpt>
      <trkpt lat="50.55134" lon="3.35157">
        <ele>60.64</ele>
        <time>2023-05-12T16:10:35.581Z</time>
      </trkpt>
      <trkpt lat="50.55106" lon="3.35154">
        <ele>60.46</ele>
        <time>2023-05-12T16:10:50.328Z</time>
      </trkpt>
      <trkpt lat="50.55086" lon="3.35145">
        <ele>60.37</ele>
        <time>2023-05-12T16:11:05.078Z</time>
      </trkpt>
      <trkpt lat="50.55067" lon="3.35129">
        <ele>60.49</ele>
        <time>2023-05-12T16:11:19.832Z</time>
      </trkpt>
      <trkpt lat="50.55056" lon="3.35124">
        <ele>60.61</ele>
        <time>2023-05-12T16:11:34.588Z</time>
      </trkpt>
      <trkpt lat="50.5495" lon="3.35083">
        <ele>61.04</ele>
        <time>2023-05-12T16:11:49.361Z</time>
      </trkpt>
      <trkpt lat="50.54942" lon="3.3508">
        <ele>61.11</ele>
        <time>2023-05-12T16:12:04.136Z</time>
      </trkpt>
      <trkpt lat="50.54906" lon="3.35081">
        <ele>61.07</ele>
        <time>2023-05-12T16:12:18.916Z</time>
      </trkpt>
      <trkpt lat="50.54906" lon="3.35081">
        <ele>61</ele>
        <time>2023-05-12T16:12:33.696Z</time>
      </trkpt>
      <trkpt lat="50.54861" lon="3.35088">
        <ele>60.84</ele>
        <time>2023-05-12T16:12:48.483Z</time>
      </trkpt>
      <trkpt lat="50.54847" lon="3.35093">
        <ele>60.45</ele>
        <time>2023-05-12T16:13:03.273Z</time>
      </trkpt>
      <trkpt lat="50.54834" lon="3.35089">
        <ele>59.99</ele>
        <time>2023-05-12T16:13:18.065Z</time>
      </trkpt>
      <trkpt lat="50.54807" lon="3.35073">
        <ele>59.26</ele>
        <time>2023-05-12T16:13:32.861Z</time>
      </trkpt>
      <trkpt lat="50.54707" lon="3.35067">
        <ele>58.22</ele>
        <time>2023-05-12T16:13:47.674Z</time>
      </trkpt>
      <trkpt lat="50.54693" lon="3.35064">
        <ele>57.54</ele>
        <time>2023-05-12T16:14:02.489Z</time>
      </trkpt>
      <trkpt lat="50.5467" lon="3.3505">
        <ele>56.71</ele>
        <time>2023-05-12T16:14:17.308Z</time>
      </trkpt>
      <trkpt lat="50.54604" lon="3.34982">
        <ele>55.73</ele>
        <time>2023-05-12T16:14:32.139Z</time>
      </trkpt>
      <trkpt lat="50.5457" lon="3.34969">
        <ele>55.16</ele>
        <time>2023-05-12T16:14:46.976Z</time>
      </trkpt>
      <trkpt lat="50.54552" lon="3.34964">
        <ele>54.67</ele>
        <time>2023-05-12T16:15:01.816Z</time>
      </trkpt>
      <trkpt lat="50.54552" lon="3.34964">
        <ele>54.67</ele>
        <time>2023-05-12T16:15:16.656Z</time>
      </trkpt>
      <trkpt lat="50.54551" lon="3.34964">
        <ele>54.66</ele>
        <time>2023-05-12T16:15:31.496Z</time>
      </trkpt>
      <trkpt lat="50.54551" lon="3.34964">
        <ele>54.65</ele>
        <time>2023-05-12T16:15:46.336Z</time>
      </trkpt>
      <trkpt lat="50.54551" lon="3.34964">
        <ele>54.65</ele>
        <time>2023-05-12T16:16:01.176Z</time>
      </trkpt>
      <trkpt lat="50.54551" lon="3.34964">
        <ele>54.65</ele>
        <time>2023-05-12T16:16:16.016Z</time>
      </trkpt>
      <trkpt lat="50.54548" lon="3.34963">
        <ele>54.58</ele>
        <time>2023-05-12T16:16:30.857Z</time>
      </trkpt>
      <trkpt lat="50.54543" lon="3.34962">
        <ele>53.38</ele>
        <time>2023-05-12T16:16:45.698Z</time>
      </trkpt>
      <trkpt lat="50.54543" lon="3.34962">
        <ele>53.3</ele>
        <time>2023-05-12T16:17:00.539Z</time>
      </trkpt>
      <trkpt lat="50.54542" lon="3.34962">
        <ele>53.21</ele>
        <time>2023-05-12T16:17:15.380Z</time>
      </trkpt>
      <trkpt lat="50.54542" lon="3.34961">
        <ele>53.11</ele>
        <time>2023-05-12T16:17:30.222Z</time>
      </trkpt>
      <trkpt lat="50.54537" lon="3.3496">
        <ele>51.91</ele>
        <time>2023-05-12T16:17:45.064Z</time>
      </trkpt>
      <trkpt lat="50.54497" lon="3.34951">
        <ele>51.25</ele>
        <time>2023-05-12T16:17:59.913Z</time>
      </trkpt>
      <trkpt lat="50.5448" lon="3.3494">
        <ele>50.9</ele>
        <time>2023-05-12T16:18:14.765Z</time>
      </trkpt>
      <trkpt lat="50.54458" lon="3.34893">
        <ele>50.6</ele>
        <time>2023-05-12T16:18:29.623Z</time>
      </trkpt>
      <trkpt lat="50.54439" lon="3.34863">
        <ele>50.75</ele>
        <time>2023-05-12T16:18:44.485Z</time>
      </trkpt>
      <trkpt lat="50.54453" lon="3.34592">
        <ele>52.03</ele>
        <time>2023-05-12T16:18:59.375Z</time>
      </trkpt>
      <trkpt lat="50.54462" lon="3.34552">
        <ele>52.65</ele>
        <time>2023-05-12T16:19:14.269Z</time>
      </trkpt>
      <trkpt lat="50.54468" lon="3.34536">
        <ele>53.47</ele>
        <time>2023-05-12T16:19:29.165Z</time>
      </trkpt>
      <trkpt lat="50.54475" lon="3.34525">
        <ele>54.44</ele>
        <time>2023-05-12T16:19:44.062Z</time>
      </trkpt>
      <trkpt lat="50.54586" lon="3.3438">
        <ele>56.17</ele>
        <time>2023-05-12T16:19:58.983Z</time>
      </trkpt>
      <trkpt lat="50.54592" lon="3.34368">
        <ele>57.26</ele>
        <time>2023-05-12T16:20:13.905Z</time>
      </trkpt>
      <trkpt lat="50.54618" lon="3.3428">
        <ele>58.57</ele>
        <time>2023-05-12T16:20:28.837Z</time>
      </trkpt>
      <trkpt lat="50.54678" lon="3.34035">
        <ele>59.76</ele>
        <time>2023-05-12T16:20:43.796Z</time>
      </trkpt>
      <trkpt lat="50.54665" lon="3.34027">
        <ele>60.3</ele>
        <time>2023-05-12T16:20:58.757Z</time>
      </trkpt>
      <trkpt lat="50.5463" lon="3.34006">
        <ele>60.52</ele>
        <time>2023-05-12T16:21:13.724Z</time>
      </trkpt>
      <trkpt lat="50.54614" lon="3.33996">
        <ele>60.45</ele>
        <time>2023-05-12T16:21:28.694Z</time>
      </trkpt>
    </trkseg>
  </trk>
</gpx>